<?xml version="1.0" encoding="UTF-8" standalone="no" ?>
<gpx xmlns="http://www.topografix.com/GPX/1/1" xmlns:xsi="http://www.w3.org/2001/XMLSchema-instance" xsi:schemaLocation="http://www.topografix.com/GPX/1/1 http://www.topografix.com/GPX/1/1/gpx.xsd" version="1.1" creator="VisuGPX - https://www.visugpx.com">
  <metadata>
    <name>Petite sortie au départ de vaubertrand Pélussin </name>
  </metadata>
  <trk>
    <name><![CDATA[Petite sortie au départ de vaubertrand Pélussin _1]]></name>
    <trkseg>
      <trkpt lat="45.41277" lon="4.62393">
        <ele>1010</ele>
        <time>2021-05-14T12:33:16Z</time>
      </trkpt>
      <trkpt lat="45.41277" lon="4.62396">
        <ele>1010</ele>
        <time>2021-05-14T12:33:17Z</time>
      </trkpt>
      <trkpt lat="45.41277" lon="4.62404">
        <ele>1008</ele>
        <time>2021-05-14T12:33:20Z</time>
      </trkpt>
      <trkpt lat="45.41279" lon="4.6241">
        <ele>1007</ele>
        <time>2021-05-14T12:33:22Z</time>
      </trkpt>
      <trkpt lat="45.4128" lon="4.62416">
        <ele>1007</ele>
        <time>2021-05-14T12:33:24Z</time>
      </trkpt>
      <trkpt lat="45.41282" lon="4.62423">
        <ele>1007</ele>
        <time>2021-05-14T12:33:26Z</time>
      </trkpt>
      <trkpt lat="45.41284" lon="4.6243">
        <ele>1006</ele>
        <time>2021-05-14T12:33:28Z</time>
      </trkpt>
      <trkpt lat="45.41288" lon="4.62436">
        <ele>1005</ele>
        <time>2021-05-14T12:33:30Z</time>
      </trkpt>
      <trkpt lat="45.4129" lon="4.62444">
        <ele>1005</ele>
        <time>2021-05-14T12:33:32Z</time>
      </trkpt>
      <trkpt lat="45.41295" lon="4.6245">
        <ele>1005</ele>
        <time>2021-05-14T12:33:34Z</time>
      </trkpt>
      <trkpt lat="45.41298" lon="4.62455">
        <ele>1005</ele>
        <time>2021-05-14T12:33:36Z</time>
      </trkpt>
      <trkpt lat="45.413" lon="4.62462">
        <ele>1004</ele>
        <time>2021-05-14T12:33:38Z</time>
      </trkpt>
      <trkpt lat="45.41302" lon="4.62469">
        <ele>1003</ele>
        <time>2021-05-14T12:33:40Z</time>
      </trkpt>
      <trkpt lat="45.41305" lon="4.62475">
        <ele>1002</ele>
        <time>2021-05-14T12:33:42Z</time>
      </trkpt>
      <trkpt lat="45.41306" lon="4.62482">
        <ele>1001</ele>
        <time>2021-05-14T12:33:44Z</time>
      </trkpt>
      <trkpt lat="45.41309" lon="4.62491">
        <ele>1001</ele>
        <time>2021-05-14T12:33:46Z</time>
      </trkpt>
      <trkpt lat="45.41312" lon="4.62499">
        <ele>1000</ele>
        <time>2021-05-14T12:33:48Z</time>
      </trkpt>
      <trkpt lat="45.41316" lon="4.62506">
        <ele>1000</ele>
        <time>2021-05-14T12:33:50Z</time>
      </trkpt>
      <trkpt lat="45.4132" lon="4.62513">
        <ele>999</ele>
        <time>2021-05-14T12:33:52Z</time>
      </trkpt>
      <trkpt lat="45.41324" lon="4.6252">
        <ele>999</ele>
        <time>2021-05-14T12:33:53Z</time>
      </trkpt>
      <trkpt lat="45.41328" lon="4.62526">
        <ele>998</ele>
        <time>2021-05-14T12:33:56Z</time>
      </trkpt>
      <trkpt lat="45.41333" lon="4.6253">
        <ele>997</ele>
        <time>2021-05-14T12:33:58Z</time>
      </trkpt>
      <trkpt lat="45.41338" lon="4.62532">
        <ele>997</ele>
        <time>2021-05-14T12:33:59Z</time>
      </trkpt>
      <trkpt lat="45.41343" lon="4.62534">
        <ele>995</ele>
        <time>2021-05-14T12:34:02Z</time>
      </trkpt>
      <trkpt lat="45.41348" lon="4.62533">
        <ele>995</ele>
        <time>2021-05-14T12:34:04Z</time>
      </trkpt>
      <trkpt lat="45.41352" lon="4.62532">
        <ele>995</ele>
        <time>2021-05-14T12:34:06Z</time>
      </trkpt>
      <trkpt lat="45.41362" lon="4.62521">
        <ele>993</ele>
        <time>2021-05-14T12:34:11Z</time>
      </trkpt>
      <trkpt lat="45.41371" lon="4.62509">
        <ele>991</ele>
        <time>2021-05-14T12:34:15Z</time>
      </trkpt>
      <trkpt lat="45.41373" lon="4.62504">
        <ele>991</ele>
        <time>2021-05-14T12:34:17Z</time>
      </trkpt>
      <trkpt lat="45.41377" lon="4.62497">
        <ele>990</ele>
        <time>2021-05-14T12:34:19Z</time>
      </trkpt>
      <trkpt lat="45.41379" lon="4.62493">
        <ele>990</ele>
        <time>2021-05-14T12:34:21Z</time>
      </trkpt>
      <trkpt lat="45.41382" lon="4.62488">
        <ele>990</ele>
        <time>2021-05-14T12:34:23Z</time>
      </trkpt>
      <trkpt lat="45.41384" lon="4.62484">
        <ele>990</ele>
        <time>2021-05-14T12:34:25Z</time>
      </trkpt>
      <trkpt lat="45.41385" lon="4.62476">
        <ele>990</ele>
        <time>2021-05-14T12:34:28Z</time>
      </trkpt>
      <trkpt lat="45.41386" lon="4.6247">
        <ele>990</ele>
        <time>2021-05-14T12:34:30Z</time>
      </trkpt>
      <trkpt lat="45.41388" lon="4.62462">
        <ele>990</ele>
        <time>2021-05-14T12:34:31Z</time>
      </trkpt>
      <trkpt lat="45.4139" lon="4.62454">
        <ele>990</ele>
        <time>2021-05-14T12:34:34Z</time>
      </trkpt>
      <trkpt lat="45.41393" lon="4.62447">
        <ele>988</ele>
        <time>2021-05-14T12:34:36Z</time>
      </trkpt>
      <trkpt lat="45.41396" lon="4.62441">
        <ele>988</ele>
        <time>2021-05-14T12:34:38Z</time>
      </trkpt>
      <trkpt lat="45.414" lon="4.62435">
        <ele>988</ele>
        <time>2021-05-14T12:34:40Z</time>
      </trkpt>
      <trkpt lat="45.41403" lon="4.62428">
        <ele>988</ele>
        <time>2021-05-14T12:34:42Z</time>
      </trkpt>
      <trkpt lat="45.41406" lon="4.62421">
        <ele>988</ele>
        <time>2021-05-14T12:34:44Z</time>
      </trkpt>
      <trkpt lat="45.41408" lon="4.62414">
        <ele>987</ele>
        <time>2021-05-14T12:34:46Z</time>
      </trkpt>
      <trkpt lat="45.41413" lon="4.62397">
        <ele>987</ele>
        <time>2021-05-14T12:34:50Z</time>
      </trkpt>
      <trkpt lat="45.41418" lon="4.6238">
        <ele>985</ele>
        <time>2021-05-14T12:34:55Z</time>
      </trkpt>
      <trkpt lat="45.41422" lon="4.62372">
        <ele>985</ele>
        <time>2021-05-14T12:34:57Z</time>
      </trkpt>
      <trkpt lat="45.41426" lon="4.62365">
        <ele>985</ele>
        <time>2021-05-14T12:34:59Z</time>
      </trkpt>
      <trkpt lat="45.41431" lon="4.62357">
        <ele>985</ele>
        <time>2021-05-14T12:35:01Z</time>
      </trkpt>
      <trkpt lat="45.41436" lon="4.6235">
        <ele>985</ele>
        <time>2021-05-14T12:35:03Z</time>
      </trkpt>
      <trkpt lat="45.41441" lon="4.62344">
        <ele>985</ele>
        <time>2021-05-14T12:35:05Z</time>
      </trkpt>
      <trkpt lat="45.41446" lon="4.62339">
        <ele>984</ele>
        <time>2021-05-14T12:35:07Z</time>
      </trkpt>
      <trkpt lat="45.41451" lon="4.62333">
        <ele>984</ele>
        <time>2021-05-14T12:35:09Z</time>
      </trkpt>
      <trkpt lat="45.41455" lon="4.62329">
        <ele>984</ele>
        <time>2021-05-14T12:35:11Z</time>
      </trkpt>
      <trkpt lat="45.41459" lon="4.62325">
        <ele>981</ele>
        <time>2021-05-14T12:35:13Z</time>
      </trkpt>
      <trkpt lat="45.41464" lon="4.62319">
        <ele>982</ele>
        <time>2021-05-14T12:35:15Z</time>
      </trkpt>
      <trkpt lat="45.41467" lon="4.62315">
        <ele>981</ele>
        <time>2021-05-14T12:35:16Z</time>
      </trkpt>
      <trkpt lat="45.41471" lon="4.6231">
        <ele>981</ele>
        <time>2021-05-14T12:35:18Z</time>
      </trkpt>
      <trkpt lat="45.41476" lon="4.62303">
        <ele>980</ele>
        <time>2021-05-14T12:35:20Z</time>
      </trkpt>
      <trkpt lat="45.4148" lon="4.623">
        <ele>980</ele>
        <time>2021-05-14T12:35:21Z</time>
      </trkpt>
      <trkpt lat="45.41483" lon="4.62298">
        <ele>980</ele>
        <time>2021-05-14T12:35:22Z</time>
      </trkpt>
      <trkpt lat="45.41486" lon="4.62295">
        <ele>980</ele>
        <time>2021-05-14T12:35:23Z</time>
      </trkpt>
      <trkpt lat="45.41492" lon="4.62289">
        <ele>979</ele>
        <time>2021-05-14T12:35:25Z</time>
      </trkpt>
      <trkpt lat="45.41497" lon="4.62283">
        <ele>979</ele>
        <time>2021-05-14T12:35:27Z</time>
      </trkpt>
      <trkpt lat="45.41501" lon="4.62277">
        <ele>978</ele>
        <time>2021-05-14T12:35:29Z</time>
      </trkpt>
      <trkpt lat="45.41505" lon="4.62272">
        <ele>978</ele>
        <time>2021-05-14T12:35:31Z</time>
      </trkpt>
      <trkpt lat="45.41509" lon="4.62267">
        <ele>977</ele>
        <time>2021-05-14T12:35:33Z</time>
      </trkpt>
      <trkpt lat="45.41513" lon="4.62261">
        <ele>977</ele>
        <time>2021-05-14T12:35:35Z</time>
      </trkpt>
      <trkpt lat="45.41518" lon="4.62255">
        <ele>977</ele>
        <time>2021-05-14T12:35:37Z</time>
      </trkpt>
      <trkpt lat="45.41523" lon="4.62249">
        <ele>976</ele>
        <time>2021-05-14T12:35:39Z</time>
      </trkpt>
      <trkpt lat="45.41528" lon="4.62244">
        <ele>976</ele>
        <time>2021-05-14T12:35:41Z</time>
      </trkpt>
      <trkpt lat="45.41533" lon="4.62239">
        <ele>975</ele>
        <time>2021-05-14T12:35:43Z</time>
      </trkpt>
      <trkpt lat="45.41538" lon="4.62234">
        <ele>974</ele>
        <time>2021-05-14T12:35:45Z</time>
      </trkpt>
      <trkpt lat="45.41543" lon="4.6223">
        <ele>974</ele>
        <time>2021-05-14T12:35:47Z</time>
      </trkpt>
      <trkpt lat="45.41548" lon="4.62224">
        <ele>974</ele>
        <time>2021-05-14T12:35:49Z</time>
      </trkpt>
      <trkpt lat="45.41553" lon="4.62218">
        <ele>974</ele>
        <time>2021-05-14T12:35:51Z</time>
      </trkpt>
      <trkpt lat="45.41557" lon="4.62212">
        <ele>974</ele>
        <time>2021-05-14T12:35:53Z</time>
      </trkpt>
      <trkpt lat="45.41562" lon="4.62207">
        <ele>973</ele>
        <time>2021-05-14T12:35:55Z</time>
      </trkpt>
      <trkpt lat="45.41565" lon="4.62204">
        <ele>973</ele>
        <time>2021-05-14T12:35:56Z</time>
      </trkpt>
      <trkpt lat="45.41571" lon="4.62198">
        <ele>973</ele>
        <time>2021-05-14T12:35:58Z</time>
      </trkpt>
      <trkpt lat="45.41576" lon="4.62193">
        <ele>973</ele>
        <time>2021-05-14T12:35:59Z</time>
      </trkpt>
      <trkpt lat="45.4158" lon="4.62188">
        <ele>971</ele>
        <time>2021-05-14T12:36:02Z</time>
      </trkpt>
      <trkpt lat="45.41585" lon="4.62183">
        <ele>971</ele>
        <time>2021-05-14T12:36:04Z</time>
      </trkpt>
      <trkpt lat="45.41589" lon="4.62179">
        <ele>971</ele>
        <time>2021-05-14T12:36:06Z</time>
      </trkpt>
      <trkpt lat="45.41593" lon="4.62176">
        <ele>971</ele>
        <time>2021-05-14T12:36:08Z</time>
      </trkpt>
      <trkpt lat="45.41597" lon="4.62172">
        <ele>970</ele>
        <time>2021-05-14T12:36:09Z</time>
      </trkpt>
      <trkpt lat="45.41602" lon="4.62169">
        <ele>970</ele>
        <time>2021-05-14T12:36:12Z</time>
      </trkpt>
      <trkpt lat="45.41607" lon="4.62164">
        <ele>970</ele>
        <time>2021-05-14T12:36:14Z</time>
      </trkpt>
      <trkpt lat="45.41612" lon="4.62158">
        <ele>969</ele>
        <time>2021-05-14T12:36:16Z</time>
      </trkpt>
      <trkpt lat="45.41616" lon="4.62154">
        <ele>969</ele>
        <time>2021-05-14T12:36:18Z</time>
      </trkpt>
      <trkpt lat="45.4162" lon="4.6215">
        <ele>969</ele>
        <time>2021-05-14T12:36:20Z</time>
      </trkpt>
      <trkpt lat="45.41624" lon="4.62145">
        <ele>968</ele>
        <time>2021-05-14T12:36:22Z</time>
      </trkpt>
      <trkpt lat="45.41628" lon="4.62141">
        <ele>967</ele>
        <time>2021-05-14T12:36:24Z</time>
      </trkpt>
      <trkpt lat="45.41633" lon="4.62136">
        <ele>967</ele>
        <time>2021-05-14T12:36:27Z</time>
      </trkpt>
      <trkpt lat="45.41642" lon="4.62129">
        <ele>966</ele>
        <time>2021-05-14T12:36:29Z</time>
      </trkpt>
      <trkpt lat="45.41646" lon="4.62127">
        <ele>966</ele>
        <time>2021-05-14T12:36:31Z</time>
      </trkpt>
      <trkpt lat="45.41659" lon="4.62119">
        <ele>964</ele>
        <time>2021-05-14T12:36:35Z</time>
      </trkpt>
      <trkpt lat="45.4167" lon="4.6211">
        <ele>963</ele>
        <time>2021-05-14T12:36:39Z</time>
      </trkpt>
      <trkpt lat="45.41681" lon="4.62102">
        <ele>963</ele>
        <time>2021-05-14T12:36:43Z</time>
      </trkpt>
      <trkpt lat="45.41688" lon="4.62098">
        <ele>962</ele>
        <time>2021-05-14T12:36:44Z</time>
      </trkpt>
      <trkpt lat="45.41694" lon="4.62094">
        <ele>962</ele>
        <time>2021-05-14T12:36:47Z</time>
      </trkpt>
      <trkpt lat="45.41697" lon="4.62093">
        <ele>962</ele>
        <time>2021-05-14T12:36:48Z</time>
      </trkpt>
      <trkpt lat="45.41707" lon="4.62091">
        <ele>961</ele>
        <time>2021-05-14T12:36:51Z</time>
      </trkpt>
      <trkpt lat="45.41711" lon="4.6209">
        <ele>961</ele>
        <time>2021-05-14T12:36:52Z</time>
      </trkpt>
      <trkpt lat="45.41715" lon="4.62089">
        <ele>960</ele>
        <time>2021-05-14T12:36:53Z</time>
      </trkpt>
      <trkpt lat="45.41719" lon="4.62088">
        <ele>960</ele>
        <time>2021-05-14T12:36:54Z</time>
      </trkpt>
      <trkpt lat="45.41731" lon="4.62091">
        <ele>958</ele>
        <time>2021-05-14T12:36:58Z</time>
      </trkpt>
      <trkpt lat="45.41736" lon="4.62091">
        <ele>958</ele>
        <time>2021-05-14T12:36:59Z</time>
      </trkpt>
      <trkpt lat="45.41742" lon="4.6209">
        <ele>957</ele>
        <time>2021-05-14T12:37:02Z</time>
      </trkpt>
      <trkpt lat="45.41752" lon="4.62091">
        <ele>956</ele>
        <time>2021-05-14T12:37:06Z</time>
      </trkpt>
      <trkpt lat="45.41756" lon="4.62091">
        <ele>955</ele>
        <time>2021-05-14T12:37:08Z</time>
      </trkpt>
      <trkpt lat="45.4176" lon="4.62091">
        <ele>955</ele>
        <time>2021-05-14T12:37:09Z</time>
      </trkpt>
      <trkpt lat="45.41765" lon="4.62093">
        <ele>955</ele>
        <time>2021-05-14T12:37:12Z</time>
      </trkpt>
      <trkpt lat="45.4177" lon="4.62094">
        <ele>954</ele>
        <time>2021-05-14T12:37:14Z</time>
      </trkpt>
      <trkpt lat="45.41775" lon="4.62094">
        <ele>954</ele>
        <time>2021-05-14T12:37:16Z</time>
      </trkpt>
      <trkpt lat="45.41782" lon="4.62094">
        <ele>953</ele>
        <time>2021-05-14T12:37:18Z</time>
      </trkpt>
      <trkpt lat="45.41789" lon="4.62093">
        <ele>953</ele>
        <time>2021-05-14T12:37:20Z</time>
      </trkpt>
      <trkpt lat="45.41793" lon="4.62092">
        <ele>953</ele>
        <time>2021-05-14T12:37:21Z</time>
      </trkpt>
      <trkpt lat="45.41797" lon="4.62091">
        <ele>953</ele>
        <time>2021-05-14T12:37:22Z</time>
      </trkpt>
      <trkpt lat="45.418" lon="4.62091">
        <ele>953</ele>
        <time>2021-05-14T12:37:23Z</time>
      </trkpt>
      <trkpt lat="45.41806" lon="4.62091">
        <ele>952</ele>
        <time>2021-05-14T12:37:25Z</time>
      </trkpt>
      <trkpt lat="45.41812" lon="4.62091">
        <ele>951</ele>
        <time>2021-05-14T12:37:27Z</time>
      </trkpt>
      <trkpt lat="45.41818" lon="4.62091">
        <ele>951</ele>
        <time>2021-05-14T12:37:29Z</time>
      </trkpt>
      <trkpt lat="45.41824" lon="4.62091">
        <ele>950</ele>
        <time>2021-05-14T12:37:31Z</time>
      </trkpt>
      <trkpt lat="45.4183" lon="4.62092">
        <ele>950</ele>
        <time>2021-05-14T12:37:33Z</time>
      </trkpt>
      <trkpt lat="45.41837" lon="4.62094">
        <ele>949</ele>
        <time>2021-05-14T12:37:35Z</time>
      </trkpt>
      <trkpt lat="45.41849" lon="4.621">
        <ele>947</ele>
        <time>2021-05-14T12:37:39Z</time>
      </trkpt>
      <trkpt lat="45.4186" lon="4.62104">
        <ele>946</ele>
        <time>2021-05-14T12:37:42Z</time>
      </trkpt>
      <trkpt lat="45.41871" lon="4.62112">
        <ele>945</ele>
        <time>2021-05-14T12:37:46Z</time>
      </trkpt>
      <trkpt lat="45.41876" lon="4.62114">
        <ele>945</ele>
        <time>2021-05-14T12:37:48Z</time>
      </trkpt>
      <trkpt lat="45.41882" lon="4.62116">
        <ele>944</ele>
        <time>2021-05-14T12:37:50Z</time>
      </trkpt>
      <trkpt lat="45.41887" lon="4.62118">
        <ele>944</ele>
        <time>2021-05-14T12:37:52Z</time>
      </trkpt>
      <trkpt lat="45.419" lon="4.62121">
        <ele>943</ele>
        <time>2021-05-14T12:37:56Z</time>
      </trkpt>
      <trkpt lat="45.41913" lon="4.62124">
        <ele>943</ele>
        <time>2021-05-14T12:38:00Z</time>
      </trkpt>
      <trkpt lat="45.41921" lon="4.62125">
        <ele>941</ele>
        <time>2021-05-14T12:38:03Z</time>
      </trkpt>
      <trkpt lat="45.41927" lon="4.62124">
        <ele>941</ele>
        <time>2021-05-14T12:38:05Z</time>
      </trkpt>
      <trkpt lat="45.41931" lon="4.62123">
        <ele>941</ele>
        <time>2021-05-14T12:38:06Z</time>
      </trkpt>
      <trkpt lat="45.41935" lon="4.62123">
        <ele>941</ele>
        <time>2021-05-14T12:38:07Z</time>
      </trkpt>
      <trkpt lat="45.41944" lon="4.62124">
        <ele>940</ele>
        <time>2021-05-14T12:38:10Z</time>
      </trkpt>
      <trkpt lat="45.41949" lon="4.62124">
        <ele>939</ele>
        <time>2021-05-14T12:38:12Z</time>
      </trkpt>
      <trkpt lat="45.41954" lon="4.62123">
        <ele>939</ele>
        <time>2021-05-14T12:38:14Z</time>
      </trkpt>
      <trkpt lat="45.4196" lon="4.62121">
        <ele>939</ele>
        <time>2021-05-14T12:38:16Z</time>
      </trkpt>
      <trkpt lat="45.41966" lon="4.6212">
        <ele>938</ele>
        <time>2021-05-14T12:38:18Z</time>
      </trkpt>
      <trkpt lat="45.41972" lon="4.62119">
        <ele>937</ele>
        <time>2021-05-14T12:38:20Z</time>
      </trkpt>
      <trkpt lat="45.41977" lon="4.62118">
        <ele>937</ele>
        <time>2021-05-14T12:38:22Z</time>
      </trkpt>
      <trkpt lat="45.41984" lon="4.62116">
        <ele>937</ele>
        <time>2021-05-14T12:38:24Z</time>
      </trkpt>
      <trkpt lat="45.4199" lon="4.62114">
        <ele>936</ele>
        <time>2021-05-14T12:38:26Z</time>
      </trkpt>
      <trkpt lat="45.41996" lon="4.62112">
        <ele>936</ele>
        <time>2021-05-14T12:38:28Z</time>
      </trkpt>
      <trkpt lat="45.42002" lon="4.62112">
        <ele>936</ele>
        <time>2021-05-14T12:38:30Z</time>
      </trkpt>
      <trkpt lat="45.42008" lon="4.62109">
        <ele>935</ele>
        <time>2021-05-14T12:38:32Z</time>
      </trkpt>
      <trkpt lat="45.42015" lon="4.62106">
        <ele>934</ele>
        <time>2021-05-14T12:38:34Z</time>
      </trkpt>
      <trkpt lat="45.42021" lon="4.62104">
        <ele>934</ele>
        <time>2021-05-14T12:38:36Z</time>
      </trkpt>
      <trkpt lat="45.42025" lon="4.62101">
        <ele>933</ele>
        <time>2021-05-14T12:38:38Z</time>
      </trkpt>
      <trkpt lat="45.4203" lon="4.62098">
        <ele>933</ele>
        <time>2021-05-14T12:38:40Z</time>
      </trkpt>
      <trkpt lat="45.42035" lon="4.62096">
        <ele>932</ele>
        <time>2021-05-14T12:38:42Z</time>
      </trkpt>
      <trkpt lat="45.42039" lon="4.62093">
        <ele>932</ele>
        <time>2021-05-14T12:38:44Z</time>
      </trkpt>
      <trkpt lat="45.42043" lon="4.6209">
        <ele>932</ele>
        <time>2021-05-14T12:38:46Z</time>
      </trkpt>
      <trkpt lat="45.42048" lon="4.62087">
        <ele>932</ele>
        <time>2021-05-14T12:38:48Z</time>
      </trkpt>
      <trkpt lat="45.42054" lon="4.62084">
        <ele>932</ele>
        <time>2021-05-14T12:38:50Z</time>
      </trkpt>
      <trkpt lat="45.4206" lon="4.62082">
        <ele>930</ele>
        <time>2021-05-14T12:38:52Z</time>
      </trkpt>
      <trkpt lat="45.42066" lon="4.62079">
        <ele>930</ele>
        <time>2021-05-14T12:38:54Z</time>
      </trkpt>
      <trkpt lat="45.42073" lon="4.62076">
        <ele>930</ele>
        <time>2021-05-14T12:38:56Z</time>
      </trkpt>
      <trkpt lat="45.42079" lon="4.62072">
        <ele>930</ele>
        <time>2021-05-14T12:38:58Z</time>
      </trkpt>
      <trkpt lat="45.42085" lon="4.6207">
        <ele>930</ele>
        <time>2021-05-14T12:38:59Z</time>
      </trkpt>
      <trkpt lat="45.42093" lon="4.62066">
        <ele>930</ele>
        <time>2021-05-14T12:39:02Z</time>
      </trkpt>
      <trkpt lat="45.42098" lon="4.6206">
        <ele>929</ele>
        <time>2021-05-14T12:39:05Z</time>
      </trkpt>
      <trkpt lat="45.42102" lon="4.62055">
        <ele>929</ele>
        <time>2021-05-14T12:39:07Z</time>
      </trkpt>
      <trkpt lat="45.42108" lon="4.6205">
        <ele>929</ele>
        <time>2021-05-14T12:39:09Z</time>
      </trkpt>
      <trkpt lat="45.42113" lon="4.62047">
        <ele>929</ele>
        <time>2021-05-14T12:39:11Z</time>
      </trkpt>
      <trkpt lat="45.42118" lon="4.62043">
        <ele>928</ele>
        <time>2021-05-14T12:39:13Z</time>
      </trkpt>
      <trkpt lat="45.42129" lon="4.62035">
        <ele>927</ele>
        <time>2021-05-14T12:39:18Z</time>
      </trkpt>
      <trkpt lat="45.42134" lon="4.62031">
        <ele>927</ele>
        <time>2021-05-14T12:39:20Z</time>
      </trkpt>
      <trkpt lat="45.4214" lon="4.62027">
        <ele>926</ele>
        <time>2021-05-14T12:39:22Z</time>
      </trkpt>
      <trkpt lat="45.42145" lon="4.62022">
        <ele>926</ele>
        <time>2021-05-14T12:39:24Z</time>
      </trkpt>
      <trkpt lat="45.4215" lon="4.62018">
        <ele>926</ele>
        <time>2021-05-14T12:39:26Z</time>
      </trkpt>
      <trkpt lat="45.42156" lon="4.62015">
        <ele>926</ele>
        <time>2021-05-14T12:39:28Z</time>
      </trkpt>
      <trkpt lat="45.42161" lon="4.6201">
        <ele>926</ele>
        <time>2021-05-14T12:39:30Z</time>
      </trkpt>
      <trkpt lat="45.42166" lon="4.62006">
        <ele>926</ele>
        <time>2021-05-14T12:39:32Z</time>
      </trkpt>
      <trkpt lat="45.42171" lon="4.62001">
        <ele>926</ele>
        <time>2021-05-14T12:39:34Z</time>
      </trkpt>
      <trkpt lat="45.42175" lon="4.61997">
        <ele>925</ele>
        <time>2021-05-14T12:39:36Z</time>
      </trkpt>
      <trkpt lat="45.42179" lon="4.61992">
        <ele>925</ele>
        <time>2021-05-14T12:39:38Z</time>
      </trkpt>
      <trkpt lat="45.42187" lon="4.61985">
        <ele>923</ele>
        <time>2021-05-14T12:39:41Z</time>
      </trkpt>
      <trkpt lat="45.42191" lon="4.61981">
        <ele>924</ele>
        <time>2021-05-14T12:39:43Z</time>
      </trkpt>
      <trkpt lat="45.42196" lon="4.61976">
        <ele>924</ele>
        <time>2021-05-14T12:39:44Z</time>
      </trkpt>
      <trkpt lat="45.42201" lon="4.61972">
        <ele>922</ele>
        <time>2021-05-14T12:39:47Z</time>
      </trkpt>
      <trkpt lat="45.42206" lon="4.61967">
        <ele>922</ele>
        <time>2021-05-14T12:39:49Z</time>
      </trkpt>
      <trkpt lat="45.4221" lon="4.61963">
        <ele>921</ele>
        <time>2021-05-14T12:39:51Z</time>
      </trkpt>
      <trkpt lat="45.42214" lon="4.61959">
        <ele>920</ele>
        <time>2021-05-14T12:39:53Z</time>
      </trkpt>
      <trkpt lat="45.4222" lon="4.61954">
        <ele>920</ele>
        <time>2021-05-14T12:39:54Z</time>
      </trkpt>
      <trkpt lat="45.42226" lon="4.61949">
        <ele>920</ele>
        <time>2021-05-14T12:39:57Z</time>
      </trkpt>
      <trkpt lat="45.42231" lon="4.61945">
        <ele>920</ele>
        <time>2021-05-14T12:39:59Z</time>
      </trkpt>
      <trkpt lat="45.42237" lon="4.61941">
        <ele>920</ele>
        <time>2021-05-14T12:40:01Z</time>
      </trkpt>
      <trkpt lat="45.42243" lon="4.61936">
        <ele>919</ele>
        <time>2021-05-14T12:40:03Z</time>
      </trkpt>
      <trkpt lat="45.42248" lon="4.61932">
        <ele>919</ele>
        <time>2021-05-14T12:40:05Z</time>
      </trkpt>
      <trkpt lat="45.42254" lon="4.6193">
        <ele>919</ele>
        <time>2021-05-14T12:40:07Z</time>
      </trkpt>
      <trkpt lat="45.42258" lon="4.61926">
        <ele>918</ele>
        <time>2021-05-14T12:40:09Z</time>
      </trkpt>
      <trkpt lat="45.42262" lon="4.61923">
        <ele>918</ele>
        <time>2021-05-14T12:40:11Z</time>
      </trkpt>
      <trkpt lat="45.42266" lon="4.61921">
        <ele>918</ele>
        <time>2021-05-14T12:40:13Z</time>
      </trkpt>
      <trkpt lat="45.42269" lon="4.61917">
        <ele>918</ele>
        <time>2021-05-14T12:40:15Z</time>
      </trkpt>
      <trkpt lat="45.42273" lon="4.61913">
        <ele>917</ele>
        <time>2021-05-14T12:40:17Z</time>
      </trkpt>
      <trkpt lat="45.42278" lon="4.6191">
        <ele>917</ele>
        <time>2021-05-14T12:40:19Z</time>
      </trkpt>
      <trkpt lat="45.42284" lon="4.61906">
        <ele>916</ele>
        <time>2021-05-14T12:40:21Z</time>
      </trkpt>
      <trkpt lat="45.42295" lon="4.619">
        <ele>916</ele>
        <time>2021-05-14T12:40:24Z</time>
      </trkpt>
      <trkpt lat="45.42298" lon="4.61898">
        <ele>916</ele>
        <time>2021-05-14T12:40:25Z</time>
      </trkpt>
      <trkpt lat="45.42304" lon="4.61894">
        <ele>916</ele>
        <time>2021-05-14T12:40:27Z</time>
      </trkpt>
      <trkpt lat="45.42309" lon="4.61891">
        <ele>915</ele>
        <time>2021-05-14T12:40:29Z</time>
      </trkpt>
      <trkpt lat="45.42315" lon="4.61889">
        <ele>915</ele>
        <time>2021-05-14T12:40:31Z</time>
      </trkpt>
      <trkpt lat="45.42326" lon="4.61885">
        <ele>915</ele>
        <time>2021-05-14T12:40:35Z</time>
      </trkpt>
      <trkpt lat="45.42339" lon="4.61881">
        <ele>914</ele>
        <time>2021-05-14T12:40:38Z</time>
      </trkpt>
      <trkpt lat="45.42351" lon="4.61879">
        <ele>913</ele>
        <time>2021-05-14T12:40:43Z</time>
      </trkpt>
      <trkpt lat="45.42363" lon="4.61874">
        <ele>913</ele>
        <time>2021-05-14T12:40:46Z</time>
      </trkpt>
      <trkpt lat="45.42369" lon="4.61871">
        <ele>913</ele>
        <time>2021-05-14T12:40:49Z</time>
      </trkpt>
      <trkpt lat="45.42379" lon="4.61863">
        <ele>912</ele>
        <time>2021-05-14T12:40:54Z</time>
      </trkpt>
      <trkpt lat="45.42384" lon="4.6186">
        <ele>911</ele>
        <time>2021-05-14T12:40:56Z</time>
      </trkpt>
      <trkpt lat="45.42388" lon="4.61856">
        <ele>911</ele>
        <time>2021-05-14T12:40:58Z</time>
      </trkpt>
      <trkpt lat="45.42393" lon="4.61852">
        <ele>911</ele>
        <time>2021-05-14T12:40:59Z</time>
      </trkpt>
      <trkpt lat="45.42398" lon="4.61849">
        <ele>911</ele>
        <time>2021-05-14T12:41:02Z</time>
      </trkpt>
      <trkpt lat="45.42402" lon="4.61847">
        <ele>911</ele>
        <time>2021-05-14T12:41:04Z</time>
      </trkpt>
      <trkpt lat="45.42406" lon="4.61844">
        <ele>910</ele>
        <time>2021-05-14T12:41:06Z</time>
      </trkpt>
      <trkpt lat="45.42411" lon="4.61841">
        <ele>911</ele>
        <time>2021-05-14T12:41:08Z</time>
      </trkpt>
      <trkpt lat="45.42414" lon="4.61837">
        <ele>911</ele>
        <time>2021-05-14T12:41:10Z</time>
      </trkpt>
      <trkpt lat="45.42418" lon="4.61834">
        <ele>911</ele>
        <time>2021-05-14T12:41:12Z</time>
      </trkpt>
      <trkpt lat="45.42424" lon="4.61831">
        <ele>909</ele>
        <time>2021-05-14T12:41:14Z</time>
      </trkpt>
      <trkpt lat="45.4243" lon="4.61828">
        <ele>909</ele>
        <time>2021-05-14T12:41:16Z</time>
      </trkpt>
      <trkpt lat="45.42435" lon="4.61825">
        <ele>909</ele>
        <time>2021-05-14T12:41:18Z</time>
      </trkpt>
      <trkpt lat="45.4244" lon="4.61822">
        <ele>909</ele>
        <time>2021-05-14T12:41:20Z</time>
      </trkpt>
      <trkpt lat="45.42445" lon="4.61818">
        <ele>908</ele>
        <time>2021-05-14T12:41:22Z</time>
      </trkpt>
      <trkpt lat="45.4245" lon="4.61816">
        <ele>908</ele>
        <time>2021-05-14T12:41:24Z</time>
      </trkpt>
      <trkpt lat="45.42454" lon="4.61814">
        <ele>908</ele>
        <time>2021-05-14T12:41:25Z</time>
      </trkpt>
      <trkpt lat="45.42457" lon="4.6181">
        <ele>909</ele>
        <time>2021-05-14T12:41:28Z</time>
      </trkpt>
      <trkpt lat="45.42462" lon="4.61806">
        <ele>909</ele>
        <time>2021-05-14T12:41:31Z</time>
      </trkpt>
      <trkpt lat="45.42466" lon="4.61803">
        <ele>910</ele>
        <time>2021-05-14T12:41:33Z</time>
      </trkpt>
      <trkpt lat="45.4247" lon="4.61801">
        <ele>911</ele>
        <time>2021-05-14T12:41:35Z</time>
      </trkpt>
      <trkpt lat="45.42476" lon="4.61804">
        <ele>910</ele>
        <time>2021-05-14T12:41:37Z</time>
      </trkpt>
      <trkpt lat="45.42482" lon="4.61806">
        <ele>910</ele>
        <time>2021-05-14T12:41:39Z</time>
      </trkpt>
      <trkpt lat="45.42486" lon="4.61807">
        <ele>910</ele>
        <time>2021-05-14T12:41:41Z</time>
      </trkpt>
      <trkpt lat="45.4249" lon="4.61809">
        <ele>910</ele>
        <time>2021-05-14T12:41:44Z</time>
      </trkpt>
      <trkpt lat="45.42494" lon="4.61809">
        <ele>910</ele>
        <time>2021-05-14T12:41:47Z</time>
      </trkpt>
      <trkpt lat="45.42498" lon="4.6181">
        <ele>910</ele>
        <time>2021-05-14T12:41:50Z</time>
      </trkpt>
      <trkpt lat="45.42503" lon="4.61812">
        <ele>910</ele>
        <time>2021-05-14T12:41:53Z</time>
      </trkpt>
      <trkpt lat="45.42507" lon="4.61813">
        <ele>911</ele>
        <time>2021-05-14T12:41:56Z</time>
      </trkpt>
      <trkpt lat="45.42512" lon="4.61815">
        <ele>911</ele>
        <time>2021-05-14T12:41:59Z</time>
      </trkpt>
      <trkpt lat="45.42517" lon="4.61817">
        <ele>911</ele>
        <time>2021-05-14T12:42:02Z</time>
      </trkpt>
      <trkpt lat="45.42521" lon="4.61819">
        <ele>911</ele>
        <time>2021-05-14T12:42:04Z</time>
      </trkpt>
      <trkpt lat="45.42525" lon="4.61821">
        <ele>911</ele>
        <time>2021-05-14T12:42:07Z</time>
      </trkpt>
      <trkpt lat="45.42528" lon="4.61824">
        <ele>910</ele>
        <time>2021-05-14T12:42:11Z</time>
      </trkpt>
      <trkpt lat="45.42532" lon="4.61826">
        <ele>910</ele>
        <time>2021-05-14T12:42:14Z</time>
      </trkpt>
      <trkpt lat="45.42534" lon="4.61832">
        <ele>910</ele>
        <time>2021-05-14T12:42:17Z</time>
      </trkpt>
      <trkpt lat="45.42537" lon="4.61837">
        <ele>910</ele>
        <time>2021-05-14T12:42:21Z</time>
      </trkpt>
      <trkpt lat="45.42541" lon="4.61839">
        <ele>910</ele>
        <time>2021-05-14T12:42:24Z</time>
      </trkpt>
      <trkpt lat="45.42545" lon="4.61842">
        <ele>910</ele>
        <time>2021-05-14T12:42:28Z</time>
      </trkpt>
      <trkpt lat="45.42548" lon="4.61845">
        <ele>910</ele>
        <time>2021-05-14T12:42:32Z</time>
      </trkpt>
      <trkpt lat="45.42551" lon="4.61849">
        <ele>910</ele>
        <time>2021-05-14T12:42:35Z</time>
      </trkpt>
      <trkpt lat="45.42553" lon="4.61853">
        <ele>909</ele>
        <time>2021-05-14T12:42:38Z</time>
      </trkpt>
      <trkpt lat="45.42556" lon="4.61857">
        <ele>909</ele>
        <time>2021-05-14T12:42:41Z</time>
      </trkpt>
      <trkpt lat="45.42559" lon="4.61861">
        <ele>909</ele>
        <time>2021-05-14T12:42:43Z</time>
      </trkpt>
      <trkpt lat="45.42566" lon="4.6187">
        <ele>909</ele>
        <time>2021-05-14T12:42:48Z</time>
      </trkpt>
      <trkpt lat="45.4257" lon="4.61873">
        <ele>909</ele>
        <time>2021-05-14T12:42:50Z</time>
      </trkpt>
      <trkpt lat="45.42572" lon="4.61877">
        <ele>909</ele>
        <time>2021-05-14T12:42:52Z</time>
      </trkpt>
      <trkpt lat="45.42576" lon="4.61881">
        <ele>909</ele>
        <time>2021-05-14T12:42:54Z</time>
      </trkpt>
      <trkpt lat="45.4258" lon="4.61887">
        <ele>909</ele>
        <time>2021-05-14T12:42:56Z</time>
      </trkpt>
      <trkpt lat="45.42584" lon="4.61891">
        <ele>908</ele>
        <time>2021-05-14T12:42:58Z</time>
      </trkpt>
      <trkpt lat="45.42588" lon="4.61896">
        <ele>908</ele>
        <time>2021-05-14T12:42:59Z</time>
      </trkpt>
      <trkpt lat="45.42592" lon="4.61899">
        <ele>908</ele>
        <time>2021-05-14T12:43:01Z</time>
      </trkpt>
      <trkpt lat="45.42596" lon="4.61903">
        <ele>908</ele>
        <time>2021-05-14T12:43:04Z</time>
      </trkpt>
      <trkpt lat="45.426" lon="4.61907">
        <ele>908</ele>
        <time>2021-05-14T12:43:06Z</time>
      </trkpt>
      <trkpt lat="45.42603" lon="4.61911">
        <ele>907</ele>
        <time>2021-05-14T12:43:08Z</time>
      </trkpt>
      <trkpt lat="45.42606" lon="4.61916">
        <ele>907</ele>
        <time>2021-05-14T12:43:11Z</time>
      </trkpt>
      <trkpt lat="45.42609" lon="4.6192">
        <ele>907</ele>
        <time>2021-05-14T12:43:13Z</time>
      </trkpt>
      <trkpt lat="45.42613" lon="4.61924">
        <ele>907</ele>
        <time>2021-05-14T12:43:15Z</time>
      </trkpt>
      <trkpt lat="45.42616" lon="4.61929">
        <ele>906</ele>
        <time>2021-05-14T12:43:17Z</time>
      </trkpt>
      <trkpt lat="45.42618" lon="4.61933">
        <ele>906</ele>
        <time>2021-05-14T12:43:19Z</time>
      </trkpt>
      <trkpt lat="45.42621" lon="4.61939">
        <ele>906</ele>
        <time>2021-05-14T12:43:22Z</time>
      </trkpt>
      <trkpt lat="45.42623" lon="4.61945">
        <ele>906</ele>
        <time>2021-05-14T12:43:25Z</time>
      </trkpt>
      <trkpt lat="45.42629" lon="4.61958">
        <ele>906</ele>
        <time>2021-05-14T12:43:31Z</time>
      </trkpt>
      <trkpt lat="45.42634" lon="4.61973">
        <ele>906</ele>
        <time>2021-05-14T12:43:35Z</time>
      </trkpt>
      <trkpt lat="45.4264" lon="4.61988">
        <ele>905</ele>
        <time>2021-05-14T12:43:39Z</time>
      </trkpt>
      <trkpt lat="45.42646" lon="4.62005">
        <ele>905</ele>
        <time>2021-05-14T12:43:44Z</time>
      </trkpt>
      <trkpt lat="45.42649" lon="4.62019">
        <ele>904</ele>
        <time>2021-05-14T12:43:47Z</time>
      </trkpt>
      <trkpt lat="45.42653" lon="4.62035">
        <ele>904</ele>
        <time>2021-05-14T12:43:50Z</time>
      </trkpt>
      <trkpt lat="45.42658" lon="4.6205">
        <ele>904</ele>
        <time>2021-05-14T12:43:54Z</time>
      </trkpt>
      <trkpt lat="45.4266" lon="4.62056">
        <ele>903</ele>
        <time>2021-05-14T12:43:56Z</time>
      </trkpt>
      <trkpt lat="45.42662" lon="4.62062">
        <ele>903</ele>
        <time>2021-05-14T12:43:58Z</time>
      </trkpt>
      <trkpt lat="45.42666" lon="4.62079">
        <ele>902</ele>
        <time>2021-05-14T12:44:02Z</time>
      </trkpt>
      <trkpt lat="45.42674" lon="4.62095">
        <ele>902</ele>
        <time>2021-05-14T12:44:07Z</time>
      </trkpt>
      <trkpt lat="45.42681" lon="4.62109">
        <ele>902</ele>
        <time>2021-05-14T12:44:11Z</time>
      </trkpt>
      <trkpt lat="45.42684" lon="4.62124">
        <ele>901</ele>
        <time>2021-05-14T12:44:15Z</time>
      </trkpt>
      <trkpt lat="45.42687" lon="4.62141">
        <ele>901</ele>
        <time>2021-05-14T12:44:20Z</time>
      </trkpt>
      <trkpt lat="45.4269" lon="4.62147">
        <ele>900</ele>
        <time>2021-05-14T12:44:24Z</time>
      </trkpt>
      <trkpt lat="45.42693" lon="4.62151">
        <ele>900</ele>
        <time>2021-05-14T12:44:29Z</time>
      </trkpt>
      <trkpt lat="45.42696" lon="4.62155">
        <ele>900</ele>
        <time>2021-05-14T12:44:34Z</time>
      </trkpt>
      <trkpt lat="45.427" lon="4.62159">
        <ele>900</ele>
        <time>2021-05-14T12:44:37Z</time>
      </trkpt>
      <trkpt lat="45.42707" lon="4.6217">
        <ele>900</ele>
        <time>2021-05-14T12:44:46Z</time>
      </trkpt>
      <trkpt lat="45.42711" lon="4.62176">
        <ele>900</ele>
        <time>2021-05-14T12:44:51Z</time>
      </trkpt>
      <trkpt lat="45.42714" lon="4.6218">
        <ele>900</ele>
        <time>2021-05-14T12:44:54Z</time>
      </trkpt>
      <trkpt lat="45.42715" lon="4.62185">
        <ele>900</ele>
        <time>2021-05-14T12:44:57Z</time>
      </trkpt>
      <trkpt lat="45.42717" lon="4.6219">
        <ele>900</ele>
        <time>2021-05-14T12:45:00Z</time>
      </trkpt>
      <trkpt lat="45.42719" lon="4.62195">
        <ele>900</ele>
        <time>2021-05-14T12:45:03Z</time>
      </trkpt>
      <trkpt lat="45.4272" lon="4.62202">
        <ele>899</ele>
        <time>2021-05-14T12:45:06Z</time>
      </trkpt>
      <trkpt lat="45.42721" lon="4.62209">
        <ele>899</ele>
        <time>2021-05-14T12:45:09Z</time>
      </trkpt>
      <trkpt lat="45.42722" lon="4.62217">
        <ele>899</ele>
        <time>2021-05-14T12:45:12Z</time>
      </trkpt>
      <trkpt lat="45.42721" lon="4.62224">
        <ele>898</ele>
        <time>2021-05-14T12:45:15Z</time>
      </trkpt>
      <trkpt lat="45.42721" lon="4.62233">
        <ele>898</ele>
        <time>2021-05-14T12:45:17Z</time>
      </trkpt>
      <trkpt lat="45.42719" lon="4.62252">
        <ele>898</ele>
        <time>2021-05-14T12:45:21Z</time>
      </trkpt>
      <trkpt lat="45.42717" lon="4.62268">
        <ele>898</ele>
        <time>2021-05-14T12:45:25Z</time>
      </trkpt>
      <trkpt lat="45.42719" lon="4.62286">
        <ele>898</ele>
        <time>2021-05-14T12:45:30Z</time>
      </trkpt>
      <trkpt lat="45.42725" lon="4.62302">
        <ele>897</ele>
        <time>2021-05-14T12:45:35Z</time>
      </trkpt>
      <trkpt lat="45.42724" lon="4.62318">
        <ele>897</ele>
        <time>2021-05-14T12:45:39Z</time>
      </trkpt>
      <trkpt lat="45.42724" lon="4.62328">
        <ele>896</ele>
        <time>2021-05-14T12:45:43Z</time>
      </trkpt>
      <trkpt lat="45.42725" lon="4.62335">
        <ele>896</ele>
        <time>2021-05-14T12:45:45Z</time>
      </trkpt>
      <trkpt lat="45.42725" lon="4.62343">
        <ele>896</ele>
        <time>2021-05-14T12:45:47Z</time>
      </trkpt>
      <trkpt lat="45.42724" lon="4.62353">
        <ele>896</ele>
        <time>2021-05-14T12:45:49Z</time>
      </trkpt>
      <trkpt lat="45.42724" lon="4.62361">
        <ele>895</ele>
        <time>2021-05-14T12:45:51Z</time>
      </trkpt>
      <trkpt lat="45.42724" lon="4.62369">
        <ele>895</ele>
        <time>2021-05-14T12:45:53Z</time>
      </trkpt>
      <trkpt lat="45.42723" lon="4.62376">
        <ele>894</ele>
        <time>2021-05-14T12:45:55Z</time>
      </trkpt>
      <trkpt lat="45.42722" lon="4.62384">
        <ele>894</ele>
        <time>2021-05-14T12:45:57Z</time>
      </trkpt>
      <trkpt lat="45.42723" lon="4.62391">
        <ele>893</ele>
        <time>2021-05-14T12:45:59Z</time>
      </trkpt>
      <trkpt lat="45.42723" lon="4.62397">
        <ele>893</ele>
        <time>2021-05-14T12:46:01Z</time>
      </trkpt>
      <trkpt lat="45.42722" lon="4.62403">
        <ele>893</ele>
        <time>2021-05-14T12:46:03Z</time>
      </trkpt>
      <trkpt lat="45.42722" lon="4.62409">
        <ele>893</ele>
        <time>2021-05-14T12:46:05Z</time>
      </trkpt>
      <trkpt lat="45.42723" lon="4.62416">
        <ele>893</ele>
        <time>2021-05-14T12:46:07Z</time>
      </trkpt>
      <trkpt lat="45.42725" lon="4.62422">
        <ele>893</ele>
        <time>2021-05-14T12:46:09Z</time>
      </trkpt>
      <trkpt lat="45.42727" lon="4.62429">
        <ele>892</ele>
        <time>2021-05-14T12:46:11Z</time>
      </trkpt>
      <trkpt lat="45.42728" lon="4.62435">
        <ele>892</ele>
        <time>2021-05-14T12:46:13Z</time>
      </trkpt>
      <trkpt lat="45.42728" lon="4.62442">
        <ele>892</ele>
        <time>2021-05-14T12:46:15Z</time>
      </trkpt>
      <trkpt lat="45.42728" lon="4.6245">
        <ele>892</ele>
        <time>2021-05-14T12:46:17Z</time>
      </trkpt>
      <trkpt lat="45.42729" lon="4.62458">
        <ele>891</ele>
        <time>2021-05-14T12:46:19Z</time>
      </trkpt>
      <trkpt lat="45.42731" lon="4.62464">
        <ele>891</ele>
        <time>2021-05-14T12:46:21Z</time>
      </trkpt>
      <trkpt lat="45.42733" lon="4.62469">
        <ele>891</ele>
        <time>2021-05-14T12:46:23Z</time>
      </trkpt>
      <trkpt lat="45.42734" lon="4.62477">
        <ele>891</ele>
        <time>2021-05-14T12:46:25Z</time>
      </trkpt>
      <trkpt lat="45.42736" lon="4.62488">
        <ele>891</ele>
        <time>2021-05-14T12:46:28Z</time>
      </trkpt>
      <trkpt lat="45.42737" lon="4.625">
        <ele>891</ele>
        <time>2021-05-14T12:46:31Z</time>
      </trkpt>
      <trkpt lat="45.42738" lon="4.62506">
        <ele>891</ele>
        <time>2021-05-14T12:46:33Z</time>
      </trkpt>
      <trkpt lat="45.42739" lon="4.62511">
        <ele>891</ele>
        <time>2021-05-14T12:46:35Z</time>
      </trkpt>
      <trkpt lat="45.42741" lon="4.62519">
        <ele>891</ele>
        <time>2021-05-14T12:46:38Z</time>
      </trkpt>
      <trkpt lat="45.42742" lon="4.62526">
        <ele>891</ele>
        <time>2021-05-14T12:46:39Z</time>
      </trkpt>
      <trkpt lat="45.42743" lon="4.62533">
        <ele>891</ele>
        <time>2021-05-14T12:46:42Z</time>
      </trkpt>
      <trkpt lat="45.42745" lon="4.62541">
        <ele>890</ele>
        <time>2021-05-14T12:46:44Z</time>
      </trkpt>
      <trkpt lat="45.42746" lon="4.62549">
        <ele>890</ele>
        <time>2021-05-14T12:46:46Z</time>
      </trkpt>
      <trkpt lat="45.42746" lon="4.62554">
        <ele>890</ele>
        <time>2021-05-14T12:46:47Z</time>
      </trkpt>
      <trkpt lat="45.42747" lon="4.62563">
        <ele>890</ele>
        <time>2021-05-14T12:46:49Z</time>
      </trkpt>
      <trkpt lat="45.42747" lon="4.6257">
        <ele>890</ele>
        <time>2021-05-14T12:46:51Z</time>
      </trkpt>
      <trkpt lat="45.42746" lon="4.62577">
        <ele>890</ele>
        <time>2021-05-14T12:46:53Z</time>
      </trkpt>
      <trkpt lat="45.42746" lon="4.62585">
        <ele>890</ele>
        <time>2021-05-14T12:46:55Z</time>
      </trkpt>
      <trkpt lat="45.42745" lon="4.62592">
        <ele>889</ele>
        <time>2021-05-14T12:46:57Z</time>
      </trkpt>
      <trkpt lat="45.42746" lon="4.626">
        <ele>889</ele>
        <time>2021-05-14T12:46:59Z</time>
      </trkpt>
      <trkpt lat="45.42747" lon="4.62606">
        <ele>889</ele>
        <time>2021-05-14T12:47:01Z</time>
      </trkpt>
      <trkpt lat="45.42748" lon="4.62612">
        <ele>889</ele>
        <time>2021-05-14T12:47:03Z</time>
      </trkpt>
      <trkpt lat="45.42749" lon="4.62618">
        <ele>889</ele>
        <time>2021-05-14T12:47:05Z</time>
      </trkpt>
      <trkpt lat="45.4275" lon="4.62624">
        <ele>889</ele>
        <time>2021-05-14T12:47:08Z</time>
      </trkpt>
      <trkpt lat="45.42752" lon="4.6263">
        <ele>889</ele>
        <time>2021-05-14T12:47:12Z</time>
      </trkpt>
      <trkpt lat="45.42755" lon="4.62636">
        <ele>888</ele>
        <time>2021-05-14T12:47:15Z</time>
      </trkpt>
      <trkpt lat="45.42755" lon="4.62642">
        <ele>888</ele>
        <time>2021-05-14T12:47:18Z</time>
      </trkpt>
      <trkpt lat="45.42756" lon="4.62648">
        <ele>888</ele>
        <time>2021-05-14T12:47:21Z</time>
      </trkpt>
      <trkpt lat="45.42754" lon="4.62654">
        <ele>888</ele>
        <time>2021-05-14T12:47:24Z</time>
      </trkpt>
      <trkpt lat="45.42752" lon="4.62659">
        <ele>888</ele>
        <time>2021-05-14T12:47:27Z</time>
      </trkpt>
      <trkpt lat="45.42752" lon="4.62665">
        <ele>887</ele>
        <time>2021-05-14T12:47:52Z</time>
      </trkpt>
      <trkpt lat="45.42754" lon="4.6267">
        <ele>887</ele>
        <time>2021-05-14T12:47:56Z</time>
      </trkpt>
      <trkpt lat="45.42754" lon="4.62676">
        <ele>887</ele>
        <time>2021-05-14T12:47:59Z</time>
      </trkpt>
      <trkpt lat="45.42754" lon="4.62681">
        <ele>886</ele>
        <time>2021-05-14T12:48:03Z</time>
      </trkpt>
      <trkpt lat="45.42754" lon="4.62686">
        <ele>886</ele>
        <time>2021-05-14T12:48:06Z</time>
      </trkpt>
      <trkpt lat="45.42753" lon="4.62691">
        <ele>886</ele>
        <time>2021-05-14T12:48:09Z</time>
      </trkpt>
      <trkpt lat="45.42749" lon="4.62694">
        <ele>886</ele>
        <time>2021-05-14T12:48:12Z</time>
      </trkpt>
      <trkpt lat="45.42746" lon="4.6269">
        <ele>885</ele>
        <time>2021-05-14T12:48:18Z</time>
      </trkpt>
      <trkpt lat="45.42743" lon="4.62686">
        <ele>885</ele>
        <time>2021-05-14T12:48:23Z</time>
      </trkpt>
      <trkpt lat="45.42741" lon="4.62679">
        <ele>884</ele>
        <time>2021-05-14T12:48:26Z</time>
      </trkpt>
      <trkpt lat="45.4274" lon="4.62672">
        <ele>884</ele>
        <time>2021-05-14T12:48:27Z</time>
      </trkpt>
      <trkpt lat="45.42738" lon="4.62666">
        <ele>884</ele>
        <time>2021-05-14T12:48:30Z</time>
      </trkpt>
      <trkpt lat="45.42735" lon="4.62663">
        <ele>882</ele>
        <time>2021-05-14T12:48:38Z</time>
      </trkpt>
      <trkpt lat="45.42734" lon="4.62657">
        <ele>881</ele>
        <time>2021-05-14T12:48:41Z</time>
      </trkpt>
      <trkpt lat="45.42732" lon="4.62653">
        <ele>882</ele>
        <time>2021-05-14T12:48:44Z</time>
      </trkpt>
      <trkpt lat="45.4273" lon="4.62649">
        <ele>881</ele>
        <time>2021-05-14T12:48:47Z</time>
      </trkpt>
      <trkpt lat="45.42725" lon="4.62644">
        <ele>881</ele>
        <time>2021-05-14T12:48:50Z</time>
      </trkpt>
      <trkpt lat="45.42722" lon="4.6264">
        <ele>880</ele>
        <time>2021-05-14T12:48:52Z</time>
      </trkpt>
      <trkpt lat="45.42719" lon="4.62636">
        <ele>879</ele>
        <time>2021-05-14T12:48:54Z</time>
      </trkpt>
      <trkpt lat="45.42716" lon="4.62632">
        <ele>878</ele>
        <time>2021-05-14T12:48:56Z</time>
      </trkpt>
      <trkpt lat="45.42713" lon="4.62626">
        <ele>878</ele>
        <time>2021-05-14T12:48:59Z</time>
      </trkpt>
      <trkpt lat="45.42711" lon="4.62621">
        <ele>876</ele>
        <time>2021-05-14T12:49:02Z</time>
      </trkpt>
      <trkpt lat="45.4271" lon="4.62616">
        <ele>876</ele>
        <time>2021-05-14T12:49:05Z</time>
      </trkpt>
      <trkpt lat="45.42706" lon="4.62613">
        <ele>875</ele>
        <time>2021-05-14T12:49:13Z</time>
      </trkpt>
      <trkpt lat="45.42703" lon="4.62608">
        <ele>875</ele>
        <time>2021-05-14T12:49:16Z</time>
      </trkpt>
      <trkpt lat="45.42701" lon="4.62603">
        <ele>875</ele>
        <time>2021-05-14T12:49:20Z</time>
      </trkpt>
      <trkpt lat="45.42698" lon="4.626">
        <ele>871</ele>
        <time>2021-05-14T12:49:29Z</time>
      </trkpt>
      <trkpt lat="45.42702" lon="4.626">
        <ele>871</ele>
        <time>2021-05-14T12:49:40Z</time>
      </trkpt>
      <trkpt lat="45.42703" lon="4.62605">
        <ele>871</ele>
        <time>2021-05-14T12:49:43Z</time>
      </trkpt>
      <trkpt lat="45.42705" lon="4.62611">
        <ele>870</ele>
        <time>2021-05-14T12:49:47Z</time>
      </trkpt>
      <trkpt lat="45.42709" lon="4.62626">
        <ele>869</ele>
        <time>2021-05-14T12:49:54Z</time>
      </trkpt>
      <trkpt lat="45.42712" lon="4.62642">
        <ele>868</ele>
        <time>2021-05-14T12:49:59Z</time>
      </trkpt>
      <trkpt lat="45.42712" lon="4.6265">
        <ele>868</ele>
        <time>2021-05-14T12:50:01Z</time>
      </trkpt>
      <trkpt lat="45.4271" lon="4.62656">
        <ele>867</ele>
        <time>2021-05-14T12:50:03Z</time>
      </trkpt>
      <trkpt lat="45.42708" lon="4.62662">
        <ele>867</ele>
        <time>2021-05-14T12:50:06Z</time>
      </trkpt>
      <trkpt lat="45.42706" lon="4.62668">
        <ele>867</ele>
        <time>2021-05-14T12:50:09Z</time>
      </trkpt>
      <trkpt lat="45.42704" lon="4.62674">
        <ele>867</ele>
        <time>2021-05-14T12:50:14Z</time>
      </trkpt>
      <trkpt lat="45.42703" lon="4.62681">
        <ele>866</ele>
        <time>2021-05-14T12:50:18Z</time>
      </trkpt>
      <trkpt lat="45.42703" lon="4.62687">
        <ele>866</ele>
        <time>2021-05-14T12:50:21Z</time>
      </trkpt>
      <trkpt lat="45.42701" lon="4.62692">
        <ele>866</ele>
        <time>2021-05-14T12:50:24Z</time>
      </trkpt>
      <trkpt lat="45.42699" lon="4.62697">
        <ele>866</ele>
        <time>2021-05-14T12:50:28Z</time>
      </trkpt>
      <trkpt lat="45.42697" lon="4.62713">
        <ele>866</ele>
        <time>2021-05-14T12:50:38Z</time>
      </trkpt>
      <trkpt lat="45.42696" lon="4.62719">
        <ele>866</ele>
        <time>2021-05-14T12:50:41Z</time>
      </trkpt>
      <trkpt lat="45.42695" lon="4.62728">
        <ele>866</ele>
        <time>2021-05-14T12:50:45Z</time>
      </trkpt>
      <trkpt lat="45.42694" lon="4.62734">
        <ele>866</ele>
        <time>2021-05-14T12:50:48Z</time>
      </trkpt>
      <trkpt lat="45.42693" lon="4.6274">
        <ele>866</ele>
        <time>2021-05-14T12:50:51Z</time>
      </trkpt>
      <trkpt lat="45.42691" lon="4.62745">
        <ele>865</ele>
        <time>2021-05-14T12:50:54Z</time>
      </trkpt>
      <trkpt lat="45.42689" lon="4.6275">
        <ele>865</ele>
        <time>2021-05-14T12:50:57Z</time>
      </trkpt>
      <trkpt lat="45.42686" lon="4.62756">
        <ele>865</ele>
        <time>2021-05-14T12:51:00Z</time>
      </trkpt>
      <trkpt lat="45.42684" lon="4.62761">
        <ele>864</ele>
        <time>2021-05-14T12:51:08Z</time>
      </trkpt>
      <trkpt lat="45.42682" lon="4.62766">
        <ele>865</ele>
        <time>2021-05-14T12:51:12Z</time>
      </trkpt>
      <trkpt lat="45.4268" lon="4.62772">
        <ele>865</ele>
        <time>2021-05-14T12:51:16Z</time>
      </trkpt>
      <trkpt lat="45.42678" lon="4.62779">
        <ele>865</ele>
        <time>2021-05-14T12:51:23Z</time>
      </trkpt>
      <trkpt lat="45.42677" lon="4.62784">
        <ele>865</ele>
        <time>2021-05-14T12:51:26Z</time>
      </trkpt>
      <trkpt lat="45.42676" lon="4.62789">
        <ele>865</ele>
        <time>2021-05-14T12:51:29Z</time>
      </trkpt>
      <trkpt lat="45.42676" lon="4.62796">
        <ele>865</ele>
        <time>2021-05-14T12:51:32Z</time>
      </trkpt>
      <trkpt lat="45.42676" lon="4.62802">
        <ele>865</ele>
        <time>2021-05-14T12:51:36Z</time>
      </trkpt>
      <trkpt lat="45.42676" lon="4.62808">
        <ele>865</ele>
        <time>2021-05-14T12:51:40Z</time>
      </trkpt>
      <trkpt lat="45.42676" lon="4.62813">
        <ele>865</ele>
        <time>2021-05-14T12:51:43Z</time>
      </trkpt>
      <trkpt lat="45.42676" lon="4.62819">
        <ele>866</ele>
        <time>2021-05-14T12:51:46Z</time>
      </trkpt>
      <trkpt lat="45.42676" lon="4.62825">
        <ele>866</ele>
        <time>2021-05-14T12:51:49Z</time>
      </trkpt>
      <trkpt lat="45.42677" lon="4.6283">
        <ele>867</ele>
        <time>2021-05-14T12:51:52Z</time>
      </trkpt>
      <trkpt lat="45.42677" lon="4.62835">
        <ele>866</ele>
        <time>2021-05-14T12:51:55Z</time>
      </trkpt>
      <trkpt lat="45.42678" lon="4.62841">
        <ele>866</ele>
        <time>2021-05-14T12:51:59Z</time>
      </trkpt>
      <trkpt lat="45.42677" lon="4.62847">
        <ele>866</ele>
        <time>2021-05-14T12:52:04Z</time>
      </trkpt>
      <trkpt lat="45.42677" lon="4.62853">
        <ele>866</ele>
        <time>2021-05-14T12:52:08Z</time>
      </trkpt>
      <trkpt lat="45.42678" lon="4.62859">
        <ele>866</ele>
        <time>2021-05-14T12:52:12Z</time>
      </trkpt>
      <trkpt lat="45.42679" lon="4.62866">
        <ele>866</ele>
        <time>2021-05-14T12:52:16Z</time>
      </trkpt>
      <trkpt lat="45.42679" lon="4.62872">
        <ele>866</ele>
        <time>2021-05-14T12:52:19Z</time>
      </trkpt>
      <trkpt lat="45.4268" lon="4.62878">
        <ele>865</ele>
        <time>2021-05-14T12:52:22Z</time>
      </trkpt>
      <trkpt lat="45.42679" lon="4.62884">
        <ele>866</ele>
        <time>2021-05-14T12:52:25Z</time>
      </trkpt>
      <trkpt lat="45.4268" lon="4.6289">
        <ele>866</ele>
        <time>2021-05-14T12:52:28Z</time>
      </trkpt>
      <trkpt lat="45.4268" lon="4.62896">
        <ele>867</ele>
        <time>2021-05-14T12:52:32Z</time>
      </trkpt>
      <trkpt lat="45.42681" lon="4.62903">
        <ele>867</ele>
        <time>2021-05-14T12:52:36Z</time>
      </trkpt>
      <trkpt lat="45.42681" lon="4.6291">
        <ele>867</ele>
        <time>2021-05-14T12:52:39Z</time>
      </trkpt>
      <trkpt lat="45.42681" lon="4.62918">
        <ele>866</ele>
        <time>2021-05-14T12:52:42Z</time>
      </trkpt>
      <trkpt lat="45.42681" lon="4.62923">
        <ele>866</ele>
        <time>2021-05-14T12:52:44Z</time>
      </trkpt>
      <trkpt lat="45.42682" lon="4.62929">
        <ele>866</ele>
        <time>2021-05-14T12:52:45Z</time>
      </trkpt>
      <trkpt lat="45.42683" lon="4.62936">
        <ele>865</ele>
        <time>2021-05-14T12:52:48Z</time>
      </trkpt>
      <trkpt lat="45.42684" lon="4.62944">
        <ele>865</ele>
        <time>2021-05-14T12:52:50Z</time>
      </trkpt>
      <trkpt lat="45.42684" lon="4.6295">
        <ele>864</ele>
        <time>2021-05-14T12:52:52Z</time>
      </trkpt>
      <trkpt lat="45.42685" lon="4.62955">
        <ele>864</ele>
        <time>2021-05-14T12:52:53Z</time>
      </trkpt>
      <trkpt lat="45.42684" lon="4.62962">
        <ele>862</ele>
        <time>2021-05-14T12:52:57Z</time>
      </trkpt>
      <trkpt lat="45.42686" lon="4.62968">
        <ele>861</ele>
        <time>2021-05-14T12:53:03Z</time>
      </trkpt>
      <trkpt lat="45.42687" lon="4.62974">
        <ele>861</ele>
        <time>2021-05-14T12:53:06Z</time>
      </trkpt>
      <trkpt lat="45.42688" lon="4.62981">
        <ele>861</ele>
        <time>2021-05-14T12:53:09Z</time>
      </trkpt>
      <trkpt lat="45.42688" lon="4.62988">
        <ele>860</ele>
        <time>2021-05-14T12:53:12Z</time>
      </trkpt>
      <trkpt lat="45.42688" lon="4.62994">
        <ele>859</ele>
        <time>2021-05-14T12:53:14Z</time>
      </trkpt>
      <trkpt lat="45.42689" lon="4.63001">
        <ele>858</ele>
        <time>2021-05-14T12:53:16Z</time>
      </trkpt>
      <trkpt lat="45.4269" lon="4.63007">
        <ele>858</ele>
        <time>2021-05-14T12:53:18Z</time>
      </trkpt>
      <trkpt lat="45.42692" lon="4.63014">
        <ele>858</ele>
        <time>2021-05-14T12:53:20Z</time>
      </trkpt>
      <trkpt lat="45.42694" lon="4.6302">
        <ele>857</ele>
        <time>2021-05-14T12:53:22Z</time>
      </trkpt>
      <trkpt lat="45.42695" lon="4.63025">
        <ele>856</ele>
        <time>2021-05-14T12:53:24Z</time>
      </trkpt>
      <trkpt lat="45.42698" lon="4.63035">
        <ele>853</ele>
        <time>2021-05-14T12:53:31Z</time>
      </trkpt>
      <trkpt lat="45.427" lon="4.63041">
        <ele>852</ele>
        <time>2021-05-14T12:53:35Z</time>
      </trkpt>
      <trkpt lat="45.42702" lon="4.63048">
        <ele>851</ele>
        <time>2021-05-14T12:53:41Z</time>
      </trkpt>
      <trkpt lat="45.42705" lon="4.63051">
        <ele>851</ele>
        <time>2021-05-14T12:53:55Z</time>
      </trkpt>
      <trkpt lat="45.42707" lon="4.63056">
        <ele>851</ele>
        <time>2021-05-14T12:53:59Z</time>
      </trkpt>
      <trkpt lat="45.42707" lon="4.63062">
        <ele>851</ele>
        <time>2021-05-14T12:54:06Z</time>
      </trkpt>
      <trkpt lat="45.42708" lon="4.63068">
        <ele>850</ele>
        <time>2021-05-14T12:54:09Z</time>
      </trkpt>
      <trkpt lat="45.4271" lon="4.63072">
        <ele>850</ele>
        <time>2021-05-14T12:54:12Z</time>
      </trkpt>
      <trkpt lat="45.42712" lon="4.63078">
        <ele>850</ele>
        <time>2021-05-14T12:54:14Z</time>
      </trkpt>
      <trkpt lat="45.42713" lon="4.63084">
        <ele>850</ele>
        <time>2021-05-14T12:54:17Z</time>
      </trkpt>
      <trkpt lat="45.42715" lon="4.63102">
        <ele>850</ele>
        <time>2021-05-14T12:54:25Z</time>
      </trkpt>
      <trkpt lat="45.42717" lon="4.63118">
        <ele>850</ele>
        <time>2021-05-14T12:54:28Z</time>
      </trkpt>
      <trkpt lat="45.42718" lon="4.63138">
        <ele>850</ele>
        <time>2021-05-14T12:54:34Z</time>
      </trkpt>
      <trkpt lat="45.42716" lon="4.63155">
        <ele>850</ele>
        <time>2021-05-14T12:54:38Z</time>
      </trkpt>
      <trkpt lat="45.42715" lon="4.63173">
        <ele>850</ele>
        <time>2021-05-14T12:54:43Z</time>
      </trkpt>
      <trkpt lat="45.42718" lon="4.63188">
        <ele>850</ele>
        <time>2021-05-14T12:54:48Z</time>
      </trkpt>
      <trkpt lat="45.42718" lon="4.63199">
        <ele>850</ele>
        <time>2021-05-14T12:54:53Z</time>
      </trkpt>
      <trkpt lat="45.42718" lon="4.63206">
        <ele>850</ele>
        <time>2021-05-14T12:54:56Z</time>
      </trkpt>
      <trkpt lat="45.42719" lon="4.63213">
        <ele>850</ele>
        <time>2021-05-14T12:54:59Z</time>
      </trkpt>
      <trkpt lat="45.4272" lon="4.63219">
        <ele>850</ele>
        <time>2021-05-14T12:55:02Z</time>
      </trkpt>
      <trkpt lat="45.42723" lon="4.63225">
        <ele>850</ele>
        <time>2021-05-14T12:55:06Z</time>
      </trkpt>
      <trkpt lat="45.42725" lon="4.63232">
        <ele>849</ele>
        <time>2021-05-14T12:55:09Z</time>
      </trkpt>
      <trkpt lat="45.42727" lon="4.63238">
        <ele>848</ele>
        <time>2021-05-14T12:55:11Z</time>
      </trkpt>
      <trkpt lat="45.42728" lon="4.63245">
        <ele>848</ele>
        <time>2021-05-14T12:55:13Z</time>
      </trkpt>
      <trkpt lat="45.4273" lon="4.63256">
        <ele>848</ele>
        <time>2021-05-14T12:55:17Z</time>
      </trkpt>
      <trkpt lat="45.4273" lon="4.63263">
        <ele>847</ele>
        <time>2021-05-14T12:55:20Z</time>
      </trkpt>
      <trkpt lat="45.4273" lon="4.6328">
        <ele>846</ele>
        <time>2021-05-14T12:55:25Z</time>
      </trkpt>
      <trkpt lat="45.4273" lon="4.63285">
        <ele>845</ele>
        <time>2021-05-14T12:55:27Z</time>
      </trkpt>
      <trkpt lat="45.42732" lon="4.6329">
        <ele>843</ele>
        <time>2021-05-14T12:55:29Z</time>
      </trkpt>
      <trkpt lat="45.42733" lon="4.63296">
        <ele>843</ele>
        <time>2021-05-14T12:55:31Z</time>
      </trkpt>
      <trkpt lat="45.42733" lon="4.63304">
        <ele>843</ele>
        <time>2021-05-14T12:55:33Z</time>
      </trkpt>
      <trkpt lat="45.42734" lon="4.63312">
        <ele>843</ele>
        <time>2021-05-14T12:55:35Z</time>
      </trkpt>
      <trkpt lat="45.42735" lon="4.63318">
        <ele>842</ele>
        <time>2021-05-14T12:55:37Z</time>
      </trkpt>
      <trkpt lat="45.42736" lon="4.63323">
        <ele>842</ele>
        <time>2021-05-14T12:55:39Z</time>
      </trkpt>
      <trkpt lat="45.42738" lon="4.6333">
        <ele>841</ele>
        <time>2021-05-14T12:55:41Z</time>
      </trkpt>
      <trkpt lat="45.4274" lon="4.63337">
        <ele>841</ele>
        <time>2021-05-14T12:55:43Z</time>
      </trkpt>
      <trkpt lat="45.42742" lon="4.63345">
        <ele>841</ele>
        <time>2021-05-14T12:55:44Z</time>
      </trkpt>
      <trkpt lat="45.42743" lon="4.63352">
        <ele>840</ele>
        <time>2021-05-14T12:55:47Z</time>
      </trkpt>
      <trkpt lat="45.42744" lon="4.63358">
        <ele>839</ele>
        <time>2021-05-14T12:55:49Z</time>
      </trkpt>
      <trkpt lat="45.42744" lon="4.63367">
        <ele>839</ele>
        <time>2021-05-14T12:55:51Z</time>
      </trkpt>
      <trkpt lat="45.42746" lon="4.63376">
        <ele>839</ele>
        <time>2021-05-14T12:55:53Z</time>
      </trkpt>
      <trkpt lat="45.42747" lon="4.63381">
        <ele>838</ele>
        <time>2021-05-14T12:55:55Z</time>
      </trkpt>
      <trkpt lat="45.42748" lon="4.63387">
        <ele>837</ele>
        <time>2021-05-14T12:55:57Z</time>
      </trkpt>
      <trkpt lat="45.42748" lon="4.63393">
        <ele>836</ele>
        <time>2021-05-14T12:55:59Z</time>
      </trkpt>
      <trkpt lat="45.42746" lon="4.634">
        <ele>834</ele>
        <time>2021-05-14T12:56:03Z</time>
      </trkpt>
      <trkpt lat="45.42744" lon="4.63405">
        <ele>834</ele>
        <time>2021-05-14T12:56:05Z</time>
      </trkpt>
      <trkpt lat="45.42743" lon="4.63413">
        <ele>832</ele>
        <time>2021-05-14T12:56:08Z</time>
      </trkpt>
      <trkpt lat="45.42742" lon="4.63419">
        <ele>832</ele>
        <time>2021-05-14T12:56:10Z</time>
      </trkpt>
      <trkpt lat="45.42741" lon="4.63426">
        <ele>832</ele>
        <time>2021-05-14T12:56:12Z</time>
      </trkpt>
      <trkpt lat="45.42742" lon="4.63433">
        <ele>832</ele>
        <time>2021-05-14T12:56:14Z</time>
      </trkpt>
      <trkpt lat="45.42742" lon="4.63441">
        <ele>832</ele>
        <time>2021-05-14T12:56:16Z</time>
      </trkpt>
      <trkpt lat="45.42742" lon="4.63447">
        <ele>831</ele>
        <time>2021-05-14T12:56:18Z</time>
      </trkpt>
      <trkpt lat="45.42743" lon="4.63454">
        <ele>830</ele>
        <time>2021-05-14T12:56:20Z</time>
      </trkpt>
      <trkpt lat="45.42744" lon="4.6346">
        <ele>830</ele>
        <time>2021-05-14T12:56:22Z</time>
      </trkpt>
      <trkpt lat="45.42745" lon="4.63467">
        <ele>830</ele>
        <time>2021-05-14T12:56:24Z</time>
      </trkpt>
      <trkpt lat="45.42746" lon="4.63474">
        <ele>830</ele>
        <time>2021-05-14T12:56:26Z</time>
      </trkpt>
      <trkpt lat="45.42748" lon="4.6348">
        <ele>830</ele>
        <time>2021-05-14T12:56:28Z</time>
      </trkpt>
      <trkpt lat="45.42748" lon="4.63486">
        <ele>830</ele>
        <time>2021-05-14T12:56:30Z</time>
      </trkpt>
      <trkpt lat="45.42748" lon="4.63495">
        <ele>829</ele>
        <time>2021-05-14T12:56:32Z</time>
      </trkpt>
      <trkpt lat="45.42749" lon="4.63502">
        <ele>829</ele>
        <time>2021-05-14T12:56:34Z</time>
      </trkpt>
      <trkpt lat="45.42749" lon="4.63509">
        <ele>829</ele>
        <time>2021-05-14T12:56:36Z</time>
      </trkpt>
      <trkpt lat="45.42751" lon="4.63516">
        <ele>829</ele>
        <time>2021-05-14T12:56:38Z</time>
      </trkpt>
      <trkpt lat="45.42752" lon="4.63522">
        <ele>829</ele>
        <time>2021-05-14T12:56:40Z</time>
      </trkpt>
      <trkpt lat="45.42752" lon="4.63529">
        <ele>829</ele>
        <time>2021-05-14T12:56:42Z</time>
      </trkpt>
      <trkpt lat="45.42752" lon="4.63538">
        <ele>829</ele>
        <time>2021-05-14T12:56:44Z</time>
      </trkpt>
      <trkpt lat="45.42753" lon="4.63545">
        <ele>829</ele>
        <time>2021-05-14T12:56:46Z</time>
      </trkpt>
      <trkpt lat="45.42755" lon="4.63551">
        <ele>829</ele>
        <time>2021-05-14T12:56:48Z</time>
      </trkpt>
      <trkpt lat="45.42755" lon="4.63558">
        <ele>829</ele>
        <time>2021-05-14T12:56:50Z</time>
      </trkpt>
      <trkpt lat="45.42755" lon="4.63563">
        <ele>829</ele>
        <time>2021-05-14T12:56:52Z</time>
      </trkpt>
      <trkpt lat="45.42757" lon="4.63568">
        <ele>830</ele>
        <time>2021-05-14T12:56:55Z</time>
      </trkpt>
      <trkpt lat="45.42758" lon="4.63573">
        <ele>829</ele>
        <time>2021-05-14T12:56:59Z</time>
      </trkpt>
      <trkpt lat="45.42758" lon="4.63579">
        <ele>829</ele>
        <time>2021-05-14T12:57:02Z</time>
      </trkpt>
      <trkpt lat="45.42755" lon="4.63583">
        <ele>829</ele>
        <time>2021-05-14T12:57:05Z</time>
      </trkpt>
      <trkpt lat="45.42755" lon="4.63589">
        <ele>829</ele>
        <time>2021-05-14T12:57:13Z</time>
      </trkpt>
      <trkpt lat="45.42756" lon="4.63594">
        <ele>829</ele>
        <time>2021-05-14T12:57:17Z</time>
      </trkpt>
      <trkpt lat="45.42756" lon="4.63601">
        <ele>829</ele>
        <time>2021-05-14T12:57:21Z</time>
      </trkpt>
      <trkpt lat="45.42755" lon="4.63608">
        <ele>827</ele>
        <time>2021-05-14T12:57:24Z</time>
      </trkpt>
      <trkpt lat="45.42755" lon="4.63613">
        <ele>827</ele>
        <time>2021-05-14T12:57:26Z</time>
      </trkpt>
      <trkpt lat="45.42755" lon="4.6362">
        <ele>827</ele>
        <time>2021-05-14T12:57:28Z</time>
      </trkpt>
      <trkpt lat="45.42756" lon="4.63626">
        <ele>827</ele>
        <time>2021-05-14T12:57:30Z</time>
      </trkpt>
      <trkpt lat="45.42757" lon="4.63632">
        <ele>827</ele>
        <time>2021-05-14T12:57:32Z</time>
      </trkpt>
      <trkpt lat="45.42758" lon="4.63637">
        <ele>827</ele>
        <time>2021-05-14T12:57:34Z</time>
      </trkpt>
      <trkpt lat="45.42759" lon="4.63644">
        <ele>826</ele>
        <time>2021-05-14T12:57:36Z</time>
      </trkpt>
      <trkpt lat="45.42759" lon="4.63651">
        <ele>826</ele>
        <time>2021-05-14T12:57:38Z</time>
      </trkpt>
      <trkpt lat="45.42759" lon="4.63657">
        <ele>826</ele>
        <time>2021-05-14T12:57:40Z</time>
      </trkpt>
      <trkpt lat="45.42759" lon="4.63663">
        <ele>824</ele>
        <time>2021-05-14T12:57:42Z</time>
      </trkpt>
      <trkpt lat="45.4276" lon="4.6367">
        <ele>824</ele>
        <time>2021-05-14T12:57:44Z</time>
      </trkpt>
      <trkpt lat="45.42761" lon="4.63678">
        <ele>824</ele>
        <time>2021-05-14T12:57:46Z</time>
      </trkpt>
      <trkpt lat="45.42761" lon="4.63686">
        <ele>824</ele>
        <time>2021-05-14T12:57:47Z</time>
      </trkpt>
      <trkpt lat="45.4276" lon="4.63694">
        <ele>823</ele>
        <time>2021-05-14T12:57:50Z</time>
      </trkpt>
      <trkpt lat="45.4276" lon="4.63702">
        <ele>823</ele>
        <time>2021-05-14T12:57:52Z</time>
      </trkpt>
      <trkpt lat="45.42761" lon="4.63709">
        <ele>823</ele>
        <time>2021-05-14T12:57:54Z</time>
      </trkpt>
      <trkpt lat="45.42762" lon="4.63715">
        <ele>822</ele>
        <time>2021-05-14T12:57:56Z</time>
      </trkpt>
      <trkpt lat="45.42762" lon="4.63724">
        <ele>822</ele>
        <time>2021-05-14T12:57:57Z</time>
      </trkpt>
      <trkpt lat="45.42762" lon="4.63732">
        <ele>822</ele>
        <time>2021-05-14T12:57:59Z</time>
      </trkpt>
      <trkpt lat="45.42763" lon="4.6374">
        <ele>820</ele>
        <time>2021-05-14T12:58:02Z</time>
      </trkpt>
      <trkpt lat="45.42764" lon="4.63747">
        <ele>820</ele>
        <time>2021-05-14T12:58:04Z</time>
      </trkpt>
      <trkpt lat="45.42764" lon="4.63755">
        <ele>820</ele>
        <time>2021-05-14T12:58:06Z</time>
      </trkpt>
      <trkpt lat="45.42762" lon="4.63763">
        <ele>820</ele>
        <time>2021-05-14T12:58:08Z</time>
      </trkpt>
      <trkpt lat="45.42762" lon="4.6377">
        <ele>820</ele>
        <time>2021-05-14T12:58:10Z</time>
      </trkpt>
      <trkpt lat="45.42761" lon="4.63777">
        <ele>820</ele>
        <time>2021-05-14T12:58:12Z</time>
      </trkpt>
      <trkpt lat="45.42761" lon="4.63783">
        <ele>819</ele>
        <time>2021-05-14T12:58:14Z</time>
      </trkpt>
      <trkpt lat="45.42761" lon="4.6379">
        <ele>818</ele>
        <time>2021-05-14T12:58:16Z</time>
      </trkpt>
      <trkpt lat="45.42759" lon="4.63796">
        <ele>818</ele>
        <time>2021-05-14T12:58:18Z</time>
      </trkpt>
      <trkpt lat="45.42758" lon="4.63802">
        <ele>816</ele>
        <time>2021-05-14T12:58:20Z</time>
      </trkpt>
      <trkpt lat="45.42757" lon="4.63808">
        <ele>816</ele>
        <time>2021-05-14T12:58:22Z</time>
      </trkpt>
      <trkpt lat="45.42758" lon="4.63814">
        <ele>816</ele>
        <time>2021-05-14T12:58:25Z</time>
      </trkpt>
      <trkpt lat="45.42758" lon="4.63821">
        <ele>815</ele>
        <time>2021-05-14T12:58:28Z</time>
      </trkpt>
      <trkpt lat="45.42757" lon="4.63826">
        <ele>815</ele>
        <time>2021-05-14T12:58:30Z</time>
      </trkpt>
      <trkpt lat="45.42755" lon="4.63832">
        <ele>814</ele>
        <time>2021-05-14T12:58:33Z</time>
      </trkpt>
      <trkpt lat="45.42753" lon="4.63837">
        <ele>814</ele>
        <time>2021-05-14T12:58:34Z</time>
      </trkpt>
      <trkpt lat="45.42752" lon="4.63844">
        <ele>814</ele>
        <time>2021-05-14T12:58:38Z</time>
      </trkpt>
      <trkpt lat="45.42752" lon="4.63849">
        <ele>813</ele>
        <time>2021-05-14T12:58:41Z</time>
      </trkpt>
      <trkpt lat="45.4275" lon="4.63856">
        <ele>812</ele>
        <time>2021-05-14T12:58:44Z</time>
      </trkpt>
      <trkpt lat="45.42749" lon="4.63863">
        <ele>811</ele>
        <time>2021-05-14T12:58:47Z</time>
      </trkpt>
      <trkpt lat="45.42748" lon="4.6387">
        <ele>810</ele>
        <time>2021-05-14T12:58:50Z</time>
      </trkpt>
      <trkpt lat="45.42747" lon="4.63875">
        <ele>810</ele>
        <time>2021-05-14T12:58:51Z</time>
      </trkpt>
      <trkpt lat="45.42747" lon="4.63882">
        <ele>809</ele>
        <time>2021-05-14T12:58:54Z</time>
      </trkpt>
      <trkpt lat="45.42746" lon="4.63888">
        <ele>808</ele>
        <time>2021-05-14T12:58:56Z</time>
      </trkpt>
      <trkpt lat="45.42747" lon="4.63893">
        <ele>807</ele>
        <time>2021-05-14T12:58:58Z</time>
      </trkpt>
      <trkpt lat="45.42747" lon="4.63898">
        <ele>807</ele>
        <time>2021-05-14T12:58:59Z</time>
      </trkpt>
      <trkpt lat="45.42746" lon="4.63903">
        <ele>805</ele>
        <time>2021-05-14T12:59:02Z</time>
      </trkpt>
      <trkpt lat="45.42746" lon="4.63908">
        <ele>805</ele>
        <time>2021-05-14T12:59:04Z</time>
      </trkpt>
      <trkpt lat="45.42746" lon="4.63914">
        <ele>805</ele>
        <time>2021-05-14T12:59:07Z</time>
      </trkpt>
      <trkpt lat="45.42745" lon="4.63921">
        <ele>803</ele>
        <time>2021-05-14T12:59:10Z</time>
      </trkpt>
      <trkpt lat="45.42744" lon="4.63926">
        <ele>803</ele>
        <time>2021-05-14T12:59:12Z</time>
      </trkpt>
      <trkpt lat="45.42742" lon="4.63932">
        <ele>802</ele>
        <time>2021-05-14T12:59:14Z</time>
      </trkpt>
      <trkpt lat="45.42739" lon="4.63937">
        <ele>800</ele>
        <time>2021-05-14T12:59:16Z</time>
      </trkpt>
      <trkpt lat="45.42736" lon="4.6394">
        <ele>799</ele>
        <time>2021-05-14T12:59:18Z</time>
      </trkpt>
      <trkpt lat="45.42735" lon="4.63946">
        <ele>799</ele>
        <time>2021-05-14T12:59:21Z</time>
      </trkpt>
      <trkpt lat="45.42733" lon="4.63951">
        <ele>798</ele>
        <time>2021-05-14T12:59:24Z</time>
      </trkpt>
      <trkpt lat="45.42732" lon="4.63957">
        <ele>798</ele>
        <time>2021-05-14T12:59:28Z</time>
      </trkpt>
      <trkpt lat="45.4273" lon="4.63962">
        <ele>798</ele>
        <time>2021-05-14T12:59:34Z</time>
      </trkpt>
      <trkpt lat="45.42731" lon="4.63967">
        <ele>800</ele>
        <time>2021-05-14T12:59:38Z</time>
      </trkpt>
      <trkpt lat="45.42732" lon="4.63973">
        <ele>800</ele>
        <time>2021-05-14T12:59:42Z</time>
      </trkpt>
      <trkpt lat="45.4273" lon="4.63978">
        <ele>798</ele>
        <time>2021-05-14T12:59:45Z</time>
      </trkpt>
      <trkpt lat="45.42729" lon="4.63985">
        <ele>797</ele>
        <time>2021-05-14T12:59:49Z</time>
      </trkpt>
      <trkpt lat="45.42727" lon="4.63992">
        <ele>797</ele>
        <time>2021-05-14T12:59:51Z</time>
      </trkpt>
      <trkpt lat="45.42727" lon="4.63998">
        <ele>796</ele>
        <time>2021-05-14T12:59:54Z</time>
      </trkpt>
      <trkpt lat="45.42726" lon="4.64004">
        <ele>796</ele>
        <time>2021-05-14T12:59:56Z</time>
      </trkpt>
      <trkpt lat="45.42726" lon="4.64011">
        <ele>796</ele>
        <time>2021-05-14T12:59:58Z</time>
      </trkpt>
      <trkpt lat="45.42726" lon="4.64019">
        <ele>796</ele>
        <time>2021-05-14T12:59:59Z</time>
      </trkpt>
      <trkpt lat="45.42725" lon="4.64027">
        <ele>796</ele>
        <time>2021-05-14T13:00:02Z</time>
      </trkpt>
      <trkpt lat="45.42726" lon="4.64035">
        <ele>795</ele>
        <time>2021-05-14T13:00:04Z</time>
      </trkpt>
      <trkpt lat="45.42726" lon="4.64042">
        <ele>795</ele>
        <time>2021-05-14T13:00:06Z</time>
      </trkpt>
      <trkpt lat="45.42725" lon="4.64048">
        <ele>794</ele>
        <time>2021-05-14T13:00:09Z</time>
      </trkpt>
      <trkpt lat="45.42723" lon="4.64055">
        <ele>793</ele>
        <time>2021-05-14T13:00:13Z</time>
      </trkpt>
      <trkpt lat="45.42721" lon="4.64062">
        <ele>792</ele>
        <time>2021-05-14T13:00:16Z</time>
      </trkpt>
      <trkpt lat="45.42719" lon="4.6407">
        <ele>792</ele>
        <time>2021-05-14T13:00:19Z</time>
      </trkpt>
      <trkpt lat="45.42719" lon="4.64077">
        <ele>791</ele>
        <time>2021-05-14T13:00:21Z</time>
      </trkpt>
      <trkpt lat="45.42721" lon="4.64082">
        <ele>791</ele>
        <time>2021-05-14T13:00:24Z</time>
      </trkpt>
      <trkpt lat="45.4272" lon="4.64089">
        <ele>790</ele>
        <time>2021-05-14T13:00:28Z</time>
      </trkpt>
      <trkpt lat="45.4272" lon="4.64095">
        <ele>789</ele>
        <time>2021-05-14T13:00:31Z</time>
      </trkpt>
      <trkpt lat="45.42722" lon="4.64103">
        <ele>789</ele>
        <time>2021-05-14T13:00:34Z</time>
      </trkpt>
      <trkpt lat="45.42722" lon="4.64109">
        <ele>788</ele>
        <time>2021-05-14T13:00:36Z</time>
      </trkpt>
      <trkpt lat="45.42723" lon="4.64116">
        <ele>787</ele>
        <time>2021-05-14T13:00:39Z</time>
      </trkpt>
      <trkpt lat="45.42723" lon="4.64123">
        <ele>787</ele>
        <time>2021-05-14T13:00:42Z</time>
      </trkpt>
      <trkpt lat="45.42723" lon="4.64128">
        <ele>786</ele>
        <time>2021-05-14T13:00:44Z</time>
      </trkpt>
      <trkpt lat="45.42723" lon="4.64134">
        <ele>786</ele>
        <time>2021-05-14T13:00:46Z</time>
      </trkpt>
      <trkpt lat="45.42724" lon="4.6414">
        <ele>785</ele>
        <time>2021-05-14T13:00:48Z</time>
      </trkpt>
      <trkpt lat="45.42724" lon="4.64146">
        <ele>785</ele>
        <time>2021-05-14T13:00:50Z</time>
      </trkpt>
      <trkpt lat="45.42725" lon="4.64153">
        <ele>783</ele>
        <time>2021-05-14T13:00:52Z</time>
      </trkpt>
      <trkpt lat="45.42728" lon="4.64161">
        <ele>783</ele>
        <time>2021-05-14T13:00:54Z</time>
      </trkpt>
      <trkpt lat="45.42731" lon="4.64169">
        <ele>783</ele>
        <time>2021-05-14T13:00:56Z</time>
      </trkpt>
      <trkpt lat="45.42731" lon="4.64177">
        <ele>783</ele>
        <time>2021-05-14T13:00:58Z</time>
      </trkpt>
      <trkpt lat="45.4273" lon="4.64182">
        <ele>783</ele>
        <time>2021-05-14T13:00:59Z</time>
      </trkpt>
      <trkpt lat="45.42729" lon="4.64188">
        <ele>782</ele>
        <time>2021-05-14T13:01:03Z</time>
      </trkpt>
      <trkpt lat="45.42727" lon="4.64194">
        <ele>781</ele>
        <time>2021-05-14T13:01:08Z</time>
      </trkpt>
      <trkpt lat="45.42727" lon="4.642">
        <ele>780</ele>
        <time>2021-05-14T13:01:13Z</time>
      </trkpt>
      <trkpt lat="45.42728" lon="4.64206">
        <ele>780</ele>
        <time>2021-05-14T13:01:16Z</time>
      </trkpt>
      <trkpt lat="45.42729" lon="4.64212">
        <ele>779</ele>
        <time>2021-05-14T13:01:19Z</time>
      </trkpt>
      <trkpt lat="45.42732" lon="4.64228">
        <ele>776</ele>
        <time>2021-05-14T13:01:27Z</time>
      </trkpt>
      <trkpt lat="45.42733" lon="4.64235">
        <ele>776</ele>
        <time>2021-05-14T13:01:30Z</time>
      </trkpt>
      <trkpt lat="45.42734" lon="4.6424">
        <ele>775</ele>
        <time>2021-05-14T13:01:32Z</time>
      </trkpt>
      <trkpt lat="45.42736" lon="4.64247">
        <ele>774</ele>
        <time>2021-05-14T13:01:35Z</time>
      </trkpt>
      <trkpt lat="45.42736" lon="4.64252">
        <ele>773</ele>
        <time>2021-05-14T13:01:38Z</time>
      </trkpt>
      <trkpt lat="45.42737" lon="4.64259">
        <ele>773</ele>
        <time>2021-05-14T13:01:41Z</time>
      </trkpt>
      <trkpt lat="45.42737" lon="4.64265">
        <ele>772</ele>
        <time>2021-05-14T13:01:43Z</time>
      </trkpt>
      <trkpt lat="45.42738" lon="4.64271">
        <ele>771</ele>
        <time>2021-05-14T13:01:45Z</time>
      </trkpt>
      <trkpt lat="45.42739" lon="4.64277">
        <ele>770</ele>
        <time>2021-05-14T13:01:48Z</time>
      </trkpt>
      <trkpt lat="45.42738" lon="4.64283">
        <ele>769</ele>
        <time>2021-05-14T13:01:50Z</time>
      </trkpt>
      <trkpt lat="45.42739" lon="4.64289">
        <ele>768</ele>
        <time>2021-05-14T13:01:53Z</time>
      </trkpt>
      <trkpt lat="45.42739" lon="4.64296">
        <ele>766</ele>
        <time>2021-05-14T13:01:56Z</time>
      </trkpt>
      <trkpt lat="45.4274" lon="4.64302">
        <ele>766</ele>
        <time>2021-05-14T13:01:58Z</time>
      </trkpt>
      <trkpt lat="45.4274" lon="4.6431">
        <ele>766</ele>
        <time>2021-05-14T13:01:59Z</time>
      </trkpt>
      <trkpt lat="45.42741" lon="4.64317">
        <ele>764</ele>
        <time>2021-05-14T13:02:02Z</time>
      </trkpt>
      <trkpt lat="45.4274" lon="4.64324">
        <ele>762</ele>
        <time>2021-05-14T13:02:04Z</time>
      </trkpt>
      <trkpt lat="45.42738" lon="4.64332">
        <ele>762</ele>
        <time>2021-05-14T13:02:06Z</time>
      </trkpt>
      <trkpt lat="45.42735" lon="4.64339">
        <ele>760</ele>
        <time>2021-05-14T13:02:08Z</time>
      </trkpt>
      <trkpt lat="45.42732" lon="4.64343">
        <ele>760</ele>
        <time>2021-05-14T13:02:10Z</time>
      </trkpt>
      <trkpt lat="45.4273" lon="4.64349">
        <ele>760</ele>
        <time>2021-05-14T13:02:12Z</time>
      </trkpt>
      <trkpt lat="45.42726" lon="4.64355">
        <ele>760</ele>
        <time>2021-05-14T13:02:14Z</time>
      </trkpt>
      <trkpt lat="45.42721" lon="4.64363">
        <ele>760</ele>
        <time>2021-05-14T13:02:16Z</time>
      </trkpt>
      <trkpt lat="45.42718" lon="4.64367">
        <ele>760</ele>
        <time>2021-05-14T13:02:17Z</time>
      </trkpt>
      <trkpt lat="45.42716" lon="4.64371">
        <ele>760</ele>
        <time>2021-05-14T13:02:18Z</time>
      </trkpt>
      <trkpt lat="45.42713" lon="4.64375">
        <ele>760</ele>
        <time>2021-05-14T13:02:19Z</time>
      </trkpt>
      <trkpt lat="45.4271" lon="4.64379">
        <ele>759</ele>
        <time>2021-05-14T13:02:20Z</time>
      </trkpt>
      <trkpt lat="45.42706" lon="4.64383">
        <ele>758</ele>
        <time>2021-05-14T13:02:21Z</time>
      </trkpt>
      <trkpt lat="45.42702" lon="4.64385">
        <ele>757</ele>
        <time>2021-05-14T13:02:22Z</time>
      </trkpt>
      <trkpt lat="45.42699" lon="4.64387">
        <ele>757</ele>
        <time>2021-05-14T13:02:23Z</time>
      </trkpt>
      <trkpt lat="45.42693" lon="4.64387">
        <ele>757</ele>
        <time>2021-05-14T13:02:25Z</time>
      </trkpt>
      <trkpt lat="45.42689" lon="4.64389">
        <ele>757</ele>
        <time>2021-05-14T13:02:27Z</time>
      </trkpt>
      <trkpt lat="45.42684" lon="4.64389">
        <ele>757</ele>
        <time>2021-05-14T13:02:30Z</time>
      </trkpt>
      <trkpt lat="45.4268" lon="4.64389">
        <ele>757</ele>
        <time>2021-05-14T13:02:33Z</time>
      </trkpt>
      <trkpt lat="45.42676" lon="4.64391">
        <ele>757</ele>
        <time>2021-05-14T13:02:37Z</time>
      </trkpt>
      <trkpt lat="45.42671" lon="4.64391">
        <ele>757</ele>
        <time>2021-05-14T13:02:40Z</time>
      </trkpt>
      <trkpt lat="45.42667" lon="4.64391">
        <ele>757</ele>
        <time>2021-05-14T13:02:43Z</time>
      </trkpt>
      <trkpt lat="45.42663" lon="4.6439">
        <ele>758</ele>
        <time>2021-05-14T13:02:46Z</time>
      </trkpt>
      <trkpt lat="45.42659" lon="4.64388">
        <ele>758</ele>
        <time>2021-05-14T13:02:49Z</time>
      </trkpt>
      <trkpt lat="45.42655" lon="4.64386">
        <ele>758</ele>
        <time>2021-05-14T13:02:51Z</time>
      </trkpt>
      <trkpt lat="45.4265" lon="4.64383">
        <ele>758</ele>
        <time>2021-05-14T13:02:53Z</time>
      </trkpt>
      <trkpt lat="45.42645" lon="4.64378">
        <ele>758</ele>
        <time>2021-05-14T13:02:55Z</time>
      </trkpt>
      <trkpt lat="45.4264" lon="4.64373">
        <ele>758</ele>
        <time>2021-05-14T13:02:57Z</time>
      </trkpt>
      <trkpt lat="45.42635" lon="4.64369">
        <ele>757</ele>
        <time>2021-05-14T13:02:59Z</time>
      </trkpt>
      <trkpt lat="45.4263" lon="4.64365">
        <ele>757</ele>
        <time>2021-05-14T13:03:01Z</time>
      </trkpt>
      <trkpt lat="45.42627" lon="4.64362">
        <ele>757</ele>
        <time>2021-05-14T13:03:03Z</time>
      </trkpt>
      <trkpt lat="45.42623" lon="4.6436">
        <ele>756</ele>
        <time>2021-05-14T13:03:05Z</time>
      </trkpt>
      <trkpt lat="45.4262" lon="4.6436">
        <ele>756</ele>
        <time>2021-05-14T13:03:07Z</time>
      </trkpt>
      <trkpt lat="45.42616" lon="4.6436">
        <ele>754</ele>
        <time>2021-05-14T13:03:11Z</time>
      </trkpt>
      <trkpt lat="45.4261" lon="4.64362">
        <ele>755</ele>
        <time>2021-05-14T13:03:22Z</time>
      </trkpt>
      <trkpt lat="45.42606" lon="4.64365">
        <ele>752</ele>
        <time>2021-05-14T13:03:24Z</time>
      </trkpt>
      <trkpt lat="45.42601" lon="4.64369">
        <ele>752</ele>
        <time>2021-05-14T13:03:26Z</time>
      </trkpt>
      <trkpt lat="45.42598" lon="4.64372">
        <ele>752</ele>
        <time>2021-05-14T13:03:28Z</time>
      </trkpt>
      <trkpt lat="45.42596" lon="4.64377">
        <ele>753</ele>
        <time>2021-05-14T13:03:30Z</time>
      </trkpt>
      <trkpt lat="45.42593" lon="4.64382">
        <ele>752</ele>
        <time>2021-05-14T13:03:32Z</time>
      </trkpt>
      <trkpt lat="45.42589" lon="4.64389">
        <ele>752</ele>
        <time>2021-05-14T13:03:34Z</time>
      </trkpt>
      <trkpt lat="45.42585" lon="4.64394">
        <ele>751</ele>
        <time>2021-05-14T13:03:36Z</time>
      </trkpt>
      <trkpt lat="45.4258" lon="4.644">
        <ele>749</ele>
        <time>2021-05-14T13:03:38Z</time>
      </trkpt>
      <trkpt lat="45.42577" lon="4.64407">
        <ele>749</ele>
        <time>2021-05-14T13:03:39Z</time>
      </trkpt>
      <trkpt lat="45.42573" lon="4.64413">
        <ele>750</ele>
        <time>2021-05-14T13:03:42Z</time>
      </trkpt>
      <trkpt lat="45.4257" lon="4.64419">
        <ele>748</ele>
        <time>2021-05-14T13:03:44Z</time>
      </trkpt>
      <trkpt lat="45.42567" lon="4.64424">
        <ele>747</ele>
        <time>2021-05-14T13:03:46Z</time>
      </trkpt>
      <trkpt lat="45.42564" lon="4.6443">
        <ele>747</ele>
        <time>2021-05-14T13:03:49Z</time>
      </trkpt>
      <trkpt lat="45.42562" lon="4.64435">
        <ele>746</ele>
        <time>2021-05-14T13:03:51Z</time>
      </trkpt>
      <trkpt lat="45.4256" lon="4.64441">
        <ele>746</ele>
        <time>2021-05-14T13:03:53Z</time>
      </trkpt>
      <trkpt lat="45.4256" lon="4.64447">
        <ele>745</ele>
        <time>2021-05-14T13:03:55Z</time>
      </trkpt>
      <trkpt lat="45.4256" lon="4.64452">
        <ele>744</ele>
        <time>2021-05-14T13:03:57Z</time>
      </trkpt>
      <trkpt lat="45.4256" lon="4.64459">
        <ele>743</ele>
        <time>2021-05-14T13:03:59Z</time>
      </trkpt>
      <trkpt lat="45.42561" lon="4.64468">
        <ele>743</ele>
        <time>2021-05-14T13:04:00Z</time>
      </trkpt>
      <trkpt lat="45.42562" lon="4.64476">
        <ele>742</ele>
        <time>2021-05-14T13:04:03Z</time>
      </trkpt>
      <trkpt lat="45.42563" lon="4.64481">
        <ele>742</ele>
        <time>2021-05-14T13:04:04Z</time>
      </trkpt>
      <trkpt lat="45.42563" lon="4.64489">
        <ele>742</ele>
        <time>2021-05-14T13:04:06Z</time>
      </trkpt>
      <trkpt lat="45.42563" lon="4.64498">
        <ele>741</ele>
        <time>2021-05-14T13:04:08Z</time>
      </trkpt>
      <trkpt lat="45.42564" lon="4.64506">
        <ele>740</ele>
        <time>2021-05-14T13:04:10Z</time>
      </trkpt>
      <trkpt lat="45.42564" lon="4.64514">
        <ele>740</ele>
        <time>2021-05-14T13:04:12Z</time>
      </trkpt>
      <trkpt lat="45.42565" lon="4.64522">
        <ele>739</ele>
        <time>2021-05-14T13:04:14Z</time>
      </trkpt>
      <trkpt lat="45.42566" lon="4.64529">
        <ele>738</ele>
        <time>2021-05-14T13:04:16Z</time>
      </trkpt>
      <trkpt lat="45.42567" lon="4.64535">
        <ele>737</ele>
        <time>2021-05-14T13:04:18Z</time>
      </trkpt>
      <trkpt lat="45.42569" lon="4.64546">
        <ele>735</ele>
        <time>2021-05-14T13:04:21Z</time>
      </trkpt>
      <trkpt lat="45.4257" lon="4.64552">
        <ele>735</ele>
        <time>2021-05-14T13:04:23Z</time>
      </trkpt>
      <trkpt lat="45.42572" lon="4.64561">
        <ele>734</ele>
        <time>2021-05-14T13:04:26Z</time>
      </trkpt>
      <trkpt lat="45.42573" lon="4.64568">
        <ele>733</ele>
        <time>2021-05-14T13:04:28Z</time>
      </trkpt>
      <trkpt lat="45.42575" lon="4.64575">
        <ele>733</ele>
        <time>2021-05-14T13:04:30Z</time>
      </trkpt>
      <trkpt lat="45.42576" lon="4.64582">
        <ele>732</ele>
        <time>2021-05-14T13:04:32Z</time>
      </trkpt>
      <trkpt lat="45.42576" lon="4.6459">
        <ele>731</ele>
        <time>2021-05-14T13:04:34Z</time>
      </trkpt>
      <trkpt lat="45.42576" lon="4.64598">
        <ele>730</ele>
        <time>2021-05-14T13:04:36Z</time>
      </trkpt>
      <trkpt lat="45.42576" lon="4.64606">
        <ele>730</ele>
        <time>2021-05-14T13:04:38Z</time>
      </trkpt>
      <trkpt lat="45.42576" lon="4.64615">
        <ele>728</ele>
        <time>2021-05-14T13:04:40Z</time>
      </trkpt>
      <trkpt lat="45.42576" lon="4.6463">
        <ele>726</ele>
        <time>2021-05-14T13:04:44Z</time>
      </trkpt>
      <trkpt lat="45.42577" lon="4.64639">
        <ele>726</ele>
        <time>2021-05-14T13:04:46Z</time>
      </trkpt>
      <trkpt lat="45.42578" lon="4.64644">
        <ele>726</ele>
        <time>2021-05-14T13:04:47Z</time>
      </trkpt>
      <trkpt lat="45.42578" lon="4.6465">
        <ele>726</ele>
        <time>2021-05-14T13:04:48Z</time>
      </trkpt>
      <trkpt lat="45.42579" lon="4.64662">
        <ele>726</ele>
        <time>2021-05-14T13:04:50Z</time>
      </trkpt>
      <trkpt lat="45.42579" lon="4.64671">
        <ele>724</ele>
        <time>2021-05-14T13:04:52Z</time>
      </trkpt>
      <trkpt lat="45.4258" lon="4.64676">
        <ele>723</ele>
        <time>2021-05-14T13:04:53Z</time>
      </trkpt>
      <trkpt lat="45.4258" lon="4.6469">
        <ele>722</ele>
        <time>2021-05-14T13:04:55Z</time>
      </trkpt>
      <trkpt lat="45.42581" lon="4.64699">
        <ele>721</ele>
        <time>2021-05-14T13:04:58Z</time>
      </trkpt>
      <trkpt lat="45.42581" lon="4.64704">
        <ele>720</ele>
        <time>2021-05-14T13:04:59Z</time>
      </trkpt>
      <trkpt lat="45.42583" lon="4.6472">
        <ele>719</ele>
        <time>2021-05-14T13:05:01Z</time>
      </trkpt>
      <trkpt lat="45.42583" lon="4.64726">
        <ele>718</ele>
        <time>2021-05-14T13:05:03Z</time>
      </trkpt>
      <trkpt lat="45.42583" lon="4.64731">
        <ele>718</ele>
        <time>2021-05-14T13:05:04Z</time>
      </trkpt>
      <trkpt lat="45.42583" lon="4.64737">
        <ele>717</ele>
        <time>2021-05-14T13:05:05Z</time>
      </trkpt>
      <trkpt lat="45.42584" lon="4.64743">
        <ele>717</ele>
        <time>2021-05-14T13:05:06Z</time>
      </trkpt>
      <trkpt lat="45.42585" lon="4.64749">
        <ele>717</ele>
        <time>2021-05-14T13:05:07Z</time>
      </trkpt>
      <trkpt lat="45.42585" lon="4.64754">
        <ele>717</ele>
        <time>2021-05-14T13:05:08Z</time>
      </trkpt>
      <trkpt lat="45.42586" lon="4.64759">
        <ele>717</ele>
        <time>2021-05-14T13:05:09Z</time>
      </trkpt>
      <trkpt lat="45.42585" lon="4.64765">
        <ele>717</ele>
        <time>2021-05-14T13:05:10Z</time>
      </trkpt>
      <trkpt lat="45.42585" lon="4.64773">
        <ele>715</ele>
        <time>2021-05-14T13:05:12Z</time>
      </trkpt>
      <trkpt lat="45.42586" lon="4.6478">
        <ele>715</ele>
        <time>2021-05-14T13:05:14Z</time>
      </trkpt>
      <trkpt lat="45.42586" lon="4.64789">
        <ele>714</ele>
        <time>2021-05-14T13:05:16Z</time>
      </trkpt>
      <trkpt lat="45.42586" lon="4.64796">
        <ele>711</ele>
        <time>2021-05-14T13:05:18Z</time>
      </trkpt>
      <trkpt lat="45.42586" lon="4.64804">
        <ele>711</ele>
        <time>2021-05-14T13:05:20Z</time>
      </trkpt>
      <trkpt lat="45.42586" lon="4.64812">
        <ele>711</ele>
        <time>2021-05-14T13:05:22Z</time>
      </trkpt>
      <trkpt lat="45.42587" lon="4.6482">
        <ele>710</ele>
        <time>2021-05-14T13:05:24Z</time>
      </trkpt>
      <trkpt lat="45.42587" lon="4.64827">
        <ele>709</ele>
        <time>2021-05-14T13:05:26Z</time>
      </trkpt>
      <trkpt lat="45.4259" lon="4.64835">
        <ele>709</ele>
        <time>2021-05-14T13:05:28Z</time>
      </trkpt>
      <trkpt lat="45.42591" lon="4.64842">
        <ele>708</ele>
        <time>2021-05-14T13:05:30Z</time>
      </trkpt>
      <trkpt lat="45.42593" lon="4.64847">
        <ele>708</ele>
        <time>2021-05-14T13:05:32Z</time>
      </trkpt>
      <trkpt lat="45.42595" lon="4.64853">
        <ele>707</ele>
        <time>2021-05-14T13:05:34Z</time>
      </trkpt>
      <trkpt lat="45.42596" lon="4.64859">
        <ele>707</ele>
        <time>2021-05-14T13:05:36Z</time>
      </trkpt>
      <trkpt lat="45.42598" lon="4.64865">
        <ele>706</ele>
        <time>2021-05-14T13:05:38Z</time>
      </trkpt>
      <trkpt lat="45.426" lon="4.6487">
        <ele>705</ele>
        <time>2021-05-14T13:05:40Z</time>
      </trkpt>
      <trkpt lat="45.42601" lon="4.64875">
        <ele>704</ele>
        <time>2021-05-14T13:05:42Z</time>
      </trkpt>
      <trkpt lat="45.42603" lon="4.6488">
        <ele>702</ele>
        <time>2021-05-14T13:05:46Z</time>
      </trkpt>
      <trkpt lat="45.42605" lon="4.64887">
        <ele>701</ele>
        <time>2021-05-14T13:05:49Z</time>
      </trkpt>
      <trkpt lat="45.42607" lon="4.64893">
        <ele>701</ele>
        <time>2021-05-14T13:05:51Z</time>
      </trkpt>
      <trkpt lat="45.42608" lon="4.64899">
        <ele>700</ele>
        <time>2021-05-14T13:05:53Z</time>
      </trkpt>
      <trkpt lat="45.42611" lon="4.64905">
        <ele>699</ele>
        <time>2021-05-14T13:05:55Z</time>
      </trkpt>
      <trkpt lat="45.42614" lon="4.6491">
        <ele>698</ele>
        <time>2021-05-14T13:05:57Z</time>
      </trkpt>
      <trkpt lat="45.42617" lon="4.64914">
        <ele>698</ele>
        <time>2021-05-14T13:05:59Z</time>
      </trkpt>
      <trkpt lat="45.42621" lon="4.64915">
        <ele>698</ele>
        <time>2021-05-14T13:06:01Z</time>
      </trkpt>
      <trkpt lat="45.42624" lon="4.64915">
        <ele>696</ele>
        <time>2021-05-14T13:06:05Z</time>
      </trkpt>
      <trkpt lat="45.42628" lon="4.64912">
        <ele>696</ele>
        <time>2021-05-14T13:06:08Z</time>
      </trkpt>
      <trkpt lat="45.42633" lon="4.64913">
        <ele>696</ele>
        <time>2021-05-14T13:06:11Z</time>
      </trkpt>
      <trkpt lat="45.42635" lon="4.64916">
        <ele>695</ele>
        <time>2021-05-14T13:06:14Z</time>
      </trkpt>
      <trkpt lat="45.42639" lon="4.6492">
        <ele>694</ele>
        <time>2021-05-14T13:06:17Z</time>
      </trkpt>
      <trkpt lat="45.42643" lon="4.64924">
        <ele>692</ele>
        <time>2021-05-14T13:06:20Z</time>
      </trkpt>
      <trkpt lat="45.42646" lon="4.64927">
        <ele>691</ele>
        <time>2021-05-14T13:06:22Z</time>
      </trkpt>
      <trkpt lat="45.4265" lon="4.64929">
        <ele>690</ele>
        <time>2021-05-14T13:06:25Z</time>
      </trkpt>
      <trkpt lat="45.42653" lon="4.64931">
        <ele>690</ele>
        <time>2021-05-14T13:06:27Z</time>
      </trkpt>
      <trkpt lat="45.42659" lon="4.64932">
        <ele>689</ele>
        <time>2021-05-14T13:06:30Z</time>
      </trkpt>
      <trkpt lat="45.42664" lon="4.64932">
        <ele>688</ele>
        <time>2021-05-14T13:06:32Z</time>
      </trkpt>
      <trkpt lat="45.42668" lon="4.64932">
        <ele>687</ele>
        <time>2021-05-14T13:06:34Z</time>
      </trkpt>
      <trkpt lat="45.42673" lon="4.64934">
        <ele>686</ele>
        <time>2021-05-14T13:06:37Z</time>
      </trkpt>
      <trkpt lat="45.42679" lon="4.64934">
        <ele>685</ele>
        <time>2021-05-14T13:06:39Z</time>
      </trkpt>
      <trkpt lat="45.42683" lon="4.64934">
        <ele>684</ele>
        <time>2021-05-14T13:06:41Z</time>
      </trkpt>
      <trkpt lat="45.42687" lon="4.64934">
        <ele>684</ele>
        <time>2021-05-14T13:06:42Z</time>
      </trkpt>
      <trkpt lat="45.42692" lon="4.64935">
        <ele>683</ele>
        <time>2021-05-14T13:06:45Z</time>
      </trkpt>
      <trkpt lat="45.42697" lon="4.64936">
        <ele>682</ele>
        <time>2021-05-14T13:06:48Z</time>
      </trkpt>
      <trkpt lat="45.427" lon="4.64936">
        <ele>681</ele>
        <time>2021-05-14T13:06:50Z</time>
      </trkpt>
      <trkpt lat="45.42704" lon="4.64936">
        <ele>681</ele>
        <time>2021-05-14T13:06:52Z</time>
      </trkpt>
      <trkpt lat="45.42709" lon="4.64937">
        <ele>681</ele>
        <time>2021-05-14T13:06:55Z</time>
      </trkpt>
      <trkpt lat="45.42713" lon="4.64938">
        <ele>681</ele>
        <time>2021-05-14T13:06:56Z</time>
      </trkpt>
      <trkpt lat="45.42717" lon="4.6494">
        <ele>680</ele>
        <time>2021-05-14T13:06:57Z</time>
      </trkpt>
      <trkpt lat="45.42721" lon="4.64943">
        <ele>680</ele>
        <time>2021-05-14T13:06:59Z</time>
      </trkpt>
      <trkpt lat="45.42725" lon="4.6495">
        <ele>680</ele>
        <time>2021-05-14T13:07:01Z</time>
      </trkpt>
      <trkpt lat="45.42726" lon="4.64957">
        <ele>679</ele>
        <time>2021-05-14T13:07:03Z</time>
      </trkpt>
      <trkpt lat="45.42726" lon="4.64962">
        <ele>680</ele>
        <time>2021-05-14T13:07:06Z</time>
      </trkpt>
      <trkpt lat="45.42723" lon="4.64967">
        <ele>680</ele>
        <time>2021-05-14T13:07:09Z</time>
      </trkpt>
      <trkpt lat="45.42721" lon="4.64971">
        <ele>679</ele>
        <time>2021-05-14T13:07:12Z</time>
      </trkpt>
      <trkpt lat="45.42717" lon="4.64973">
        <ele>680</ele>
        <time>2021-05-14T13:07:20Z</time>
      </trkpt>
      <trkpt lat="45.42714" lon="4.64975">
        <ele>680</ele>
        <time>2021-05-14T13:07:22Z</time>
      </trkpt>
      <trkpt lat="45.42709" lon="4.64978">
        <ele>680</ele>
        <time>2021-05-14T13:07:25Z</time>
      </trkpt>
      <trkpt lat="45.42706" lon="4.64981">
        <ele>680</ele>
        <time>2021-05-14T13:07:27Z</time>
      </trkpt>
      <trkpt lat="45.42703" lon="4.64986">
        <ele>680</ele>
        <time>2021-05-14T13:07:29Z</time>
      </trkpt>
      <trkpt lat="45.42698" lon="4.6499">
        <ele>679</ele>
        <time>2021-05-14T13:07:31Z</time>
      </trkpt>
      <trkpt lat="45.42694" lon="4.64995">
        <ele>680</ele>
        <time>2021-05-14T13:07:33Z</time>
      </trkpt>
      <trkpt lat="45.42691" lon="4.65001">
        <ele>680</ele>
        <time>2021-05-14T13:07:35Z</time>
      </trkpt>
      <trkpt lat="45.42688" lon="4.65006">
        <ele>680</ele>
        <time>2021-05-14T13:07:37Z</time>
      </trkpt>
      <trkpt lat="45.42685" lon="4.65013">
        <ele>679</ele>
        <time>2021-05-14T13:07:39Z</time>
      </trkpt>
      <trkpt lat="45.42682" lon="4.65019">
        <ele>678</ele>
        <time>2021-05-14T13:07:41Z</time>
      </trkpt>
      <trkpt lat="45.4268" lon="4.65026">
        <ele>678</ele>
        <time>2021-05-14T13:07:43Z</time>
      </trkpt>
      <trkpt lat="45.42678" lon="4.65033">
        <ele>676</ele>
        <time>2021-05-14T13:07:45Z</time>
      </trkpt>
      <trkpt lat="45.42677" lon="4.6504">
        <ele>676</ele>
        <time>2021-05-14T13:07:47Z</time>
      </trkpt>
      <trkpt lat="45.42676" lon="4.65046">
        <ele>674</ele>
        <time>2021-05-14T13:07:49Z</time>
      </trkpt>
      <trkpt lat="45.42674" lon="4.6505">
        <ele>673</ele>
        <time>2021-05-14T13:07:50Z</time>
      </trkpt>
      <trkpt lat="45.4267" lon="4.65058">
        <ele>672</ele>
        <time>2021-05-14T13:07:52Z</time>
      </trkpt>
      <trkpt lat="45.42668" lon="4.65064">
        <ele>672</ele>
        <time>2021-05-14T13:07:53Z</time>
      </trkpt>
      <trkpt lat="45.42666" lon="4.65069">
        <ele>671</ele>
        <time>2021-05-14T13:07:54Z</time>
      </trkpt>
      <trkpt lat="45.42664" lon="4.65075">
        <ele>670</ele>
        <time>2021-05-14T13:07:55Z</time>
      </trkpt>
      <trkpt lat="45.42661" lon="4.65079">
        <ele>669</ele>
        <time>2021-05-14T13:07:56Z</time>
      </trkpt>
      <trkpt lat="45.42656" lon="4.65084">
        <ele>668</ele>
        <time>2021-05-14T13:07:57Z</time>
      </trkpt>
      <trkpt lat="45.42648" lon="4.6509">
        <ele>667</ele>
        <time>2021-05-14T13:07:58Z</time>
      </trkpt>
      <trkpt lat="45.42644" lon="4.65092">
        <ele>667</ele>
        <time>2021-05-14T13:08:00Z</time>
      </trkpt>
      <trkpt lat="45.4264" lon="4.65094">
        <ele>665</ele>
        <time>2021-05-14T13:08:01Z</time>
      </trkpt>
      <trkpt lat="45.42637" lon="4.65097">
        <ele>664</ele>
        <time>2021-05-14T13:08:02Z</time>
      </trkpt>
      <trkpt lat="45.42633" lon="4.651">
        <ele>664</ele>
        <time>2021-05-14T13:08:03Z</time>
      </trkpt>
      <trkpt lat="45.42629" lon="4.65108">
        <ele>663</ele>
        <time>2021-05-14T13:08:05Z</time>
      </trkpt>
      <trkpt lat="45.42628" lon="4.65115">
        <ele>663</ele>
        <time>2021-05-14T13:08:07Z</time>
      </trkpt>
      <trkpt lat="45.42627" lon="4.65122">
        <ele>661</ele>
        <time>2021-05-14T13:08:09Z</time>
      </trkpt>
      <trkpt lat="45.42627" lon="4.65129">
        <ele>659</ele>
        <time>2021-05-14T13:08:11Z</time>
      </trkpt>
      <trkpt lat="45.42625" lon="4.65138">
        <ele>657</ele>
        <time>2021-05-14T13:08:13Z</time>
      </trkpt>
      <trkpt lat="45.42624" lon="4.65143">
        <ele>657</ele>
        <time>2021-05-14T13:08:14Z</time>
      </trkpt>
      <trkpt lat="45.42621" lon="4.65152">
        <ele>656</ele>
        <time>2021-05-14T13:08:16Z</time>
      </trkpt>
      <trkpt lat="45.42619" lon="4.65161">
        <ele>654</ele>
        <time>2021-05-14T13:08:18Z</time>
      </trkpt>
      <trkpt lat="45.42615" lon="4.65168">
        <ele>653</ele>
        <time>2021-05-14T13:08:20Z</time>
      </trkpt>
      <trkpt lat="45.42612" lon="4.65171">
        <ele>652</ele>
        <time>2021-05-14T13:08:21Z</time>
      </trkpt>
      <trkpt lat="45.42608" lon="4.65178">
        <ele>651</ele>
        <time>2021-05-14T13:08:23Z</time>
      </trkpt>
      <trkpt lat="45.42603" lon="4.65187">
        <ele>650</ele>
        <time>2021-05-14T13:08:24Z</time>
      </trkpt>
      <trkpt lat="45.42601" lon="4.65191">
        <ele>649</ele>
        <time>2021-05-14T13:08:26Z</time>
      </trkpt>
      <trkpt lat="45.42597" lon="4.65199">
        <ele>648</ele>
        <time>2021-05-14T13:08:28Z</time>
      </trkpt>
      <trkpt lat="45.42595" lon="4.65203">
        <ele>648</ele>
        <time>2021-05-14T13:08:29Z</time>
      </trkpt>
      <trkpt lat="45.42591" lon="4.6521">
        <ele>647</ele>
        <time>2021-05-14T13:08:31Z</time>
      </trkpt>
      <trkpt lat="45.42587" lon="4.65218">
        <ele>646</ele>
        <time>2021-05-14T13:08:33Z</time>
      </trkpt>
      <trkpt lat="45.42585" lon="4.65228">
        <ele>645</ele>
        <time>2021-05-14T13:08:35Z</time>
      </trkpt>
      <trkpt lat="45.42587" lon="4.65236">
        <ele>645</ele>
        <time>2021-05-14T13:08:37Z</time>
      </trkpt>
      <trkpt lat="45.42592" lon="4.65241">
        <ele>644</ele>
        <time>2021-05-14T13:08:39Z</time>
      </trkpt>
      <trkpt lat="45.42596" lon="4.65243">
        <ele>644</ele>
        <time>2021-05-14T13:08:41Z</time>
      </trkpt>
      <trkpt lat="45.42601" lon="4.65242">
        <ele>643</ele>
        <time>2021-05-14T13:08:43Z</time>
      </trkpt>
      <trkpt lat="45.42606" lon="4.65241">
        <ele>643</ele>
        <time>2021-05-14T13:08:45Z</time>
      </trkpt>
      <trkpt lat="45.42611" lon="4.6524">
        <ele>643</ele>
        <time>2021-05-14T13:08:47Z</time>
      </trkpt>
      <trkpt lat="45.42616" lon="4.65239">
        <ele>642</ele>
        <time>2021-05-14T13:08:49Z</time>
      </trkpt>
      <trkpt lat="45.42622" lon="4.65238">
        <ele>641</ele>
        <time>2021-05-14T13:08:51Z</time>
      </trkpt>
      <trkpt lat="45.42626" lon="4.65239">
        <ele>641</ele>
        <time>2021-05-14T13:08:52Z</time>
      </trkpt>
      <trkpt lat="45.42631" lon="4.65241">
        <ele>641</ele>
        <time>2021-05-14T13:08:53Z</time>
      </trkpt>
      <trkpt lat="45.42635" lon="4.65244">
        <ele>640</ele>
        <time>2021-05-14T13:08:54Z</time>
      </trkpt>
      <trkpt lat="45.42639" lon="4.65249">
        <ele>640</ele>
        <time>2021-05-14T13:08:55Z</time>
      </trkpt>
      <trkpt lat="45.42643" lon="4.65253">
        <ele>640</ele>
        <time>2021-05-14T13:08:56Z</time>
      </trkpt>
      <trkpt lat="45.42645" lon="4.65259">
        <ele>640</ele>
        <time>2021-05-14T13:08:57Z</time>
      </trkpt>
      <trkpt lat="45.42646" lon="4.65265">
        <ele>639</ele>
        <time>2021-05-14T13:08:58Z</time>
      </trkpt>
      <trkpt lat="45.42648" lon="4.65276">
        <ele>638</ele>
        <time>2021-05-14T13:08:59Z</time>
      </trkpt>
      <trkpt lat="45.42647" lon="4.65286">
        <ele>636</ele>
        <time>2021-05-14T13:09:02Z</time>
      </trkpt>
      <trkpt lat="45.42645" lon="4.65291">
        <ele>636</ele>
        <time>2021-05-14T13:09:03Z</time>
      </trkpt>
      <trkpt lat="45.42643" lon="4.65295">
        <ele>636</ele>
        <time>2021-05-14T13:09:04Z</time>
      </trkpt>
      <trkpt lat="45.42641" lon="4.653">
        <ele>636</ele>
        <time>2021-05-14T13:09:05Z</time>
      </trkpt>
      <trkpt lat="45.42636" lon="4.65306">
        <ele>635</ele>
        <time>2021-05-14T13:09:07Z</time>
      </trkpt>
      <trkpt lat="45.42632" lon="4.65313">
        <ele>633</ele>
        <time>2021-05-14T13:09:09Z</time>
      </trkpt>
      <trkpt lat="45.42627" lon="4.65318">
        <ele>631</ele>
        <time>2021-05-14T13:09:11Z</time>
      </trkpt>
      <trkpt lat="45.42622" lon="4.65324">
        <ele>631</ele>
        <time>2021-05-14T13:09:13Z</time>
      </trkpt>
      <trkpt lat="45.4262" lon="4.65328">
        <ele>631</ele>
        <time>2021-05-14T13:09:14Z</time>
      </trkpt>
      <trkpt lat="45.42617" lon="4.65331">
        <ele>630</ele>
        <time>2021-05-14T13:09:15Z</time>
      </trkpt>
      <trkpt lat="45.42615" lon="4.65335">
        <ele>630</ele>
        <time>2021-05-14T13:09:16Z</time>
      </trkpt>
      <trkpt lat="45.42612" lon="4.6534">
        <ele>629</ele>
        <time>2021-05-14T13:09:17Z</time>
      </trkpt>
      <trkpt lat="45.4261" lon="4.65344">
        <ele>629</ele>
        <time>2021-05-14T13:09:18Z</time>
      </trkpt>
      <trkpt lat="45.42608" lon="4.65348">
        <ele>629</ele>
        <time>2021-05-14T13:09:19Z</time>
      </trkpt>
      <trkpt lat="45.42605" lon="4.65352">
        <ele>628</ele>
        <time>2021-05-14T13:09:20Z</time>
      </trkpt>
      <trkpt lat="45.42602" lon="4.65355">
        <ele>628</ele>
        <time>2021-05-14T13:09:21Z</time>
      </trkpt>
      <trkpt lat="45.42599" lon="4.65358">
        <ele>627</ele>
        <time>2021-05-14T13:09:22Z</time>
      </trkpt>
      <trkpt lat="45.42596" lon="4.65362">
        <ele>627</ele>
        <time>2021-05-14T13:09:23Z</time>
      </trkpt>
      <trkpt lat="45.42592" lon="4.65365">
        <ele>627</ele>
        <time>2021-05-14T13:09:24Z</time>
      </trkpt>
      <trkpt lat="45.42589" lon="4.65367">
        <ele>627</ele>
        <time>2021-05-14T13:09:25Z</time>
      </trkpt>
      <trkpt lat="45.42586" lon="4.65369">
        <ele>626</ele>
        <time>2021-05-14T13:09:26Z</time>
      </trkpt>
      <trkpt lat="45.42582" lon="4.65371">
        <ele>626</ele>
        <time>2021-05-14T13:09:27Z</time>
      </trkpt>
      <trkpt lat="45.42576" lon="4.65375">
        <ele>625</ele>
        <time>2021-05-14T13:09:29Z</time>
      </trkpt>
      <trkpt lat="45.42569" lon="4.65379">
        <ele>624</ele>
        <time>2021-05-14T13:09:31Z</time>
      </trkpt>
      <trkpt lat="45.42565" lon="4.65385">
        <ele>623</ele>
        <time>2021-05-14T13:09:33Z</time>
      </trkpt>
      <trkpt lat="45.42562" lon="4.65391">
        <ele>623</ele>
        <time>2021-05-14T13:09:35Z</time>
      </trkpt>
      <trkpt lat="45.4256" lon="4.65397">
        <ele>621</ele>
        <time>2021-05-14T13:09:37Z</time>
      </trkpt>
      <trkpt lat="45.42559" lon="4.65405">
        <ele>620</ele>
        <time>2021-05-14T13:09:39Z</time>
      </trkpt>
      <trkpt lat="45.42558" lon="4.65412">
        <ele>618</ele>
        <time>2021-05-14T13:09:41Z</time>
      </trkpt>
      <trkpt lat="45.42558" lon="4.65421">
        <ele>618</ele>
        <time>2021-05-14T13:09:43Z</time>
      </trkpt>
      <trkpt lat="45.42556" lon="4.65429">
        <ele>618</ele>
        <time>2021-05-14T13:09:45Z</time>
      </trkpt>
      <trkpt lat="45.42555" lon="4.65438">
        <ele>617</ele>
        <time>2021-05-14T13:09:47Z</time>
      </trkpt>
      <trkpt lat="45.42555" lon="4.65448">
        <ele>616</ele>
        <time>2021-05-14T13:09:49Z</time>
      </trkpt>
      <trkpt lat="45.42554" lon="4.65457">
        <ele>615</ele>
        <time>2021-05-14T13:09:51Z</time>
      </trkpt>
      <trkpt lat="45.42554" lon="4.65466">
        <ele>615</ele>
        <time>2021-05-14T13:09:53Z</time>
      </trkpt>
      <trkpt lat="45.42553" lon="4.65475">
        <ele>614</ele>
        <time>2021-05-14T13:09:55Z</time>
      </trkpt>
      <trkpt lat="45.42554" lon="4.65483">
        <ele>613</ele>
        <time>2021-05-14T13:09:57Z</time>
      </trkpt>
      <trkpt lat="45.42555" lon="4.65496">
        <ele>612</ele>
        <time>2021-05-14T13:10:00Z</time>
      </trkpt>
      <trkpt lat="45.42556" lon="4.65505">
        <ele>610</ele>
        <time>2021-05-14T13:10:02Z</time>
      </trkpt>
      <trkpt lat="45.42557" lon="4.65515">
        <ele>610</ele>
        <time>2021-05-14T13:10:04Z</time>
      </trkpt>
      <trkpt lat="45.42558" lon="4.6552">
        <ele>609</ele>
        <time>2021-05-14T13:10:05Z</time>
      </trkpt>
      <trkpt lat="45.42559" lon="4.65529">
        <ele>609</ele>
        <time>2021-05-14T13:10:07Z</time>
      </trkpt>
      <trkpt lat="45.4256" lon="4.65539">
        <ele>609</ele>
        <time>2021-05-14T13:10:09Z</time>
      </trkpt>
      <trkpt lat="45.4256" lon="4.65544">
        <ele>609</ele>
        <time>2021-05-14T13:10:10Z</time>
      </trkpt>
      <trkpt lat="45.42562" lon="4.65553">
        <ele>609</ele>
        <time>2021-05-14T13:10:12Z</time>
      </trkpt>
      <trkpt lat="45.42563" lon="4.65559">
        <ele>609</ele>
        <time>2021-05-14T13:10:14Z</time>
      </trkpt>
      <trkpt lat="45.42566" lon="4.65566">
        <ele>609</ele>
        <time>2021-05-14T13:10:16Z</time>
      </trkpt>
      <trkpt lat="45.42568" lon="4.65573">
        <ele>608</ele>
        <time>2021-05-14T13:10:18Z</time>
      </trkpt>
      <trkpt lat="45.42571" lon="4.6558">
        <ele>608</ele>
        <time>2021-05-14T13:10:20Z</time>
      </trkpt>
      <trkpt lat="45.42574" lon="4.65587">
        <ele>606</ele>
        <time>2021-05-14T13:10:22Z</time>
      </trkpt>
      <trkpt lat="45.42575" lon="4.65594">
        <ele>605</ele>
        <time>2021-05-14T13:10:24Z</time>
      </trkpt>
      <trkpt lat="45.42578" lon="4.65608">
        <ele>604</ele>
        <time>2021-05-14T13:10:26Z</time>
      </trkpt>
      <trkpt lat="45.4258" lon="4.65618">
        <ele>602</ele>
        <time>2021-05-14T13:10:29Z</time>
      </trkpt>
      <trkpt lat="45.42581" lon="4.65622">
        <ele>601</ele>
        <time>2021-05-14T13:10:30Z</time>
      </trkpt>
      <trkpt lat="45.42581" lon="4.65633">
        <ele>600</ele>
        <time>2021-05-14T13:10:32Z</time>
      </trkpt>
      <trkpt lat="45.42578" lon="4.65642">
        <ele>600</ele>
        <time>2021-05-14T13:10:34Z</time>
      </trkpt>
      <trkpt lat="45.42576" lon="4.65646">
        <ele>600</ele>
        <time>2021-05-14T13:10:35Z</time>
      </trkpt>
      <trkpt lat="45.42573" lon="4.65651">
        <ele>600</ele>
        <time>2021-05-14T13:10:36Z</time>
      </trkpt>
      <trkpt lat="45.42571" lon="4.65655">
        <ele>599</ele>
        <time>2021-05-14T13:10:37Z</time>
      </trkpt>
      <trkpt lat="45.42569" lon="4.6566">
        <ele>598</ele>
        <time>2021-05-14T13:10:38Z</time>
      </trkpt>
      <trkpt lat="45.42565" lon="4.65667">
        <ele>597</ele>
        <time>2021-05-14T13:10:40Z</time>
      </trkpt>
      <trkpt lat="45.42563" lon="4.65671">
        <ele>596</ele>
        <time>2021-05-14T13:10:41Z</time>
      </trkpt>
      <trkpt lat="45.42561" lon="4.65676">
        <ele>596</ele>
        <time>2021-05-14T13:10:42Z</time>
      </trkpt>
      <trkpt lat="45.42559" lon="4.6568">
        <ele>595</ele>
        <time>2021-05-14T13:10:43Z</time>
      </trkpt>
      <trkpt lat="45.42557" lon="4.65684">
        <ele>595</ele>
        <time>2021-05-14T13:10:44Z</time>
      </trkpt>
      <trkpt lat="45.42554" lon="4.65688">
        <ele>595</ele>
        <time>2021-05-14T13:10:45Z</time>
      </trkpt>
      <trkpt lat="45.42548" lon="4.65693">
        <ele>595</ele>
        <time>2021-05-14T13:10:47Z</time>
      </trkpt>
      <trkpt lat="45.42542" lon="4.65695">
        <ele>593</ele>
        <time>2021-05-14T13:10:49Z</time>
      </trkpt>
      <trkpt lat="45.42539" lon="4.65696">
        <ele>593</ele>
        <time>2021-05-14T13:10:50Z</time>
      </trkpt>
      <trkpt lat="45.42535" lon="4.65697">
        <ele>593</ele>
        <time>2021-05-14T13:10:51Z</time>
      </trkpt>
      <trkpt lat="45.42531" lon="4.65699">
        <ele>593</ele>
        <time>2021-05-14T13:10:52Z</time>
      </trkpt>
      <trkpt lat="45.42525" lon="4.657">
        <ele>593</ele>
        <time>2021-05-14T13:10:54Z</time>
      </trkpt>
      <trkpt lat="45.42518" lon="4.65701">
        <ele>593</ele>
        <time>2021-05-14T13:10:56Z</time>
      </trkpt>
      <trkpt lat="45.42511" lon="4.657">
        <ele>592</ele>
        <time>2021-05-14T13:10:58Z</time>
      </trkpt>
      <trkpt lat="45.42504" lon="4.65698">
        <ele>592</ele>
        <time>2021-05-14T13:11:00Z</time>
      </trkpt>
      <trkpt lat="45.42501" lon="4.65696">
        <ele>592</ele>
        <time>2021-05-14T13:11:01Z</time>
      </trkpt>
      <trkpt lat="45.42497" lon="4.65694">
        <ele>591</ele>
        <time>2021-05-14T13:11:02Z</time>
      </trkpt>
      <trkpt lat="45.42494" lon="4.65691">
        <ele>591</ele>
        <time>2021-05-14T13:11:03Z</time>
      </trkpt>
      <trkpt lat="45.42491" lon="4.65688">
        <ele>591</ele>
        <time>2021-05-14T13:11:04Z</time>
      </trkpt>
      <trkpt lat="45.42488" lon="4.65685">
        <ele>591</ele>
        <time>2021-05-14T13:11:05Z</time>
      </trkpt>
      <trkpt lat="45.42485" lon="4.65681">
        <ele>590</ele>
        <time>2021-05-14T13:11:06Z</time>
      </trkpt>
      <trkpt lat="45.42481" lon="4.65675">
        <ele>589</ele>
        <time>2021-05-14T13:11:08Z</time>
      </trkpt>
      <trkpt lat="45.42475" lon="4.65668">
        <ele>588</ele>
        <time>2021-05-14T13:11:10Z</time>
      </trkpt>
      <trkpt lat="45.42473" lon="4.65664">
        <ele>587</ele>
        <time>2021-05-14T13:11:11Z</time>
      </trkpt>
      <trkpt lat="45.42471" lon="4.6566">
        <ele>586</ele>
        <time>2021-05-14T13:11:12Z</time>
      </trkpt>
      <trkpt lat="45.42468" lon="4.65656">
        <ele>585</ele>
        <time>2021-05-14T13:11:13Z</time>
      </trkpt>
      <trkpt lat="45.42466" lon="4.65652">
        <ele>585</ele>
        <time>2021-05-14T13:11:14Z</time>
      </trkpt>
      <trkpt lat="45.42464" lon="4.65648">
        <ele>583</ele>
        <time>2021-05-14T13:11:15Z</time>
      </trkpt>
      <trkpt lat="45.42459" lon="4.65641">
        <ele>582</ele>
        <time>2021-05-14T13:11:17Z</time>
      </trkpt>
      <trkpt lat="45.42457" lon="4.65638">
        <ele>579</ele>
        <time>2021-05-14T13:11:18Z</time>
      </trkpt>
      <trkpt lat="45.42452" lon="4.65632">
        <ele>580</ele>
        <time>2021-05-14T13:11:20Z</time>
      </trkpt>
      <trkpt lat="45.42448" lon="4.65625">
        <ele>580</ele>
        <time>2021-05-14T13:11:22Z</time>
      </trkpt>
      <trkpt lat="45.42443" lon="4.65619">
        <ele>579</ele>
        <time>2021-05-14T13:11:24Z</time>
      </trkpt>
      <trkpt lat="45.42438" lon="4.65614">
        <ele>578</ele>
        <time>2021-05-14T13:11:26Z</time>
      </trkpt>
      <trkpt lat="45.42433" lon="4.6561">
        <ele>577</ele>
        <time>2021-05-14T13:11:28Z</time>
      </trkpt>
      <trkpt lat="45.42427" lon="4.65607">
        <ele>576</ele>
        <time>2021-05-14T13:11:30Z</time>
      </trkpt>
      <trkpt lat="45.42422" lon="4.65607">
        <ele>574</ele>
        <time>2021-05-14T13:11:32Z</time>
      </trkpt>
      <trkpt lat="45.42418" lon="4.65608">
        <ele>572</ele>
        <time>2021-05-14T13:11:34Z</time>
      </trkpt>
      <trkpt lat="45.42414" lon="4.65609">
        <ele>572</ele>
        <time>2021-05-14T13:11:36Z</time>
      </trkpt>
      <trkpt lat="45.42409" lon="4.6561">
        <ele>571</ele>
        <time>2021-05-14T13:11:38Z</time>
      </trkpt>
      <trkpt lat="45.42406" lon="4.65613">
        <ele>571</ele>
        <time>2021-05-14T13:11:40Z</time>
      </trkpt>
      <trkpt lat="45.42403" lon="4.65617">
        <ele>571</ele>
        <time>2021-05-14T13:11:43Z</time>
      </trkpt>
      <trkpt lat="45.42402" lon="4.65622">
        <ele>568</ele>
        <time>2021-05-14T13:11:50Z</time>
      </trkpt>
      <trkpt lat="45.42403" lon="4.65628">
        <ele>565</ele>
        <time>2021-05-14T13:11:52Z</time>
      </trkpt>
      <trkpt lat="45.42405" lon="4.65634">
        <ele>564</ele>
        <time>2021-05-14T13:11:54Z</time>
      </trkpt>
      <trkpt lat="45.42409" lon="4.65641">
        <ele>562</ele>
        <time>2021-05-14T13:11:56Z</time>
      </trkpt>
      <trkpt lat="45.42412" lon="4.65647">
        <ele>561</ele>
        <time>2021-05-14T13:11:58Z</time>
      </trkpt>
      <trkpt lat="45.42415" lon="4.65655">
        <ele>562</ele>
        <time>2021-05-14T13:12:00Z</time>
      </trkpt>
      <trkpt lat="45.42418" lon="4.65662">
        <ele>559</ele>
        <time>2021-05-14T13:12:02Z</time>
      </trkpt>
      <trkpt lat="45.42419" lon="4.65669">
        <ele>558</ele>
        <time>2021-05-14T13:12:04Z</time>
      </trkpt>
      <trkpt lat="45.42416" lon="4.65671">
        <ele>559</ele>
        <time>2021-05-14T13:12:06Z</time>
      </trkpt>
      <trkpt lat="45.42411" lon="4.65665">
        <ele>558</ele>
        <time>2021-05-14T13:12:08Z</time>
      </trkpt>
      <trkpt lat="45.42406" lon="4.65659">
        <ele>558</ele>
        <time>2021-05-14T13:12:10Z</time>
      </trkpt>
      <trkpt lat="45.42401" lon="4.65654">
        <ele>557</ele>
        <time>2021-05-14T13:12:12Z</time>
      </trkpt>
      <trkpt lat="45.42396" lon="4.65649">
        <ele>557</ele>
        <time>2021-05-14T13:12:14Z</time>
      </trkpt>
      <trkpt lat="45.42392" lon="4.65643">
        <ele>556</ele>
        <time>2021-05-14T13:12:16Z</time>
      </trkpt>
      <trkpt lat="45.42387" lon="4.65638">
        <ele>555</ele>
        <time>2021-05-14T13:12:18Z</time>
      </trkpt>
      <trkpt lat="45.42382" lon="4.65632">
        <ele>556</ele>
        <time>2021-05-14T13:12:20Z</time>
      </trkpt>
      <trkpt lat="45.42377" lon="4.65627">
        <ele>555</ele>
        <time>2021-05-14T13:12:22Z</time>
      </trkpt>
      <trkpt lat="45.42372" lon="4.6562">
        <ele>555</ele>
        <time>2021-05-14T13:12:24Z</time>
      </trkpt>
      <trkpt lat="45.42366" lon="4.65615">
        <ele>555</ele>
        <time>2021-05-14T13:12:26Z</time>
      </trkpt>
      <trkpt lat="45.42362" lon="4.65609">
        <ele>554</ele>
        <time>2021-05-14T13:12:28Z</time>
      </trkpt>
      <trkpt lat="45.42358" lon="4.65603">
        <ele>556</ele>
        <time>2021-05-14T13:12:30Z</time>
      </trkpt>
      <trkpt lat="45.42353" lon="4.65597">
        <ele>562</ele>
        <time>2021-05-14T13:12:32Z</time>
      </trkpt>
      <trkpt lat="45.4235" lon="4.65591">
        <ele>562</ele>
        <time>2021-05-14T13:12:34Z</time>
      </trkpt>
      <trkpt lat="45.42347" lon="4.65585">
        <ele>560</ele>
        <time>2021-05-14T13:12:35Z</time>
      </trkpt>
      <trkpt lat="45.42343" lon="4.65588">
        <ele>558</ele>
        <time>2021-05-14T13:12:40Z</time>
      </trkpt>
      <trkpt lat="45.42342" lon="4.65593">
        <ele>557</ele>
        <time>2021-05-14T13:12:42Z</time>
      </trkpt>
      <trkpt lat="45.4234" lon="4.656">
        <ele>554</ele>
        <time>2021-05-14T13:12:44Z</time>
      </trkpt>
      <trkpt lat="45.4234" lon="4.65604">
        <ele>553</ele>
        <time>2021-05-14T13:12:45Z</time>
      </trkpt>
      <trkpt lat="45.42339" lon="4.65611">
        <ele>553</ele>
        <time>2021-05-14T13:12:47Z</time>
      </trkpt>
      <trkpt lat="45.42338" lon="4.65617">
        <ele>552</ele>
        <time>2021-05-14T13:12:49Z</time>
      </trkpt>
      <trkpt lat="45.42336" lon="4.65624">
        <ele>551</ele>
        <time>2021-05-14T13:12:51Z</time>
      </trkpt>
      <trkpt lat="45.42334" lon="4.65631">
        <ele>550</ele>
        <time>2021-05-14T13:12:53Z</time>
      </trkpt>
      <trkpt lat="45.42333" lon="4.65639">
        <ele>547</ele>
        <time>2021-05-14T13:12:55Z</time>
      </trkpt>
      <trkpt lat="45.42333" lon="4.65646">
        <ele>546</ele>
        <time>2021-05-14T13:12:57Z</time>
      </trkpt>
      <trkpt lat="45.42333" lon="4.65656">
        <ele>547</ele>
        <time>2021-05-14T13:12:59Z</time>
      </trkpt>
      <trkpt lat="45.42333" lon="4.65661">
        <ele>543</ele>
        <time>2021-05-14T13:13:00Z</time>
      </trkpt>
      <trkpt lat="45.42332" lon="4.6567">
        <ele>544</ele>
        <time>2021-05-14T13:13:02Z</time>
      </trkpt>
      <trkpt lat="45.42331" lon="4.65679">
        <ele>544</ele>
        <time>2021-05-14T13:13:04Z</time>
      </trkpt>
      <trkpt lat="45.42331" lon="4.65688">
        <ele>542</ele>
        <time>2021-05-14T13:13:06Z</time>
      </trkpt>
      <trkpt lat="45.4233" lon="4.65698">
        <ele>542</ele>
        <time>2021-05-14T13:13:08Z</time>
      </trkpt>
      <trkpt lat="45.4233" lon="4.65707">
        <ele>542</ele>
        <time>2021-05-14T13:13:09Z</time>
      </trkpt>
      <trkpt lat="45.42329" lon="4.65715">
        <ele>539</ele>
        <time>2021-05-14T13:13:12Z</time>
      </trkpt>
      <trkpt lat="45.42327" lon="4.65723">
        <ele>537</ele>
        <time>2021-05-14T13:13:14Z</time>
      </trkpt>
      <trkpt lat="45.42326" lon="4.65732">
        <ele>537</ele>
        <time>2021-05-14T13:13:16Z</time>
      </trkpt>
      <trkpt lat="45.42324" lon="4.65741">
        <ele>535</ele>
        <time>2021-05-14T13:13:18Z</time>
      </trkpt>
      <trkpt lat="45.42324" lon="4.65746">
        <ele>534</ele>
        <time>2021-05-14T13:13:19Z</time>
      </trkpt>
      <trkpt lat="45.42324" lon="4.65755">
        <ele>534</ele>
        <time>2021-05-14T13:13:21Z</time>
      </trkpt>
      <trkpt lat="45.42325" lon="4.65764">
        <ele>533</ele>
        <time>2021-05-14T13:13:23Z</time>
      </trkpt>
      <trkpt lat="45.42326" lon="4.65772">
        <ele>534</ele>
        <time>2021-05-14T13:13:25Z</time>
      </trkpt>
      <trkpt lat="45.42325" lon="4.65782">
        <ele>534</ele>
        <time>2021-05-14T13:13:27Z</time>
      </trkpt>
      <trkpt lat="45.42324" lon="4.65791">
        <ele>533</ele>
        <time>2021-05-14T13:13:29Z</time>
      </trkpt>
      <trkpt lat="45.42323" lon="4.658">
        <ele>531</ele>
        <time>2021-05-14T13:13:31Z</time>
      </trkpt>
      <trkpt lat="45.42321" lon="4.65809">
        <ele>529</ele>
        <time>2021-05-14T13:13:33Z</time>
      </trkpt>
      <trkpt lat="45.4232" lon="4.65817">
        <ele>529</ele>
        <time>2021-05-14T13:13:35Z</time>
      </trkpt>
      <trkpt lat="45.42321" lon="4.65826">
        <ele>528</ele>
        <time>2021-05-14T13:13:37Z</time>
      </trkpt>
      <trkpt lat="45.42323" lon="4.65835">
        <ele>528</ele>
        <time>2021-05-14T13:13:39Z</time>
      </trkpt>
      <trkpt lat="45.42324" lon="4.65845">
        <ele>527</ele>
        <time>2021-05-14T13:13:41Z</time>
      </trkpt>
      <trkpt lat="45.42325" lon="4.65855">
        <ele>526</ele>
        <time>2021-05-14T13:13:43Z</time>
      </trkpt>
      <trkpt lat="45.42325" lon="4.65865">
        <ele>525</ele>
        <time>2021-05-14T13:13:45Z</time>
      </trkpt>
      <trkpt lat="45.42323" lon="4.65878">
        <ele>524</ele>
        <time>2021-05-14T13:13:47Z</time>
      </trkpt>
      <trkpt lat="45.4232" lon="4.65885">
        <ele>523</ele>
        <time>2021-05-14T13:13:50Z</time>
      </trkpt>
      <trkpt lat="45.42315" lon="4.65892">
        <ele>522</ele>
        <time>2021-05-14T13:13:52Z</time>
      </trkpt>
      <trkpt lat="45.42312" lon="4.65895">
        <ele>521</ele>
        <time>2021-05-14T13:13:53Z</time>
      </trkpt>
      <trkpt lat="45.4231" lon="4.65899">
        <ele>521</ele>
        <time>2021-05-14T13:13:54Z</time>
      </trkpt>
      <trkpt lat="45.42304" lon="4.65906">
        <ele>522</ele>
        <time>2021-05-14T13:13:56Z</time>
      </trkpt>
      <trkpt lat="45.42301" lon="4.65909">
        <ele>522</ele>
        <time>2021-05-14T13:13:57Z</time>
      </trkpt>
      <trkpt lat="45.42299" lon="4.65913">
        <ele>521</ele>
        <time>2021-05-14T13:13:58Z</time>
      </trkpt>
      <trkpt lat="45.42297" lon="4.65917">
        <ele>520</ele>
        <time>2021-05-14T13:13:59Z</time>
      </trkpt>
      <trkpt lat="45.42293" lon="4.65925">
        <ele>520</ele>
        <time>2021-05-14T13:14:01Z</time>
      </trkpt>
      <trkpt lat="45.42291" lon="4.65932">
        <ele>519</ele>
        <time>2021-05-14T13:14:03Z</time>
      </trkpt>
      <trkpt lat="45.4229" lon="4.6594">
        <ele>519</ele>
        <time>2021-05-14T13:14:05Z</time>
      </trkpt>
      <trkpt lat="45.42292" lon="4.65947">
        <ele>519</ele>
        <time>2021-05-14T13:14:06Z</time>
      </trkpt>
      <trkpt lat="45.42297" lon="4.65951">
        <ele>519</ele>
        <time>2021-05-14T13:14:09Z</time>
      </trkpt>
      <trkpt lat="45.42303" lon="4.65956">
        <ele>517</ele>
        <time>2021-05-14T13:14:11Z</time>
      </trkpt>
      <trkpt lat="45.42307" lon="4.65962">
        <ele>515</ele>
        <time>2021-05-14T13:14:13Z</time>
      </trkpt>
      <trkpt lat="45.42311" lon="4.65968">
        <ele>514</ele>
        <time>2021-05-14T13:14:15Z</time>
      </trkpt>
      <trkpt lat="45.42314" lon="4.65971">
        <ele>514</ele>
        <time>2021-05-14T13:14:16Z</time>
      </trkpt>
      <trkpt lat="45.42319" lon="4.65977">
        <ele>513</ele>
        <time>2021-05-14T13:14:18Z</time>
      </trkpt>
      <trkpt lat="45.42323" lon="4.65983">
        <ele>512</ele>
        <time>2021-05-14T13:14:20Z</time>
      </trkpt>
      <trkpt lat="45.42327" lon="4.6599">
        <ele>511</ele>
        <time>2021-05-14T13:14:22Z</time>
      </trkpt>
      <trkpt lat="45.42331" lon="4.65996">
        <ele>510</ele>
        <time>2021-05-14T13:14:24Z</time>
      </trkpt>
      <trkpt lat="45.42334" lon="4.66002">
        <ele>510</ele>
        <time>2021-05-14T13:14:26Z</time>
      </trkpt>
      <trkpt lat="45.42338" lon="4.66009">
        <ele>510</ele>
        <time>2021-05-14T13:14:28Z</time>
      </trkpt>
      <trkpt lat="45.42341" lon="4.66015">
        <ele>509</ele>
        <time>2021-05-14T13:14:30Z</time>
      </trkpt>
      <trkpt lat="45.42345" lon="4.66023">
        <ele>509</ele>
        <time>2021-05-14T13:14:32Z</time>
      </trkpt>
      <trkpt lat="45.42347" lon="4.6603">
        <ele>509</ele>
        <time>2021-05-14T13:14:34Z</time>
      </trkpt>
      <trkpt lat="45.4235" lon="4.66036">
        <ele>507</ele>
        <time>2021-05-14T13:14:36Z</time>
      </trkpt>
      <trkpt lat="45.42353" lon="4.66042">
        <ele>507</ele>
        <time>2021-05-14T13:14:38Z</time>
      </trkpt>
      <trkpt lat="45.42357" lon="4.66049">
        <ele>507</ele>
        <time>2021-05-14T13:14:40Z</time>
      </trkpt>
      <trkpt lat="45.4236" lon="4.66056">
        <ele>506</ele>
        <time>2021-05-14T13:14:42Z</time>
      </trkpt>
      <trkpt lat="45.42365" lon="4.66063">
        <ele>504</ele>
        <time>2021-05-14T13:14:44Z</time>
      </trkpt>
      <trkpt lat="45.42368" lon="4.66071">
        <ele>505</ele>
        <time>2021-05-14T13:14:46Z</time>
      </trkpt>
      <trkpt lat="45.42372" lon="4.66078">
        <ele>504</ele>
        <time>2021-05-14T13:14:48Z</time>
      </trkpt>
      <trkpt lat="45.42375" lon="4.66086">
        <ele>503</ele>
        <time>2021-05-14T13:14:50Z</time>
      </trkpt>
      <trkpt lat="45.42377" lon="4.66094">
        <ele>502</ele>
        <time>2021-05-14T13:14:52Z</time>
      </trkpt>
      <trkpt lat="45.4238" lon="4.66101">
        <ele>503</ele>
        <time>2021-05-14T13:14:54Z</time>
      </trkpt>
      <trkpt lat="45.42383" lon="4.66108">
        <ele>501</ele>
        <time>2021-05-14T13:14:56Z</time>
      </trkpt>
      <trkpt lat="45.42386" lon="4.66116">
        <ele>499</ele>
        <time>2021-05-14T13:14:58Z</time>
      </trkpt>
      <trkpt lat="45.42389" lon="4.66124">
        <ele>498</ele>
        <time>2021-05-14T13:15:00Z</time>
      </trkpt>
      <trkpt lat="45.42392" lon="4.66131">
        <ele>496</ele>
        <time>2021-05-14T13:15:02Z</time>
      </trkpt>
      <trkpt lat="45.42396" lon="4.66137">
        <ele>496</ele>
        <time>2021-05-14T13:15:04Z</time>
      </trkpt>
      <trkpt lat="45.42399" lon="4.66143">
        <ele>496</ele>
        <time>2021-05-14T13:15:06Z</time>
      </trkpt>
      <trkpt lat="45.42401" lon="4.66149">
        <ele>496</ele>
        <time>2021-05-14T13:15:08Z</time>
      </trkpt>
      <trkpt lat="45.42404" lon="4.66155">
        <ele>496</ele>
        <time>2021-05-14T13:15:10Z</time>
      </trkpt>
      <trkpt lat="45.42406" lon="4.6616">
        <ele>496</ele>
        <time>2021-05-14T13:15:12Z</time>
      </trkpt>
      <trkpt lat="45.42408" lon="4.66164">
        <ele>496</ele>
        <time>2021-05-14T13:15:14Z</time>
      </trkpt>
      <trkpt lat="45.42408" lon="4.6617">
        <ele>497</ele>
        <time>2021-05-14T13:15:19Z</time>
      </trkpt>
      <trkpt lat="45.42408" lon="4.66177">
        <ele>497</ele>
        <time>2021-05-14T13:15:21Z</time>
      </trkpt>
      <trkpt lat="45.42407" lon="4.66181">
        <ele>495</ele>
        <time>2021-05-14T13:15:23Z</time>
      </trkpt>
      <trkpt lat="45.42409" lon="4.66176">
        <ele>495</ele>
        <time>2021-05-14T13:15:26Z</time>
      </trkpt>
      <trkpt lat="45.42411" lon="4.6617">
        <ele>495</ele>
        <time>2021-05-14T13:15:28Z</time>
      </trkpt>
      <trkpt lat="45.42415" lon="4.66162">
        <ele>495</ele>
        <time>2021-05-14T13:15:30Z</time>
      </trkpt>
      <trkpt lat="45.42418" lon="4.66155">
        <ele>494</ele>
        <time>2021-05-14T13:15:32Z</time>
      </trkpt>
      <trkpt lat="45.42421" lon="4.66149">
        <ele>494</ele>
        <time>2021-05-14T13:15:34Z</time>
      </trkpt>
      <trkpt lat="45.42425" lon="4.66143">
        <ele>493</ele>
        <time>2021-05-14T13:15:36Z</time>
      </trkpt>
      <trkpt lat="45.42429" lon="4.66138">
        <ele>493</ele>
        <time>2021-05-14T13:15:38Z</time>
      </trkpt>
      <trkpt lat="45.42432" lon="4.66133">
        <ele>493</ele>
        <time>2021-05-14T13:15:40Z</time>
      </trkpt>
      <trkpt lat="45.42437" lon="4.66128">
        <ele>492</ele>
        <time>2021-05-14T13:15:42Z</time>
      </trkpt>
      <trkpt lat="45.42442" lon="4.66123">
        <ele>494</ele>
        <time>2021-05-14T13:15:44Z</time>
      </trkpt>
      <trkpt lat="45.42446" lon="4.66119">
        <ele>495</ele>
        <time>2021-05-14T13:15:46Z</time>
      </trkpt>
      <trkpt lat="45.42451" lon="4.66114">
        <ele>495</ele>
        <time>2021-05-14T13:15:48Z</time>
      </trkpt>
      <trkpt lat="45.42455" lon="4.66111">
        <ele>494</ele>
        <time>2021-05-14T13:15:50Z</time>
      </trkpt>
      <trkpt lat="45.42459" lon="4.66108">
        <ele>493</ele>
        <time>2021-05-14T13:15:52Z</time>
      </trkpt>
      <trkpt lat="45.42464" lon="4.66107">
        <ele>493</ele>
        <time>2021-05-14T13:15:54Z</time>
      </trkpt>
      <trkpt lat="45.42472" lon="4.66107">
        <ele>492</ele>
        <time>2021-05-14T13:15:56Z</time>
      </trkpt>
      <trkpt lat="45.42478" lon="4.6611">
        <ele>491</ele>
        <time>2021-05-14T13:15:58Z</time>
      </trkpt>
      <trkpt lat="45.42482" lon="4.66111">
        <ele>491</ele>
        <time>2021-05-14T13:15:59Z</time>
      </trkpt>
      <trkpt lat="45.42488" lon="4.66115">
        <ele>491</ele>
        <time>2021-05-14T13:16:01Z</time>
      </trkpt>
      <trkpt lat="45.42494" lon="4.66119">
        <ele>490</ele>
        <time>2021-05-14T13:16:03Z</time>
      </trkpt>
      <trkpt lat="45.42497" lon="4.66122">
        <ele>489</ele>
        <time>2021-05-14T13:16:04Z</time>
      </trkpt>
      <trkpt lat="45.425" lon="4.66124">
        <ele>489</ele>
        <time>2021-05-14T13:16:05Z</time>
      </trkpt>
      <trkpt lat="45.42506" lon="4.66129">
        <ele>488</ele>
        <time>2021-05-14T13:16:07Z</time>
      </trkpt>
      <trkpt lat="45.42512" lon="4.66134">
        <ele>487</ele>
        <time>2021-05-14T13:16:09Z</time>
      </trkpt>
      <trkpt lat="45.42517" lon="4.66138">
        <ele>487</ele>
        <time>2021-05-14T13:16:11Z</time>
      </trkpt>
      <trkpt lat="45.42522" lon="4.66142">
        <ele>487</ele>
        <time>2021-05-14T13:16:13Z</time>
      </trkpt>
      <trkpt lat="45.42527" lon="4.66146">
        <ele>487</ele>
        <time>2021-05-14T13:16:15Z</time>
      </trkpt>
      <trkpt lat="45.42533" lon="4.66149">
        <ele>485</ele>
        <time>2021-05-14T13:16:17Z</time>
      </trkpt>
      <trkpt lat="45.42541" lon="4.66155">
        <ele>484</ele>
        <time>2021-05-14T13:16:20Z</time>
      </trkpt>
      <trkpt lat="45.42547" lon="4.66158">
        <ele>484</ele>
        <time>2021-05-14T13:16:22Z</time>
      </trkpt>
      <trkpt lat="45.42553" lon="4.6616">
        <ele>484</ele>
        <time>2021-05-14T13:16:24Z</time>
      </trkpt>
      <trkpt lat="45.42558" lon="4.66162">
        <ele>484</ele>
        <time>2021-05-14T13:16:26Z</time>
      </trkpt>
      <trkpt lat="45.42563" lon="4.66164">
        <ele>484</ele>
        <time>2021-05-14T13:16:28Z</time>
      </trkpt>
      <trkpt lat="45.42569" lon="4.66165">
        <ele>483</ele>
        <time>2021-05-14T13:16:30Z</time>
      </trkpt>
      <trkpt lat="45.42574" lon="4.66166">
        <ele>483</ele>
        <time>2021-05-14T13:16:32Z</time>
      </trkpt>
      <trkpt lat="45.42579" lon="4.66167">
        <ele>482</ele>
        <time>2021-05-14T13:16:34Z</time>
      </trkpt>
      <trkpt lat="45.42585" lon="4.66168">
        <ele>481</ele>
        <time>2021-05-14T13:16:36Z</time>
      </trkpt>
      <trkpt lat="45.42593" lon="4.66171">
        <ele>480</ele>
        <time>2021-05-14T13:16:39Z</time>
      </trkpt>
      <trkpt lat="45.42597" lon="4.6617">
        <ele>480</ele>
        <time>2021-05-14T13:16:41Z</time>
      </trkpt>
      <trkpt lat="45.42599" lon="4.66166">
        <ele>481</ele>
        <time>2021-05-14T13:16:44Z</time>
      </trkpt>
      <trkpt lat="45.42601" lon="4.66164">
        <ele>481</ele>
        <time>2021-05-14T13:16:49Z</time>
      </trkpt>
      <trkpt lat="45.42619" lon="4.66148">
        <ele>502</ele>
        <time>2021-05-14T13:38:03Z</time>
      </trkpt>
      <trkpt lat="45.42618" lon="4.66153">
        <ele>502</ele>
        <time>2021-05-14T13:38:06Z</time>
      </trkpt>
      <trkpt lat="45.42617" lon="4.6616">
        <ele>503</ele>
        <time>2021-05-14T13:38:08Z</time>
      </trkpt>
      <trkpt lat="45.42616" lon="4.66168">
        <ele>501</ele>
        <time>2021-05-14T13:38:10Z</time>
      </trkpt>
      <trkpt lat="45.42615" lon="4.66174">
        <ele>501</ele>
        <time>2021-05-14T13:38:12Z</time>
      </trkpt>
      <trkpt lat="45.42614" lon="4.66179">
        <ele>500</ele>
        <time>2021-05-14T13:38:18Z</time>
      </trkpt>
      <trkpt lat="45.42618" lon="4.66184">
        <ele>498</ele>
        <time>2021-05-14T13:38:22Z</time>
      </trkpt>
      <trkpt lat="45.42622" lon="4.66184">
        <ele>498</ele>
        <time>2021-05-14T13:38:24Z</time>
      </trkpt>
      <trkpt lat="45.42627" lon="4.66183">
        <ele>498</ele>
        <time>2021-05-14T13:38:26Z</time>
      </trkpt>
      <trkpt lat="45.42631" lon="4.66182">
        <ele>498</ele>
        <time>2021-05-14T13:38:28Z</time>
      </trkpt>
      <trkpt lat="45.42636" lon="4.66182">
        <ele>498</ele>
        <time>2021-05-14T13:38:31Z</time>
      </trkpt>
      <trkpt lat="45.4264" lon="4.66179">
        <ele>499</ele>
        <time>2021-05-14T13:38:33Z</time>
      </trkpt>
      <trkpt lat="45.42645" lon="4.66177">
        <ele>499</ele>
        <time>2021-05-14T13:38:35Z</time>
      </trkpt>
      <trkpt lat="45.42649" lon="4.66177">
        <ele>500</ele>
        <time>2021-05-14T13:38:37Z</time>
      </trkpt>
      <trkpt lat="45.42655" lon="4.66179">
        <ele>501</ele>
        <time>2021-05-14T13:38:39Z</time>
      </trkpt>
      <trkpt lat="45.42659" lon="4.66179">
        <ele>501</ele>
        <time>2021-05-14T13:38:41Z</time>
      </trkpt>
      <trkpt lat="45.42663" lon="4.6618">
        <ele>502</ele>
        <time>2021-05-14T13:38:43Z</time>
      </trkpt>
      <trkpt lat="45.42667" lon="4.66181">
        <ele>503</ele>
        <time>2021-05-14T13:38:45Z</time>
      </trkpt>
      <trkpt lat="45.42672" lon="4.66183">
        <ele>503</ele>
        <time>2021-05-14T13:38:47Z</time>
      </trkpt>
      <trkpt lat="45.42677" lon="4.66184">
        <ele>504</ele>
        <time>2021-05-14T13:38:49Z</time>
      </trkpt>
      <trkpt lat="45.42683" lon="4.66185">
        <ele>504</ele>
        <time>2021-05-14T13:38:51Z</time>
      </trkpt>
      <trkpt lat="45.42687" lon="4.66187">
        <ele>504</ele>
        <time>2021-05-14T13:38:53Z</time>
      </trkpt>
      <trkpt lat="45.42691" lon="4.66189">
        <ele>504</ele>
        <time>2021-05-14T13:38:55Z</time>
      </trkpt>
      <trkpt lat="45.42696" lon="4.66189">
        <ele>504</ele>
        <time>2021-05-14T13:38:57Z</time>
      </trkpt>
      <trkpt lat="45.42701" lon="4.6619">
        <ele>504</ele>
        <time>2021-05-14T13:38:59Z</time>
      </trkpt>
      <trkpt lat="45.42706" lon="4.66191">
        <ele>504</ele>
        <time>2021-05-14T13:39:01Z</time>
      </trkpt>
      <trkpt lat="45.4271" lon="4.66192">
        <ele>505</ele>
        <time>2021-05-14T13:39:03Z</time>
      </trkpt>
      <trkpt lat="45.42714" lon="4.66193">
        <ele>506</ele>
        <time>2021-05-14T13:39:05Z</time>
      </trkpt>
      <trkpt lat="45.42717" lon="4.66195">
        <ele>506</ele>
        <time>2021-05-14T13:39:07Z</time>
      </trkpt>
      <trkpt lat="45.42722" lon="4.66196">
        <ele>507</ele>
        <time>2021-05-14T13:39:09Z</time>
      </trkpt>
      <trkpt lat="45.42727" lon="4.66197">
        <ele>507</ele>
        <time>2021-05-14T13:39:11Z</time>
      </trkpt>
      <trkpt lat="45.42732" lon="4.66198">
        <ele>507</ele>
        <time>2021-05-14T13:39:13Z</time>
      </trkpt>
      <trkpt lat="45.42736" lon="4.66198">
        <ele>507</ele>
        <time>2021-05-14T13:39:15Z</time>
      </trkpt>
      <trkpt lat="45.4274" lon="4.66198">
        <ele>509</ele>
        <time>2021-05-14T13:39:17Z</time>
      </trkpt>
      <trkpt lat="45.42745" lon="4.662">
        <ele>509</ele>
        <time>2021-05-14T13:39:19Z</time>
      </trkpt>
      <trkpt lat="45.42749" lon="4.662">
        <ele>509</ele>
        <time>2021-05-14T13:39:21Z</time>
      </trkpt>
      <trkpt lat="45.42752" lon="4.66201">
        <ele>509</ele>
        <time>2021-05-14T13:39:23Z</time>
      </trkpt>
      <trkpt lat="45.42757" lon="4.66202">
        <ele>509</ele>
        <time>2021-05-14T13:39:26Z</time>
      </trkpt>
      <trkpt lat="45.42762" lon="4.66202">
        <ele>509</ele>
        <time>2021-05-14T13:39:29Z</time>
      </trkpt>
      <trkpt lat="45.42767" lon="4.66201">
        <ele>510</ele>
        <time>2021-05-14T13:39:32Z</time>
      </trkpt>
      <trkpt lat="45.42771" lon="4.66201">
        <ele>510</ele>
        <time>2021-05-14T13:39:35Z</time>
      </trkpt>
      <trkpt lat="45.42774" lon="4.66199">
        <ele>511</ele>
        <time>2021-05-14T13:39:38Z</time>
      </trkpt>
      <trkpt lat="45.42778" lon="4.66198">
        <ele>512</ele>
        <time>2021-05-14T13:39:42Z</time>
      </trkpt>
      <trkpt lat="45.42781" lon="4.66198">
        <ele>513</ele>
        <time>2021-05-14T13:39:45Z</time>
      </trkpt>
      <trkpt lat="45.42785" lon="4.66198">
        <ele>514</ele>
        <time>2021-05-14T13:39:48Z</time>
      </trkpt>
      <trkpt lat="45.4279" lon="4.66198">
        <ele>514</ele>
        <time>2021-05-14T13:39:52Z</time>
      </trkpt>
      <trkpt lat="45.42795" lon="4.66197">
        <ele>515</ele>
        <time>2021-05-14T13:39:55Z</time>
      </trkpt>
      <trkpt lat="45.42798" lon="4.66195">
        <ele>515</ele>
        <time>2021-05-14T13:39:58Z</time>
      </trkpt>
      <trkpt lat="45.42802" lon="4.66194">
        <ele>515</ele>
        <time>2021-05-14T13:40:02Z</time>
      </trkpt>
      <trkpt lat="45.42805" lon="4.66193">
        <ele>515</ele>
        <time>2021-05-14T13:40:05Z</time>
      </trkpt>
      <trkpt lat="45.42809" lon="4.66192">
        <ele>515</ele>
        <time>2021-05-14T13:40:08Z</time>
      </trkpt>
      <trkpt lat="45.42813" lon="4.66189">
        <ele>516</ele>
        <time>2021-05-14T13:40:11Z</time>
      </trkpt>
      <trkpt lat="45.42817" lon="4.66186">
        <ele>516</ele>
        <time>2021-05-14T13:40:14Z</time>
      </trkpt>
      <trkpt lat="45.4282" lon="4.66182">
        <ele>517</ele>
        <time>2021-05-14T13:40:17Z</time>
      </trkpt>
      <trkpt lat="45.42823" lon="4.66178">
        <ele>517</ele>
        <time>2021-05-14T13:40:19Z</time>
      </trkpt>
      <trkpt lat="45.42826" lon="4.66173">
        <ele>518</ele>
        <time>2021-05-14T13:40:23Z</time>
      </trkpt>
      <trkpt lat="45.4283" lon="4.6617">
        <ele>518</ele>
        <time>2021-05-14T13:40:26Z</time>
      </trkpt>
      <trkpt lat="45.42832" lon="4.66166">
        <ele>520</ele>
        <time>2021-05-14T13:40:29Z</time>
      </trkpt>
      <trkpt lat="45.42836" lon="4.66163">
        <ele>520</ele>
        <time>2021-05-14T13:40:32Z</time>
      </trkpt>
      <trkpt lat="45.42839" lon="4.66159">
        <ele>520</ele>
        <time>2021-05-14T13:40:35Z</time>
      </trkpt>
      <trkpt lat="45.42842" lon="4.66155">
        <ele>520</ele>
        <time>2021-05-14T13:40:38Z</time>
      </trkpt>
      <trkpt lat="45.42845" lon="4.66152">
        <ele>520</ele>
        <time>2021-05-14T13:40:40Z</time>
      </trkpt>
      <trkpt lat="45.42847" lon="4.66148">
        <ele>522</ele>
        <time>2021-05-14T13:40:43Z</time>
      </trkpt>
      <trkpt lat="45.4285" lon="4.66142">
        <ele>522</ele>
        <time>2021-05-14T13:40:46Z</time>
      </trkpt>
      <trkpt lat="45.42851" lon="4.66137">
        <ele>522</ele>
        <time>2021-05-14T13:40:49Z</time>
      </trkpt>
      <trkpt lat="45.42853" lon="4.6613">
        <ele>524</ele>
        <time>2021-05-14T13:40:53Z</time>
      </trkpt>
      <trkpt lat="45.42855" lon="4.66126">
        <ele>524</ele>
        <time>2021-05-14T13:40:55Z</time>
      </trkpt>
      <trkpt lat="45.42858" lon="4.6612">
        <ele>525</ele>
        <time>2021-05-14T13:40:57Z</time>
      </trkpt>
      <trkpt lat="45.42861" lon="4.66116">
        <ele>524</ele>
        <time>2021-05-14T13:40:59Z</time>
      </trkpt>
      <trkpt lat="45.42864" lon="4.66111">
        <ele>523</ele>
        <time>2021-05-14T13:41:01Z</time>
      </trkpt>
      <trkpt lat="45.42867" lon="4.66105">
        <ele>524</ele>
        <time>2021-05-14T13:41:03Z</time>
      </trkpt>
      <trkpt lat="45.42869" lon="4.66099">
        <ele>525</ele>
        <time>2021-05-14T13:41:05Z</time>
      </trkpt>
      <trkpt lat="45.42872" lon="4.66093">
        <ele>525</ele>
        <time>2021-05-14T13:41:07Z</time>
      </trkpt>
      <trkpt lat="45.42875" lon="4.66088">
        <ele>525</ele>
        <time>2021-05-14T13:41:09Z</time>
      </trkpt>
      <trkpt lat="45.42879" lon="4.66083">
        <ele>525</ele>
        <time>2021-05-14T13:41:11Z</time>
      </trkpt>
      <trkpt lat="45.42882" lon="4.66077">
        <ele>526</ele>
        <time>2021-05-14T13:41:13Z</time>
      </trkpt>
      <trkpt lat="45.42884" lon="4.66071">
        <ele>526</ele>
        <time>2021-05-14T13:41:15Z</time>
      </trkpt>
      <trkpt lat="45.42886" lon="4.66065">
        <ele>526</ele>
        <time>2021-05-14T13:41:17Z</time>
      </trkpt>
      <trkpt lat="45.42888" lon="4.66058">
        <ele>526</ele>
        <time>2021-05-14T13:41:19Z</time>
      </trkpt>
      <trkpt lat="45.42889" lon="4.66052">
        <ele>526</ele>
        <time>2021-05-14T13:41:21Z</time>
      </trkpt>
      <trkpt lat="45.4289" lon="4.66044">
        <ele>526</ele>
        <time>2021-05-14T13:41:23Z</time>
      </trkpt>
      <trkpt lat="45.42891" lon="4.66037">
        <ele>526</ele>
        <time>2021-05-14T13:41:25Z</time>
      </trkpt>
      <trkpt lat="45.42892" lon="4.66031">
        <ele>526</ele>
        <time>2021-05-14T13:41:27Z</time>
      </trkpt>
      <trkpt lat="45.42894" lon="4.66026">
        <ele>526</ele>
        <time>2021-05-14T13:41:29Z</time>
      </trkpt>
      <trkpt lat="45.42896" lon="4.6602">
        <ele>526</ele>
        <time>2021-05-14T13:41:31Z</time>
      </trkpt>
      <trkpt lat="45.42898" lon="4.66015">
        <ele>526</ele>
        <time>2021-05-14T13:41:33Z</time>
      </trkpt>
      <trkpt lat="45.429" lon="4.66009">
        <ele>526</ele>
        <time>2021-05-14T13:41:35Z</time>
      </trkpt>
      <trkpt lat="45.42902" lon="4.66003">
        <ele>525</ele>
        <time>2021-05-14T13:41:37Z</time>
      </trkpt>
      <trkpt lat="45.42903" lon="4.65997">
        <ele>524</ele>
        <time>2021-05-14T13:41:39Z</time>
      </trkpt>
      <trkpt lat="45.42905" lon="4.65993">
        <ele>524</ele>
        <time>2021-05-14T13:41:41Z</time>
      </trkpt>
      <trkpt lat="45.42907" lon="4.65987">
        <ele>524</ele>
        <time>2021-05-14T13:41:44Z</time>
      </trkpt>
      <trkpt lat="45.42909" lon="4.65982">
        <ele>523</ele>
        <time>2021-05-14T13:41:46Z</time>
      </trkpt>
      <trkpt lat="45.4291" lon="4.65978">
        <ele>523</ele>
        <time>2021-05-14T13:41:48Z</time>
      </trkpt>
      <trkpt lat="45.42914" lon="4.65974">
        <ele>522</ele>
        <time>2021-05-14T13:41:50Z</time>
      </trkpt>
      <trkpt lat="45.42917" lon="4.6597">
        <ele>521</ele>
        <time>2021-05-14T13:41:52Z</time>
      </trkpt>
      <trkpt lat="45.42919" lon="4.65967">
        <ele>521</ele>
        <time>2021-05-14T13:41:54Z</time>
      </trkpt>
      <trkpt lat="45.42925" lon="4.65962">
        <ele>519</ele>
        <time>2021-05-14T13:41:57Z</time>
      </trkpt>
      <trkpt lat="45.42929" lon="4.65961">
        <ele>518</ele>
        <time>2021-05-14T13:41:59Z</time>
      </trkpt>
      <trkpt lat="45.42934" lon="4.65959">
        <ele>517</ele>
        <time>2021-05-14T13:42:02Z</time>
      </trkpt>
      <trkpt lat="45.42939" lon="4.65956">
        <ele>517</ele>
        <time>2021-05-14T13:42:05Z</time>
      </trkpt>
      <trkpt lat="45.42942" lon="4.65955">
        <ele>517</ele>
        <time>2021-05-14T13:42:07Z</time>
      </trkpt>
      <trkpt lat="45.42946" lon="4.65953">
        <ele>517</ele>
        <time>2021-05-14T13:42:09Z</time>
      </trkpt>
      <trkpt lat="45.4295" lon="4.6595">
        <ele>516</ele>
        <time>2021-05-14T13:42:12Z</time>
      </trkpt>
      <trkpt lat="45.42955" lon="4.65949">
        <ele>515</ele>
        <time>2021-05-14T13:42:15Z</time>
      </trkpt>
      <trkpt lat="45.42959" lon="4.65947">
        <ele>515</ele>
        <time>2021-05-14T13:42:17Z</time>
      </trkpt>
      <trkpt lat="45.42963" lon="4.65943">
        <ele>515</ele>
        <time>2021-05-14T13:42:19Z</time>
      </trkpt>
      <trkpt lat="45.42966" lon="4.6594">
        <ele>514</ele>
        <time>2021-05-14T13:42:21Z</time>
      </trkpt>
      <trkpt lat="45.42969" lon="4.65936">
        <ele>514</ele>
        <time>2021-05-14T13:42:23Z</time>
      </trkpt>
      <trkpt lat="45.42972" lon="4.65932">
        <ele>513</ele>
        <time>2021-05-14T13:42:26Z</time>
      </trkpt>
      <trkpt lat="45.42976" lon="4.65927">
        <ele>513</ele>
        <time>2021-05-14T13:42:29Z</time>
      </trkpt>
      <trkpt lat="45.42981" lon="4.65922">
        <ele>514</ele>
        <time>2021-05-14T13:42:32Z</time>
      </trkpt>
      <trkpt lat="45.42984" lon="4.65917">
        <ele>513</ele>
        <time>2021-05-14T13:42:35Z</time>
      </trkpt>
      <trkpt lat="45.42988" lon="4.65914">
        <ele>513</ele>
        <time>2021-05-14T13:42:37Z</time>
      </trkpt>
      <trkpt lat="45.42992" lon="4.6591">
        <ele>514</ele>
        <time>2021-05-14T13:42:39Z</time>
      </trkpt>
      <trkpt lat="45.42997" lon="4.65907">
        <ele>514</ele>
        <time>2021-05-14T13:42:40Z</time>
      </trkpt>
      <trkpt lat="45.43003" lon="4.659">
        <ele>513</ele>
        <time>2021-05-14T13:42:42Z</time>
      </trkpt>
      <trkpt lat="45.43006" lon="4.65898">
        <ele>513</ele>
        <time>2021-05-14T13:42:43Z</time>
      </trkpt>
      <trkpt lat="45.43009" lon="4.65895">
        <ele>513</ele>
        <time>2021-05-14T13:42:44Z</time>
      </trkpt>
      <trkpt lat="45.43012" lon="4.65891">
        <ele>513</ele>
        <time>2021-05-14T13:42:45Z</time>
      </trkpt>
      <trkpt lat="45.43018" lon="4.65886">
        <ele>513</ele>
        <time>2021-05-14T13:42:47Z</time>
      </trkpt>
      <trkpt lat="45.43022" lon="4.65881">
        <ele>513</ele>
        <time>2021-05-14T13:42:49Z</time>
      </trkpt>
      <trkpt lat="45.43027" lon="4.65877">
        <ele>513</ele>
        <time>2021-05-14T13:42:51Z</time>
      </trkpt>
      <trkpt lat="45.43031" lon="4.65873">
        <ele>513</ele>
        <time>2021-05-14T13:42:53Z</time>
      </trkpt>
      <trkpt lat="45.43036" lon="4.65869">
        <ele>512</ele>
        <time>2021-05-14T13:42:55Z</time>
      </trkpt>
      <trkpt lat="45.4304" lon="4.65865">
        <ele>511</ele>
        <time>2021-05-14T13:42:57Z</time>
      </trkpt>
      <trkpt lat="45.43045" lon="4.65862">
        <ele>510</ele>
        <time>2021-05-14T13:42:59Z</time>
      </trkpt>
      <trkpt lat="45.43049" lon="4.65858">
        <ele>510</ele>
        <time>2021-05-14T13:43:01Z</time>
      </trkpt>
      <trkpt lat="45.43053" lon="4.65854">
        <ele>510</ele>
        <time>2021-05-14T13:43:03Z</time>
      </trkpt>
      <trkpt lat="45.43058" lon="4.6585">
        <ele>510</ele>
        <time>2021-05-14T13:43:05Z</time>
      </trkpt>
      <trkpt lat="45.43062" lon="4.65846">
        <ele>510</ele>
        <time>2021-05-14T13:43:07Z</time>
      </trkpt>
      <trkpt lat="45.43065" lon="4.65841">
        <ele>510</ele>
        <time>2021-05-14T13:43:08Z</time>
      </trkpt>
      <trkpt lat="45.43068" lon="4.65837">
        <ele>510</ele>
        <time>2021-05-14T13:43:11Z</time>
      </trkpt>
      <trkpt lat="45.43071" lon="4.65832">
        <ele>510</ele>
        <time>2021-05-14T13:43:14Z</time>
      </trkpt>
      <trkpt lat="45.43074" lon="4.65828">
        <ele>511</ele>
        <time>2021-05-14T13:43:17Z</time>
      </trkpt>
      <trkpt lat="45.43077" lon="4.65825">
        <ele>511</ele>
        <time>2021-05-14T13:43:20Z</time>
      </trkpt>
      <trkpt lat="45.43082" lon="4.65822">
        <ele>511</ele>
        <time>2021-05-14T13:43:24Z</time>
      </trkpt>
      <trkpt lat="45.43085" lon="4.65819">
        <ele>511</ele>
        <time>2021-05-14T13:43:26Z</time>
      </trkpt>
      <trkpt lat="45.43089" lon="4.65817">
        <ele>511</ele>
        <time>2021-05-14T13:43:28Z</time>
      </trkpt>
      <trkpt lat="45.43092" lon="4.65813">
        <ele>512</ele>
        <time>2021-05-14T13:43:30Z</time>
      </trkpt>
      <trkpt lat="45.43094" lon="4.65808">
        <ele>512</ele>
        <time>2021-05-14T13:43:33Z</time>
      </trkpt>
      <trkpt lat="45.43097" lon="4.65805">
        <ele>512</ele>
        <time>2021-05-14T13:43:35Z</time>
      </trkpt>
      <trkpt lat="45.43101" lon="4.65801">
        <ele>512</ele>
        <time>2021-05-14T13:43:37Z</time>
      </trkpt>
      <trkpt lat="45.43104" lon="4.65798">
        <ele>512</ele>
        <time>2021-05-14T13:43:39Z</time>
      </trkpt>
      <trkpt lat="45.43107" lon="4.65795">
        <ele>512</ele>
        <time>2021-05-14T13:43:42Z</time>
      </trkpt>
      <trkpt lat="45.43112" lon="4.65794">
        <ele>513</ele>
        <time>2021-05-14T13:43:45Z</time>
      </trkpt>
      <trkpt lat="45.43116" lon="4.65794">
        <ele>513</ele>
        <time>2021-05-14T13:43:48Z</time>
      </trkpt>
      <trkpt lat="45.43121" lon="4.65792">
        <ele>513</ele>
        <time>2021-05-14T13:43:51Z</time>
      </trkpt>
      <trkpt lat="45.43125" lon="4.65792">
        <ele>514</ele>
        <time>2021-05-14T13:43:54Z</time>
      </trkpt>
      <trkpt lat="45.4313" lon="4.6579">
        <ele>514</ele>
        <time>2021-05-14T13:43:57Z</time>
      </trkpt>
      <trkpt lat="45.43134" lon="4.65789">
        <ele>514</ele>
        <time>2021-05-14T13:43:59Z</time>
      </trkpt>
      <trkpt lat="45.43138" lon="4.65788">
        <ele>514</ele>
        <time>2021-05-14T13:44:03Z</time>
      </trkpt>
      <trkpt lat="45.43142" lon="4.65786">
        <ele>515</ele>
        <time>2021-05-14T13:44:06Z</time>
      </trkpt>
      <trkpt lat="45.43146" lon="4.65785">
        <ele>515</ele>
        <time>2021-05-14T13:44:09Z</time>
      </trkpt>
      <trkpt lat="45.4315" lon="4.65786">
        <ele>515</ele>
        <time>2021-05-14T13:44:11Z</time>
      </trkpt>
      <trkpt lat="45.43154" lon="4.65785">
        <ele>515</ele>
        <time>2021-05-14T13:44:14Z</time>
      </trkpt>
      <trkpt lat="45.43159" lon="4.65784">
        <ele>515</ele>
        <time>2021-05-14T13:44:17Z</time>
      </trkpt>
      <trkpt lat="45.43163" lon="4.65782">
        <ele>515</ele>
        <time>2021-05-14T13:44:19Z</time>
      </trkpt>
      <trkpt lat="45.43168" lon="4.65781">
        <ele>515</ele>
        <time>2021-05-14T13:44:22Z</time>
      </trkpt>
      <trkpt lat="45.43172" lon="4.65781">
        <ele>515</ele>
        <time>2021-05-14T13:44:25Z</time>
      </trkpt>
      <trkpt lat="45.43176" lon="4.6578">
        <ele>516</ele>
        <time>2021-05-14T13:44:28Z</time>
      </trkpt>
      <trkpt lat="45.4318" lon="4.65779">
        <ele>516</ele>
        <time>2021-05-14T13:44:31Z</time>
      </trkpt>
      <trkpt lat="45.43185" lon="4.65778">
        <ele>517</ele>
        <time>2021-05-14T13:44:34Z</time>
      </trkpt>
      <trkpt lat="45.43189" lon="4.65776">
        <ele>517</ele>
        <time>2021-05-14T13:44:37Z</time>
      </trkpt>
      <trkpt lat="45.43193" lon="4.65773">
        <ele>517</ele>
        <time>2021-05-14T13:44:40Z</time>
      </trkpt>
      <trkpt lat="45.43197" lon="4.6577">
        <ele>517</ele>
        <time>2021-05-14T13:44:43Z</time>
      </trkpt>
      <trkpt lat="45.43201" lon="4.65768">
        <ele>517</ele>
        <time>2021-05-14T13:44:46Z</time>
      </trkpt>
      <trkpt lat="45.43204" lon="4.65765">
        <ele>518</ele>
        <time>2021-05-14T13:44:49Z</time>
      </trkpt>
      <trkpt lat="45.43208" lon="4.65763">
        <ele>518</ele>
        <time>2021-05-14T13:44:52Z</time>
      </trkpt>
      <trkpt lat="45.43212" lon="4.6576">
        <ele>518</ele>
        <time>2021-05-14T13:44:55Z</time>
      </trkpt>
      <trkpt lat="45.43216" lon="4.65758">
        <ele>518</ele>
        <time>2021-05-14T13:44:58Z</time>
      </trkpt>
      <trkpt lat="45.43219" lon="4.65755">
        <ele>518</ele>
        <time>2021-05-14T13:45:01Z</time>
      </trkpt>
      <trkpt lat="45.43222" lon="4.6575">
        <ele>519</ele>
        <time>2021-05-14T13:45:04Z</time>
      </trkpt>
      <trkpt lat="45.43226" lon="4.65746">
        <ele>519</ele>
        <time>2021-05-14T13:45:08Z</time>
      </trkpt>
      <trkpt lat="45.43229" lon="4.65741">
        <ele>520</ele>
        <time>2021-05-14T13:45:11Z</time>
      </trkpt>
      <trkpt lat="45.43232" lon="4.65736">
        <ele>520</ele>
        <time>2021-05-14T13:45:14Z</time>
      </trkpt>
      <trkpt lat="45.43235" lon="4.65731">
        <ele>520</ele>
        <time>2021-05-14T13:45:16Z</time>
      </trkpt>
      <trkpt lat="45.43238" lon="4.65726">
        <ele>520</ele>
        <time>2021-05-14T13:45:18Z</time>
      </trkpt>
      <trkpt lat="45.43242" lon="4.65718">
        <ele>521</ele>
        <time>2021-05-14T13:45:22Z</time>
      </trkpt>
      <trkpt lat="45.43244" lon="4.65711">
        <ele>521</ele>
        <time>2021-05-14T13:45:25Z</time>
      </trkpt>
      <trkpt lat="45.43246" lon="4.65705">
        <ele>521</ele>
        <time>2021-05-14T13:45:27Z</time>
      </trkpt>
      <trkpt lat="45.43249" lon="4.65699">
        <ele>521</ele>
        <time>2021-05-14T13:45:29Z</time>
      </trkpt>
      <trkpt lat="45.43252" lon="4.65693">
        <ele>521</ele>
        <time>2021-05-14T13:45:31Z</time>
      </trkpt>
      <trkpt lat="45.43254" lon="4.65688">
        <ele>521</ele>
        <time>2021-05-14T13:45:33Z</time>
      </trkpt>
      <trkpt lat="45.43257" lon="4.65683">
        <ele>522</ele>
        <time>2021-05-14T13:45:36Z</time>
      </trkpt>
      <trkpt lat="45.43259" lon="4.65678">
        <ele>523</ele>
        <time>2021-05-14T13:45:39Z</time>
      </trkpt>
      <trkpt lat="45.43261" lon="4.65672">
        <ele>523</ele>
        <time>2021-05-14T13:45:42Z</time>
      </trkpt>
      <trkpt lat="45.43263" lon="4.65667">
        <ele>523</ele>
        <time>2021-05-14T13:45:44Z</time>
      </trkpt>
      <trkpt lat="45.43265" lon="4.65663">
        <ele>523</ele>
        <time>2021-05-14T13:45:46Z</time>
      </trkpt>
      <trkpt lat="45.43267" lon="4.65658">
        <ele>523</ele>
        <time>2021-05-14T13:45:48Z</time>
      </trkpt>
      <trkpt lat="45.4327" lon="4.65654">
        <ele>523</ele>
        <time>2021-05-14T13:45:50Z</time>
      </trkpt>
      <trkpt lat="45.43273" lon="4.65648">
        <ele>523</ele>
        <time>2021-05-14T13:45:53Z</time>
      </trkpt>
      <trkpt lat="45.43275" lon="4.65642">
        <ele>523</ele>
        <time>2021-05-14T13:45:56Z</time>
      </trkpt>
      <trkpt lat="45.43278" lon="4.65637">
        <ele>523</ele>
        <time>2021-05-14T13:45:58Z</time>
      </trkpt>
      <trkpt lat="45.43281" lon="4.65631">
        <ele>523</ele>
        <time>2021-05-14T13:46:01Z</time>
      </trkpt>
      <trkpt lat="45.43283" lon="4.65625">
        <ele>523</ele>
        <time>2021-05-14T13:46:04Z</time>
      </trkpt>
      <trkpt lat="45.43286" lon="4.65621">
        <ele>524</ele>
        <time>2021-05-14T13:46:07Z</time>
      </trkpt>
      <trkpt lat="45.43289" lon="4.65617">
        <ele>525</ele>
        <time>2021-05-14T13:46:10Z</time>
      </trkpt>
      <trkpt lat="45.43292" lon="4.65612">
        <ele>525</ele>
        <time>2021-05-14T13:46:13Z</time>
      </trkpt>
      <trkpt lat="45.43295" lon="4.65608">
        <ele>525</ele>
        <time>2021-05-14T13:46:16Z</time>
      </trkpt>
      <trkpt lat="45.43298" lon="4.65602">
        <ele>525</ele>
        <time>2021-05-14T13:46:19Z</time>
      </trkpt>
      <trkpt lat="45.43301" lon="4.65599">
        <ele>525</ele>
        <time>2021-05-14T13:46:22Z</time>
      </trkpt>
      <trkpt lat="45.43304" lon="4.65594">
        <ele>525</ele>
        <time>2021-05-14T13:46:25Z</time>
      </trkpt>
      <trkpt lat="45.43307" lon="4.6559">
        <ele>525</ele>
        <time>2021-05-14T13:46:27Z</time>
      </trkpt>
      <trkpt lat="45.43309" lon="4.65586">
        <ele>525</ele>
        <time>2021-05-14T13:46:29Z</time>
      </trkpt>
      <trkpt lat="45.43312" lon="4.6558">
        <ele>526</ele>
        <time>2021-05-14T13:46:32Z</time>
      </trkpt>
      <trkpt lat="45.43315" lon="4.65576">
        <ele>526</ele>
        <time>2021-05-14T13:46:35Z</time>
      </trkpt>
      <trkpt lat="45.43318" lon="4.65572">
        <ele>527</ele>
        <time>2021-05-14T13:46:37Z</time>
      </trkpt>
      <trkpt lat="45.43321" lon="4.65569">
        <ele>527</ele>
        <time>2021-05-14T13:46:39Z</time>
      </trkpt>
      <trkpt lat="45.43324" lon="4.65565">
        <ele>527</ele>
        <time>2021-05-14T13:46:41Z</time>
      </trkpt>
      <trkpt lat="45.43327" lon="4.65562">
        <ele>527</ele>
        <time>2021-05-14T13:46:43Z</time>
      </trkpt>
      <trkpt lat="45.43331" lon="4.65557">
        <ele>527</ele>
        <time>2021-05-14T13:46:46Z</time>
      </trkpt>
      <trkpt lat="45.43336" lon="4.65554">
        <ele>527</ele>
        <time>2021-05-14T13:46:48Z</time>
      </trkpt>
      <trkpt lat="45.43339" lon="4.6555">
        <ele>527</ele>
        <time>2021-05-14T13:46:51Z</time>
      </trkpt>
      <trkpt lat="45.43343" lon="4.65546">
        <ele>527</ele>
        <time>2021-05-14T13:46:55Z</time>
      </trkpt>
      <trkpt lat="45.43347" lon="4.65542">
        <ele>527</ele>
        <time>2021-05-14T13:46:58Z</time>
      </trkpt>
      <trkpt lat="45.43352" lon="4.65541">
        <ele>528</ele>
        <time>2021-05-14T13:47:00Z</time>
      </trkpt>
      <trkpt lat="45.43356" lon="4.6554">
        <ele>528</ele>
        <time>2021-05-14T13:47:04Z</time>
      </trkpt>
      <trkpt lat="45.4336" lon="4.65535">
        <ele>529</ele>
        <time>2021-05-14T13:47:07Z</time>
      </trkpt>
      <trkpt lat="45.43363" lon="4.65533">
        <ele>529</ele>
        <time>2021-05-14T13:47:10Z</time>
      </trkpt>
      <trkpt lat="45.43366" lon="4.65529">
        <ele>529</ele>
        <time>2021-05-14T13:47:13Z</time>
      </trkpt>
      <trkpt lat="45.43369" lon="4.65525">
        <ele>529</ele>
        <time>2021-05-14T13:47:16Z</time>
      </trkpt>
      <trkpt lat="45.43371" lon="4.6552">
        <ele>529</ele>
        <time>2021-05-14T13:47:19Z</time>
      </trkpt>
      <trkpt lat="45.43375" lon="4.65518">
        <ele>529</ele>
        <time>2021-05-14T13:47:23Z</time>
      </trkpt>
      <trkpt lat="45.4338" lon="4.65515">
        <ele>529</ele>
        <time>2021-05-14T13:47:26Z</time>
      </trkpt>
      <trkpt lat="45.43382" lon="4.6551">
        <ele>530</ele>
        <time>2021-05-14T13:47:28Z</time>
      </trkpt>
      <trkpt lat="45.43385" lon="4.65506">
        <ele>530</ele>
        <time>2021-05-14T13:47:30Z</time>
      </trkpt>
      <trkpt lat="45.43388" lon="4.65503">
        <ele>530</ele>
        <time>2021-05-14T13:47:32Z</time>
      </trkpt>
      <trkpt lat="45.43392" lon="4.65499">
        <ele>530</ele>
        <time>2021-05-14T13:47:34Z</time>
      </trkpt>
      <trkpt lat="45.43396" lon="4.65495">
        <ele>530</ele>
        <time>2021-05-14T13:47:37Z</time>
      </trkpt>
      <trkpt lat="45.43399" lon="4.6549">
        <ele>531</ele>
        <time>2021-05-14T13:47:40Z</time>
      </trkpt>
      <trkpt lat="45.43403" lon="4.65485">
        <ele>531</ele>
        <time>2021-05-14T13:47:43Z</time>
      </trkpt>
      <trkpt lat="45.43407" lon="4.65481">
        <ele>531</ele>
        <time>2021-05-14T13:47:46Z</time>
      </trkpt>
      <trkpt lat="45.4341" lon="4.65478">
        <ele>531</ele>
        <time>2021-05-14T13:47:48Z</time>
      </trkpt>
      <trkpt lat="45.43414" lon="4.65475">
        <ele>531</ele>
        <time>2021-05-14T13:47:50Z</time>
      </trkpt>
      <trkpt lat="45.43417" lon="4.65471">
        <ele>531</ele>
        <time>2021-05-14T13:47:52Z</time>
      </trkpt>
      <trkpt lat="45.4342" lon="4.65466">
        <ele>532</ele>
        <time>2021-05-14T13:47:54Z</time>
      </trkpt>
      <trkpt lat="45.43423" lon="4.65461">
        <ele>532</ele>
        <time>2021-05-14T13:47:56Z</time>
      </trkpt>
      <trkpt lat="45.43425" lon="4.65456">
        <ele>532</ele>
        <time>2021-05-14T13:47:58Z</time>
      </trkpt>
      <trkpt lat="45.43428" lon="4.65451">
        <ele>532</ele>
        <time>2021-05-14T13:48:00Z</time>
      </trkpt>
      <trkpt lat="45.4343" lon="4.65445">
        <ele>531</ele>
        <time>2021-05-14T13:48:03Z</time>
      </trkpt>
      <trkpt lat="45.43433" lon="4.65439">
        <ele>532</ele>
        <time>2021-05-14T13:48:05Z</time>
      </trkpt>
      <trkpt lat="45.43435" lon="4.65434">
        <ele>533</ele>
        <time>2021-05-14T13:48:07Z</time>
      </trkpt>
      <trkpt lat="45.43437" lon="4.65428">
        <ele>533</ele>
        <time>2021-05-14T13:48:09Z</time>
      </trkpt>
      <trkpt lat="45.43438" lon="4.65421">
        <ele>533</ele>
        <time>2021-05-14T13:48:11Z</time>
      </trkpt>
      <trkpt lat="45.4344" lon="4.65415">
        <ele>534</ele>
        <time>2021-05-14T13:48:13Z</time>
      </trkpt>
      <trkpt lat="45.43443" lon="4.65409">
        <ele>534</ele>
        <time>2021-05-14T13:48:16Z</time>
      </trkpt>
      <trkpt lat="45.43444" lon="4.65401">
        <ele>534</ele>
        <time>2021-05-14T13:48:19Z</time>
      </trkpt>
      <trkpt lat="45.43445" lon="4.65394">
        <ele>534</ele>
        <time>2021-05-14T13:48:22Z</time>
      </trkpt>
      <trkpt lat="45.43447" lon="4.65389">
        <ele>534</ele>
        <time>2021-05-14T13:48:26Z</time>
      </trkpt>
      <trkpt lat="45.43448" lon="4.65384">
        <ele>534</ele>
        <time>2021-05-14T13:48:29Z</time>
      </trkpt>
      <trkpt lat="45.43449" lon="4.65378">
        <ele>534</ele>
        <time>2021-05-14T13:48:32Z</time>
      </trkpt>
      <trkpt lat="45.4345" lon="4.65373">
        <ele>534</ele>
        <time>2021-05-14T13:48:34Z</time>
      </trkpt>
      <trkpt lat="45.43451" lon="4.65368">
        <ele>534</ele>
        <time>2021-05-14T13:48:37Z</time>
      </trkpt>
      <trkpt lat="45.43453" lon="4.65363">
        <ele>535</ele>
        <time>2021-05-14T13:48:40Z</time>
      </trkpt>
      <trkpt lat="45.43456" lon="4.65358">
        <ele>535</ele>
        <time>2021-05-14T13:48:43Z</time>
      </trkpt>
      <trkpt lat="45.43458" lon="4.65353">
        <ele>535</ele>
        <time>2021-05-14T13:48:46Z</time>
      </trkpt>
      <trkpt lat="45.4346" lon="4.65348">
        <ele>536</ele>
        <time>2021-05-14T13:48:49Z</time>
      </trkpt>
      <trkpt lat="45.43462" lon="4.65342">
        <ele>536</ele>
        <time>2021-05-14T13:48:53Z</time>
      </trkpt>
      <trkpt lat="45.43463" lon="4.65337">
        <ele>536</ele>
        <time>2021-05-14T13:48:58Z</time>
      </trkpt>
      <trkpt lat="45.43466" lon="4.65333">
        <ele>537</ele>
        <time>2021-05-14T13:49:01Z</time>
      </trkpt>
      <trkpt lat="45.43469" lon="4.65328">
        <ele>537</ele>
        <time>2021-05-14T13:49:04Z</time>
      </trkpt>
      <trkpt lat="45.43471" lon="4.65323">
        <ele>537</ele>
        <time>2021-05-14T13:49:07Z</time>
      </trkpt>
      <trkpt lat="45.43473" lon="4.65319">
        <ele>538</ele>
        <time>2021-05-14T13:49:10Z</time>
      </trkpt>
      <trkpt lat="45.43476" lon="4.65315">
        <ele>538</ele>
        <time>2021-05-14T13:49:12Z</time>
      </trkpt>
      <trkpt lat="45.43479" lon="4.65311">
        <ele>538</ele>
        <time>2021-05-14T13:49:15Z</time>
      </trkpt>
      <trkpt lat="45.43482" lon="4.65308">
        <ele>538</ele>
        <time>2021-05-14T13:49:18Z</time>
      </trkpt>
      <trkpt lat="45.43485" lon="4.65304">
        <ele>538</ele>
        <time>2021-05-14T13:49:20Z</time>
      </trkpt>
      <trkpt lat="45.43489" lon="4.65302">
        <ele>538</ele>
        <time>2021-05-14T13:49:22Z</time>
      </trkpt>
      <trkpt lat="45.43493" lon="4.65297">
        <ele>538</ele>
        <time>2021-05-14T13:49:25Z</time>
      </trkpt>
      <trkpt lat="45.43496" lon="4.65295">
        <ele>538</ele>
        <time>2021-05-14T13:49:27Z</time>
      </trkpt>
      <trkpt lat="45.43499" lon="4.65291">
        <ele>538</ele>
        <time>2021-05-14T13:49:30Z</time>
      </trkpt>
      <trkpt lat="45.43503" lon="4.65288">
        <ele>539</ele>
        <time>2021-05-14T13:49:33Z</time>
      </trkpt>
      <trkpt lat="45.43507" lon="4.65284">
        <ele>539</ele>
        <time>2021-05-14T13:49:36Z</time>
      </trkpt>
      <trkpt lat="45.43512" lon="4.65281">
        <ele>539</ele>
        <time>2021-05-14T13:49:39Z</time>
      </trkpt>
      <trkpt lat="45.43516" lon="4.65281">
        <ele>539</ele>
        <time>2021-05-14T13:49:42Z</time>
      </trkpt>
      <trkpt lat="45.4352" lon="4.65279">
        <ele>539</ele>
        <time>2021-05-14T13:49:45Z</time>
      </trkpt>
      <trkpt lat="45.43524" lon="4.65278">
        <ele>539</ele>
        <time>2021-05-14T13:49:47Z</time>
      </trkpt>
      <trkpt lat="45.43528" lon="4.65275">
        <ele>540</ele>
        <time>2021-05-14T13:49:51Z</time>
      </trkpt>
      <trkpt lat="45.43532" lon="4.65273">
        <ele>540</ele>
        <time>2021-05-14T13:49:54Z</time>
      </trkpt>
      <trkpt lat="45.43536" lon="4.6527">
        <ele>541</ele>
        <time>2021-05-14T13:49:57Z</time>
      </trkpt>
      <trkpt lat="45.43539" lon="4.65268">
        <ele>542</ele>
        <time>2021-05-14T13:50:01Z</time>
      </trkpt>
      <trkpt lat="45.43543" lon="4.65267">
        <ele>541</ele>
        <time>2021-05-14T13:50:04Z</time>
      </trkpt>
      <trkpt lat="45.43549" lon="4.65267">
        <ele>541</ele>
        <time>2021-05-14T13:50:07Z</time>
      </trkpt>
      <trkpt lat="45.43554" lon="4.65268">
        <ele>541</ele>
        <time>2021-05-14T13:50:10Z</time>
      </trkpt>
      <trkpt lat="45.43558" lon="4.65267">
        <ele>541</ele>
        <time>2021-05-14T13:50:12Z</time>
      </trkpt>
      <trkpt lat="45.43562" lon="4.65266">
        <ele>542</ele>
        <time>2021-05-14T13:50:14Z</time>
      </trkpt>
      <trkpt lat="45.43567" lon="4.65265">
        <ele>542</ele>
        <time>2021-05-14T13:50:16Z</time>
      </trkpt>
      <trkpt lat="45.43571" lon="4.65264">
        <ele>542</ele>
        <time>2021-05-14T13:50:18Z</time>
      </trkpt>
      <trkpt lat="45.43576" lon="4.65264">
        <ele>542</ele>
        <time>2021-05-14T13:50:20Z</time>
      </trkpt>
      <trkpt lat="45.43582" lon="4.65264">
        <ele>542</ele>
        <time>2021-05-14T13:50:22Z</time>
      </trkpt>
      <trkpt lat="45.43586" lon="4.65262">
        <ele>542</ele>
        <time>2021-05-14T13:50:24Z</time>
      </trkpt>
      <trkpt lat="45.43591" lon="4.6526">
        <ele>543</ele>
        <time>2021-05-14T13:50:26Z</time>
      </trkpt>
      <trkpt lat="45.43596" lon="4.65259">
        <ele>543</ele>
        <time>2021-05-14T13:50:28Z</time>
      </trkpt>
      <trkpt lat="45.436" lon="4.65257">
        <ele>542</ele>
        <time>2021-05-14T13:50:30Z</time>
      </trkpt>
      <trkpt lat="45.43605" lon="4.65255">
        <ele>543</ele>
        <time>2021-05-14T13:50:32Z</time>
      </trkpt>
      <trkpt lat="45.43611" lon="4.65251">
        <ele>543</ele>
        <time>2021-05-14T13:50:34Z</time>
      </trkpt>
      <trkpt lat="45.43614" lon="4.65247">
        <ele>543</ele>
        <time>2021-05-14T13:50:36Z</time>
      </trkpt>
      <trkpt lat="45.43618" lon="4.65244">
        <ele>543</ele>
        <time>2021-05-14T13:50:38Z</time>
      </trkpt>
      <trkpt lat="45.43621" lon="4.65241">
        <ele>543</ele>
        <time>2021-05-14T13:50:41Z</time>
      </trkpt>
      <trkpt lat="45.43624" lon="4.65236">
        <ele>543</ele>
        <time>2021-05-14T13:50:46Z</time>
      </trkpt>
      <trkpt lat="45.43624" lon="4.65231">
        <ele>544</ele>
        <time>2021-05-14T13:50:51Z</time>
      </trkpt>
      <trkpt lat="45.43624" lon="4.65226">
        <ele>545</ele>
        <time>2021-05-14T13:50:56Z</time>
      </trkpt>
      <trkpt lat="45.43626" lon="4.65221">
        <ele>546</ele>
        <time>2021-05-14T13:50:59Z</time>
      </trkpt>
      <trkpt lat="45.43627" lon="4.65215">
        <ele>546</ele>
        <time>2021-05-14T13:51:06Z</time>
      </trkpt>
      <trkpt lat="45.43629" lon="4.6521">
        <ele>546</ele>
        <time>2021-05-14T13:51:09Z</time>
      </trkpt>
      <trkpt lat="45.43631" lon="4.65206">
        <ele>547</ele>
        <time>2021-05-14T13:51:13Z</time>
      </trkpt>
      <trkpt lat="45.43631" lon="4.652">
        <ele>547</ele>
        <time>2021-05-14T13:51:17Z</time>
      </trkpt>
      <trkpt lat="45.4363" lon="4.65195">
        <ele>548</ele>
        <time>2021-05-14T13:51:21Z</time>
      </trkpt>
      <trkpt lat="45.43631" lon="4.65188">
        <ele>548</ele>
        <time>2021-05-14T13:51:25Z</time>
      </trkpt>
      <trkpt lat="45.43633" lon="4.65182">
        <ele>548</ele>
        <time>2021-05-14T13:51:29Z</time>
      </trkpt>
      <trkpt lat="45.43635" lon="4.65177">
        <ele>549</ele>
        <time>2021-05-14T13:51:33Z</time>
      </trkpt>
      <trkpt lat="45.43636" lon="4.65171">
        <ele>550</ele>
        <time>2021-05-14T13:51:38Z</time>
      </trkpt>
      <trkpt lat="45.43637" lon="4.65164">
        <ele>550</ele>
        <time>2021-05-14T13:51:42Z</time>
      </trkpt>
      <trkpt lat="45.43637" lon="4.65159">
        <ele>551</ele>
        <time>2021-05-14T13:51:45Z</time>
      </trkpt>
      <trkpt lat="45.43639" lon="4.65153">
        <ele>552</ele>
        <time>2021-05-14T13:51:49Z</time>
      </trkpt>
      <trkpt lat="45.4364" lon="4.65148">
        <ele>552</ele>
        <time>2021-05-14T13:51:53Z</time>
      </trkpt>
      <trkpt lat="45.43639" lon="4.65143">
        <ele>553</ele>
        <time>2021-05-14T13:51:58Z</time>
      </trkpt>
      <trkpt lat="45.4364" lon="4.65136">
        <ele>553</ele>
        <time>2021-05-14T13:52:01Z</time>
      </trkpt>
      <trkpt lat="45.4364" lon="4.65131">
        <ele>554</ele>
        <time>2021-05-14T13:52:06Z</time>
      </trkpt>
      <trkpt lat="45.4364" lon="4.65126">
        <ele>555</ele>
        <time>2021-05-14T13:52:10Z</time>
      </trkpt>
      <trkpt lat="45.43641" lon="4.65121">
        <ele>555</ele>
        <time>2021-05-14T13:52:14Z</time>
      </trkpt>
      <trkpt lat="45.43643" lon="4.65116">
        <ele>556</ele>
        <time>2021-05-14T13:52:18Z</time>
      </trkpt>
      <trkpt lat="45.43645" lon="4.65112">
        <ele>557</ele>
        <time>2021-05-14T13:52:22Z</time>
      </trkpt>
      <trkpt lat="45.43646" lon="4.65106">
        <ele>558</ele>
        <time>2021-05-14T13:52:26Z</time>
      </trkpt>
      <trkpt lat="45.43649" lon="4.651">
        <ele>559</ele>
        <time>2021-05-14T13:52:30Z</time>
      </trkpt>
      <trkpt lat="45.4365" lon="4.65095">
        <ele>560</ele>
        <time>2021-05-14T13:52:34Z</time>
      </trkpt>
      <trkpt lat="45.43652" lon="4.6509">
        <ele>561</ele>
        <time>2021-05-14T13:52:38Z</time>
      </trkpt>
      <trkpt lat="45.43654" lon="4.65084">
        <ele>562</ele>
        <time>2021-05-14T13:52:42Z</time>
      </trkpt>
      <trkpt lat="45.43656" lon="4.65079">
        <ele>563</ele>
        <time>2021-05-14T13:52:45Z</time>
      </trkpt>
      <trkpt lat="45.43656" lon="4.65073">
        <ele>564</ele>
        <time>2021-05-14T13:52:51Z</time>
      </trkpt>
      <trkpt lat="45.43658" lon="4.65068">
        <ele>565</ele>
        <time>2021-05-14T13:52:56Z</time>
      </trkpt>
      <trkpt lat="45.4366" lon="4.65063">
        <ele>565</ele>
        <time>2021-05-14T13:52:59Z</time>
      </trkpt>
      <trkpt lat="45.43662" lon="4.65057">
        <ele>566</ele>
        <time>2021-05-14T13:53:03Z</time>
      </trkpt>
      <trkpt lat="45.43663" lon="4.65052">
        <ele>566</ele>
        <time>2021-05-14T13:53:07Z</time>
      </trkpt>
      <trkpt lat="45.43665" lon="4.65047">
        <ele>566</ele>
        <time>2021-05-14T13:53:11Z</time>
      </trkpt>
      <trkpt lat="45.43665" lon="4.6504">
        <ele>567</ele>
        <time>2021-05-14T13:53:16Z</time>
      </trkpt>
      <trkpt lat="45.43665" lon="4.65035">
        <ele>567</ele>
        <time>2021-05-14T13:53:20Z</time>
      </trkpt>
      <trkpt lat="45.43665" lon="4.65028">
        <ele>568</ele>
        <time>2021-05-14T13:53:24Z</time>
      </trkpt>
      <trkpt lat="45.43666" lon="4.65023">
        <ele>569</ele>
        <time>2021-05-14T13:53:28Z</time>
      </trkpt>
      <trkpt lat="45.43667" lon="4.65018">
        <ele>570</ele>
        <time>2021-05-14T13:53:32Z</time>
      </trkpt>
      <trkpt lat="45.43669" lon="4.65012">
        <ele>571</ele>
        <time>2021-05-14T13:53:36Z</time>
      </trkpt>
      <trkpt lat="45.43671" lon="4.65006">
        <ele>571</ele>
        <time>2021-05-14T13:53:40Z</time>
      </trkpt>
      <trkpt lat="45.43672" lon="4.65001">
        <ele>572</ele>
        <time>2021-05-14T13:53:43Z</time>
      </trkpt>
      <trkpt lat="45.43674" lon="4.64996">
        <ele>574</ele>
        <time>2021-05-14T13:53:47Z</time>
      </trkpt>
      <trkpt lat="45.43676" lon="4.64991">
        <ele>575</ele>
        <time>2021-05-14T13:53:51Z</time>
      </trkpt>
      <trkpt lat="45.43679" lon="4.64987">
        <ele>576</ele>
        <time>2021-05-14T13:53:55Z</time>
      </trkpt>
      <trkpt lat="45.43682" lon="4.64983">
        <ele>576</ele>
        <time>2021-05-14T13:53:59Z</time>
      </trkpt>
      <trkpt lat="45.43685" lon="4.64979">
        <ele>577</ele>
        <time>2021-05-14T13:54:03Z</time>
      </trkpt>
      <trkpt lat="45.43688" lon="4.64975">
        <ele>578</ele>
        <time>2021-05-14T13:54:07Z</time>
      </trkpt>
      <trkpt lat="45.43692" lon="4.64971">
        <ele>578</ele>
        <time>2021-05-14T13:54:11Z</time>
      </trkpt>
      <trkpt lat="45.43695" lon="4.64967">
        <ele>578</ele>
        <time>2021-05-14T13:54:14Z</time>
      </trkpt>
      <trkpt lat="45.43699" lon="4.64962">
        <ele>578</ele>
        <time>2021-05-14T13:54:18Z</time>
      </trkpt>
      <trkpt lat="45.43701" lon="4.64958">
        <ele>579</ele>
        <time>2021-05-14T13:54:21Z</time>
      </trkpt>
      <trkpt lat="45.43702" lon="4.64953">
        <ele>580</ele>
        <time>2021-05-14T13:54:26Z</time>
      </trkpt>
      <trkpt lat="45.43701" lon="4.64948">
        <ele>580</ele>
        <time>2021-05-14T13:54:29Z</time>
      </trkpt>
      <trkpt lat="45.437" lon="4.64942">
        <ele>580</ele>
        <time>2021-05-14T13:54:32Z</time>
      </trkpt>
      <trkpt lat="45.43699" lon="4.64936">
        <ele>581</ele>
        <time>2021-05-14T13:54:35Z</time>
      </trkpt>
      <trkpt lat="45.43698" lon="4.6493">
        <ele>581</ele>
        <time>2021-05-14T13:54:39Z</time>
      </trkpt>
      <trkpt lat="45.43698" lon="4.64924">
        <ele>582</ele>
        <time>2021-05-14T13:54:43Z</time>
      </trkpt>
      <trkpt lat="45.43698" lon="4.64919">
        <ele>583</ele>
        <time>2021-05-14T13:54:46Z</time>
      </trkpt>
      <trkpt lat="45.43697" lon="4.64914">
        <ele>583</ele>
        <time>2021-05-14T13:54:49Z</time>
      </trkpt>
      <trkpt lat="45.43696" lon="4.64907">
        <ele>585</ele>
        <time>2021-05-14T13:54:55Z</time>
      </trkpt>
      <trkpt lat="45.43695" lon="4.64901">
        <ele>585</ele>
        <time>2021-05-14T13:54:59Z</time>
      </trkpt>
      <trkpt lat="45.43694" lon="4.64896">
        <ele>588</ele>
        <time>2021-05-14T13:55:05Z</time>
      </trkpt>
      <trkpt lat="45.43693" lon="4.64891">
        <ele>588</ele>
        <time>2021-05-14T13:55:09Z</time>
      </trkpt>
      <trkpt lat="45.43694" lon="4.64885">
        <ele>589</ele>
        <time>2021-05-14T13:55:16Z</time>
      </trkpt>
      <trkpt lat="45.43695" lon="4.64879">
        <ele>590</ele>
        <time>2021-05-14T13:55:21Z</time>
      </trkpt>
      <trkpt lat="45.43695" lon="4.64874">
        <ele>591</ele>
        <time>2021-05-14T13:55:26Z</time>
      </trkpt>
      <trkpt lat="45.43694" lon="4.64868">
        <ele>591</ele>
        <time>2021-05-14T13:55:32Z</time>
      </trkpt>
      <trkpt lat="45.43695" lon="4.64863">
        <ele>592</ele>
        <time>2021-05-14T13:55:38Z</time>
      </trkpt>
      <trkpt lat="45.43696" lon="4.64857">
        <ele>593</ele>
        <time>2021-05-14T13:55:42Z</time>
      </trkpt>
      <trkpt lat="45.43698" lon="4.64851">
        <ele>594</ele>
        <time>2021-05-14T13:55:47Z</time>
      </trkpt>
      <trkpt lat="45.43699" lon="4.64846">
        <ele>594</ele>
        <time>2021-05-14T13:55:50Z</time>
      </trkpt>
      <trkpt lat="45.437" lon="4.6484">
        <ele>595</ele>
        <time>2021-05-14T13:55:54Z</time>
      </trkpt>
      <trkpt lat="45.437" lon="4.64834">
        <ele>596</ele>
        <time>2021-05-14T13:55:58Z</time>
      </trkpt>
      <trkpt lat="45.437" lon="4.64828">
        <ele>596</ele>
        <time>2021-05-14T13:56:02Z</time>
      </trkpt>
      <trkpt lat="45.437" lon="4.64822">
        <ele>597</ele>
        <time>2021-05-14T13:56:06Z</time>
      </trkpt>
      <trkpt lat="45.437" lon="4.64815">
        <ele>597</ele>
        <time>2021-05-14T13:56:10Z</time>
      </trkpt>
      <trkpt lat="45.43696" lon="4.64811">
        <ele>599</ele>
        <time>2021-05-14T13:56:16Z</time>
      </trkpt>
      <trkpt lat="45.43695" lon="4.64805">
        <ele>599</ele>
        <time>2021-05-14T13:56:20Z</time>
      </trkpt>
      <trkpt lat="45.43694" lon="4.648">
        <ele>600</ele>
        <time>2021-05-14T13:56:23Z</time>
      </trkpt>
      <trkpt lat="45.43694" lon="4.64793">
        <ele>601</ele>
        <time>2021-05-14T13:56:27Z</time>
      </trkpt>
      <trkpt lat="45.43694" lon="4.64788">
        <ele>602</ele>
        <time>2021-05-14T13:56:32Z</time>
      </trkpt>
      <trkpt lat="45.43695" lon="4.64782">
        <ele>603</ele>
        <time>2021-05-14T13:56:35Z</time>
      </trkpt>
      <trkpt lat="45.43693" lon="4.64776">
        <ele>604</ele>
        <time>2021-05-14T13:56:39Z</time>
      </trkpt>
      <trkpt lat="45.43691" lon="4.64771">
        <ele>605</ele>
        <time>2021-05-14T13:56:42Z</time>
      </trkpt>
      <trkpt lat="45.4369" lon="4.64766">
        <ele>606</ele>
        <time>2021-05-14T13:56:45Z</time>
      </trkpt>
      <trkpt lat="45.43691" lon="4.64761">
        <ele>606</ele>
        <time>2021-05-14T13:56:49Z</time>
      </trkpt>
      <trkpt lat="45.43693" lon="4.64754">
        <ele>607</ele>
        <time>2021-05-14T13:56:54Z</time>
      </trkpt>
      <trkpt lat="45.43694" lon="4.64748">
        <ele>608</ele>
        <time>2021-05-14T13:56:57Z</time>
      </trkpt>
      <trkpt lat="45.43697" lon="4.64742">
        <ele>609</ele>
        <time>2021-05-14T13:57:01Z</time>
      </trkpt>
      <trkpt lat="45.43699" lon="4.64737">
        <ele>610</ele>
        <time>2021-05-14T13:57:04Z</time>
      </trkpt>
      <trkpt lat="45.43702" lon="4.64735">
        <ele>611</ele>
        <time>2021-05-14T13:57:15Z</time>
      </trkpt>
      <trkpt lat="45.43705" lon="4.6473">
        <ele>611</ele>
        <time>2021-05-14T13:57:22Z</time>
      </trkpt>
      <trkpt lat="45.43705" lon="4.64724">
        <ele>612</ele>
        <time>2021-05-14T13:57:27Z</time>
      </trkpt>
      <trkpt lat="45.43706" lon="4.64718">
        <ele>614</ele>
        <time>2021-05-14T13:57:32Z</time>
      </trkpt>
      <trkpt lat="45.43706" lon="4.64712">
        <ele>614</ele>
        <time>2021-05-14T13:57:36Z</time>
      </trkpt>
      <trkpt lat="45.43705" lon="4.64706">
        <ele>615</ele>
        <time>2021-05-14T13:57:40Z</time>
      </trkpt>
      <trkpt lat="45.43703" lon="4.64701">
        <ele>615</ele>
        <time>2021-05-14T13:57:44Z</time>
      </trkpt>
      <trkpt lat="45.43701" lon="4.64696">
        <ele>617</ele>
        <time>2021-05-14T13:57:49Z</time>
      </trkpt>
      <trkpt lat="45.43698" lon="4.64693">
        <ele>617</ele>
        <time>2021-05-14T13:57:54Z</time>
      </trkpt>
      <trkpt lat="45.43694" lon="4.64691">
        <ele>619</ele>
        <time>2021-05-14T13:57:59Z</time>
      </trkpt>
      <trkpt lat="45.4369" lon="4.64689">
        <ele>619</ele>
        <time>2021-05-14T13:58:03Z</time>
      </trkpt>
      <trkpt lat="45.43689" lon="4.64684">
        <ele>621</ele>
        <time>2021-05-14T13:58:06Z</time>
      </trkpt>
      <trkpt lat="45.43691" lon="4.64678">
        <ele>621</ele>
        <time>2021-05-14T13:58:10Z</time>
      </trkpt>
      <trkpt lat="45.43694" lon="4.64674">
        <ele>621</ele>
        <time>2021-05-14T13:58:13Z</time>
      </trkpt>
      <trkpt lat="45.43696" lon="4.64668">
        <ele>621</ele>
        <time>2021-05-14T13:58:17Z</time>
      </trkpt>
      <trkpt lat="45.43699" lon="4.64664">
        <ele>621</ele>
        <time>2021-05-14T13:58:20Z</time>
      </trkpt>
      <trkpt lat="45.43703" lon="4.64661">
        <ele>622</ele>
        <time>2021-05-14T13:58:25Z</time>
      </trkpt>
      <trkpt lat="45.43704" lon="4.64656">
        <ele>623</ele>
        <time>2021-05-14T13:58:32Z</time>
      </trkpt>
      <trkpt lat="45.43705" lon="4.64651">
        <ele>624</ele>
        <time>2021-05-14T13:58:37Z</time>
      </trkpt>
      <trkpt lat="45.43708" lon="4.64646">
        <ele>625</ele>
        <time>2021-05-14T13:58:42Z</time>
      </trkpt>
      <trkpt lat="45.43709" lon="4.64641">
        <ele>627</ele>
        <time>2021-05-14T13:58:47Z</time>
      </trkpt>
      <trkpt lat="45.43711" lon="4.64636">
        <ele>628</ele>
        <time>2021-05-14T13:58:52Z</time>
      </trkpt>
      <trkpt lat="45.43712" lon="4.64631">
        <ele>628</ele>
        <time>2021-05-14T13:59:01Z</time>
      </trkpt>
      <trkpt lat="45.43714" lon="4.64626">
        <ele>630</ele>
        <time>2021-05-14T13:59:04Z</time>
      </trkpt>
      <trkpt lat="45.43716" lon="4.64621">
        <ele>632</ele>
        <time>2021-05-14T13:59:09Z</time>
      </trkpt>
      <trkpt lat="45.43717" lon="4.64616">
        <ele>632</ele>
        <time>2021-05-14T13:59:13Z</time>
      </trkpt>
      <trkpt lat="45.43718" lon="4.64609">
        <ele>633</ele>
        <time>2021-05-14T13:59:17Z</time>
      </trkpt>
      <trkpt lat="45.43721" lon="4.64604">
        <ele>633</ele>
        <time>2021-05-14T13:59:22Z</time>
      </trkpt>
      <trkpt lat="45.43724" lon="4.64599">
        <ele>633</ele>
        <time>2021-05-14T13:59:26Z</time>
      </trkpt>
      <trkpt lat="45.43725" lon="4.64594">
        <ele>633</ele>
        <time>2021-05-14T13:59:33Z</time>
      </trkpt>
      <trkpt lat="45.43727" lon="4.64589">
        <ele>634</ele>
        <time>2021-05-14T13:59:38Z</time>
      </trkpt>
      <trkpt lat="45.4373" lon="4.64585">
        <ele>635</ele>
        <time>2021-05-14T13:59:43Z</time>
      </trkpt>
      <trkpt lat="45.43731" lon="4.64581">
        <ele>635</ele>
        <time>2021-05-14T13:59:46Z</time>
      </trkpt>
      <trkpt lat="45.43732" lon="4.64575">
        <ele>636</ele>
        <time>2021-05-14T13:59:50Z</time>
      </trkpt>
      <trkpt lat="45.43734" lon="4.6457">
        <ele>636</ele>
        <time>2021-05-14T13:59:55Z</time>
      </trkpt>
      <trkpt lat="45.43734" lon="4.64564">
        <ele>637</ele>
        <time>2021-05-14T13:59:59Z</time>
      </trkpt>
      <trkpt lat="45.43737" lon="4.6456">
        <ele>638</ele>
        <time>2021-05-14T14:00:04Z</time>
      </trkpt>
      <trkpt lat="45.43739" lon="4.64555">
        <ele>639</ele>
        <time>2021-05-14T14:00:07Z</time>
      </trkpt>
      <trkpt lat="45.43742" lon="4.6455">
        <ele>639</ele>
        <time>2021-05-14T14:00:11Z</time>
      </trkpt>
      <trkpt lat="45.43744" lon="4.64544">
        <ele>640</ele>
        <time>2021-05-14T14:00:16Z</time>
      </trkpt>
      <trkpt lat="45.43744" lon="4.64539">
        <ele>642</ele>
        <time>2021-05-14T14:00:22Z</time>
      </trkpt>
      <trkpt lat="45.43745" lon="4.64533">
        <ele>642</ele>
        <time>2021-05-14T14:00:27Z</time>
      </trkpt>
      <trkpt lat="45.43747" lon="4.64528">
        <ele>643</ele>
        <time>2021-05-14T14:00:33Z</time>
      </trkpt>
      <trkpt lat="45.43749" lon="4.64524">
        <ele>644</ele>
        <time>2021-05-14T14:00:38Z</time>
      </trkpt>
      <trkpt lat="45.4375" lon="4.64518">
        <ele>645</ele>
        <time>2021-05-14T14:00:44Z</time>
      </trkpt>
      <trkpt lat="45.4375" lon="4.64513">
        <ele>645</ele>
        <time>2021-05-14T14:00:50Z</time>
      </trkpt>
      <trkpt lat="45.4375" lon="4.64507">
        <ele>647</ele>
        <time>2021-05-14T14:00:55Z</time>
      </trkpt>
      <trkpt lat="45.4375" lon="4.64502">
        <ele>647</ele>
        <time>2021-05-14T14:00:59Z</time>
      </trkpt>
      <trkpt lat="45.4375" lon="4.64495">
        <ele>647</ele>
        <time>2021-05-14T14:01:04Z</time>
      </trkpt>
      <trkpt lat="45.4375" lon="4.6449">
        <ele>647</ele>
        <time>2021-05-14T14:01:08Z</time>
      </trkpt>
      <trkpt lat="45.43752" lon="4.64484">
        <ele>648</ele>
        <time>2021-05-14T14:01:12Z</time>
      </trkpt>
      <trkpt lat="45.43753" lon="4.64478">
        <ele>649</ele>
        <time>2021-05-14T14:01:16Z</time>
      </trkpt>
      <trkpt lat="45.43752" lon="4.64473">
        <ele>649</ele>
        <time>2021-05-14T14:01:20Z</time>
      </trkpt>
      <trkpt lat="45.43752" lon="4.64466">
        <ele>650</ele>
        <time>2021-05-14T14:01:24Z</time>
      </trkpt>
      <trkpt lat="45.43752" lon="4.64461">
        <ele>651</ele>
        <time>2021-05-14T14:01:27Z</time>
      </trkpt>
      <trkpt lat="45.43752" lon="4.64455">
        <ele>652</ele>
        <time>2021-05-14T14:01:32Z</time>
      </trkpt>
      <trkpt lat="45.43751" lon="4.64448">
        <ele>653</ele>
        <time>2021-05-14T14:01:36Z</time>
      </trkpt>
      <trkpt lat="45.43751" lon="4.64443">
        <ele>654</ele>
        <time>2021-05-14T14:01:42Z</time>
      </trkpt>
      <trkpt lat="45.43749" lon="4.64438">
        <ele>655</ele>
        <time>2021-05-14T14:01:47Z</time>
      </trkpt>
      <trkpt lat="45.43748" lon="4.64432">
        <ele>657</ele>
        <time>2021-05-14T14:01:52Z</time>
      </trkpt>
      <trkpt lat="45.43747" lon="4.64426">
        <ele>658</ele>
        <time>2021-05-14T14:01:57Z</time>
      </trkpt>
      <trkpt lat="45.43745" lon="4.6442">
        <ele>658</ele>
        <time>2021-05-14T14:02:03Z</time>
      </trkpt>
      <trkpt lat="45.43743" lon="4.64415">
        <ele>660</ele>
        <time>2021-05-14T14:02:09Z</time>
      </trkpt>
      <trkpt lat="45.43741" lon="4.6441">
        <ele>660</ele>
        <time>2021-05-14T14:02:14Z</time>
      </trkpt>
      <trkpt lat="45.43739" lon="4.64406">
        <ele>661</ele>
        <time>2021-05-14T14:02:18Z</time>
      </trkpt>
      <trkpt lat="45.43735" lon="4.64403">
        <ele>662</ele>
        <time>2021-05-14T14:02:22Z</time>
      </trkpt>
      <trkpt lat="45.43732" lon="4.64403">
        <ele>663</ele>
        <time>2021-05-14T14:02:29Z</time>
      </trkpt>
      <trkpt lat="45.43729" lon="4.64399">
        <ele>665</ele>
        <time>2021-05-14T14:02:33Z</time>
      </trkpt>
      <trkpt lat="45.43727" lon="4.64394">
        <ele>665</ele>
        <time>2021-05-14T14:02:37Z</time>
      </trkpt>
      <trkpt lat="45.43724" lon="4.64392">
        <ele>667</ele>
        <time>2021-05-14T14:02:42Z</time>
      </trkpt>
      <trkpt lat="45.4372" lon="4.64391">
        <ele>666</ele>
        <time>2021-05-14T14:02:47Z</time>
      </trkpt>
      <trkpt lat="45.43716" lon="4.6439">
        <ele>667</ele>
        <time>2021-05-14T14:02:51Z</time>
      </trkpt>
      <trkpt lat="45.43712" lon="4.64387">
        <ele>667</ele>
        <time>2021-05-14T14:02:54Z</time>
      </trkpt>
      <trkpt lat="45.43708" lon="4.64384">
        <ele>667</ele>
        <time>2021-05-14T14:02:58Z</time>
      </trkpt>
      <trkpt lat="45.43704" lon="4.64381">
        <ele>669</ele>
        <time>2021-05-14T14:03:02Z</time>
      </trkpt>
      <trkpt lat="45.43699" lon="4.64378">
        <ele>669</ele>
        <time>2021-05-14T14:03:05Z</time>
      </trkpt>
      <trkpt lat="45.43696" lon="4.64378">
        <ele>669</ele>
        <time>2021-05-14T14:03:08Z</time>
      </trkpt>
      <trkpt lat="45.43692" lon="4.64377">
        <ele>671</ele>
        <time>2021-05-14T14:03:11Z</time>
      </trkpt>
      <trkpt lat="45.43688" lon="4.64376">
        <ele>672</ele>
        <time>2021-05-14T14:03:17Z</time>
      </trkpt>
      <trkpt lat="45.43684" lon="4.64376">
        <ele>672</ele>
        <time>2021-05-14T14:03:22Z</time>
      </trkpt>
      <trkpt lat="45.4368" lon="4.64376">
        <ele>672</ele>
        <time>2021-05-14T14:03:26Z</time>
      </trkpt>
      <trkpt lat="45.43676" lon="4.64375">
        <ele>672</ele>
        <time>2021-05-14T14:03:29Z</time>
      </trkpt>
      <trkpt lat="45.43672" lon="4.64374">
        <ele>673</ele>
        <time>2021-05-14T14:03:33Z</time>
      </trkpt>
      <trkpt lat="45.43668" lon="4.64371">
        <ele>675</ele>
        <time>2021-05-14T14:03:36Z</time>
      </trkpt>
      <trkpt lat="45.43665" lon="4.64369">
        <ele>675</ele>
        <time>2021-05-14T14:03:40Z</time>
      </trkpt>
      <trkpt lat="45.43661" lon="4.64369">
        <ele>677</ele>
        <time>2021-05-14T14:03:45Z</time>
      </trkpt>
      <trkpt lat="45.43657" lon="4.6437">
        <ele>678</ele>
        <time>2021-05-14T14:03:49Z</time>
      </trkpt>
      <trkpt lat="45.43653" lon="4.6437">
        <ele>678</ele>
        <time>2021-05-14T14:03:54Z</time>
      </trkpt>
      <trkpt lat="45.43649" lon="4.64372">
        <ele>678</ele>
        <time>2021-05-14T14:03:59Z</time>
      </trkpt>
      <trkpt lat="45.43645" lon="4.64372">
        <ele>678</ele>
        <time>2021-05-14T14:04:03Z</time>
      </trkpt>
      <trkpt lat="45.43641" lon="4.64372">
        <ele>679</ele>
        <time>2021-05-14T14:04:06Z</time>
      </trkpt>
      <trkpt lat="45.43637" lon="4.64372">
        <ele>679</ele>
        <time>2021-05-14T14:04:10Z</time>
      </trkpt>
      <trkpt lat="45.43632" lon="4.64372">
        <ele>679</ele>
        <time>2021-05-14T14:04:14Z</time>
      </trkpt>
      <trkpt lat="45.43627" lon="4.64371">
        <ele>680</ele>
        <time>2021-05-14T14:04:18Z</time>
      </trkpt>
      <trkpt lat="45.43623" lon="4.64373">
        <ele>680</ele>
        <time>2021-05-14T14:04:21Z</time>
      </trkpt>
      <trkpt lat="45.43619" lon="4.64372">
        <ele>681</ele>
        <time>2021-05-14T14:04:24Z</time>
      </trkpt>
      <trkpt lat="45.43615" lon="4.64373">
        <ele>682</ele>
        <time>2021-05-14T14:04:27Z</time>
      </trkpt>
      <trkpt lat="45.43611" lon="4.64375">
        <ele>683</ele>
        <time>2021-05-14T14:04:31Z</time>
      </trkpt>
      <trkpt lat="45.43607" lon="4.64375">
        <ele>683</ele>
        <time>2021-05-14T14:04:36Z</time>
      </trkpt>
      <trkpt lat="45.43602" lon="4.64378">
        <ele>683</ele>
        <time>2021-05-14T14:04:40Z</time>
      </trkpt>
      <trkpt lat="45.43598" lon="4.64379">
        <ele>685</ele>
        <time>2021-05-14T14:04:47Z</time>
      </trkpt>
      <trkpt lat="45.43594" lon="4.6438">
        <ele>687</ele>
        <time>2021-05-14T14:04:52Z</time>
      </trkpt>
      <trkpt lat="45.4359" lon="4.64381">
        <ele>688</ele>
        <time>2021-05-14T14:04:59Z</time>
      </trkpt>
      <trkpt lat="45.43586" lon="4.64382">
        <ele>689</ele>
        <time>2021-05-14T14:05:03Z</time>
      </trkpt>
      <trkpt lat="45.43582" lon="4.64383">
        <ele>689</ele>
        <time>2021-05-14T14:05:06Z</time>
      </trkpt>
      <trkpt lat="45.43578" lon="4.64384">
        <ele>689</ele>
        <time>2021-05-14T14:05:11Z</time>
      </trkpt>
      <trkpt lat="45.43574" lon="4.64383">
        <ele>690</ele>
        <time>2021-05-14T14:05:15Z</time>
      </trkpt>
      <trkpt lat="45.4357" lon="4.64382">
        <ele>692</ele>
        <time>2021-05-14T14:05:19Z</time>
      </trkpt>
      <trkpt lat="45.43566" lon="4.64381">
        <ele>692</ele>
        <time>2021-05-14T14:05:23Z</time>
      </trkpt>
      <trkpt lat="45.43562" lon="4.6438">
        <ele>693</ele>
        <time>2021-05-14T14:05:27Z</time>
      </trkpt>
      <trkpt lat="45.43558" lon="4.64382">
        <ele>694</ele>
        <time>2021-05-14T14:05:31Z</time>
      </trkpt>
      <trkpt lat="45.43553" lon="4.64382">
        <ele>695</ele>
        <time>2021-05-14T14:05:35Z</time>
      </trkpt>
      <trkpt lat="45.4355" lon="4.64381">
        <ele>695</ele>
        <time>2021-05-14T14:05:39Z</time>
      </trkpt>
      <trkpt lat="45.43545" lon="4.6438">
        <ele>695</ele>
        <time>2021-05-14T14:05:44Z</time>
      </trkpt>
      <trkpt lat="45.43542" lon="4.64381">
        <ele>697</ele>
        <time>2021-05-14T14:05:49Z</time>
      </trkpt>
      <trkpt lat="45.43538" lon="4.64382">
        <ele>698</ele>
        <time>2021-05-14T14:05:54Z</time>
      </trkpt>
      <trkpt lat="45.43534" lon="4.64384">
        <ele>699</ele>
        <time>2021-05-14T14:05:59Z</time>
      </trkpt>
      <trkpt lat="45.4353" lon="4.64383">
        <ele>699</ele>
        <time>2021-05-14T14:06:04Z</time>
      </trkpt>
      <trkpt lat="45.43527" lon="4.64379">
        <ele>700</ele>
        <time>2021-05-14T14:06:10Z</time>
      </trkpt>
      <trkpt lat="45.43523" lon="4.64376">
        <ele>701</ele>
        <time>2021-05-14T14:06:14Z</time>
      </trkpt>
      <trkpt lat="45.43519" lon="4.64374">
        <ele>701</ele>
        <time>2021-05-14T14:06:18Z</time>
      </trkpt>
      <trkpt lat="45.43516" lon="4.64372">
        <ele>703</ele>
        <time>2021-05-14T14:06:23Z</time>
      </trkpt>
      <trkpt lat="45.43512" lon="4.6437">
        <ele>704</ele>
        <time>2021-05-14T14:06:29Z</time>
      </trkpt>
      <trkpt lat="45.43508" lon="4.64368">
        <ele>705</ele>
        <time>2021-05-14T14:06:33Z</time>
      </trkpt>
      <trkpt lat="45.43504" lon="4.64367">
        <ele>706</ele>
        <time>2021-05-14T14:06:37Z</time>
      </trkpt>
      <trkpt lat="45.43499" lon="4.64367">
        <ele>707</ele>
        <time>2021-05-14T14:06:41Z</time>
      </trkpt>
      <trkpt lat="45.43496" lon="4.64367">
        <ele>708</ele>
        <time>2021-05-14T14:06:46Z</time>
      </trkpt>
      <trkpt lat="45.43492" lon="4.64366">
        <ele>709</ele>
        <time>2021-05-14T14:06:51Z</time>
      </trkpt>
      <trkpt lat="45.43488" lon="4.64365">
        <ele>709</ele>
        <time>2021-05-14T14:06:56Z</time>
      </trkpt>
      <trkpt lat="45.43484" lon="4.64366">
        <ele>709</ele>
        <time>2021-05-14T14:06:59Z</time>
      </trkpt>
      <trkpt lat="45.4348" lon="4.64365">
        <ele>711</ele>
        <time>2021-05-14T14:07:05Z</time>
      </trkpt>
      <trkpt lat="45.43476" lon="4.64366">
        <ele>712</ele>
        <time>2021-05-14T14:07:09Z</time>
      </trkpt>
      <trkpt lat="45.43473" lon="4.64366">
        <ele>713</ele>
        <time>2021-05-14T14:07:12Z</time>
      </trkpt>
      <trkpt lat="45.43469" lon="4.64367">
        <ele>713</ele>
        <time>2021-05-14T14:07:17Z</time>
      </trkpt>
      <trkpt lat="45.43465" lon="4.64367">
        <ele>714</ele>
        <time>2021-05-14T14:07:22Z</time>
      </trkpt>
      <trkpt lat="45.43461" lon="4.64367">
        <ele>716</ele>
        <time>2021-05-14T14:07:27Z</time>
      </trkpt>
      <trkpt lat="45.43456" lon="4.64369">
        <ele>717</ele>
        <time>2021-05-14T14:07:31Z</time>
      </trkpt>
      <trkpt lat="45.43452" lon="4.6437">
        <ele>717</ele>
        <time>2021-05-14T14:07:40Z</time>
      </trkpt>
      <trkpt lat="45.43448" lon="4.64369">
        <ele>718</ele>
        <time>2021-05-14T14:07:44Z</time>
      </trkpt>
      <trkpt lat="45.43445" lon="4.64371">
        <ele>719</ele>
        <time>2021-05-14T14:07:47Z</time>
      </trkpt>
      <trkpt lat="45.43441" lon="4.64371">
        <ele>720</ele>
        <time>2021-05-14T14:07:50Z</time>
      </trkpt>
      <trkpt lat="45.43437" lon="4.64372">
        <ele>720</ele>
        <time>2021-05-14T14:07:54Z</time>
      </trkpt>
      <trkpt lat="45.43432" lon="4.64374">
        <ele>721</ele>
        <time>2021-05-14T14:07:58Z</time>
      </trkpt>
      <trkpt lat="45.43428" lon="4.64376">
        <ele>722</ele>
        <time>2021-05-14T14:08:02Z</time>
      </trkpt>
      <trkpt lat="45.43425" lon="4.64378">
        <ele>722</ele>
        <time>2021-05-14T14:08:06Z</time>
      </trkpt>
      <trkpt lat="45.43421" lon="4.64382">
        <ele>723</ele>
        <time>2021-05-14T14:08:11Z</time>
      </trkpt>
      <trkpt lat="45.43418" lon="4.64384">
        <ele>723</ele>
        <time>2021-05-14T14:08:15Z</time>
      </trkpt>
      <trkpt lat="45.43415" lon="4.64386">
        <ele>724</ele>
        <time>2021-05-14T14:08:17Z</time>
      </trkpt>
      <trkpt lat="45.43411" lon="4.64387">
        <ele>725</ele>
        <time>2021-05-14T14:08:21Z</time>
      </trkpt>
      <trkpt lat="45.43407" lon="4.64391">
        <ele>726</ele>
        <time>2021-05-14T14:08:27Z</time>
      </trkpt>
      <trkpt lat="45.43404" lon="4.64392">
        <ele>727</ele>
        <time>2021-05-14T14:08:31Z</time>
      </trkpt>
      <trkpt lat="45.43399" lon="4.64394">
        <ele>727</ele>
        <time>2021-05-14T14:08:35Z</time>
      </trkpt>
      <trkpt lat="45.43395" lon="4.64395">
        <ele>729</ele>
        <time>2021-05-14T14:08:38Z</time>
      </trkpt>
      <trkpt lat="45.43391" lon="4.64396">
        <ele>731</ele>
        <time>2021-05-14T14:08:44Z</time>
      </trkpt>
      <trkpt lat="45.43389" lon="4.644">
        <ele>732</ele>
        <time>2021-05-14T14:08:51Z</time>
      </trkpt>
      <trkpt lat="45.43386" lon="4.64403">
        <ele>732</ele>
        <time>2021-05-14T14:08:57Z</time>
      </trkpt>
      <trkpt lat="45.43382" lon="4.64405">
        <ele>733</ele>
        <time>2021-05-14T14:09:02Z</time>
      </trkpt>
      <trkpt lat="45.43379" lon="4.64409">
        <ele>734</ele>
        <time>2021-05-14T14:09:08Z</time>
      </trkpt>
      <trkpt lat="45.43377" lon="4.64413">
        <ele>735</ele>
        <time>2021-05-14T14:09:13Z</time>
      </trkpt>
      <trkpt lat="45.43376" lon="4.64419">
        <ele>737</ele>
        <time>2021-05-14T14:09:17Z</time>
      </trkpt>
      <trkpt lat="45.43374" lon="4.64423">
        <ele>738</ele>
        <time>2021-05-14T14:09:21Z</time>
      </trkpt>
      <trkpt lat="45.4337" lon="4.64426">
        <ele>739</ele>
        <time>2021-05-14T14:09:25Z</time>
      </trkpt>
      <trkpt lat="45.43366" lon="4.64427">
        <ele>740</ele>
        <time>2021-05-14T14:09:31Z</time>
      </trkpt>
      <trkpt lat="45.43363" lon="4.6443">
        <ele>740</ele>
        <time>2021-05-14T14:09:35Z</time>
      </trkpt>
      <trkpt lat="45.4336" lon="4.64432">
        <ele>741</ele>
        <time>2021-05-14T14:09:41Z</time>
      </trkpt>
      <trkpt lat="45.43358" lon="4.64437">
        <ele>742</ele>
        <time>2021-05-14T14:09:47Z</time>
      </trkpt>
      <trkpt lat="45.43355" lon="4.64439">
        <ele>744</ele>
        <time>2021-05-14T14:09:53Z</time>
      </trkpt>
      <trkpt lat="45.43352" lon="4.64442">
        <ele>745</ele>
        <time>2021-05-14T14:09:57Z</time>
      </trkpt>
      <trkpt lat="45.43348" lon="4.64443">
        <ele>745</ele>
        <time>2021-05-14T14:10:01Z</time>
      </trkpt>
      <trkpt lat="45.43344" lon="4.64446">
        <ele>746</ele>
        <time>2021-05-14T14:10:05Z</time>
      </trkpt>
      <trkpt lat="45.4334" lon="4.64448">
        <ele>748</ele>
        <time>2021-05-14T14:10:08Z</time>
      </trkpt>
      <trkpt lat="45.43336" lon="4.64451">
        <ele>748</ele>
        <time>2021-05-14T14:10:18Z</time>
      </trkpt>
      <trkpt lat="45.43332" lon="4.64452">
        <ele>750</ele>
        <time>2021-05-14T14:10:23Z</time>
      </trkpt>
      <trkpt lat="45.43328" lon="4.64451">
        <ele>751</ele>
        <time>2021-05-14T14:10:28Z</time>
      </trkpt>
      <trkpt lat="45.43325" lon="4.6445">
        <ele>752</ele>
        <time>2021-05-14T14:10:33Z</time>
      </trkpt>
      <trkpt lat="45.43321" lon="4.6445">
        <ele>753</ele>
        <time>2021-05-14T14:10:37Z</time>
      </trkpt>
      <trkpt lat="45.43317" lon="4.64451">
        <ele>753</ele>
        <time>2021-05-14T14:10:41Z</time>
      </trkpt>
      <trkpt lat="45.43313" lon="4.6445">
        <ele>756</ele>
        <time>2021-05-14T14:10:47Z</time>
      </trkpt>
      <trkpt lat="45.43309" lon="4.6445">
        <ele>757</ele>
        <time>2021-05-14T14:10:51Z</time>
      </trkpt>
      <trkpt lat="45.43305" lon="4.64451">
        <ele>757</ele>
        <time>2021-05-14T14:10:54Z</time>
      </trkpt>
      <trkpt lat="45.43301" lon="4.64452">
        <ele>757</ele>
        <time>2021-05-14T14:10:58Z</time>
      </trkpt>
      <trkpt lat="45.43296" lon="4.64451">
        <ele>757</ele>
        <time>2021-05-14T14:11:02Z</time>
      </trkpt>
      <trkpt lat="45.43293" lon="4.6445">
        <ele>758</ele>
        <time>2021-05-14T14:11:07Z</time>
      </trkpt>
      <trkpt lat="45.43289" lon="4.64449">
        <ele>760</ele>
        <time>2021-05-14T14:11:11Z</time>
      </trkpt>
      <trkpt lat="45.43285" lon="4.64449">
        <ele>761</ele>
        <time>2021-05-14T14:11:16Z</time>
      </trkpt>
      <trkpt lat="45.4328" lon="4.64448">
        <ele>761</ele>
        <time>2021-05-14T14:11:20Z</time>
      </trkpt>
      <trkpt lat="45.43277" lon="4.64446">
        <ele>762</ele>
        <time>2021-05-14T14:11:24Z</time>
      </trkpt>
      <trkpt lat="45.43273" lon="4.64445">
        <ele>764</ele>
        <time>2021-05-14T14:11:35Z</time>
      </trkpt>
      <trkpt lat="45.4327" lon="4.64441">
        <ele>764</ele>
        <time>2021-05-14T14:11:39Z</time>
      </trkpt>
      <trkpt lat="45.43266" lon="4.6444">
        <ele>766</ele>
        <time>2021-05-14T14:11:44Z</time>
      </trkpt>
      <trkpt lat="45.43263" lon="4.64439">
        <ele>767</ele>
        <time>2021-05-14T14:11:49Z</time>
      </trkpt>
      <trkpt lat="45.4326" lon="4.64434">
        <ele>768</ele>
        <time>2021-05-14T14:11:54Z</time>
      </trkpt>
      <trkpt lat="45.4326" lon="4.64429">
        <ele>768</ele>
        <time>2021-05-14T14:11:57Z</time>
      </trkpt>
      <trkpt lat="45.43262" lon="4.64425">
        <ele>767</ele>
        <time>2021-05-14T14:12:02Z</time>
      </trkpt>
      <trkpt lat="45.43264" lon="4.6442">
        <ele>768</ele>
        <time>2021-05-14T14:12:06Z</time>
      </trkpt>
      <trkpt lat="45.43267" lon="4.64416">
        <ele>768</ele>
        <time>2021-05-14T14:12:10Z</time>
      </trkpt>
      <trkpt lat="45.4327" lon="4.64411">
        <ele>768</ele>
        <time>2021-05-14T14:12:14Z</time>
      </trkpt>
      <trkpt lat="45.43272" lon="4.64407">
        <ele>769</ele>
        <time>2021-05-14T14:12:17Z</time>
      </trkpt>
      <trkpt lat="45.43274" lon="4.64402">
        <ele>769</ele>
        <time>2021-05-14T14:12:20Z</time>
      </trkpt>
      <trkpt lat="45.43277" lon="4.64397">
        <ele>770</ele>
        <time>2021-05-14T14:12:24Z</time>
      </trkpt>
      <trkpt lat="45.43279" lon="4.6439">
        <ele>770</ele>
        <time>2021-05-14T14:12:28Z</time>
      </trkpt>
      <trkpt lat="45.4328" lon="4.64384">
        <ele>771</ele>
        <time>2021-05-14T14:12:32Z</time>
      </trkpt>
      <trkpt lat="45.43282" lon="4.64379">
        <ele>771</ele>
        <time>2021-05-14T14:12:35Z</time>
      </trkpt>
      <trkpt lat="45.43284" lon="4.64374">
        <ele>772</ele>
        <time>2021-05-14T14:12:38Z</time>
      </trkpt>
      <trkpt lat="45.43285" lon="4.64369">
        <ele>772</ele>
        <time>2021-05-14T14:12:41Z</time>
      </trkpt>
      <trkpt lat="45.43286" lon="4.64363">
        <ele>772</ele>
        <time>2021-05-14T14:12:45Z</time>
      </trkpt>
      <trkpt lat="45.43289" lon="4.64357">
        <ele>772</ele>
        <time>2021-05-14T14:12:49Z</time>
      </trkpt>
      <trkpt lat="45.43292" lon="4.64352">
        <ele>773</ele>
        <time>2021-05-14T14:12:52Z</time>
      </trkpt>
      <trkpt lat="45.43294" lon="4.64345">
        <ele>773</ele>
        <time>2021-05-14T14:12:55Z</time>
      </trkpt>
      <trkpt lat="45.43295" lon="4.64339">
        <ele>774</ele>
        <time>2021-05-14T14:12:58Z</time>
      </trkpt>
      <trkpt lat="45.43297" lon="4.64332">
        <ele>774</ele>
        <time>2021-05-14T14:13:01Z</time>
      </trkpt>
      <trkpt lat="45.43298" lon="4.64327">
        <ele>774</ele>
        <time>2021-05-14T14:13:04Z</time>
      </trkpt>
      <trkpt lat="45.43299" lon="4.6432">
        <ele>774</ele>
        <time>2021-05-14T14:13:07Z</time>
      </trkpt>
      <trkpt lat="45.43301" lon="4.64314">
        <ele>774</ele>
        <time>2021-05-14T14:13:10Z</time>
      </trkpt>
      <trkpt lat="45.43303" lon="4.64309">
        <ele>774</ele>
        <time>2021-05-14T14:13:13Z</time>
      </trkpt>
      <trkpt lat="45.43304" lon="4.64304">
        <ele>775</ele>
        <time>2021-05-14T14:13:17Z</time>
      </trkpt>
      <trkpt lat="45.43307" lon="4.64299">
        <ele>775</ele>
        <time>2021-05-14T14:13:20Z</time>
      </trkpt>
      <trkpt lat="45.4331" lon="4.64296">
        <ele>775</ele>
        <time>2021-05-14T14:13:22Z</time>
      </trkpt>
      <trkpt lat="45.43312" lon="4.64291">
        <ele>775</ele>
        <time>2021-05-14T14:13:24Z</time>
      </trkpt>
      <trkpt lat="45.43315" lon="4.64286">
        <ele>775</ele>
        <time>2021-05-14T14:13:27Z</time>
      </trkpt>
      <trkpt lat="45.43317" lon="4.64281">
        <ele>775</ele>
        <time>2021-05-14T14:13:29Z</time>
      </trkpt>
      <trkpt lat="45.43319" lon="4.64276">
        <ele>776</ele>
        <time>2021-05-14T14:13:31Z</time>
      </trkpt>
      <trkpt lat="45.43321" lon="4.64271">
        <ele>776</ele>
        <time>2021-05-14T14:13:33Z</time>
      </trkpt>
      <trkpt lat="45.43324" lon="4.64266">
        <ele>775</ele>
        <time>2021-05-14T14:13:35Z</time>
      </trkpt>
      <trkpt lat="45.43327" lon="4.64261">
        <ele>775</ele>
        <time>2021-05-14T14:13:37Z</time>
      </trkpt>
      <trkpt lat="45.43331" lon="4.64255">
        <ele>774</ele>
        <time>2021-05-14T14:13:39Z</time>
      </trkpt>
      <trkpt lat="45.43335" lon="4.64251">
        <ele>774</ele>
        <time>2021-05-14T14:13:41Z</time>
      </trkpt>
      <trkpt lat="45.43338" lon="4.64247">
        <ele>774</ele>
        <time>2021-05-14T14:13:43Z</time>
      </trkpt>
      <trkpt lat="45.43342" lon="4.64243">
        <ele>774</ele>
        <time>2021-05-14T14:13:45Z</time>
      </trkpt>
      <trkpt lat="45.43345" lon="4.64238">
        <ele>774</ele>
        <time>2021-05-14T14:13:47Z</time>
      </trkpt>
      <trkpt lat="45.43348" lon="4.64234">
        <ele>774</ele>
        <time>2021-05-14T14:13:49Z</time>
      </trkpt>
      <trkpt lat="45.43351" lon="4.64229">
        <ele>774</ele>
        <time>2021-05-14T14:13:51Z</time>
      </trkpt>
      <trkpt lat="45.43355" lon="4.64224">
        <ele>774</ele>
        <time>2021-05-14T14:13:53Z</time>
      </trkpt>
      <trkpt lat="45.43358" lon="4.64218">
        <ele>773</ele>
        <time>2021-05-14T14:13:55Z</time>
      </trkpt>
      <trkpt lat="45.43361" lon="4.64212">
        <ele>773</ele>
        <time>2021-05-14T14:13:57Z</time>
      </trkpt>
      <trkpt lat="45.43364" lon="4.64208">
        <ele>773</ele>
        <time>2021-05-14T14:13:59Z</time>
      </trkpt>
      <trkpt lat="45.43368" lon="4.64205">
        <ele>772</ele>
        <time>2021-05-14T14:14:01Z</time>
      </trkpt>
      <trkpt lat="45.43371" lon="4.64203">
        <ele>771</ele>
        <time>2021-05-14T14:14:03Z</time>
      </trkpt>
      <trkpt lat="45.43375" lon="4.64198">
        <ele>771</ele>
        <time>2021-05-14T14:14:06Z</time>
      </trkpt>
      <trkpt lat="45.43378" lon="4.64195">
        <ele>771</ele>
        <time>2021-05-14T14:14:09Z</time>
      </trkpt>
      <trkpt lat="45.43378" lon="4.64187">
        <ele>771</ele>
        <time>2021-05-14T14:14:12Z</time>
      </trkpt>
      <trkpt lat="45.43374" lon="4.64182">
        <ele>771</ele>
        <time>2021-05-14T14:14:14Z</time>
      </trkpt>
      <trkpt lat="45.43371" lon="4.6418">
        <ele>772</ele>
        <time>2021-05-14T14:14:17Z</time>
      </trkpt>
      <trkpt lat="45.43367" lon="4.64181">
        <ele>775</ele>
        <time>2021-05-14T14:14:29Z</time>
      </trkpt>
      <trkpt lat="45.43364" lon="4.64183">
        <ele>777</ele>
        <time>2021-05-14T14:14:34Z</time>
      </trkpt>
      <trkpt lat="45.4336" lon="4.64184">
        <ele>777</ele>
        <time>2021-05-14T14:14:37Z</time>
      </trkpt>
      <trkpt lat="45.43357" lon="4.64186">
        <ele>777</ele>
        <time>2021-05-14T14:14:41Z</time>
      </trkpt>
      <trkpt lat="45.43354" lon="4.64189">
        <ele>778</ele>
        <time>2021-05-14T14:14:47Z</time>
      </trkpt>
      <trkpt lat="45.4335" lon="4.64191">
        <ele>780</ele>
        <time>2021-05-14T14:14:54Z</time>
      </trkpt>
      <trkpt lat="45.43346" lon="4.64194">
        <ele>781</ele>
        <time>2021-05-14T14:14:58Z</time>
      </trkpt>
      <trkpt lat="45.43343" lon="4.64198">
        <ele>781</ele>
        <time>2021-05-14T14:15:02Z</time>
      </trkpt>
      <trkpt lat="45.43339" lon="4.64203">
        <ele>782</ele>
        <time>2021-05-14T14:15:07Z</time>
      </trkpt>
      <trkpt lat="45.43336" lon="4.64204">
        <ele>783</ele>
        <time>2021-05-14T14:15:11Z</time>
      </trkpt>
      <trkpt lat="45.43333" lon="4.64208">
        <ele>784</ele>
        <time>2021-05-14T14:15:16Z</time>
      </trkpt>
      <trkpt lat="45.43329" lon="4.6421">
        <ele>786</ele>
        <time>2021-05-14T14:15:20Z</time>
      </trkpt>
      <trkpt lat="45.43325" lon="4.64212">
        <ele>786</ele>
        <time>2021-05-14T14:15:24Z</time>
      </trkpt>
      <trkpt lat="45.43322" lon="4.64214">
        <ele>786</ele>
        <time>2021-05-14T14:15:26Z</time>
      </trkpt>
      <trkpt lat="45.43316" lon="4.64216">
        <ele>786</ele>
        <time>2021-05-14T14:15:31Z</time>
      </trkpt>
      <trkpt lat="45.43312" lon="4.64217">
        <ele>787</ele>
        <time>2021-05-14T14:15:34Z</time>
      </trkpt>
      <trkpt lat="45.43308" lon="4.64221">
        <ele>788</ele>
        <time>2021-05-14T14:15:39Z</time>
      </trkpt>
      <trkpt lat="45.43305" lon="4.64224">
        <ele>789</ele>
        <time>2021-05-14T14:15:43Z</time>
      </trkpt>
      <trkpt lat="45.43302" lon="4.64228">
        <ele>790</ele>
        <time>2021-05-14T14:15:45Z</time>
      </trkpt>
      <trkpt lat="45.43298" lon="4.6423">
        <ele>791</ele>
        <time>2021-05-14T14:15:49Z</time>
      </trkpt>
      <trkpt lat="45.43294" lon="4.64233">
        <ele>791</ele>
        <time>2021-05-14T14:15:53Z</time>
      </trkpt>
      <trkpt lat="45.4329" lon="4.64237">
        <ele>793</ele>
        <time>2021-05-14T14:15:58Z</time>
      </trkpt>
      <trkpt lat="45.43286" lon="4.64238">
        <ele>794</ele>
        <time>2021-05-14T14:16:01Z</time>
      </trkpt>
      <trkpt lat="45.4328" lon="4.6424">
        <ele>794</ele>
        <time>2021-05-14T14:16:04Z</time>
      </trkpt>
      <trkpt lat="45.43276" lon="4.64243">
        <ele>795</ele>
        <time>2021-05-14T14:16:08Z</time>
      </trkpt>
      <trkpt lat="45.43273" lon="4.64246">
        <ele>795</ele>
        <time>2021-05-14T14:16:12Z</time>
      </trkpt>
      <trkpt lat="45.4327" lon="4.6425">
        <ele>796</ele>
        <time>2021-05-14T14:16:16Z</time>
      </trkpt>
      <trkpt lat="45.43267" lon="4.64253">
        <ele>797</ele>
        <time>2021-05-14T14:16:20Z</time>
      </trkpt>
      <trkpt lat="45.43264" lon="4.64256">
        <ele>798</ele>
        <time>2021-05-14T14:16:23Z</time>
      </trkpt>
      <trkpt lat="45.4326" lon="4.64259">
        <ele>799</ele>
        <time>2021-05-14T14:16:27Z</time>
      </trkpt>
      <trkpt lat="45.43257" lon="4.64261">
        <ele>800</ele>
        <time>2021-05-14T14:16:31Z</time>
      </trkpt>
      <trkpt lat="45.43253" lon="4.64263">
        <ele>801</ele>
        <time>2021-05-14T14:16:35Z</time>
      </trkpt>
      <trkpt lat="45.43249" lon="4.64266">
        <ele>801</ele>
        <time>2021-05-14T14:16:42Z</time>
      </trkpt>
      <trkpt lat="45.43246" lon="4.6427">
        <ele>802</ele>
        <time>2021-05-14T14:16:49Z</time>
      </trkpt>
      <trkpt lat="45.43243" lon="4.64274">
        <ele>803</ele>
        <time>2021-05-14T14:16:53Z</time>
      </trkpt>
      <trkpt lat="45.43239" lon="4.64275">
        <ele>804</ele>
        <time>2021-05-14T14:16:57Z</time>
      </trkpt>
      <trkpt lat="45.43235" lon="4.64276">
        <ele>805</ele>
        <time>2021-05-14T14:17:01Z</time>
      </trkpt>
      <trkpt lat="45.43231" lon="4.64277">
        <ele>806</ele>
        <time>2021-05-14T14:17:06Z</time>
      </trkpt>
      <trkpt lat="45.43227" lon="4.64279">
        <ele>806</ele>
        <time>2021-05-14T14:17:10Z</time>
      </trkpt>
      <trkpt lat="45.43223" lon="4.64279">
        <ele>807</ele>
        <time>2021-05-14T14:17:15Z</time>
      </trkpt>
      <trkpt lat="45.43219" lon="4.64279">
        <ele>808</ele>
        <time>2021-05-14T14:17:19Z</time>
      </trkpt>
      <trkpt lat="45.43215" lon="4.64279">
        <ele>808</ele>
        <time>2021-05-14T14:17:22Z</time>
      </trkpt>
      <trkpt lat="45.43211" lon="4.64277">
        <ele>809</ele>
        <time>2021-05-14T14:17:25Z</time>
      </trkpt>
      <trkpt lat="45.43208" lon="4.64276">
        <ele>809</ele>
        <time>2021-05-14T14:17:28Z</time>
      </trkpt>
      <trkpt lat="45.43203" lon="4.64275">
        <ele>810</ele>
        <time>2021-05-14T14:17:32Z</time>
      </trkpt>
      <trkpt lat="45.43199" lon="4.64274">
        <ele>810</ele>
        <time>2021-05-14T14:17:35Z</time>
      </trkpt>
      <trkpt lat="45.43196" lon="4.64272">
        <ele>811</ele>
        <time>2021-05-14T14:17:38Z</time>
      </trkpt>
      <trkpt lat="45.43192" lon="4.64271">
        <ele>812</ele>
        <time>2021-05-14T14:17:43Z</time>
      </trkpt>
      <trkpt lat="45.43188" lon="4.64269">
        <ele>813</ele>
        <time>2021-05-14T14:17:46Z</time>
      </trkpt>
      <trkpt lat="45.43184" lon="4.64266">
        <ele>813</ele>
        <time>2021-05-14T14:17:49Z</time>
      </trkpt>
      <trkpt lat="45.4318" lon="4.64264">
        <ele>813</ele>
        <time>2021-05-14T14:17:52Z</time>
      </trkpt>
      <trkpt lat="45.43177" lon="4.64262">
        <ele>813</ele>
        <time>2021-05-14T14:17:55Z</time>
      </trkpt>
      <trkpt lat="45.43173" lon="4.6426">
        <ele>814</ele>
        <time>2021-05-14T14:17:59Z</time>
      </trkpt>
      <trkpt lat="45.43169" lon="4.64259">
        <ele>815</ele>
        <time>2021-05-14T14:18:02Z</time>
      </trkpt>
      <trkpt lat="45.43165" lon="4.64256">
        <ele>815</ele>
        <time>2021-05-14T14:18:06Z</time>
      </trkpt>
      <trkpt lat="45.43161" lon="4.64255">
        <ele>816</ele>
        <time>2021-05-14T14:18:10Z</time>
      </trkpt>
      <trkpt lat="45.43158" lon="4.64251">
        <ele>816</ele>
        <time>2021-05-14T14:18:13Z</time>
      </trkpt>
      <trkpt lat="45.43158" lon="4.64246">
        <ele>817</ele>
        <time>2021-05-14T14:18:16Z</time>
      </trkpt>
      <trkpt lat="45.43159" lon="4.6424">
        <ele>817</ele>
        <time>2021-05-14T14:18:20Z</time>
      </trkpt>
      <trkpt lat="45.43162" lon="4.64236">
        <ele>819</ele>
        <time>2021-05-14T14:18:23Z</time>
      </trkpt>
      <trkpt lat="45.43164" lon="4.64233">
        <ele>819</ele>
        <time>2021-05-14T14:18:26Z</time>
      </trkpt>
      <trkpt lat="45.43168" lon="4.64231">
        <ele>819</ele>
        <time>2021-05-14T14:18:29Z</time>
      </trkpt>
      <trkpt lat="45.43171" lon="4.64227">
        <ele>820</ele>
        <time>2021-05-14T14:18:34Z</time>
      </trkpt>
      <trkpt lat="45.43175" lon="4.64223">
        <ele>821</ele>
        <time>2021-05-14T14:18:38Z</time>
      </trkpt>
      <trkpt lat="45.43179" lon="4.64218">
        <ele>822</ele>
        <time>2021-05-14T14:18:41Z</time>
      </trkpt>
      <trkpt lat="45.43181" lon="4.64215">
        <ele>822</ele>
        <time>2021-05-14T14:18:49Z</time>
      </trkpt>
      <trkpt lat="45.43185" lon="4.64211">
        <ele>822</ele>
        <time>2021-05-14T14:18:54Z</time>
      </trkpt>
      <trkpt lat="45.43189" lon="4.64209">
        <ele>822</ele>
        <time>2021-05-14T14:18:58Z</time>
      </trkpt>
      <trkpt lat="45.43192" lon="4.64206">
        <ele>822</ele>
        <time>2021-05-14T14:19:00Z</time>
      </trkpt>
      <trkpt lat="45.43196" lon="4.64204">
        <ele>822</ele>
        <time>2021-05-14T14:19:02Z</time>
      </trkpt>
      <trkpt lat="45.432" lon="4.642">
        <ele>822</ele>
        <time>2021-05-14T14:19:04Z</time>
      </trkpt>
      <trkpt lat="45.43204" lon="4.64196">
        <ele>822</ele>
        <time>2021-05-14T14:19:06Z</time>
      </trkpt>
      <trkpt lat="45.43208" lon="4.6419">
        <ele>822</ele>
        <time>2021-05-14T14:19:09Z</time>
      </trkpt>
      <trkpt lat="45.43212" lon="4.64187">
        <ele>822</ele>
        <time>2021-05-14T14:19:11Z</time>
      </trkpt>
      <trkpt lat="45.43215" lon="4.64184">
        <ele>822</ele>
        <time>2021-05-14T14:19:13Z</time>
      </trkpt>
      <trkpt lat="45.43219" lon="4.6418">
        <ele>822</ele>
        <time>2021-05-14T14:19:15Z</time>
      </trkpt>
      <trkpt lat="45.43223" lon="4.64177">
        <ele>822</ele>
        <time>2021-05-14T14:19:17Z</time>
      </trkpt>
      <trkpt lat="45.43227" lon="4.64174">
        <ele>822</ele>
        <time>2021-05-14T14:19:19Z</time>
      </trkpt>
      <trkpt lat="45.43232" lon="4.6417">
        <ele>822</ele>
        <time>2021-05-14T14:19:21Z</time>
      </trkpt>
      <trkpt lat="45.43236" lon="4.64166">
        <ele>822</ele>
        <time>2021-05-14T14:19:23Z</time>
      </trkpt>
      <trkpt lat="45.4324" lon="4.64163">
        <ele>822</ele>
        <time>2021-05-14T14:19:25Z</time>
      </trkpt>
      <trkpt lat="45.43245" lon="4.6416">
        <ele>822</ele>
        <time>2021-05-14T14:19:27Z</time>
      </trkpt>
      <trkpt lat="45.4325" lon="4.64157">
        <ele>822</ele>
        <time>2021-05-14T14:19:29Z</time>
      </trkpt>
      <trkpt lat="45.43253" lon="4.64153">
        <ele>822</ele>
        <time>2021-05-14T14:19:31Z</time>
      </trkpt>
      <trkpt lat="45.43255" lon="4.64148">
        <ele>822</ele>
        <time>2021-05-14T14:19:33Z</time>
      </trkpt>
      <trkpt lat="45.43259" lon="4.64143">
        <ele>822</ele>
        <time>2021-05-14T14:19:35Z</time>
      </trkpt>
      <trkpt lat="45.43263" lon="4.64138">
        <ele>822</ele>
        <time>2021-05-14T14:19:37Z</time>
      </trkpt>
      <trkpt lat="45.43265" lon="4.64133">
        <ele>822</ele>
        <time>2021-05-14T14:19:39Z</time>
      </trkpt>
      <trkpt lat="45.43268" lon="4.64129">
        <ele>822</ele>
        <time>2021-05-14T14:19:41Z</time>
      </trkpt>
      <trkpt lat="45.43272" lon="4.64125">
        <ele>822</ele>
        <time>2021-05-14T14:19:43Z</time>
      </trkpt>
      <trkpt lat="45.43275" lon="4.64119">
        <ele>823</ele>
        <time>2021-05-14T14:19:46Z</time>
      </trkpt>
      <trkpt lat="45.43278" lon="4.64113">
        <ele>823</ele>
        <time>2021-05-14T14:19:49Z</time>
      </trkpt>
      <trkpt lat="45.43279" lon="4.64107">
        <ele>824</ele>
        <time>2021-05-14T14:19:52Z</time>
      </trkpt>
      <trkpt lat="45.43281" lon="4.64102">
        <ele>825</ele>
        <time>2021-05-14T14:19:56Z</time>
      </trkpt>
      <trkpt lat="45.43284" lon="4.64097">
        <ele>825</ele>
        <time>2021-05-14T14:19:59Z</time>
      </trkpt>
      <trkpt lat="45.43286" lon="4.64093">
        <ele>825</ele>
        <time>2021-05-14T14:20:01Z</time>
      </trkpt>
      <trkpt lat="45.43289" lon="4.64087">
        <ele>825</ele>
        <time>2021-05-14T14:20:04Z</time>
      </trkpt>
      <trkpt lat="45.43293" lon="4.64081">
        <ele>825</ele>
        <time>2021-05-14T14:20:07Z</time>
      </trkpt>
      <trkpt lat="45.43297" lon="4.64076">
        <ele>825</ele>
        <time>2021-05-14T14:20:09Z</time>
      </trkpt>
      <trkpt lat="45.433" lon="4.64072">
        <ele>825</ele>
        <time>2021-05-14T14:20:11Z</time>
      </trkpt>
      <trkpt lat="45.43303" lon="4.64068">
        <ele>825</ele>
        <time>2021-05-14T14:20:13Z</time>
      </trkpt>
      <trkpt lat="45.43307" lon="4.64063">
        <ele>826</ele>
        <time>2021-05-14T14:20:15Z</time>
      </trkpt>
      <trkpt lat="45.43312" lon="4.64059">
        <ele>826</ele>
        <time>2021-05-14T14:20:17Z</time>
      </trkpt>
      <trkpt lat="45.43316" lon="4.64055">
        <ele>826</ele>
        <time>2021-05-14T14:20:19Z</time>
      </trkpt>
      <trkpt lat="45.43318" lon="4.64051">
        <ele>826</ele>
        <time>2021-05-14T14:20:21Z</time>
      </trkpt>
      <trkpt lat="45.43322" lon="4.64045">
        <ele>826</ele>
        <time>2021-05-14T14:20:23Z</time>
      </trkpt>
      <trkpt lat="45.43325" lon="4.64041">
        <ele>826</ele>
        <time>2021-05-14T14:20:25Z</time>
      </trkpt>
      <trkpt lat="45.43327" lon="4.64035">
        <ele>826</ele>
        <time>2021-05-14T14:20:27Z</time>
      </trkpt>
      <trkpt lat="45.4333" lon="4.64031">
        <ele>826</ele>
        <time>2021-05-14T14:20:29Z</time>
      </trkpt>
      <trkpt lat="45.43333" lon="4.64027">
        <ele>827</ele>
        <time>2021-05-14T14:20:31Z</time>
      </trkpt>
      <trkpt lat="45.43336" lon="4.64022">
        <ele>827</ele>
        <time>2021-05-14T14:20:34Z</time>
      </trkpt>
      <trkpt lat="45.43339" lon="4.64018">
        <ele>827</ele>
        <time>2021-05-14T14:20:37Z</time>
      </trkpt>
      <trkpt lat="45.4334" lon="4.64013">
        <ele>827</ele>
        <time>2021-05-14T14:20:39Z</time>
      </trkpt>
      <trkpt lat="45.43343" lon="4.64008">
        <ele>827</ele>
        <time>2021-05-14T14:20:41Z</time>
      </trkpt>
      <trkpt lat="45.43346" lon="4.64004">
        <ele>826</ele>
        <time>2021-05-14T14:20:43Z</time>
      </trkpt>
      <trkpt lat="45.43349" lon="4.63999">
        <ele>826</ele>
        <time>2021-05-14T14:20:45Z</time>
      </trkpt>
      <trkpt lat="45.43351" lon="4.63994">
        <ele>826</ele>
        <time>2021-05-14T14:20:47Z</time>
      </trkpt>
      <trkpt lat="45.43355" lon="4.6399">
        <ele>827</ele>
        <time>2021-05-14T14:20:49Z</time>
      </trkpt>
      <trkpt lat="45.43358" lon="4.63987">
        <ele>827</ele>
        <time>2021-05-14T14:20:51Z</time>
      </trkpt>
      <trkpt lat="45.43361" lon="4.63983">
        <ele>826</ele>
        <time>2021-05-14T14:20:53Z</time>
      </trkpt>
      <trkpt lat="45.43365" lon="4.63978">
        <ele>827</ele>
        <time>2021-05-14T14:20:56Z</time>
      </trkpt>
      <trkpt lat="45.43369" lon="4.63975">
        <ele>827</ele>
        <time>2021-05-14T14:20:59Z</time>
      </trkpt>
      <trkpt lat="45.43372" lon="4.63972">
        <ele>828</ele>
        <time>2021-05-14T14:21:02Z</time>
      </trkpt>
      <trkpt lat="45.43375" lon="4.63969">
        <ele>828</ele>
        <time>2021-05-14T14:21:04Z</time>
      </trkpt>
      <trkpt lat="45.43379" lon="4.63964">
        <ele>829</ele>
        <time>2021-05-14T14:21:07Z</time>
      </trkpt>
      <trkpt lat="45.43381" lon="4.6396">
        <ele>829</ele>
        <time>2021-05-14T14:21:09Z</time>
      </trkpt>
      <trkpt lat="45.43383" lon="4.63955">
        <ele>829</ele>
        <time>2021-05-14T14:21:11Z</time>
      </trkpt>
      <trkpt lat="45.43386" lon="4.63951">
        <ele>829</ele>
        <time>2021-05-14T14:21:13Z</time>
      </trkpt>
      <trkpt lat="45.43389" lon="4.63947">
        <ele>829</ele>
        <time>2021-05-14T14:21:15Z</time>
      </trkpt>
      <trkpt lat="45.43392" lon="4.63943">
        <ele>829</ele>
        <time>2021-05-14T14:21:17Z</time>
      </trkpt>
      <trkpt lat="45.43396" lon="4.63939">
        <ele>830</ele>
        <time>2021-05-14T14:21:19Z</time>
      </trkpt>
      <trkpt lat="45.43399" lon="4.63936">
        <ele>830</ele>
        <time>2021-05-14T14:21:21Z</time>
      </trkpt>
      <trkpt lat="45.43402" lon="4.63932">
        <ele>830</ele>
        <time>2021-05-14T14:21:23Z</time>
      </trkpt>
      <trkpt lat="45.43404" lon="4.63928">
        <ele>830</ele>
        <time>2021-05-14T14:21:25Z</time>
      </trkpt>
      <trkpt lat="45.43407" lon="4.63923">
        <ele>830</ele>
        <time>2021-05-14T14:21:27Z</time>
      </trkpt>
      <trkpt lat="45.43408" lon="4.63918">
        <ele>831</ele>
        <time>2021-05-14T14:21:31Z</time>
      </trkpt>
      <trkpt lat="45.4341" lon="4.63913">
        <ele>831</ele>
        <time>2021-05-14T14:21:34Z</time>
      </trkpt>
      <trkpt lat="45.43412" lon="4.63908">
        <ele>831</ele>
        <time>2021-05-14T14:21:37Z</time>
      </trkpt>
      <trkpt lat="45.43415" lon="4.63902">
        <ele>832</ele>
        <time>2021-05-14T14:21:40Z</time>
      </trkpt>
      <trkpt lat="45.43418" lon="4.63897">
        <ele>832</ele>
        <time>2021-05-14T14:21:43Z</time>
      </trkpt>
      <trkpt lat="45.43418" lon="4.6389">
        <ele>832</ele>
        <time>2021-05-14T14:21:46Z</time>
      </trkpt>
      <trkpt lat="45.43421" lon="4.63885">
        <ele>832</ele>
        <time>2021-05-14T14:21:50Z</time>
      </trkpt>
      <trkpt lat="45.43423" lon="4.63881">
        <ele>832</ele>
        <time>2021-05-14T14:21:53Z</time>
      </trkpt>
      <trkpt lat="45.43427" lon="4.63876">
        <ele>832</ele>
        <time>2021-05-14T14:21:57Z</time>
      </trkpt>
      <trkpt lat="45.43429" lon="4.63871">
        <ele>832</ele>
        <time>2021-05-14T14:22:01Z</time>
      </trkpt>
      <trkpt lat="45.4343" lon="4.63865">
        <ele>833</ele>
        <time>2021-05-14T14:22:05Z</time>
      </trkpt>
      <trkpt lat="45.43432" lon="4.63859">
        <ele>833</ele>
        <time>2021-05-14T14:22:09Z</time>
      </trkpt>
      <trkpt lat="45.43434" lon="4.63852">
        <ele>834</ele>
        <time>2021-05-14T14:22:12Z</time>
      </trkpt>
      <trkpt lat="45.43436" lon="4.63847">
        <ele>834</ele>
        <time>2021-05-14T14:22:15Z</time>
      </trkpt>
      <trkpt lat="45.43437" lon="4.6384">
        <ele>834</ele>
        <time>2021-05-14T14:22:19Z</time>
      </trkpt>
      <trkpt lat="45.4344" lon="4.63835">
        <ele>834</ele>
        <time>2021-05-14T14:22:22Z</time>
      </trkpt>
      <trkpt lat="45.43443" lon="4.6383">
        <ele>834</ele>
        <time>2021-05-14T14:22:26Z</time>
      </trkpt>
      <trkpt lat="45.43444" lon="4.63824">
        <ele>834</ele>
        <time>2021-05-14T14:22:28Z</time>
      </trkpt>
      <trkpt lat="45.43446" lon="4.63818">
        <ele>834</ele>
        <time>2021-05-14T14:22:31Z</time>
      </trkpt>
      <trkpt lat="45.43449" lon="4.63813">
        <ele>834</ele>
        <time>2021-05-14T14:22:34Z</time>
      </trkpt>
      <trkpt lat="45.43452" lon="4.63808">
        <ele>835</ele>
        <time>2021-05-14T14:22:37Z</time>
      </trkpt>
      <trkpt lat="45.43454" lon="4.63803">
        <ele>835</ele>
        <time>2021-05-14T14:22:40Z</time>
      </trkpt>
      <trkpt lat="45.43457" lon="4.638">
        <ele>836</ele>
        <time>2021-05-14T14:22:42Z</time>
      </trkpt>
      <trkpt lat="45.4346" lon="4.63798">
        <ele>836</ele>
        <time>2021-05-14T14:22:43Z</time>
      </trkpt>
      <trkpt lat="45.43463" lon="4.63794">
        <ele>836</ele>
        <time>2021-05-14T14:22:47Z</time>
      </trkpt>
      <trkpt lat="45.43466" lon="4.63789">
        <ele>836</ele>
        <time>2021-05-14T14:22:51Z</time>
      </trkpt>
      <trkpt lat="45.43468" lon="4.63785">
        <ele>836</ele>
        <time>2021-05-14T14:22:54Z</time>
      </trkpt>
      <trkpt lat="45.43473" lon="4.63781">
        <ele>835</ele>
        <time>2021-05-14T14:22:57Z</time>
      </trkpt>
      <trkpt lat="45.43476" lon="4.63776">
        <ele>836</ele>
        <time>2021-05-14T14:22:59Z</time>
      </trkpt>
      <trkpt lat="45.43479" lon="4.63771">
        <ele>836</ele>
        <time>2021-05-14T14:23:02Z</time>
      </trkpt>
      <trkpt lat="45.43481" lon="4.63767">
        <ele>837</ele>
        <time>2021-05-14T14:23:05Z</time>
      </trkpt>
      <trkpt lat="45.43484" lon="4.63761">
        <ele>836</ele>
        <time>2021-05-14T14:23:07Z</time>
      </trkpt>
      <trkpt lat="45.43486" lon="4.63756">
        <ele>836</ele>
        <time>2021-05-14T14:23:09Z</time>
      </trkpt>
      <trkpt lat="45.43489" lon="4.6375">
        <ele>836</ele>
        <time>2021-05-14T14:23:12Z</time>
      </trkpt>
      <trkpt lat="45.43491" lon="4.63746">
        <ele>837</ele>
        <time>2021-05-14T14:23:14Z</time>
      </trkpt>
      <trkpt lat="45.43494" lon="4.6374">
        <ele>837</ele>
        <time>2021-05-14T14:23:17Z</time>
      </trkpt>
      <trkpt lat="45.43497" lon="4.63733">
        <ele>837</ele>
        <time>2021-05-14T14:23:20Z</time>
      </trkpt>
      <trkpt lat="45.43501" lon="4.63727">
        <ele>837</ele>
        <time>2021-05-14T14:23:23Z</time>
      </trkpt>
      <trkpt lat="45.43503" lon="4.63722">
        <ele>838</ele>
        <time>2021-05-14T14:23:26Z</time>
      </trkpt>
      <trkpt lat="45.43505" lon="4.63718">
        <ele>838</ele>
        <time>2021-05-14T14:23:28Z</time>
      </trkpt>
      <trkpt lat="45.43507" lon="4.63714">
        <ele>838</ele>
        <time>2021-05-14T14:23:30Z</time>
      </trkpt>
      <trkpt lat="45.43509" lon="4.63709">
        <ele>838</ele>
        <time>2021-05-14T14:23:32Z</time>
      </trkpt>
      <trkpt lat="45.4351" lon="4.63704">
        <ele>838</ele>
        <time>2021-05-14T14:23:34Z</time>
      </trkpt>
      <trkpt lat="45.43512" lon="4.63697">
        <ele>838</ele>
        <time>2021-05-14T14:23:37Z</time>
      </trkpt>
      <trkpt lat="45.43514" lon="4.63692">
        <ele>839</ele>
        <time>2021-05-14T14:23:40Z</time>
      </trkpt>
      <trkpt lat="45.43516" lon="4.63687">
        <ele>839</ele>
        <time>2021-05-14T14:23:43Z</time>
      </trkpt>
      <trkpt lat="45.43518" lon="4.63682">
        <ele>839</ele>
        <time>2021-05-14T14:23:46Z</time>
      </trkpt>
      <trkpt lat="45.4352" lon="4.63677">
        <ele>839</ele>
        <time>2021-05-14T14:23:48Z</time>
      </trkpt>
      <trkpt lat="45.43522" lon="4.63673">
        <ele>839</ele>
        <time>2021-05-14T14:23:51Z</time>
      </trkpt>
      <trkpt lat="45.43525" lon="4.63667">
        <ele>839</ele>
        <time>2021-05-14T14:23:54Z</time>
      </trkpt>
      <trkpt lat="45.43527" lon="4.63663">
        <ele>840</ele>
        <time>2021-05-14T14:23:57Z</time>
      </trkpt>
      <trkpt lat="45.4353" lon="4.63658">
        <ele>840</ele>
        <time>2021-05-14T14:24:00Z</time>
      </trkpt>
      <trkpt lat="45.43532" lon="4.63653">
        <ele>840</ele>
        <time>2021-05-14T14:24:03Z</time>
      </trkpt>
      <trkpt lat="45.43534" lon="4.63648">
        <ele>840</ele>
        <time>2021-05-14T14:24:06Z</time>
      </trkpt>
      <trkpt lat="45.43537" lon="4.63643">
        <ele>841</ele>
        <time>2021-05-14T14:24:10Z</time>
      </trkpt>
      <trkpt lat="45.43539" lon="4.63638">
        <ele>841</ele>
        <time>2021-05-14T14:24:13Z</time>
      </trkpt>
      <trkpt lat="45.43541" lon="4.63634">
        <ele>842</ele>
        <time>2021-05-14T14:24:16Z</time>
      </trkpt>
      <trkpt lat="45.43544" lon="4.6363">
        <ele>842</ele>
        <time>2021-05-14T14:24:20Z</time>
      </trkpt>
      <trkpt lat="45.43547" lon="4.63624">
        <ele>843</ele>
        <time>2021-05-14T14:24:24Z</time>
      </trkpt>
      <trkpt lat="45.43549" lon="4.63619">
        <ele>843</ele>
        <time>2021-05-14T14:24:26Z</time>
      </trkpt>
      <trkpt lat="45.4355" lon="4.63614">
        <ele>844</ele>
        <time>2021-05-14T14:24:28Z</time>
      </trkpt>
      <trkpt lat="45.43551" lon="4.63607">
        <ele>844</ele>
        <time>2021-05-14T14:24:31Z</time>
      </trkpt>
      <trkpt lat="45.43553" lon="4.63602">
        <ele>844</ele>
        <time>2021-05-14T14:24:34Z</time>
      </trkpt>
      <trkpt lat="45.43556" lon="4.63598">
        <ele>844</ele>
        <time>2021-05-14T14:24:37Z</time>
      </trkpt>
      <trkpt lat="45.43559" lon="4.63595">
        <ele>844</ele>
        <time>2021-05-14T14:24:40Z</time>
      </trkpt>
      <trkpt lat="45.43562" lon="4.63589">
        <ele>844</ele>
        <time>2021-05-14T14:24:44Z</time>
      </trkpt>
      <trkpt lat="45.43561" lon="4.63583">
        <ele>844</ele>
        <time>2021-05-14T14:24:50Z</time>
      </trkpt>
      <trkpt lat="45.43562" lon="4.63577">
        <ele>844</ele>
        <time>2021-05-14T14:24:54Z</time>
      </trkpt>
      <trkpt lat="45.43559" lon="4.63574">
        <ele>844</ele>
        <time>2021-05-14T14:24:57Z</time>
      </trkpt>
      <trkpt lat="45.43554" lon="4.63573">
        <ele>845</ele>
        <time>2021-05-14T14:25:00Z</time>
      </trkpt>
      <trkpt lat="45.43551" lon="4.63572">
        <ele>845</ele>
        <time>2021-05-14T14:25:04Z</time>
      </trkpt>
      <trkpt lat="45.43546" lon="4.63572">
        <ele>845</ele>
        <time>2021-05-14T14:25:09Z</time>
      </trkpt>
      <trkpt lat="45.43543" lon="4.63572">
        <ele>846</ele>
        <time>2021-05-14T14:25:13Z</time>
      </trkpt>
      <trkpt lat="45.43539" lon="4.63573">
        <ele>846</ele>
        <time>2021-05-14T14:25:17Z</time>
      </trkpt>
      <trkpt lat="45.43534" lon="4.63573">
        <ele>847</ele>
        <time>2021-05-14T14:25:21Z</time>
      </trkpt>
      <trkpt lat="45.43531" lon="4.63574">
        <ele>848</ele>
        <time>2021-05-14T14:25:23Z</time>
      </trkpt>
      <trkpt lat="45.43527" lon="4.63574">
        <ele>848</ele>
        <time>2021-05-14T14:25:27Z</time>
      </trkpt>
      <trkpt lat="45.43523" lon="4.63573">
        <ele>849</ele>
        <time>2021-05-14T14:25:31Z</time>
      </trkpt>
      <trkpt lat="45.43518" lon="4.63572">
        <ele>849</ele>
        <time>2021-05-14T14:25:34Z</time>
      </trkpt>
      <trkpt lat="45.43515" lon="4.63572">
        <ele>849</ele>
        <time>2021-05-14T14:25:39Z</time>
      </trkpt>
      <trkpt lat="45.4351" lon="4.63571">
        <ele>849</ele>
        <time>2021-05-14T14:25:42Z</time>
      </trkpt>
      <trkpt lat="45.43506" lon="4.6357">
        <ele>850</ele>
        <time>2021-05-14T14:25:44Z</time>
      </trkpt>
      <trkpt lat="45.43502" lon="4.63572">
        <ele>850</ele>
        <time>2021-05-14T14:25:47Z</time>
      </trkpt>
      <trkpt lat="45.43497" lon="4.63573">
        <ele>851</ele>
        <time>2021-05-14T14:25:50Z</time>
      </trkpt>
      <trkpt lat="45.43492" lon="4.63573">
        <ele>851</ele>
        <time>2021-05-14T14:25:54Z</time>
      </trkpt>
      <trkpt lat="45.43488" lon="4.63573">
        <ele>852</ele>
        <time>2021-05-14T14:25:58Z</time>
      </trkpt>
      <trkpt lat="45.43483" lon="4.63575">
        <ele>853</ele>
        <time>2021-05-14T14:26:03Z</time>
      </trkpt>
      <trkpt lat="45.43479" lon="4.63575">
        <ele>853</ele>
        <time>2021-05-14T14:26:06Z</time>
      </trkpt>
      <trkpt lat="45.43476" lon="4.63576">
        <ele>854</ele>
        <time>2021-05-14T14:26:12Z</time>
      </trkpt>
      <trkpt lat="45.43471" lon="4.63576">
        <ele>854</ele>
        <time>2021-05-14T14:26:15Z</time>
      </trkpt>
      <trkpt lat="45.43467" lon="4.63578">
        <ele>855</ele>
        <time>2021-05-14T14:26:18Z</time>
      </trkpt>
      <trkpt lat="45.43463" lon="4.6358">
        <ele>855</ele>
        <time>2021-05-14T14:26:21Z</time>
      </trkpt>
      <trkpt lat="45.43459" lon="4.6358">
        <ele>855</ele>
        <time>2021-05-14T14:26:24Z</time>
      </trkpt>
      <trkpt lat="45.43454" lon="4.63582">
        <ele>855</ele>
        <time>2021-05-14T14:26:27Z</time>
      </trkpt>
      <trkpt lat="45.43451" lon="4.63583">
        <ele>856</ele>
        <time>2021-05-14T14:26:30Z</time>
      </trkpt>
      <trkpt lat="45.43447" lon="4.63584">
        <ele>856</ele>
        <time>2021-05-14T14:26:33Z</time>
      </trkpt>
      <trkpt lat="45.43442" lon="4.63586">
        <ele>857</ele>
        <time>2021-05-14T14:26:36Z</time>
      </trkpt>
      <trkpt lat="45.43438" lon="4.63586">
        <ele>857</ele>
        <time>2021-05-14T14:26:39Z</time>
      </trkpt>
      <trkpt lat="45.43434" lon="4.63587">
        <ele>858</ele>
        <time>2021-05-14T14:26:43Z</time>
      </trkpt>
      <trkpt lat="45.43431" lon="4.63589">
        <ele>858</ele>
        <time>2021-05-14T14:26:47Z</time>
      </trkpt>
      <trkpt lat="45.43427" lon="4.63591">
        <ele>858</ele>
        <time>2021-05-14T14:26:50Z</time>
      </trkpt>
      <trkpt lat="45.43423" lon="4.63593">
        <ele>859</ele>
        <time>2021-05-14T14:26:54Z</time>
      </trkpt>
      <trkpt lat="45.4342" lon="4.63594">
        <ele>859</ele>
        <time>2021-05-14T14:26:57Z</time>
      </trkpt>
      <trkpt lat="45.43416" lon="4.63596">
        <ele>860</ele>
        <time>2021-05-14T14:27:02Z</time>
      </trkpt>
      <trkpt lat="45.43412" lon="4.63597">
        <ele>861</ele>
        <time>2021-05-14T14:27:06Z</time>
      </trkpt>
      <trkpt lat="45.43407" lon="4.63597">
        <ele>861</ele>
        <time>2021-05-14T14:27:09Z</time>
      </trkpt>
      <trkpt lat="45.43404" lon="4.63598">
        <ele>862</ele>
        <time>2021-05-14T14:27:12Z</time>
      </trkpt>
      <trkpt lat="45.434" lon="4.63599">
        <ele>863</ele>
        <time>2021-05-14T14:27:16Z</time>
      </trkpt>
      <trkpt lat="45.43395" lon="4.63602">
        <ele>863</ele>
        <time>2021-05-14T14:27:19Z</time>
      </trkpt>
      <trkpt lat="45.43391" lon="4.63604">
        <ele>864</ele>
        <time>2021-05-14T14:27:23Z</time>
      </trkpt>
      <trkpt lat="45.43386" lon="4.63604">
        <ele>865</ele>
        <time>2021-05-14T14:27:27Z</time>
      </trkpt>
      <trkpt lat="45.43382" lon="4.63604">
        <ele>865</ele>
        <time>2021-05-14T14:27:30Z</time>
      </trkpt>
      <trkpt lat="45.43379" lon="4.63608">
        <ele>866</ele>
        <time>2021-05-14T14:27:35Z</time>
      </trkpt>
      <trkpt lat="45.43375" lon="4.63609">
        <ele>867</ele>
        <time>2021-05-14T14:27:39Z</time>
      </trkpt>
      <trkpt lat="45.43372" lon="4.63611">
        <ele>868</ele>
        <time>2021-05-14T14:27:43Z</time>
      </trkpt>
      <trkpt lat="45.43369" lon="4.63614">
        <ele>868</ele>
        <time>2021-05-14T14:27:48Z</time>
      </trkpt>
      <trkpt lat="45.43365" lon="4.63615">
        <ele>870</ele>
        <time>2021-05-14T14:27:53Z</time>
      </trkpt>
      <trkpt lat="45.43361" lon="4.63614">
        <ele>871</ele>
        <time>2021-05-14T14:27:59Z</time>
      </trkpt>
      <trkpt lat="45.43357" lon="4.63612">
        <ele>872</ele>
        <time>2021-05-14T14:28:05Z</time>
      </trkpt>
      <trkpt lat="45.43354" lon="4.6361">
        <ele>873</ele>
        <time>2021-05-14T14:28:09Z</time>
      </trkpt>
      <trkpt lat="45.43353" lon="4.63605">
        <ele>875</ele>
        <time>2021-05-14T14:28:16Z</time>
      </trkpt>
      <trkpt lat="45.43352" lon="4.636">
        <ele>875</ele>
        <time>2021-05-14T14:28:22Z</time>
      </trkpt>
      <trkpt lat="45.43349" lon="4.63597">
        <ele>876</ele>
        <time>2021-05-14T14:28:29Z</time>
      </trkpt>
      <trkpt lat="45.43346" lon="4.63595">
        <ele>877</ele>
        <time>2021-05-14T14:28:34Z</time>
      </trkpt>
      <trkpt lat="45.43342" lon="4.63594">
        <ele>877</ele>
        <time>2021-05-14T14:28:41Z</time>
      </trkpt>
      <trkpt lat="45.43338" lon="4.63595">
        <ele>878</ele>
        <time>2021-05-14T14:28:45Z</time>
      </trkpt>
      <trkpt lat="45.43335" lon="4.63593">
        <ele>880</ele>
        <time>2021-05-14T14:28:51Z</time>
      </trkpt>
      <trkpt lat="45.43332" lon="4.63591">
        <ele>880</ele>
        <time>2021-05-14T14:28:56Z</time>
      </trkpt>
      <trkpt lat="45.43328" lon="4.63588">
        <ele>882</ele>
        <time>2021-05-14T14:29:01Z</time>
      </trkpt>
      <trkpt lat="45.43325" lon="4.63584">
        <ele>883</ele>
        <time>2021-05-14T14:29:07Z</time>
      </trkpt>
      <trkpt lat="45.43322" lon="4.63581">
        <ele>885</ele>
        <time>2021-05-14T14:29:13Z</time>
      </trkpt>
      <trkpt lat="45.43319" lon="4.63578">
        <ele>886</ele>
        <time>2021-05-14T14:29:19Z</time>
      </trkpt>
      <trkpt lat="45.43316" lon="4.63575">
        <ele>886</ele>
        <time>2021-05-14T14:29:24Z</time>
      </trkpt>
      <trkpt lat="45.43313" lon="4.63572">
        <ele>888</ele>
        <time>2021-05-14T14:29:29Z</time>
      </trkpt>
      <trkpt lat="45.4331" lon="4.63572">
        <ele>889</ele>
        <time>2021-05-14T14:29:35Z</time>
      </trkpt>
      <trkpt lat="45.43306" lon="4.63571">
        <ele>890</ele>
        <time>2021-05-14T14:29:40Z</time>
      </trkpt>
      <trkpt lat="45.43303" lon="4.6357">
        <ele>891</ele>
        <time>2021-05-14T14:29:46Z</time>
      </trkpt>
      <trkpt lat="45.43299" lon="4.63568">
        <ele>893</ele>
        <time>2021-05-14T14:29:51Z</time>
      </trkpt>
      <trkpt lat="45.43295" lon="4.63569">
        <ele>894</ele>
        <time>2021-05-14T14:29:59Z</time>
      </trkpt>
      <trkpt lat="45.43291" lon="4.63571">
        <ele>894</ele>
        <time>2021-05-14T14:30:05Z</time>
      </trkpt>
      <trkpt lat="45.43288" lon="4.63572">
        <ele>895</ele>
        <time>2021-05-14T14:30:09Z</time>
      </trkpt>
      <trkpt lat="45.43284" lon="4.63572">
        <ele>896</ele>
        <time>2021-05-14T14:30:15Z</time>
      </trkpt>
      <trkpt lat="45.4328" lon="4.63573">
        <ele>897</ele>
        <time>2021-05-14T14:30:21Z</time>
      </trkpt>
      <trkpt lat="45.43277" lon="4.63574">
        <ele>899</ele>
        <time>2021-05-14T14:30:27Z</time>
      </trkpt>
      <trkpt lat="45.43272" lon="4.63576">
        <ele>899</ele>
        <time>2021-05-14T14:30:34Z</time>
      </trkpt>
      <trkpt lat="45.43269" lon="4.63575">
        <ele>901</ele>
        <time>2021-05-14T14:30:38Z</time>
      </trkpt>
      <trkpt lat="45.43265" lon="4.63575">
        <ele>902</ele>
        <time>2021-05-14T14:30:45Z</time>
      </trkpt>
      <trkpt lat="45.43261" lon="4.63575">
        <ele>903</ele>
        <time>2021-05-14T14:30:49Z</time>
      </trkpt>
      <trkpt lat="45.43257" lon="4.63574">
        <ele>904</ele>
        <time>2021-05-14T14:30:53Z</time>
      </trkpt>
      <trkpt lat="45.43253" lon="4.63574">
        <ele>904</ele>
        <time>2021-05-14T14:30:58Z</time>
      </trkpt>
      <trkpt lat="45.43249" lon="4.63574">
        <ele>906</ele>
        <time>2021-05-14T14:31:05Z</time>
      </trkpt>
      <trkpt lat="45.43245" lon="4.63573">
        <ele>907</ele>
        <time>2021-05-14T14:31:09Z</time>
      </trkpt>
      <trkpt lat="45.43241" lon="4.63573">
        <ele>908</ele>
        <time>2021-05-14T14:31:13Z</time>
      </trkpt>
      <trkpt lat="45.43237" lon="4.63573">
        <ele>909</ele>
        <time>2021-05-14T14:31:18Z</time>
      </trkpt>
      <trkpt lat="45.43234" lon="4.63574">
        <ele>911</ele>
        <time>2021-05-14T14:31:22Z</time>
      </trkpt>
      <trkpt lat="45.4323" lon="4.63573">
        <ele>912</ele>
        <time>2021-05-14T14:31:26Z</time>
      </trkpt>
      <trkpt lat="45.43226" lon="4.63573">
        <ele>913</ele>
        <time>2021-05-14T14:31:31Z</time>
      </trkpt>
      <trkpt lat="45.43222" lon="4.63573">
        <ele>913</ele>
        <time>2021-05-14T14:31:35Z</time>
      </trkpt>
      <trkpt lat="45.43219" lon="4.63577">
        <ele>914</ele>
        <time>2021-05-14T14:31:39Z</time>
      </trkpt>
      <trkpt lat="45.43216" lon="4.6358">
        <ele>914</ele>
        <time>2021-05-14T14:31:43Z</time>
      </trkpt>
      <trkpt lat="45.43211" lon="4.63581">
        <ele>915</ele>
        <time>2021-05-14T14:31:48Z</time>
      </trkpt>
      <trkpt lat="45.43207" lon="4.63581">
        <ele>916</ele>
        <time>2021-05-14T14:31:52Z</time>
      </trkpt>
      <trkpt lat="45.43204" lon="4.63581">
        <ele>918</ele>
        <time>2021-05-14T14:31:58Z</time>
      </trkpt>
      <trkpt lat="45.432" lon="4.63582">
        <ele>918</ele>
        <time>2021-05-14T14:32:01Z</time>
      </trkpt>
      <trkpt lat="45.43196" lon="4.63584">
        <ele>919</ele>
        <time>2021-05-14T14:32:06Z</time>
      </trkpt>
      <trkpt lat="45.43193" lon="4.63586">
        <ele>920</ele>
        <time>2021-05-14T14:32:11Z</time>
      </trkpt>
      <trkpt lat="45.43189" lon="4.63589">
        <ele>921</ele>
        <time>2021-05-14T14:32:16Z</time>
      </trkpt>
      <trkpt lat="45.43186" lon="4.63593">
        <ele>922</ele>
        <time>2021-05-14T14:32:19Z</time>
      </trkpt>
      <trkpt lat="45.43182" lon="4.63595">
        <ele>922</ele>
        <time>2021-05-14T14:32:24Z</time>
      </trkpt>
      <trkpt lat="45.43178" lon="4.63597">
        <ele>922</ele>
        <time>2021-05-14T14:32:28Z</time>
      </trkpt>
      <trkpt lat="45.43174" lon="4.63598">
        <ele>923</ele>
        <time>2021-05-14T14:32:31Z</time>
      </trkpt>
      <trkpt lat="45.4317" lon="4.63598">
        <ele>923</ele>
        <time>2021-05-14T14:32:34Z</time>
      </trkpt>
      <trkpt lat="45.43166" lon="4.63598">
        <ele>925</ele>
        <time>2021-05-14T14:32:39Z</time>
      </trkpt>
      <trkpt lat="45.43162" lon="4.63597">
        <ele>925</ele>
        <time>2021-05-14T14:32:42Z</time>
      </trkpt>
      <trkpt lat="45.43158" lon="4.63598">
        <ele>926</ele>
        <time>2021-05-14T14:32:46Z</time>
      </trkpt>
      <trkpt lat="45.43155" lon="4.63598">
        <ele>928</ele>
        <time>2021-05-14T14:32:49Z</time>
      </trkpt>
      <trkpt lat="45.43151" lon="4.63599">
        <ele>929</ele>
        <time>2021-05-14T14:32:55Z</time>
      </trkpt>
      <trkpt lat="45.43148" lon="4.63602">
        <ele>931</ele>
        <time>2021-05-14T14:33:00Z</time>
      </trkpt>
      <trkpt lat="45.43144" lon="4.63603">
        <ele>931</ele>
        <time>2021-05-14T14:33:06Z</time>
      </trkpt>
      <trkpt lat="45.4314" lon="4.63605">
        <ele>932</ele>
        <time>2021-05-14T14:33:10Z</time>
      </trkpt>
      <trkpt lat="45.43136" lon="4.63607">
        <ele>932</ele>
        <time>2021-05-14T14:33:15Z</time>
      </trkpt>
      <trkpt lat="45.43132" lon="4.63607">
        <ele>934</ele>
        <time>2021-05-14T14:33:22Z</time>
      </trkpt>
      <trkpt lat="45.43128" lon="4.63607">
        <ele>934</ele>
        <time>2021-05-14T14:33:30Z</time>
      </trkpt>
      <trkpt lat="45.43124" lon="4.63606">
        <ele>935</ele>
        <time>2021-05-14T14:33:35Z</time>
      </trkpt>
      <trkpt lat="45.43121" lon="4.63605">
        <ele>938</ele>
        <time>2021-05-14T14:33:44Z</time>
      </trkpt>
      <trkpt lat="45.43118" lon="4.63602">
        <ele>940</ele>
        <time>2021-05-14T14:33:51Z</time>
      </trkpt>
      <trkpt lat="45.43115" lon="4.63599">
        <ele>941</ele>
        <time>2021-05-14T14:33:57Z</time>
      </trkpt>
      <trkpt lat="45.43112" lon="4.63596">
        <ele>941</ele>
        <time>2021-05-14T14:34:01Z</time>
      </trkpt>
      <trkpt lat="45.4311" lon="4.63592">
        <ele>942</ele>
        <time>2021-05-14T14:34:10Z</time>
      </trkpt>
      <trkpt lat="45.4311" lon="4.63587">
        <ele>943</ele>
        <time>2021-05-14T14:34:15Z</time>
      </trkpt>
      <trkpt lat="45.43111" lon="4.63582">
        <ele>945</ele>
        <time>2021-05-14T14:34:20Z</time>
      </trkpt>
      <trkpt lat="45.43111" lon="4.63576">
        <ele>945</ele>
        <time>2021-05-14T14:34:25Z</time>
      </trkpt>
      <trkpt lat="45.43113" lon="4.63571">
        <ele>946</ele>
        <time>2021-05-14T14:34:29Z</time>
      </trkpt>
      <trkpt lat="45.43113" lon="4.63566">
        <ele>947</ele>
        <time>2021-05-14T14:34:33Z</time>
      </trkpt>
      <trkpt lat="45.43115" lon="4.63561">
        <ele>947</ele>
        <time>2021-05-14T14:34:37Z</time>
      </trkpt>
      <trkpt lat="45.43115" lon="4.63555">
        <ele>948</ele>
        <time>2021-05-14T14:34:41Z</time>
      </trkpt>
      <trkpt lat="45.43116" lon="4.63548">
        <ele>949</ele>
        <time>2021-05-14T14:34:45Z</time>
      </trkpt>
      <trkpt lat="45.43118" lon="4.63543">
        <ele>950</ele>
        <time>2021-05-14T14:34:51Z</time>
      </trkpt>
      <trkpt lat="45.43119" lon="4.63538">
        <ele>951</ele>
        <time>2021-05-14T14:34:55Z</time>
      </trkpt>
      <trkpt lat="45.4312" lon="4.63532">
        <ele>952</ele>
        <time>2021-05-14T14:34:59Z</time>
      </trkpt>
      <trkpt lat="45.43121" lon="4.63528">
        <ele>952</ele>
        <time>2021-05-14T14:35:06Z</time>
      </trkpt>
      <trkpt lat="45.43121" lon="4.63522">
        <ele>953</ele>
        <time>2021-05-14T14:35:10Z</time>
      </trkpt>
      <trkpt lat="45.4312" lon="4.63516">
        <ele>953</ele>
        <time>2021-05-14T14:35:14Z</time>
      </trkpt>
      <trkpt lat="45.43118" lon="4.63512">
        <ele>954</ele>
        <time>2021-05-14T14:35:20Z</time>
      </trkpt>
      <trkpt lat="45.43118" lon="4.63507">
        <ele>955</ele>
        <time>2021-05-14T14:35:25Z</time>
      </trkpt>
      <trkpt lat="45.43118" lon="4.63502">
        <ele>957</ele>
        <time>2021-05-14T14:35:29Z</time>
      </trkpt>
      <trkpt lat="45.43119" lon="4.63497">
        <ele>958</ele>
        <time>2021-05-14T14:35:33Z</time>
      </trkpt>
      <trkpt lat="45.4312" lon="4.63492">
        <ele>958</ele>
        <time>2021-05-14T14:35:37Z</time>
      </trkpt>
      <trkpt lat="45.4312" lon="4.63485">
        <ele>961</ele>
        <time>2021-05-14T14:35:42Z</time>
      </trkpt>
      <trkpt lat="45.43121" lon="4.63479">
        <ele>961</ele>
        <time>2021-05-14T14:35:47Z</time>
      </trkpt>
      <trkpt lat="45.43122" lon="4.63473">
        <ele>963</ele>
        <time>2021-05-14T14:35:51Z</time>
      </trkpt>
      <trkpt lat="45.43125" lon="4.63468">
        <ele>963</ele>
        <time>2021-05-14T14:35:56Z</time>
      </trkpt>
      <trkpt lat="45.43128" lon="4.63464">
        <ele>964</ele>
        <time>2021-05-14T14:35:59Z</time>
      </trkpt>
      <trkpt lat="45.4313" lon="4.63459">
        <ele>964</ele>
        <time>2021-05-14T14:36:02Z</time>
      </trkpt>
      <trkpt lat="45.43133" lon="4.63455">
        <ele>963</ele>
        <time>2021-05-14T14:36:05Z</time>
      </trkpt>
      <trkpt lat="45.43135" lon="4.6345">
        <ele>965</ele>
        <time>2021-05-14T14:36:14Z</time>
      </trkpt>
      <trkpt lat="45.43136" lon="4.63445">
        <ele>966</ele>
        <time>2021-05-14T14:36:19Z</time>
      </trkpt>
      <trkpt lat="45.43137" lon="4.6344">
        <ele>965</ele>
        <time>2021-05-14T14:36:25Z</time>
      </trkpt>
      <trkpt lat="45.43138" lon="4.63435">
        <ele>966</ele>
        <time>2021-05-14T14:36:31Z</time>
      </trkpt>
      <trkpt lat="45.43142" lon="4.63433">
        <ele>966</ele>
        <time>2021-05-14T14:37:00Z</time>
      </trkpt>
      <trkpt lat="45.43145" lon="4.6343">
        <ele>964</ele>
        <time>2021-05-14T14:37:06Z</time>
      </trkpt>
      <trkpt lat="45.43149" lon="4.6343">
        <ele>963</ele>
        <time>2021-05-14T14:37:10Z</time>
      </trkpt>
      <trkpt lat="45.43153" lon="4.63429">
        <ele>962</ele>
        <time>2021-05-14T14:37:14Z</time>
      </trkpt>
      <trkpt lat="45.43157" lon="4.63428">
        <ele>962</ele>
        <time>2021-05-14T14:37:18Z</time>
      </trkpt>
      <trkpt lat="45.4316" lon="4.63427">
        <ele>961</ele>
        <time>2021-05-14T14:37:23Z</time>
      </trkpt>
      <trkpt lat="45.43164" lon="4.63426">
        <ele>961</ele>
        <time>2021-05-14T14:37:28Z</time>
      </trkpt>
      <trkpt lat="45.43168" lon="4.63425">
        <ele>960</ele>
        <time>2021-05-14T14:37:32Z</time>
      </trkpt>
      <trkpt lat="45.43171" lon="4.63424">
        <ele>958</ele>
        <time>2021-05-14T14:37:37Z</time>
      </trkpt>
      <trkpt lat="45.43174" lon="4.6342">
        <ele>959</ele>
        <time>2021-05-14T14:37:46Z</time>
      </trkpt>
      <trkpt lat="45.43177" lon="4.63416">
        <ele>961</ele>
        <time>2021-05-14T14:37:50Z</time>
      </trkpt>
      <trkpt lat="45.43179" lon="4.6341">
        <ele>962</ele>
        <time>2021-05-14T14:37:56Z</time>
      </trkpt>
      <trkpt lat="45.43181" lon="4.63406">
        <ele>962</ele>
        <time>2021-05-14T14:38:01Z</time>
      </trkpt>
      <trkpt lat="45.43184" lon="4.63403">
        <ele>964</ele>
        <time>2021-05-14T14:38:06Z</time>
      </trkpt>
      <trkpt lat="45.43186" lon="4.63398">
        <ele>965</ele>
        <time>2021-05-14T14:38:12Z</time>
      </trkpt>
      <trkpt lat="45.43188" lon="4.63394">
        <ele>967</ele>
        <time>2021-05-14T14:38:20Z</time>
      </trkpt>
      <trkpt lat="45.43188" lon="4.63389">
        <ele>968</ele>
        <time>2021-05-14T14:38:36Z</time>
      </trkpt>
      <trkpt lat="45.43184" lon="4.63389">
        <ele>969</ele>
        <time>2021-05-14T14:38:43Z</time>
      </trkpt>
      <trkpt lat="45.4318" lon="4.63388">
        <ele>970</ele>
        <time>2021-05-14T14:38:50Z</time>
      </trkpt>
      <trkpt lat="45.43177" lon="4.63388">
        <ele>972</ele>
        <time>2021-05-14T14:38:56Z</time>
      </trkpt>
      <trkpt lat="45.43174" lon="4.63385">
        <ele>974</ele>
        <time>2021-05-14T14:39:03Z</time>
      </trkpt>
      <trkpt lat="45.43169" lon="4.63382">
        <ele>975</ele>
        <time>2021-05-14T14:39:11Z</time>
      </trkpt>
      <trkpt lat="45.43166" lon="4.63381">
        <ele>977</ele>
        <time>2021-05-14T14:39:19Z</time>
      </trkpt>
      <trkpt lat="45.43162" lon="4.63383">
        <ele>977</ele>
        <time>2021-05-14T14:39:24Z</time>
      </trkpt>
      <trkpt lat="45.43158" lon="4.63384">
        <ele>978</ele>
        <time>2021-05-14T14:39:28Z</time>
      </trkpt>
      <trkpt lat="45.43154" lon="4.63383">
        <ele>978</ele>
        <time>2021-05-14T14:39:34Z</time>
      </trkpt>
      <trkpt lat="45.4315" lon="4.63384">
        <ele>979</ele>
        <time>2021-05-14T14:39:43Z</time>
      </trkpt>
      <trkpt lat="45.43145" lon="4.63385">
        <ele>979</ele>
        <time>2021-05-14T14:39:48Z</time>
      </trkpt>
      <trkpt lat="45.43142" lon="4.63383">
        <ele>980</ele>
        <time>2021-05-14T14:39:52Z</time>
      </trkpt>
      <trkpt lat="45.43141" lon="4.63378">
        <ele>981</ele>
        <time>2021-05-14T14:39:57Z</time>
      </trkpt>
      <trkpt lat="45.43142" lon="4.63374">
        <ele>983</ele>
        <time>2021-05-14T14:40:06Z</time>
      </trkpt>
      <trkpt lat="45.43144" lon="4.6337">
        <ele>984</ele>
        <time>2021-05-14T14:40:15Z</time>
      </trkpt>
      <trkpt lat="45.43148" lon="4.63365">
        <ele>984</ele>
        <time>2021-05-14T14:40:19Z</time>
      </trkpt>
      <trkpt lat="45.4315" lon="4.63361">
        <ele>986</ele>
        <time>2021-05-14T14:40:23Z</time>
      </trkpt>
      <trkpt lat="45.43153" lon="4.63357">
        <ele>986</ele>
        <time>2021-05-14T14:40:27Z</time>
      </trkpt>
      <trkpt lat="45.43157" lon="4.63354">
        <ele>986</ele>
        <time>2021-05-14T14:40:31Z</time>
      </trkpt>
      <trkpt lat="45.43155" lon="4.63349">
        <ele>988</ele>
        <time>2021-05-14T14:40:37Z</time>
      </trkpt>
      <trkpt lat="45.43154" lon="4.63344">
        <ele>990</ele>
        <time>2021-05-14T14:40:43Z</time>
      </trkpt>
      <trkpt lat="45.43155" lon="4.6334">
        <ele>992</ele>
        <time>2021-05-14T14:40:46Z</time>
      </trkpt>
      <trkpt lat="45.43154" lon="4.63334">
        <ele>992</ele>
        <time>2021-05-14T14:40:50Z</time>
      </trkpt>
      <trkpt lat="45.43152" lon="4.63331">
        <ele>994</ele>
        <time>2021-05-14T14:40:54Z</time>
      </trkpt>
      <trkpt lat="45.43148" lon="4.6333">
        <ele>994</ele>
        <time>2021-05-14T14:40:59Z</time>
      </trkpt>
      <trkpt lat="45.43148" lon="4.63327">
        <ele>997</ele>
        <time>2021-05-14T14:41:11Z</time>
      </trkpt>
      <trkpt lat="45.43144" lon="4.63325">
        <ele>998</ele>
        <time>2021-05-14T14:41:17Z</time>
      </trkpt>
      <trkpt lat="45.43143" lon="4.63321">
        <ele>1000</ele>
        <time>2021-05-14T14:41:25Z</time>
      </trkpt>
      <trkpt lat="45.43142" lon="4.63317">
        <ele>1003</ele>
        <time>2021-05-14T14:41:34Z</time>
      </trkpt>
      <trkpt lat="45.43141" lon="4.63312">
        <ele>1005</ele>
        <time>2021-05-14T14:41:40Z</time>
      </trkpt>
      <trkpt lat="45.43139" lon="4.63308">
        <ele>1006</ele>
        <time>2021-05-14T14:41:47Z</time>
      </trkpt>
      <trkpt lat="45.43136" lon="4.63304">
        <ele>1008</ele>
        <time>2021-05-14T14:41:53Z</time>
      </trkpt>
      <trkpt lat="45.43134" lon="4.63299">
        <ele>1010</ele>
        <time>2021-05-14T14:41:59Z</time>
      </trkpt>
      <trkpt lat="45.43135" lon="4.63294">
        <ele>1012</ele>
        <time>2021-05-14T14:42:06Z</time>
      </trkpt>
      <trkpt lat="45.43135" lon="4.63289">
        <ele>1014</ele>
        <time>2021-05-14T14:42:12Z</time>
      </trkpt>
      <trkpt lat="45.43137" lon="4.63285">
        <ele>1015</ele>
        <time>2021-05-14T14:42:20Z</time>
      </trkpt>
      <trkpt lat="45.43139" lon="4.63281">
        <ele>1015</ele>
        <time>2021-05-14T14:42:26Z</time>
      </trkpt>
      <trkpt lat="45.43141" lon="4.63276">
        <ele>1017</ele>
        <time>2021-05-14T14:42:33Z</time>
      </trkpt>
      <trkpt lat="45.43141" lon="4.63271">
        <ele>1019</ele>
        <time>2021-05-14T14:42:38Z</time>
      </trkpt>
      <trkpt lat="45.43141" lon="4.63266">
        <ele>1020</ele>
        <time>2021-05-14T14:42:43Z</time>
      </trkpt>
      <trkpt lat="45.43142" lon="4.63261">
        <ele>1021</ele>
        <time>2021-05-14T14:42:50Z</time>
      </trkpt>
      <trkpt lat="45.43143" lon="4.63256">
        <ele>1022</ele>
        <time>2021-05-14T14:42:54Z</time>
      </trkpt>
      <trkpt lat="45.43141" lon="4.63251">
        <ele>1023</ele>
        <time>2021-05-14T14:42:58Z</time>
      </trkpt>
      <trkpt lat="45.43138" lon="4.63246">
        <ele>1023</ele>
        <time>2021-05-14T14:43:02Z</time>
      </trkpt>
      <trkpt lat="45.43136" lon="4.63242">
        <ele>1024</ele>
        <time>2021-05-14T14:43:05Z</time>
      </trkpt>
      <trkpt lat="45.43133" lon="4.63238">
        <ele>1025</ele>
        <time>2021-05-14T14:43:08Z</time>
      </trkpt>
      <trkpt lat="45.43131" lon="4.63233">
        <ele>1026</ele>
        <time>2021-05-14T14:43:12Z</time>
      </trkpt>
      <trkpt lat="45.43129" lon="4.63227">
        <ele>1026</ele>
        <time>2021-05-14T14:43:17Z</time>
      </trkpt>
      <trkpt lat="45.43127" lon="4.63223">
        <ele>1027</ele>
        <time>2021-05-14T14:43:22Z</time>
      </trkpt>
      <trkpt lat="45.43124" lon="4.63219">
        <ele>1028</ele>
        <time>2021-05-14T14:43:26Z</time>
      </trkpt>
      <trkpt lat="45.43123" lon="4.63214">
        <ele>1029</ele>
        <time>2021-05-14T14:43:30Z</time>
      </trkpt>
      <trkpt lat="45.43118" lon="4.63213">
        <ele>1029</ele>
        <time>2021-05-14T14:43:34Z</time>
      </trkpt>
      <trkpt lat="45.43117" lon="4.63207">
        <ele>1031</ele>
        <time>2021-05-14T14:43:38Z</time>
      </trkpt>
      <trkpt lat="45.43117" lon="4.63201">
        <ele>1031</ele>
        <time>2021-05-14T14:43:43Z</time>
      </trkpt>
      <trkpt lat="45.43115" lon="4.63196">
        <ele>1031</ele>
        <time>2021-05-14T14:43:47Z</time>
      </trkpt>
      <trkpt lat="45.43111" lon="4.63192">
        <ele>1031</ele>
        <time>2021-05-14T14:43:51Z</time>
      </trkpt>
      <trkpt lat="45.43108" lon="4.63189">
        <ele>1032</ele>
        <time>2021-05-14T14:43:55Z</time>
      </trkpt>
      <trkpt lat="45.43104" lon="4.63194">
        <ele>1033</ele>
        <time>2021-05-14T14:43:59Z</time>
      </trkpt>
      <trkpt lat="45.43102" lon="4.63199">
        <ele>1033</ele>
        <time>2021-05-14T14:44:04Z</time>
      </trkpt>
      <trkpt lat="45.431" lon="4.63203">
        <ele>1035</ele>
        <time>2021-05-14T14:44:17Z</time>
      </trkpt>
      <trkpt lat="45.43099" lon="4.63209">
        <ele>1036</ele>
        <time>2021-05-14T14:44:21Z</time>
      </trkpt>
      <trkpt lat="45.43097" lon="4.63213">
        <ele>1036</ele>
        <time>2021-05-14T14:44:25Z</time>
      </trkpt>
      <trkpt lat="45.43098" lon="4.63219">
        <ele>1036</ele>
        <time>2021-05-14T14:44:30Z</time>
      </trkpt>
      <trkpt lat="45.43096" lon="4.63223">
        <ele>1038</ele>
        <time>2021-05-14T14:45:01Z</time>
      </trkpt>
      <trkpt lat="45.43093" lon="4.63219">
        <ele>1038</ele>
        <time>2021-05-14T14:45:11Z</time>
      </trkpt>
      <trkpt lat="45.43094" lon="4.63214">
        <ele>1039</ele>
        <time>2021-05-14T14:45:25Z</time>
      </trkpt>
      <trkpt lat="45.43096" lon="4.6321">
        <ele>1041</ele>
        <time>2021-05-14T14:45:39Z</time>
      </trkpt>
      <trkpt lat="45.43098" lon="4.63205">
        <ele>1040</ele>
        <time>2021-05-14T14:46:01Z</time>
      </trkpt>
      <trkpt lat="45.431" lon="4.63201">
        <ele>1040</ele>
        <time>2021-05-14T14:46:05Z</time>
      </trkpt>
      <trkpt lat="45.43102" lon="4.63196">
        <ele>1041</ele>
        <time>2021-05-14T14:46:10Z</time>
      </trkpt>
      <trkpt lat="45.43102" lon="4.6319">
        <ele>1040</ele>
        <time>2021-05-14T14:46:15Z</time>
      </trkpt>
      <trkpt lat="45.43103" lon="4.63185">
        <ele>1040</ele>
        <time>2021-05-14T14:46:18Z</time>
      </trkpt>
      <trkpt lat="45.43105" lon="4.63178">
        <ele>1040</ele>
        <time>2021-05-14T14:46:22Z</time>
      </trkpt>
      <trkpt lat="45.43108" lon="4.63174">
        <ele>1041</ele>
        <time>2021-05-14T14:46:25Z</time>
      </trkpt>
      <trkpt lat="45.43109" lon="4.63168">
        <ele>1041</ele>
        <time>2021-05-14T14:46:29Z</time>
      </trkpt>
      <trkpt lat="45.4311" lon="4.63162">
        <ele>1041</ele>
        <time>2021-05-14T14:46:31Z</time>
      </trkpt>
      <trkpt lat="45.43114" lon="4.63159">
        <ele>1041</ele>
        <time>2021-05-14T14:46:33Z</time>
      </trkpt>
      <trkpt lat="45.43117" lon="4.63154">
        <ele>1041</ele>
        <time>2021-05-14T14:46:35Z</time>
      </trkpt>
      <trkpt lat="45.43117" lon="4.63149">
        <ele>1042</ele>
        <time>2021-05-14T14:46:37Z</time>
      </trkpt>
      <trkpt lat="45.43118" lon="4.63142">
        <ele>1041</ele>
        <time>2021-05-14T14:46:41Z</time>
      </trkpt>
      <trkpt lat="45.43122" lon="4.63138">
        <ele>1041</ele>
        <time>2021-05-14T14:46:44Z</time>
      </trkpt>
      <trkpt lat="45.43125" lon="4.63132">
        <ele>1041</ele>
        <time>2021-05-14T14:46:47Z</time>
      </trkpt>
      <trkpt lat="45.43124" lon="4.63127">
        <ele>1042</ele>
        <time>2021-05-14T14:46:49Z</time>
      </trkpt>
      <trkpt lat="45.43124" lon="4.63121">
        <ele>1043</ele>
        <time>2021-05-14T14:46:51Z</time>
      </trkpt>
      <trkpt lat="45.43122" lon="4.63115">
        <ele>1043</ele>
        <time>2021-05-14T14:46:53Z</time>
      </trkpt>
      <trkpt lat="45.4312" lon="4.63109">
        <ele>1043</ele>
        <time>2021-05-14T14:46:55Z</time>
      </trkpt>
      <trkpt lat="45.4312" lon="4.63104">
        <ele>1045</ele>
        <time>2021-05-14T14:46:57Z</time>
      </trkpt>
      <trkpt lat="45.43119" lon="4.63098">
        <ele>1045</ele>
        <time>2021-05-14T14:46:59Z</time>
      </trkpt>
      <trkpt lat="45.4312" lon="4.63091">
        <ele>1045</ele>
        <time>2021-05-14T14:47:02Z</time>
      </trkpt>
      <trkpt lat="45.43119" lon="4.63086">
        <ele>1045</ele>
        <time>2021-05-14T14:47:04Z</time>
      </trkpt>
      <trkpt lat="45.43118" lon="4.63079">
        <ele>1046</ele>
        <time>2021-05-14T14:47:06Z</time>
      </trkpt>
      <trkpt lat="45.43119" lon="4.63072">
        <ele>1046</ele>
        <time>2021-05-14T14:47:09Z</time>
      </trkpt>
      <trkpt lat="45.43121" lon="4.63067">
        <ele>1047</ele>
        <time>2021-05-14T14:47:12Z</time>
      </trkpt>
      <trkpt lat="45.43121" lon="4.63061">
        <ele>1047</ele>
        <time>2021-05-14T14:47:16Z</time>
      </trkpt>
      <trkpt lat="45.43124" lon="4.63056">
        <ele>1048</ele>
        <time>2021-05-14T14:47:19Z</time>
      </trkpt>
      <trkpt lat="45.43123" lon="4.63048">
        <ele>1048</ele>
        <time>2021-05-14T14:47:22Z</time>
      </trkpt>
      <trkpt lat="45.43121" lon="4.63041">
        <ele>1048</ele>
        <time>2021-05-14T14:47:24Z</time>
      </trkpt>
      <trkpt lat="45.4312" lon="4.63034">
        <ele>1048</ele>
        <time>2021-05-14T14:47:27Z</time>
      </trkpt>
      <trkpt lat="45.43119" lon="4.63028">
        <ele>1048</ele>
        <time>2021-05-14T14:47:30Z</time>
      </trkpt>
      <trkpt lat="45.43117" lon="4.63023">
        <ele>1048</ele>
        <time>2021-05-14T14:47:32Z</time>
      </trkpt>
      <trkpt lat="45.43114" lon="4.63018">
        <ele>1048</ele>
        <time>2021-05-14T14:47:34Z</time>
      </trkpt>
      <trkpt lat="45.43112" lon="4.63013">
        <ele>1048</ele>
        <time>2021-05-14T14:47:36Z</time>
      </trkpt>
      <trkpt lat="45.43113" lon="4.63004">
        <ele>1048</ele>
        <time>2021-05-14T14:47:38Z</time>
      </trkpt>
      <trkpt lat="45.43115" lon="4.62998">
        <ele>1047</ele>
        <time>2021-05-14T14:47:40Z</time>
      </trkpt>
      <trkpt lat="45.43118" lon="4.62994">
        <ele>1047</ele>
        <time>2021-05-14T14:47:42Z</time>
      </trkpt>
      <trkpt lat="45.43121" lon="4.6299">
        <ele>1045</ele>
        <time>2021-05-14T14:47:45Z</time>
      </trkpt>
      <trkpt lat="45.43125" lon="4.62988">
        <ele>1044</ele>
        <time>2021-05-14T14:47:48Z</time>
      </trkpt>
      <trkpt lat="45.43126" lon="4.62983">
        <ele>1044</ele>
        <time>2021-05-14T14:47:50Z</time>
      </trkpt>
      <trkpt lat="45.43124" lon="4.62974">
        <ele>1043</ele>
        <time>2021-05-14T14:47:55Z</time>
      </trkpt>
      <trkpt lat="45.43125" lon="4.62958">
        <ele>1040</ele>
        <time>2021-05-14T14:48:03Z</time>
      </trkpt>
      <trkpt lat="45.43123" lon="4.62941">
        <ele>1038</ele>
        <time>2021-05-14T14:48:08Z</time>
      </trkpt>
      <trkpt lat="45.43122" lon="4.62923">
        <ele>1037</ele>
        <time>2021-05-14T14:48:13Z</time>
      </trkpt>
      <trkpt lat="45.43116" lon="4.62908">
        <ele>1034</ele>
        <time>2021-05-14T14:48:20Z</time>
      </trkpt>
      <trkpt lat="45.43115" lon="4.62891">
        <ele>1032</ele>
        <time>2021-05-14T14:48:28Z</time>
      </trkpt>
      <trkpt lat="45.43113" lon="4.62874">
        <ele>1030</ele>
        <time>2021-05-14T14:48:32Z</time>
      </trkpt>
      <trkpt lat="45.43107" lon="4.62861">
        <ele>1029</ele>
        <time>2021-05-14T14:48:37Z</time>
      </trkpt>
      <trkpt lat="45.43104" lon="4.62842">
        <ele>1027</ele>
        <time>2021-05-14T14:48:42Z</time>
      </trkpt>
      <trkpt lat="45.43098" lon="4.62826">
        <ele>1026</ele>
        <time>2021-05-14T14:48:48Z</time>
      </trkpt>
      <trkpt lat="45.43095" lon="4.62811">
        <ele>1025</ele>
        <time>2021-05-14T14:48:54Z</time>
      </trkpt>
      <trkpt lat="45.43092" lon="4.62807">
        <ele>1025</ele>
        <time>2021-05-14T14:48:56Z</time>
      </trkpt>
      <trkpt lat="45.43087" lon="4.62789">
        <ele>1023</ele>
        <time>2021-05-14T14:49:00Z</time>
      </trkpt>
      <trkpt lat="45.43085" lon="4.62771">
        <ele>1021</ele>
        <time>2021-05-14T14:49:07Z</time>
      </trkpt>
      <trkpt lat="45.43085" lon="4.62752">
        <ele>1021</ele>
        <time>2021-05-14T14:49:11Z</time>
      </trkpt>
      <trkpt lat="45.43084" lon="4.62735">
        <ele>1021</ele>
        <time>2021-05-14T14:49:15Z</time>
      </trkpt>
      <trkpt lat="45.43084" lon="4.62719">
        <ele>1020</ele>
        <time>2021-05-14T14:49:20Z</time>
      </trkpt>
      <trkpt lat="45.43083" lon="4.62703">
        <ele>1020</ele>
        <time>2021-05-14T14:49:24Z</time>
      </trkpt>
      <trkpt lat="45.43082" lon="4.62692">
        <ele>1020</ele>
        <time>2021-05-14T14:49:26Z</time>
      </trkpt>
      <trkpt lat="45.43083" lon="4.62675">
        <ele>1020</ele>
        <time>2021-05-14T14:49:32Z</time>
      </trkpt>
      <trkpt lat="45.43079" lon="4.62659">
        <ele>1020</ele>
        <time>2021-05-14T14:49:36Z</time>
      </trkpt>
      <trkpt lat="45.4308" lon="4.6264">
        <ele>1019</ele>
        <time>2021-05-14T14:49:40Z</time>
      </trkpt>
      <trkpt lat="45.43078" lon="4.62622">
        <ele>1019</ele>
        <time>2021-05-14T14:49:44Z</time>
      </trkpt>
      <trkpt lat="45.43079" lon="4.62607">
        <ele>1019</ele>
        <time>2021-05-14T14:49:49Z</time>
      </trkpt>
      <trkpt lat="45.43072" lon="4.62592">
        <ele>1019</ele>
        <time>2021-05-14T14:49:55Z</time>
      </trkpt>
      <trkpt lat="45.4307" lon="4.62587">
        <ele>1020</ele>
        <time>2021-05-14T14:49:57Z</time>
      </trkpt>
      <trkpt lat="45.43071" lon="4.6258">
        <ele>1020</ele>
        <time>2021-05-14T14:49:59Z</time>
      </trkpt>
      <trkpt lat="45.4307" lon="4.62571">
        <ele>1019</ele>
        <time>2021-05-14T14:50:02Z</time>
      </trkpt>
      <trkpt lat="45.4307" lon="4.62566">
        <ele>1021</ele>
        <time>2021-05-14T14:50:04Z</time>
      </trkpt>
      <trkpt lat="45.43071" lon="4.62561">
        <ele>1021</ele>
        <time>2021-05-14T14:50:07Z</time>
      </trkpt>
      <trkpt lat="45.4307" lon="4.62542">
        <ele>1021</ele>
        <time>2021-05-14T14:50:17Z</time>
      </trkpt>
      <trkpt lat="45.4307" lon="4.62534">
        <ele>1022</ele>
        <time>2021-05-14T14:50:21Z</time>
      </trkpt>
      <trkpt lat="45.43069" lon="4.62527">
        <ele>1022</ele>
        <time>2021-05-14T14:50:24Z</time>
      </trkpt>
      <trkpt lat="45.43071" lon="4.62522">
        <ele>1022</ele>
        <time>2021-05-14T14:50:26Z</time>
      </trkpt>
      <trkpt lat="45.4307" lon="4.62512">
        <ele>1022</ele>
        <time>2021-05-14T14:50:28Z</time>
      </trkpt>
      <trkpt lat="45.4307" lon="4.62504">
        <ele>1022</ele>
        <time>2021-05-14T14:50:31Z</time>
      </trkpt>
      <trkpt lat="45.43064" lon="4.62502">
        <ele>1022</ele>
        <time>2021-05-14T14:50:33Z</time>
      </trkpt>
      <trkpt lat="45.43062" lon="4.62498">
        <ele>1022</ele>
        <time>2021-05-14T14:50:35Z</time>
      </trkpt>
      <trkpt lat="45.43063" lon="4.62489">
        <ele>1022</ele>
        <time>2021-05-14T14:50:38Z</time>
      </trkpt>
      <trkpt lat="45.43059" lon="4.62482">
        <ele>1021</ele>
        <time>2021-05-14T14:50:40Z</time>
      </trkpt>
      <trkpt lat="45.43054" lon="4.6248">
        <ele>1022</ele>
        <time>2021-05-14T14:50:42Z</time>
      </trkpt>
      <trkpt lat="45.43053" lon="4.62473">
        <ele>1022</ele>
        <time>2021-05-14T14:50:44Z</time>
      </trkpt>
      <trkpt lat="45.43052" lon="4.62467">
        <ele>1022</ele>
        <time>2021-05-14T14:50:47Z</time>
      </trkpt>
      <trkpt lat="45.43054" lon="4.62448">
        <ele>1022</ele>
        <time>2021-05-14T14:50:55Z</time>
      </trkpt>
      <trkpt lat="45.43052" lon="4.62432">
        <ele>1022</ele>
        <time>2021-05-14T14:51:02Z</time>
      </trkpt>
      <trkpt lat="45.43042" lon="4.62419">
        <ele>1022</ele>
        <time>2021-05-14T14:51:08Z</time>
      </trkpt>
      <trkpt lat="45.43034" lon="4.62407">
        <ele>1022</ele>
        <time>2021-05-14T14:51:12Z</time>
      </trkpt>
      <trkpt lat="45.43032" lon="4.62388">
        <ele>1022</ele>
        <time>2021-05-14T14:51:17Z</time>
      </trkpt>
      <trkpt lat="45.43025" lon="4.62373">
        <ele>1022</ele>
        <time>2021-05-14T14:51:24Z</time>
      </trkpt>
      <trkpt lat="45.4302" lon="4.62358">
        <ele>1022</ele>
        <time>2021-05-14T14:51:27Z</time>
      </trkpt>
      <trkpt lat="45.43017" lon="4.62348">
        <ele>1021</ele>
        <time>2021-05-14T14:51:30Z</time>
      </trkpt>
      <trkpt lat="45.43013" lon="4.62339">
        <ele>1020</ele>
        <time>2021-05-14T14:51:32Z</time>
      </trkpt>
      <trkpt lat="45.43012" lon="4.62333">
        <ele>1020</ele>
        <time>2021-05-14T14:51:34Z</time>
      </trkpt>
      <trkpt lat="45.43009" lon="4.62326">
        <ele>1019</ele>
        <time>2021-05-14T14:51:36Z</time>
      </trkpt>
      <trkpt lat="45.43008" lon="4.62319">
        <ele>1019</ele>
        <time>2021-05-14T14:51:38Z</time>
      </trkpt>
      <trkpt lat="45.43007" lon="4.62314">
        <ele>1019</ele>
        <time>2021-05-14T14:51:40Z</time>
      </trkpt>
      <trkpt lat="45.43005" lon="4.62308">
        <ele>1019</ele>
        <time>2021-05-14T14:51:42Z</time>
      </trkpt>
      <trkpt lat="45.43002" lon="4.62302">
        <ele>1019</ele>
        <time>2021-05-14T14:51:44Z</time>
      </trkpt>
      <trkpt lat="45.43002" lon="4.62294">
        <ele>1019</ele>
        <time>2021-05-14T14:51:47Z</time>
      </trkpt>
      <trkpt lat="45.43002" lon="4.62285">
        <ele>1019</ele>
        <time>2021-05-14T14:51:50Z</time>
      </trkpt>
      <trkpt lat="45.43" lon="4.62269">
        <ele>1018</ele>
        <time>2021-05-14T14:51:55Z</time>
      </trkpt>
      <trkpt lat="45.42991" lon="4.62247">
        <ele>1018</ele>
        <time>2021-05-14T14:52:02Z</time>
      </trkpt>
      <trkpt lat="45.4299" lon="4.62242">
        <ele>1018</ele>
        <time>2021-05-14T14:52:06Z</time>
      </trkpt>
      <trkpt lat="45.42988" lon="4.62234">
        <ele>1018</ele>
        <time>2021-05-14T14:52:07Z</time>
      </trkpt>
      <trkpt lat="45.42995" lon="4.62221">
        <ele>1017</ele>
        <time>2021-05-14T14:52:13Z</time>
      </trkpt>
      <trkpt lat="45.43001" lon="4.62208">
        <ele>1017</ele>
        <time>2021-05-14T14:52:17Z</time>
      </trkpt>
      <trkpt lat="45.43006" lon="4.62191">
        <ele>1017</ele>
        <time>2021-05-14T14:52:22Z</time>
      </trkpt>
      <trkpt lat="45.43009" lon="4.62176">
        <ele>1017</ele>
        <time>2021-05-14T14:52:26Z</time>
      </trkpt>
      <trkpt lat="45.43005" lon="4.62173">
        <ele>1017</ele>
        <time>2021-05-14T14:52:29Z</time>
      </trkpt>
      <trkpt lat="45.43006" lon="4.62168">
        <ele>1017</ele>
        <time>2021-05-14T14:52:31Z</time>
      </trkpt>
      <trkpt lat="45.43006" lon="4.62163">
        <ele>1017</ele>
        <time>2021-05-14T14:52:33Z</time>
      </trkpt>
      <trkpt lat="45.43002" lon="4.62159">
        <ele>1017</ele>
        <time>2021-05-14T14:52:36Z</time>
      </trkpt>
      <trkpt lat="45.43001" lon="4.62153">
        <ele>1017</ele>
        <time>2021-05-14T14:52:40Z</time>
      </trkpt>
      <trkpt lat="45.42997" lon="4.62149">
        <ele>1018</ele>
        <time>2021-05-14T14:52:42Z</time>
      </trkpt>
      <trkpt lat="45.42995" lon="4.62144">
        <ele>1018</ele>
        <time>2021-05-14T14:52:44Z</time>
      </trkpt>
      <trkpt lat="45.42993" lon="4.62138">
        <ele>1018</ele>
        <time>2021-05-14T14:52:47Z</time>
      </trkpt>
      <trkpt lat="45.4299" lon="4.62135">
        <ele>1018</ele>
        <time>2021-05-14T14:52:49Z</time>
      </trkpt>
      <trkpt lat="45.42987" lon="4.62129">
        <ele>1019</ele>
        <time>2021-05-14T14:52:53Z</time>
      </trkpt>
      <trkpt lat="45.42985" lon="4.62123">
        <ele>1019</ele>
        <time>2021-05-14T14:52:56Z</time>
      </trkpt>
      <trkpt lat="45.42983" lon="4.62105">
        <ele>1018</ele>
        <time>2021-05-14T14:53:03Z</time>
      </trkpt>
      <trkpt lat="45.42979" lon="4.62095">
        <ele>1019</ele>
        <time>2021-05-14T14:53:07Z</time>
      </trkpt>
      <trkpt lat="45.42973" lon="4.6208">
        <ele>1019</ele>
        <time>2021-05-14T14:53:14Z</time>
      </trkpt>
      <trkpt lat="45.42965" lon="4.62065">
        <ele>1020</ele>
        <time>2021-05-14T14:53:20Z</time>
      </trkpt>
      <trkpt lat="45.4296" lon="4.62052">
        <ele>1020</ele>
        <time>2021-05-14T14:53:24Z</time>
      </trkpt>
      <trkpt lat="45.42954" lon="4.62038">
        <ele>1019</ele>
        <time>2021-05-14T14:53:34Z</time>
      </trkpt>
      <trkpt lat="45.42942" lon="4.62028">
        <ele>1020</ele>
        <time>2021-05-14T14:53:40Z</time>
      </trkpt>
      <trkpt lat="45.42933" lon="4.62019">
        <ele>1015</ele>
        <time>2021-05-14T14:53:54Z</time>
      </trkpt>
      <trkpt lat="45.42922" lon="4.62012">
        <ele>1014</ele>
        <time>2021-05-14T14:54:01Z</time>
      </trkpt>
      <trkpt lat="45.42913" lon="4.62">
        <ele>1011</ele>
        <time>2021-05-14T14:54:07Z</time>
      </trkpt>
      <trkpt lat="45.42905" lon="4.6199">
        <ele>1009</ele>
        <time>2021-05-14T14:54:13Z</time>
      </trkpt>
      <trkpt lat="45.42896" lon="4.61981">
        <ele>1006</ele>
        <time>2021-05-14T14:54:18Z</time>
      </trkpt>
      <trkpt lat="45.42888" lon="4.61976">
        <ele>1005</ele>
        <time>2021-05-14T14:54:21Z</time>
      </trkpt>
      <trkpt lat="45.42876" lon="4.61967">
        <ele>1000</ele>
        <time>2021-05-14T14:54:30Z</time>
      </trkpt>
      <trkpt lat="45.42867" lon="4.61958">
        <ele>997</ele>
        <time>2021-05-14T14:54:37Z</time>
      </trkpt>
      <trkpt lat="45.42858" lon="4.61951">
        <ele>991</ele>
        <time>2021-05-14T14:54:49Z</time>
      </trkpt>
      <trkpt lat="45.42848" lon="4.61946">
        <ele>986</ele>
        <time>2021-05-14T14:54:59Z</time>
      </trkpt>
      <trkpt lat="45.42837" lon="4.61945">
        <ele>983</ele>
        <time>2021-05-14T14:55:07Z</time>
      </trkpt>
      <trkpt lat="45.42828" lon="4.61934">
        <ele>980</ele>
        <time>2021-05-14T14:55:18Z</time>
      </trkpt>
      <trkpt lat="45.42816" lon="4.6193">
        <ele>979</ele>
        <time>2021-05-14T14:55:22Z</time>
      </trkpt>
      <trkpt lat="45.42805" lon="4.61927">
        <ele>972</ele>
        <time>2021-05-14T14:55:32Z</time>
      </trkpt>
      <trkpt lat="45.42794" lon="4.61923">
        <ele>972</ele>
        <time>2021-05-14T14:55:35Z</time>
      </trkpt>
      <trkpt lat="45.42784" lon="4.61916">
        <ele>971</ele>
        <time>2021-05-14T14:55:40Z</time>
      </trkpt>
      <trkpt lat="45.42774" lon="4.61908">
        <ele>968</ele>
        <time>2021-05-14T14:55:45Z</time>
      </trkpt>
      <trkpt lat="45.42764" lon="4.61909">
        <ele>966</ele>
        <time>2021-05-14T14:55:56Z</time>
      </trkpt>
      <trkpt lat="45.42757" lon="4.61895">
        <ele>966</ele>
        <time>2021-05-14T14:56:00Z</time>
      </trkpt>
      <trkpt lat="45.42745" lon="4.6189">
        <ele>964</ele>
        <time>2021-05-14T14:56:10Z</time>
      </trkpt>
      <trkpt lat="45.42737" lon="4.61875">
        <ele>963</ele>
        <time>2021-05-14T14:56:15Z</time>
      </trkpt>
      <trkpt lat="45.42724" lon="4.6187">
        <ele>962</ele>
        <time>2021-05-14T14:56:20Z</time>
      </trkpt>
      <trkpt lat="45.42714" lon="4.61863">
        <ele>960</ele>
        <time>2021-05-14T14:56:26Z</time>
      </trkpt>
      <trkpt lat="45.42705" lon="4.61854">
        <ele>957</ele>
        <time>2021-05-14T14:56:33Z</time>
      </trkpt>
      <trkpt lat="45.42695" lon="4.61841">
        <ele>954</ele>
        <time>2021-05-14T14:56:39Z</time>
      </trkpt>
      <trkpt lat="45.42684" lon="4.61828">
        <ele>953</ele>
        <time>2021-05-14T14:56:43Z</time>
      </trkpt>
      <trkpt lat="45.42673" lon="4.61817">
        <ele>951</ele>
        <time>2021-05-14T14:56:48Z</time>
      </trkpt>
      <trkpt lat="45.4266" lon="4.61808">
        <ele>948</ele>
        <time>2021-05-14T14:56:56Z</time>
      </trkpt>
      <trkpt lat="45.42649" lon="4.6181">
        <ele>946</ele>
        <time>2021-05-14T14:57:01Z</time>
      </trkpt>
      <trkpt lat="45.42638" lon="4.61811">
        <ele>945</ele>
        <time>2021-05-14T14:57:07Z</time>
      </trkpt>
      <trkpt lat="45.42626" lon="4.61808">
        <ele>945</ele>
        <time>2021-05-14T14:57:12Z</time>
      </trkpt>
      <trkpt lat="45.42612" lon="4.61808">
        <ele>945</ele>
        <time>2021-05-14T14:57:15Z</time>
      </trkpt>
      <trkpt lat="45.42606" lon="4.61804">
        <ele>945</ele>
        <time>2021-05-14T14:57:17Z</time>
      </trkpt>
      <trkpt lat="45.42601" lon="4.61799">
        <ele>944</ele>
        <time>2021-05-14T14:57:19Z</time>
      </trkpt>
      <trkpt lat="45.42597" lon="4.61796">
        <ele>944</ele>
        <time>2021-05-14T14:57:23Z</time>
      </trkpt>
      <trkpt lat="45.42591" lon="4.61794">
        <ele>943</ele>
        <time>2021-05-14T14:57:25Z</time>
      </trkpt>
      <trkpt lat="45.42584" lon="4.61791">
        <ele>942</ele>
        <time>2021-05-14T14:57:27Z</time>
      </trkpt>
      <trkpt lat="45.42578" lon="4.61789">
        <ele>942</ele>
        <time>2021-05-14T14:57:28Z</time>
      </trkpt>
      <trkpt lat="45.42574" lon="4.61788">
        <ele>942</ele>
        <time>2021-05-14T14:57:29Z</time>
      </trkpt>
      <trkpt lat="45.42567" lon="4.61786">
        <ele>942</ele>
        <time>2021-05-14T14:57:31Z</time>
      </trkpt>
      <trkpt lat="45.42564" lon="4.61784">
        <ele>942</ele>
        <time>2021-05-14T14:57:32Z</time>
      </trkpt>
      <trkpt lat="45.4256" lon="4.61781">
        <ele>942</ele>
        <time>2021-05-14T14:57:33Z</time>
      </trkpt>
      <trkpt lat="45.42555" lon="4.61778">
        <ele>942</ele>
        <time>2021-05-14T14:57:34Z</time>
      </trkpt>
      <trkpt lat="45.4255" lon="4.61777">
        <ele>943</ele>
        <time>2021-05-14T14:57:36Z</time>
      </trkpt>
      <trkpt lat="45.42545" lon="4.61775">
        <ele>944</ele>
        <time>2021-05-14T14:57:38Z</time>
      </trkpt>
      <trkpt lat="45.4254" lon="4.61772">
        <ele>945</ele>
        <time>2021-05-14T14:57:40Z</time>
      </trkpt>
      <trkpt lat="45.42535" lon="4.61769">
        <ele>945</ele>
        <time>2021-05-14T14:57:42Z</time>
      </trkpt>
      <trkpt lat="45.4253" lon="4.61767">
        <ele>945</ele>
        <time>2021-05-14T14:57:44Z</time>
      </trkpt>
      <trkpt lat="45.42525" lon="4.61765">
        <ele>943</ele>
        <time>2021-05-14T14:57:46Z</time>
      </trkpt>
      <trkpt lat="45.42521" lon="4.61764">
        <ele>944</ele>
        <time>2021-05-14T14:57:47Z</time>
      </trkpt>
      <trkpt lat="45.42517" lon="4.61763">
        <ele>944</ele>
        <time>2021-05-14T14:57:48Z</time>
      </trkpt>
      <trkpt lat="45.4251" lon="4.61761">
        <ele>944</ele>
        <time>2021-05-14T14:57:50Z</time>
      </trkpt>
      <trkpt lat="45.42507" lon="4.61762">
        <ele>944</ele>
        <time>2021-05-14T14:57:51Z</time>
      </trkpt>
      <trkpt lat="45.42501" lon="4.6176">
        <ele>945</ele>
        <time>2021-05-14T14:57:53Z</time>
      </trkpt>
      <trkpt lat="45.42494" lon="4.61757">
        <ele>945</ele>
        <time>2021-05-14T14:57:55Z</time>
      </trkpt>
      <trkpt lat="45.4249" lon="4.61756">
        <ele>945</ele>
        <time>2021-05-14T14:57:56Z</time>
      </trkpt>
      <trkpt lat="45.42485" lon="4.61753">
        <ele>946</ele>
        <time>2021-05-14T14:57:58Z</time>
      </trkpt>
      <trkpt lat="45.4248" lon="4.6175">
        <ele>946</ele>
        <time>2021-05-14T14:58:00Z</time>
      </trkpt>
      <trkpt lat="45.42475" lon="4.61747">
        <ele>947</ele>
        <time>2021-05-14T14:58:02Z</time>
      </trkpt>
      <trkpt lat="45.42469" lon="4.61743">
        <ele>947</ele>
        <time>2021-05-14T14:58:04Z</time>
      </trkpt>
      <trkpt lat="45.42465" lon="4.61739">
        <ele>948</ele>
        <time>2021-05-14T14:58:05Z</time>
      </trkpt>
      <trkpt lat="45.4246" lon="4.61735">
        <ele>948</ele>
        <time>2021-05-14T14:58:07Z</time>
      </trkpt>
      <trkpt lat="45.42455" lon="4.61732">
        <ele>948</ele>
        <time>2021-05-14T14:58:09Z</time>
      </trkpt>
      <trkpt lat="45.42452" lon="4.61731">
        <ele>949</ele>
        <time>2021-05-14T14:58:11Z</time>
      </trkpt>
      <trkpt lat="45.42447" lon="4.61729">
        <ele>949</ele>
        <time>2021-05-14T14:58:13Z</time>
      </trkpt>
      <trkpt lat="45.42441" lon="4.61727">
        <ele>949</ele>
        <time>2021-05-14T14:58:15Z</time>
      </trkpt>
      <trkpt lat="45.42437" lon="4.61725">
        <ele>950</ele>
        <time>2021-05-14T14:58:17Z</time>
      </trkpt>
      <trkpt lat="45.42433" lon="4.61723">
        <ele>951</ele>
        <time>2021-05-14T14:58:19Z</time>
      </trkpt>
      <trkpt lat="45.4243" lon="4.6172">
        <ele>951</ele>
        <time>2021-05-14T14:58:21Z</time>
      </trkpt>
      <trkpt lat="45.42427" lon="4.61716">
        <ele>952</ele>
        <time>2021-05-14T14:58:23Z</time>
      </trkpt>
      <trkpt lat="45.42423" lon="4.61712">
        <ele>952</ele>
        <time>2021-05-14T14:58:27Z</time>
      </trkpt>
      <trkpt lat="45.42419" lon="4.61709">
        <ele>953</ele>
        <time>2021-05-14T14:58:31Z</time>
      </trkpt>
      <trkpt lat="45.42416" lon="4.61706">
        <ele>953</ele>
        <time>2021-05-14T14:58:35Z</time>
      </trkpt>
      <trkpt lat="45.42412" lon="4.61704">
        <ele>954</ele>
        <time>2021-05-14T14:58:41Z</time>
      </trkpt>
      <trkpt lat="45.42409" lon="4.61701">
        <ele>955</ele>
        <time>2021-05-14T14:58:45Z</time>
      </trkpt>
      <trkpt lat="45.42406" lon="4.61698">
        <ele>955</ele>
        <time>2021-05-14T14:58:50Z</time>
      </trkpt>
      <trkpt lat="45.42401" lon="4.61697">
        <ele>955</ele>
        <time>2021-05-14T14:58:54Z</time>
      </trkpt>
      <trkpt lat="45.42398" lon="4.61695">
        <ele>957</ele>
        <time>2021-05-14T14:58:57Z</time>
      </trkpt>
      <trkpt lat="45.42394" lon="4.61695">
        <ele>957</ele>
        <time>2021-05-14T14:59:00Z</time>
      </trkpt>
      <trkpt lat="45.4239" lon="4.61695">
        <ele>957</ele>
        <time>2021-05-14T14:59:05Z</time>
      </trkpt>
      <trkpt lat="45.42387" lon="4.61694">
        <ele>958</ele>
        <time>2021-05-14T14:59:11Z</time>
      </trkpt>
      <trkpt lat="45.42383" lon="4.61696">
        <ele>960</ele>
        <time>2021-05-14T14:59:17Z</time>
      </trkpt>
      <trkpt lat="45.42379" lon="4.61698">
        <ele>960</ele>
        <time>2021-05-14T14:59:21Z</time>
      </trkpt>
      <trkpt lat="45.42375" lon="4.617">
        <ele>960</ele>
        <time>2021-05-14T14:59:27Z</time>
      </trkpt>
      <trkpt lat="45.42372" lon="4.617">
        <ele>961</ele>
        <time>2021-05-14T14:59:29Z</time>
      </trkpt>
      <trkpt lat="45.42367" lon="4.617">
        <ele>961</ele>
        <time>2021-05-14T14:59:34Z</time>
      </trkpt>
      <trkpt lat="45.42364" lon="4.617">
        <ele>963</ele>
        <time>2021-05-14T14:59:40Z</time>
      </trkpt>
      <trkpt lat="45.4236" lon="4.61699">
        <ele>964</ele>
        <time>2021-05-14T14:59:48Z</time>
      </trkpt>
      <trkpt lat="45.42357" lon="4.61697">
        <ele>965</ele>
        <time>2021-05-14T14:59:52Z</time>
      </trkpt>
      <trkpt lat="45.42353" lon="4.61696">
        <ele>966</ele>
        <time>2021-05-14T14:59:56Z</time>
      </trkpt>
      <trkpt lat="45.42349" lon="4.61697">
        <ele>968</ele>
        <time>2021-05-14T15:00:03Z</time>
      </trkpt>
      <trkpt lat="45.42346" lon="4.61698">
        <ele>969</ele>
        <time>2021-05-14T15:00:08Z</time>
      </trkpt>
      <trkpt lat="45.42343" lon="4.617">
        <ele>971</ele>
        <time>2021-05-14T15:00:14Z</time>
      </trkpt>
      <trkpt lat="45.42339" lon="4.61701">
        <ele>972</ele>
        <time>2021-05-14T15:00:19Z</time>
      </trkpt>
      <trkpt lat="45.42335" lon="4.61702">
        <ele>973</ele>
        <time>2021-05-14T15:00:23Z</time>
      </trkpt>
      <trkpt lat="45.42331" lon="4.61702">
        <ele>974</ele>
        <time>2021-05-14T15:00:27Z</time>
      </trkpt>
      <trkpt lat="45.42328" lon="4.61703">
        <ele>974</ele>
        <time>2021-05-14T15:00:31Z</time>
      </trkpt>
      <trkpt lat="45.42324" lon="4.61701">
        <ele>976</ele>
        <time>2021-05-14T15:00:38Z</time>
      </trkpt>
      <trkpt lat="45.42319" lon="4.61701">
        <ele>976</ele>
        <time>2021-05-14T15:00:44Z</time>
      </trkpt>
      <trkpt lat="45.42316" lon="4.61701">
        <ele>978</ele>
        <time>2021-05-14T15:00:51Z</time>
      </trkpt>
      <trkpt lat="45.42313" lon="4.61706">
        <ele>979</ele>
        <time>2021-05-14T15:00:57Z</time>
      </trkpt>
      <trkpt lat="45.42309" lon="4.61708">
        <ele>979</ele>
        <time>2021-05-14T15:01:01Z</time>
      </trkpt>
      <trkpt lat="45.42306" lon="4.6171">
        <ele>980</ele>
        <time>2021-05-14T15:01:06Z</time>
      </trkpt>
      <trkpt lat="45.42302" lon="4.6171">
        <ele>981</ele>
        <time>2021-05-14T15:01:15Z</time>
      </trkpt>
      <trkpt lat="45.42299" lon="4.61712">
        <ele>983</ele>
        <time>2021-05-14T15:01:19Z</time>
      </trkpt>
      <trkpt lat="45.42295" lon="4.61713">
        <ele>983</ele>
        <time>2021-05-14T15:01:23Z</time>
      </trkpt>
      <trkpt lat="45.42291" lon="4.61714">
        <ele>985</ele>
        <time>2021-05-14T15:01:28Z</time>
      </trkpt>
      <trkpt lat="45.42287" lon="4.61715">
        <ele>986</ele>
        <time>2021-05-14T15:01:35Z</time>
      </trkpt>
      <trkpt lat="45.42283" lon="4.61716">
        <ele>987</ele>
        <time>2021-05-14T15:01:40Z</time>
      </trkpt>
      <trkpt lat="45.4228" lon="4.61716">
        <ele>988</ele>
        <time>2021-05-14T15:01:45Z</time>
      </trkpt>
      <trkpt lat="45.42276" lon="4.61715">
        <ele>989</ele>
        <time>2021-05-14T15:01:52Z</time>
      </trkpt>
      <trkpt lat="45.42272" lon="4.61718">
        <ele>991</ele>
        <time>2021-05-14T15:01:57Z</time>
      </trkpt>
      <trkpt lat="45.42268" lon="4.61721">
        <ele>992</ele>
        <time>2021-05-14T15:02:02Z</time>
      </trkpt>
      <trkpt lat="45.42264" lon="4.61722">
        <ele>993</ele>
        <time>2021-05-14T15:02:06Z</time>
      </trkpt>
      <trkpt lat="45.4226" lon="4.61724">
        <ele>994</ele>
        <time>2021-05-14T15:02:11Z</time>
      </trkpt>
      <trkpt lat="45.42257" lon="4.61725">
        <ele>995</ele>
        <time>2021-05-14T15:02:15Z</time>
      </trkpt>
      <trkpt lat="45.42252" lon="4.61727">
        <ele>995</ele>
        <time>2021-05-14T15:02:20Z</time>
      </trkpt>
      <trkpt lat="45.42249" lon="4.61729">
        <ele>996</ele>
        <time>2021-05-14T15:02:25Z</time>
      </trkpt>
      <trkpt lat="45.42245" lon="4.61731">
        <ele>998</ele>
        <time>2021-05-14T15:02:36Z</time>
      </trkpt>
      <trkpt lat="45.42241" lon="4.61732">
        <ele>998</ele>
        <time>2021-05-14T15:02:39Z</time>
      </trkpt>
      <trkpt lat="45.42237" lon="4.61732">
        <ele>1000</ele>
        <time>2021-05-14T15:02:42Z</time>
      </trkpt>
      <trkpt lat="45.42234" lon="4.61735">
        <ele>1000</ele>
        <time>2021-05-14T15:02:46Z</time>
      </trkpt>
      <trkpt lat="45.42231" lon="4.61738">
        <ele>1000</ele>
        <time>2021-05-14T15:02:50Z</time>
      </trkpt>
      <trkpt lat="45.42228" lon="4.6174">
        <ele>1000</ele>
        <time>2021-05-14T15:02:54Z</time>
      </trkpt>
      <trkpt lat="45.42224" lon="4.61744">
        <ele>1001</ele>
        <time>2021-05-14T15:02:58Z</time>
      </trkpt>
      <trkpt lat="45.42221" lon="4.61747">
        <ele>1002</ele>
        <time>2021-05-14T15:03:02Z</time>
      </trkpt>
      <trkpt lat="45.42218" lon="4.6175">
        <ele>1003</ele>
        <time>2021-05-14T15:03:05Z</time>
      </trkpt>
      <trkpt lat="45.42214" lon="4.61752">
        <ele>1004</ele>
        <time>2021-05-14T15:03:08Z</time>
      </trkpt>
      <trkpt lat="45.42211" lon="4.61755">
        <ele>1004</ele>
        <time>2021-05-14T15:03:12Z</time>
      </trkpt>
      <trkpt lat="45.42207" lon="4.61757">
        <ele>1004</ele>
        <time>2021-05-14T15:03:16Z</time>
      </trkpt>
      <trkpt lat="45.42203" lon="4.61759">
        <ele>1005</ele>
        <time>2021-05-14T15:03:21Z</time>
      </trkpt>
      <trkpt lat="45.42199" lon="4.61761">
        <ele>1005</ele>
        <time>2021-05-14T15:03:24Z</time>
      </trkpt>
      <trkpt lat="45.42195" lon="4.61764">
        <ele>1006</ele>
        <time>2021-05-14T15:03:27Z</time>
      </trkpt>
      <trkpt lat="45.42191" lon="4.61767">
        <ele>1007</ele>
        <time>2021-05-14T15:03:30Z</time>
      </trkpt>
      <trkpt lat="45.42186" lon="4.61768">
        <ele>1007</ele>
        <time>2021-05-14T15:03:33Z</time>
      </trkpt>
      <trkpt lat="45.42182" lon="4.61771">
        <ele>1008</ele>
        <time>2021-05-14T15:03:37Z</time>
      </trkpt>
      <trkpt lat="45.42178" lon="4.61774">
        <ele>1008</ele>
        <time>2021-05-14T15:03:41Z</time>
      </trkpt>
      <trkpt lat="45.42175" lon="4.61777">
        <ele>1008</ele>
        <time>2021-05-14T15:03:44Z</time>
      </trkpt>
      <trkpt lat="45.42171" lon="4.61779">
        <ele>1009</ele>
        <time>2021-05-14T15:03:47Z</time>
      </trkpt>
      <trkpt lat="45.42167" lon="4.61782">
        <ele>1009</ele>
        <time>2021-05-14T15:03:50Z</time>
      </trkpt>
      <trkpt lat="45.42163" lon="4.61784">
        <ele>1009</ele>
        <time>2021-05-14T15:03:54Z</time>
      </trkpt>
      <trkpt lat="45.4216" lon="4.61788">
        <ele>1009</ele>
        <time>2021-05-14T15:03:58Z</time>
      </trkpt>
      <trkpt lat="45.42156" lon="4.6179">
        <ele>1010</ele>
        <time>2021-05-14T15:04:01Z</time>
      </trkpt>
      <trkpt lat="45.42152" lon="4.61793">
        <ele>1011</ele>
        <time>2021-05-14T15:04:04Z</time>
      </trkpt>
      <trkpt lat="45.42149" lon="4.61796">
        <ele>1012</ele>
        <time>2021-05-14T15:04:07Z</time>
      </trkpt>
      <trkpt lat="45.42145" lon="4.61799">
        <ele>1012</ele>
        <time>2021-05-14T15:04:20Z</time>
      </trkpt>
      <trkpt lat="45.42141" lon="4.61801">
        <ele>1012</ele>
        <time>2021-05-14T15:04:24Z</time>
      </trkpt>
      <trkpt lat="45.42137" lon="4.61802">
        <ele>1014</ele>
        <time>2021-05-14T15:04:31Z</time>
      </trkpt>
      <trkpt lat="45.42134" lon="4.61803">
        <ele>1014</ele>
        <time>2021-05-14T15:04:34Z</time>
      </trkpt>
      <trkpt lat="45.4213" lon="4.61804">
        <ele>1013</ele>
        <time>2021-05-14T15:04:37Z</time>
      </trkpt>
      <trkpt lat="45.42127" lon="4.61805">
        <ele>1015</ele>
        <time>2021-05-14T15:04:40Z</time>
      </trkpt>
      <trkpt lat="45.42123" lon="4.61806">
        <ele>1015</ele>
        <time>2021-05-14T15:04:44Z</time>
      </trkpt>
      <trkpt lat="45.42119" lon="4.61809">
        <ele>1016</ele>
        <time>2021-05-14T15:04:48Z</time>
      </trkpt>
      <trkpt lat="45.42115" lon="4.61811">
        <ele>1017</ele>
        <time>2021-05-14T15:04:52Z</time>
      </trkpt>
      <trkpt lat="45.42111" lon="4.61815">
        <ele>1018</ele>
        <time>2021-05-14T15:04:56Z</time>
      </trkpt>
      <trkpt lat="45.42108" lon="4.61817">
        <ele>1019</ele>
        <time>2021-05-14T15:05:00Z</time>
      </trkpt>
      <trkpt lat="45.42105" lon="4.6182">
        <ele>1020</ele>
        <time>2021-05-14T15:05:04Z</time>
      </trkpt>
      <trkpt lat="45.42101" lon="4.61822">
        <ele>1020</ele>
        <time>2021-05-14T15:05:08Z</time>
      </trkpt>
      <trkpt lat="45.42097" lon="4.61825">
        <ele>1020</ele>
        <time>2021-05-14T15:05:12Z</time>
      </trkpt>
      <trkpt lat="45.42094" lon="4.61828">
        <ele>1021</ele>
        <time>2021-05-14T15:05:15Z</time>
      </trkpt>
      <trkpt lat="45.4209" lon="4.61832">
        <ele>1021</ele>
        <time>2021-05-14T15:05:19Z</time>
      </trkpt>
      <trkpt lat="45.42087" lon="4.61835">
        <ele>1021</ele>
        <time>2021-05-14T15:05:22Z</time>
      </trkpt>
      <trkpt lat="45.42082" lon="4.6184">
        <ele>1021</ele>
        <time>2021-05-14T15:05:26Z</time>
      </trkpt>
      <trkpt lat="45.42079" lon="4.61844">
        <ele>1021</ele>
        <time>2021-05-14T15:05:29Z</time>
      </trkpt>
      <trkpt lat="45.42076" lon="4.61847">
        <ele>1021</ele>
        <time>2021-05-14T15:05:32Z</time>
      </trkpt>
      <trkpt lat="45.42073" lon="4.61851">
        <ele>1021</ele>
        <time>2021-05-14T15:05:35Z</time>
      </trkpt>
      <trkpt lat="45.42069" lon="4.61853">
        <ele>1021</ele>
        <time>2021-05-14T15:05:38Z</time>
      </trkpt>
      <trkpt lat="45.42065" lon="4.61856">
        <ele>1021</ele>
        <time>2021-05-14T15:05:41Z</time>
      </trkpt>
      <trkpt lat="45.42062" lon="4.6186">
        <ele>1021</ele>
        <time>2021-05-14T15:05:44Z</time>
      </trkpt>
      <trkpt lat="45.42057" lon="4.61862">
        <ele>1021</ele>
        <time>2021-05-14T15:05:47Z</time>
      </trkpt>
      <trkpt lat="45.42054" lon="4.61865">
        <ele>1021</ele>
        <time>2021-05-14T15:05:50Z</time>
      </trkpt>
      <trkpt lat="45.42051" lon="4.61869">
        <ele>1021</ele>
        <time>2021-05-14T15:05:53Z</time>
      </trkpt>
      <trkpt lat="45.42047" lon="4.61871">
        <ele>1021</ele>
        <time>2021-05-14T15:05:56Z</time>
      </trkpt>
      <trkpt lat="45.42042" lon="4.61874">
        <ele>1021</ele>
        <time>2021-05-14T15:05:59Z</time>
      </trkpt>
      <trkpt lat="45.42039" lon="4.61877">
        <ele>1023</ele>
        <time>2021-05-14T15:06:02Z</time>
      </trkpt>
      <trkpt lat="45.42035" lon="4.6188">
        <ele>1023</ele>
        <time>2021-05-14T15:06:05Z</time>
      </trkpt>
      <trkpt lat="45.42031" lon="4.61882">
        <ele>1024</ele>
        <time>2021-05-14T15:06:08Z</time>
      </trkpt>
      <trkpt lat="45.42027" lon="4.61885">
        <ele>1024</ele>
        <time>2021-05-14T15:06:11Z</time>
      </trkpt>
      <trkpt lat="45.42023" lon="4.61887">
        <ele>1024</ele>
        <time>2021-05-14T15:06:14Z</time>
      </trkpt>
      <trkpt lat="45.42019" lon="4.6189">
        <ele>1024</ele>
        <time>2021-05-14T15:06:17Z</time>
      </trkpt>
      <trkpt lat="45.42016" lon="4.61892">
        <ele>1024</ele>
        <time>2021-05-14T15:06:19Z</time>
      </trkpt>
      <trkpt lat="45.42012" lon="4.61896">
        <ele>1024</ele>
        <time>2021-05-14T15:06:22Z</time>
      </trkpt>
      <trkpt lat="45.42009" lon="4.61899">
        <ele>1024</ele>
        <time>2021-05-14T15:06:25Z</time>
      </trkpt>
      <trkpt lat="45.42005" lon="4.61903">
        <ele>1024</ele>
        <time>2021-05-14T15:06:42Z</time>
      </trkpt>
      <trkpt lat="45.42002" lon="4.61906">
        <ele>1023</ele>
        <time>2021-05-14T15:06:50Z</time>
      </trkpt>
      <trkpt lat="45.41998" lon="4.6191">
        <ele>1024</ele>
        <time>2021-05-14T15:06:53Z</time>
      </trkpt>
      <trkpt lat="45.41995" lon="4.61913">
        <ele>1024</ele>
        <time>2021-05-14T15:06:56Z</time>
      </trkpt>
      <trkpt lat="45.41992" lon="4.61916">
        <ele>1024</ele>
        <time>2021-05-14T15:07:00Z</time>
      </trkpt>
      <trkpt lat="45.41988" lon="4.61917">
        <ele>1023</ele>
        <time>2021-05-14T15:07:04Z</time>
      </trkpt>
      <trkpt lat="45.41984" lon="4.6192">
        <ele>1024</ele>
        <time>2021-05-14T15:07:06Z</time>
      </trkpt>
      <trkpt lat="45.41981" lon="4.61922">
        <ele>1024</ele>
        <time>2021-05-14T15:07:08Z</time>
      </trkpt>
      <trkpt lat="45.41978" lon="4.61925">
        <ele>1023</ele>
        <time>2021-05-14T15:07:10Z</time>
      </trkpt>
      <trkpt lat="45.41974" lon="4.61927">
        <ele>1023</ele>
        <time>2021-05-14T15:07:12Z</time>
      </trkpt>
      <trkpt lat="45.41971" lon="4.61929">
        <ele>1024</ele>
        <time>2021-05-14T15:07:14Z</time>
      </trkpt>
      <trkpt lat="45.41967" lon="4.61931">
        <ele>1024</ele>
        <time>2021-05-14T15:07:16Z</time>
      </trkpt>
      <trkpt lat="45.41962" lon="4.61933">
        <ele>1024</ele>
        <time>2021-05-14T15:07:19Z</time>
      </trkpt>
      <trkpt lat="45.41957" lon="4.61935">
        <ele>1023</ele>
        <time>2021-05-14T15:07:22Z</time>
      </trkpt>
      <trkpt lat="45.41952" lon="4.61936">
        <ele>1023</ele>
        <time>2021-05-14T15:07:24Z</time>
      </trkpt>
      <trkpt lat="45.41948" lon="4.61937">
        <ele>1023</ele>
        <time>2021-05-14T15:07:28Z</time>
      </trkpt>
      <trkpt lat="45.41943" lon="4.61937">
        <ele>1023</ele>
        <time>2021-05-14T15:07:31Z</time>
      </trkpt>
      <trkpt lat="45.41939" lon="4.61937">
        <ele>1024</ele>
        <time>2021-05-14T15:07:33Z</time>
      </trkpt>
      <trkpt lat="45.41934" lon="4.61936">
        <ele>1024</ele>
        <time>2021-05-14T15:07:36Z</time>
      </trkpt>
      <trkpt lat="45.41929" lon="4.61935">
        <ele>1025</ele>
        <time>2021-05-14T15:07:38Z</time>
      </trkpt>
      <trkpt lat="45.41924" lon="4.61934">
        <ele>1025</ele>
        <time>2021-05-14T15:07:40Z</time>
      </trkpt>
      <trkpt lat="45.41919" lon="4.61934">
        <ele>1025</ele>
        <time>2021-05-14T15:07:41Z</time>
      </trkpt>
      <trkpt lat="45.41915" lon="4.61935">
        <ele>1025</ele>
        <time>2021-05-14T15:07:44Z</time>
      </trkpt>
      <trkpt lat="45.41911" lon="4.61936">
        <ele>1025</ele>
        <time>2021-05-14T15:07:46Z</time>
      </trkpt>
      <trkpt lat="45.41906" lon="4.61938">
        <ele>1025</ele>
        <time>2021-05-14T15:07:48Z</time>
      </trkpt>
      <trkpt lat="45.41902" lon="4.61939">
        <ele>1026</ele>
        <time>2021-05-14T15:07:50Z</time>
      </trkpt>
      <trkpt lat="45.41897" lon="4.61938">
        <ele>1026</ele>
        <time>2021-05-14T15:07:53Z</time>
      </trkpt>
      <trkpt lat="45.41892" lon="4.61939">
        <ele>1027</ele>
        <time>2021-05-14T15:07:56Z</time>
      </trkpt>
      <trkpt lat="45.41888" lon="4.6194">
        <ele>1027</ele>
        <time>2021-05-14T15:07:58Z</time>
      </trkpt>
      <trkpt lat="45.41883" lon="4.61941">
        <ele>1027</ele>
        <time>2021-05-14T15:08:00Z</time>
      </trkpt>
      <trkpt lat="45.41879" lon="4.61941">
        <ele>1027</ele>
        <time>2021-05-14T15:08:03Z</time>
      </trkpt>
      <trkpt lat="45.41875" lon="4.61942">
        <ele>1027</ele>
        <time>2021-05-14T15:08:06Z</time>
      </trkpt>
      <trkpt lat="45.41871" lon="4.61944">
        <ele>1027</ele>
        <time>2021-05-14T15:08:08Z</time>
      </trkpt>
      <trkpt lat="45.41867" lon="4.61945">
        <ele>1027</ele>
        <time>2021-05-14T15:08:11Z</time>
      </trkpt>
      <trkpt lat="45.41862" lon="4.61946">
        <ele>1027</ele>
        <time>2021-05-14T15:08:13Z</time>
      </trkpt>
      <trkpt lat="45.41858" lon="4.61946">
        <ele>1027</ele>
        <time>2021-05-14T15:08:16Z</time>
      </trkpt>
      <trkpt lat="45.41851" lon="4.61946">
        <ele>1028</ele>
        <time>2021-05-14T15:08:20Z</time>
      </trkpt>
      <trkpt lat="45.41846" lon="4.61945">
        <ele>1028</ele>
        <time>2021-05-14T15:08:23Z</time>
      </trkpt>
      <trkpt lat="45.41841" lon="4.61945">
        <ele>1028</ele>
        <time>2021-05-14T15:08:26Z</time>
      </trkpt>
      <trkpt lat="45.41838" lon="4.61944">
        <ele>1028</ele>
        <time>2021-05-14T15:08:29Z</time>
      </trkpt>
      <trkpt lat="45.41833" lon="4.61942">
        <ele>1028</ele>
        <time>2021-05-14T15:08:33Z</time>
      </trkpt>
      <trkpt lat="45.41829" lon="4.6194">
        <ele>1029</ele>
        <time>2021-05-14T15:08:36Z</time>
      </trkpt>
      <trkpt lat="45.41824" lon="4.61939">
        <ele>1029</ele>
        <time>2021-05-14T15:08:39Z</time>
      </trkpt>
      <trkpt lat="45.4182" lon="4.61937">
        <ele>1029</ele>
        <time>2021-05-14T15:08:42Z</time>
      </trkpt>
      <trkpt lat="45.41815" lon="4.61935">
        <ele>1029</ele>
        <time>2021-05-14T15:08:45Z</time>
      </trkpt>
      <trkpt lat="45.4181" lon="4.61935">
        <ele>1029</ele>
        <time>2021-05-14T15:08:48Z</time>
      </trkpt>
      <trkpt lat="45.41805" lon="4.61935">
        <ele>1030</ele>
        <time>2021-05-14T15:08:51Z</time>
      </trkpt>
      <trkpt lat="45.41801" lon="4.61934">
        <ele>1030</ele>
        <time>2021-05-14T15:08:53Z</time>
      </trkpt>
      <trkpt lat="45.41796" lon="4.61934">
        <ele>1030</ele>
        <time>2021-05-14T15:08:56Z</time>
      </trkpt>
      <trkpt lat="45.41791" lon="4.61934">
        <ele>1030</ele>
        <time>2021-05-14T15:08:59Z</time>
      </trkpt>
      <trkpt lat="45.41786" lon="4.61934">
        <ele>1030</ele>
        <time>2021-05-14T15:09:02Z</time>
      </trkpt>
      <trkpt lat="45.41782" lon="4.61933">
        <ele>1030</ele>
        <time>2021-05-14T15:09:04Z</time>
      </trkpt>
      <trkpt lat="45.41777" lon="4.61933">
        <ele>1030</ele>
        <time>2021-05-14T15:09:07Z</time>
      </trkpt>
      <trkpt lat="45.41774" lon="4.61932">
        <ele>1030</ele>
        <time>2021-05-14T15:09:09Z</time>
      </trkpt>
      <trkpt lat="45.41768" lon="4.61932">
        <ele>1031</ele>
        <time>2021-05-14T15:09:12Z</time>
      </trkpt>
      <trkpt lat="45.41764" lon="4.61934">
        <ele>1031</ele>
        <time>2021-05-14T15:09:15Z</time>
      </trkpt>
      <trkpt lat="45.41761" lon="4.61935">
        <ele>1032</ele>
        <time>2021-05-14T15:09:17Z</time>
      </trkpt>
      <trkpt lat="45.41757" lon="4.61935">
        <ele>1031</ele>
        <time>2021-05-14T15:09:20Z</time>
      </trkpt>
      <trkpt lat="45.41753" lon="4.61935">
        <ele>1032</ele>
        <time>2021-05-14T15:09:23Z</time>
      </trkpt>
      <trkpt lat="45.41748" lon="4.61936">
        <ele>1032</ele>
        <time>2021-05-14T15:09:26Z</time>
      </trkpt>
      <trkpt lat="45.41743" lon="4.61937">
        <ele>1032</ele>
        <time>2021-05-14T15:09:29Z</time>
      </trkpt>
      <trkpt lat="45.41738" lon="4.61936">
        <ele>1033</ele>
        <time>2021-05-14T15:09:32Z</time>
      </trkpt>
      <trkpt lat="45.41734" lon="4.61935">
        <ele>1033</ele>
        <time>2021-05-14T15:09:35Z</time>
      </trkpt>
      <trkpt lat="45.41729" lon="4.61936">
        <ele>1034</ele>
        <time>2021-05-14T15:09:38Z</time>
      </trkpt>
      <trkpt lat="45.41725" lon="4.61936">
        <ele>1033</ele>
        <time>2021-05-14T15:09:41Z</time>
      </trkpt>
      <trkpt lat="45.41721" lon="4.61936">
        <ele>1034</ele>
        <time>2021-05-14T15:09:43Z</time>
      </trkpt>
      <trkpt lat="45.41716" lon="4.61937">
        <ele>1034</ele>
        <time>2021-05-14T15:09:46Z</time>
      </trkpt>
      <trkpt lat="45.41712" lon="4.61936">
        <ele>1034</ele>
        <time>2021-05-14T15:09:49Z</time>
      </trkpt>
      <trkpt lat="45.41708" lon="4.61935">
        <ele>1036</ele>
        <time>2021-05-14T15:09:52Z</time>
      </trkpt>
      <trkpt lat="45.41703" lon="4.61934">
        <ele>1036</ele>
        <time>2021-05-14T15:09:55Z</time>
      </trkpt>
      <trkpt lat="45.41699" lon="4.61935">
        <ele>1036</ele>
        <time>2021-05-14T15:09:58Z</time>
      </trkpt>
      <trkpt lat="45.41695" lon="4.61936">
        <ele>1036</ele>
        <time>2021-05-14T15:10:00Z</time>
      </trkpt>
      <trkpt lat="45.41691" lon="4.61937">
        <ele>1036</ele>
        <time>2021-05-14T15:10:04Z</time>
      </trkpt>
      <trkpt lat="45.41686" lon="4.61937">
        <ele>1037</ele>
        <time>2021-05-14T15:10:07Z</time>
      </trkpt>
      <trkpt lat="45.41683" lon="4.61937">
        <ele>1036</ele>
        <time>2021-05-14T15:10:10Z</time>
      </trkpt>
      <trkpt lat="45.41678" lon="4.61938">
        <ele>1036</ele>
        <time>2021-05-14T15:10:13Z</time>
      </trkpt>
      <trkpt lat="45.41674" lon="4.6194">
        <ele>1036</ele>
        <time>2021-05-14T15:10:17Z</time>
      </trkpt>
      <trkpt lat="45.41669" lon="4.61941">
        <ele>1037</ele>
        <time>2021-05-14T15:10:20Z</time>
      </trkpt>
      <trkpt lat="45.41665" lon="4.61942">
        <ele>1037</ele>
        <time>2021-05-14T15:10:23Z</time>
      </trkpt>
      <trkpt lat="45.4166" lon="4.61943">
        <ele>1038</ele>
        <time>2021-05-14T15:10:27Z</time>
      </trkpt>
      <trkpt lat="45.41656" lon="4.61945">
        <ele>1038</ele>
        <time>2021-05-14T15:10:30Z</time>
      </trkpt>
      <trkpt lat="45.41652" lon="4.61947">
        <ele>1038</ele>
        <time>2021-05-14T15:10:33Z</time>
      </trkpt>
      <trkpt lat="45.41646" lon="4.61949">
        <ele>1038</ele>
        <time>2021-05-14T15:10:36Z</time>
      </trkpt>
      <trkpt lat="45.41643" lon="4.61949">
        <ele>1038</ele>
        <time>2021-05-14T15:10:38Z</time>
      </trkpt>
      <trkpt lat="45.41639" lon="4.61951">
        <ele>1038</ele>
        <time>2021-05-14T15:10:40Z</time>
      </trkpt>
      <trkpt lat="45.41634" lon="4.61952">
        <ele>1038</ele>
        <time>2021-05-14T15:10:43Z</time>
      </trkpt>
      <trkpt lat="45.41629" lon="4.61953">
        <ele>1038</ele>
        <time>2021-05-14T15:10:46Z</time>
      </trkpt>
      <trkpt lat="45.41624" lon="4.61954">
        <ele>1039</ele>
        <time>2021-05-14T15:10:49Z</time>
      </trkpt>
      <trkpt lat="45.4162" lon="4.61956">
        <ele>1039</ele>
        <time>2021-05-14T15:10:51Z</time>
      </trkpt>
      <trkpt lat="45.41616" lon="4.61956">
        <ele>1040</ele>
        <time>2021-05-14T15:10:53Z</time>
      </trkpt>
      <trkpt lat="45.41613" lon="4.61958">
        <ele>1040</ele>
        <time>2021-05-14T15:10:56Z</time>
      </trkpt>
      <trkpt lat="45.4161" lon="4.61962">
        <ele>1040</ele>
        <time>2021-05-14T15:11:00Z</time>
      </trkpt>
      <trkpt lat="45.41605" lon="4.61963">
        <ele>1040</ele>
        <time>2021-05-14T15:11:04Z</time>
      </trkpt>
      <trkpt lat="45.41601" lon="4.61965">
        <ele>1040</ele>
        <time>2021-05-14T15:11:07Z</time>
      </trkpt>
      <trkpt lat="45.41598" lon="4.61968">
        <ele>1041</ele>
        <time>2021-05-14T15:11:10Z</time>
      </trkpt>
      <trkpt lat="45.41594" lon="4.6197">
        <ele>1041</ele>
        <time>2021-05-14T15:11:13Z</time>
      </trkpt>
      <trkpt lat="45.41591" lon="4.61971">
        <ele>1041</ele>
        <time>2021-05-14T15:11:15Z</time>
      </trkpt>
      <trkpt lat="45.41586" lon="4.61972">
        <ele>1041</ele>
        <time>2021-05-14T15:11:17Z</time>
      </trkpt>
      <trkpt lat="45.41581" lon="4.61973">
        <ele>1042</ele>
        <time>2021-05-14T15:11:21Z</time>
      </trkpt>
      <trkpt lat="45.41577" lon="4.61974">
        <ele>1043</ele>
        <time>2021-05-14T15:11:24Z</time>
      </trkpt>
      <trkpt lat="45.41573" lon="4.61976">
        <ele>1043</ele>
        <time>2021-05-14T15:11:27Z</time>
      </trkpt>
      <trkpt lat="45.41569" lon="4.61977">
        <ele>1043</ele>
        <time>2021-05-14T15:11:29Z</time>
      </trkpt>
      <trkpt lat="45.41565" lon="4.6198">
        <ele>1043</ele>
        <time>2021-05-14T15:11:32Z</time>
      </trkpt>
      <trkpt lat="45.41561" lon="4.61983">
        <ele>1043</ele>
        <time>2021-05-14T15:11:36Z</time>
      </trkpt>
      <trkpt lat="45.41556" lon="4.61986">
        <ele>1043</ele>
        <time>2021-05-14T15:11:39Z</time>
      </trkpt>
      <trkpt lat="45.41553" lon="4.6199">
        <ele>1043</ele>
        <time>2021-05-14T15:11:42Z</time>
      </trkpt>
      <trkpt lat="45.4155" lon="4.61993">
        <ele>1044</ele>
        <time>2021-05-14T15:11:44Z</time>
      </trkpt>
      <trkpt lat="45.41547" lon="4.61997">
        <ele>1044</ele>
        <time>2021-05-14T15:11:46Z</time>
      </trkpt>
      <trkpt lat="45.41544" lon="4.62">
        <ele>1044</ele>
        <time>2021-05-14T15:11:48Z</time>
      </trkpt>
      <trkpt lat="45.41541" lon="4.62004">
        <ele>1044</ele>
        <time>2021-05-14T15:11:51Z</time>
      </trkpt>
      <trkpt lat="45.41537" lon="4.62011">
        <ele>1044</ele>
        <time>2021-05-14T15:11:54Z</time>
      </trkpt>
      <trkpt lat="45.41534" lon="4.62015">
        <ele>1044</ele>
        <time>2021-05-14T15:11:56Z</time>
      </trkpt>
      <trkpt lat="45.41531" lon="4.62018">
        <ele>1044</ele>
        <time>2021-05-14T15:11:58Z</time>
      </trkpt>
      <trkpt lat="45.41528" lon="4.62022">
        <ele>1045</ele>
        <time>2021-05-14T15:12:00Z</time>
      </trkpt>
      <trkpt lat="45.41524" lon="4.62027">
        <ele>1045</ele>
        <time>2021-05-14T15:12:02Z</time>
      </trkpt>
      <trkpt lat="45.4152" lon="4.62033">
        <ele>1045</ele>
        <time>2021-05-14T15:12:04Z</time>
      </trkpt>
      <trkpt lat="45.41517" lon="4.62039">
        <ele>1045</ele>
        <time>2021-05-14T15:12:06Z</time>
      </trkpt>
      <trkpt lat="45.41514" lon="4.62045">
        <ele>1046</ele>
        <time>2021-05-14T15:12:07Z</time>
      </trkpt>
      <trkpt lat="45.4151" lon="4.6205">
        <ele>1045</ele>
        <time>2021-05-14T15:12:10Z</time>
      </trkpt>
      <trkpt lat="45.41507" lon="4.62055">
        <ele>1044</ele>
        <time>2021-05-14T15:12:12Z</time>
      </trkpt>
      <trkpt lat="45.41502" lon="4.62063">
        <ele>1045</ele>
        <time>2021-05-14T15:12:14Z</time>
      </trkpt>
      <trkpt lat="45.41498" lon="4.62068">
        <ele>1045</ele>
        <time>2021-05-14T15:12:16Z</time>
      </trkpt>
      <trkpt lat="45.41494" lon="4.62074">
        <ele>1045</ele>
        <time>2021-05-14T15:12:18Z</time>
      </trkpt>
      <trkpt lat="45.41491" lon="4.62081">
        <ele>1045</ele>
        <time>2021-05-14T15:12:20Z</time>
      </trkpt>
      <trkpt lat="45.41487" lon="4.62087">
        <ele>1045</ele>
        <time>2021-05-14T15:12:22Z</time>
      </trkpt>
      <trkpt lat="45.41484" lon="4.62091">
        <ele>1045</ele>
        <time>2021-05-14T15:12:24Z</time>
      </trkpt>
      <trkpt lat="45.4148" lon="4.62094">
        <ele>1045</ele>
        <time>2021-05-14T15:12:26Z</time>
      </trkpt>
      <trkpt lat="45.41477" lon="4.62098">
        <ele>1045</ele>
        <time>2021-05-14T15:12:28Z</time>
      </trkpt>
      <trkpt lat="45.41474" lon="4.62101">
        <ele>1045</ele>
        <time>2021-05-14T15:12:30Z</time>
      </trkpt>
      <trkpt lat="45.41469" lon="4.62103">
        <ele>1046</ele>
        <time>2021-05-14T15:12:32Z</time>
      </trkpt>
      <trkpt lat="45.41465" lon="4.62107">
        <ele>1046</ele>
        <time>2021-05-14T15:12:35Z</time>
      </trkpt>
      <trkpt lat="45.41461" lon="4.62109">
        <ele>1046</ele>
        <time>2021-05-14T15:12:37Z</time>
      </trkpt>
      <trkpt lat="45.41457" lon="4.62111">
        <ele>1046</ele>
        <time>2021-05-14T15:12:39Z</time>
      </trkpt>
      <trkpt lat="45.41452" lon="4.62114">
        <ele>1046</ele>
        <time>2021-05-14T15:12:42Z</time>
      </trkpt>
      <trkpt lat="45.41448" lon="4.62117">
        <ele>1047</ele>
        <time>2021-05-14T15:12:44Z</time>
      </trkpt>
      <trkpt lat="45.41445" lon="4.62119">
        <ele>1047</ele>
        <time>2021-05-14T15:12:46Z</time>
      </trkpt>
      <trkpt lat="45.4144" lon="4.62121">
        <ele>1048</ele>
        <time>2021-05-14T15:12:48Z</time>
      </trkpt>
      <trkpt lat="45.41437" lon="4.62122">
        <ele>1048</ele>
        <time>2021-05-14T15:12:50Z</time>
      </trkpt>
      <trkpt lat="45.41432" lon="4.62124">
        <ele>1048</ele>
        <time>2021-05-14T15:12:53Z</time>
      </trkpt>
      <trkpt lat="45.41428" lon="4.62126">
        <ele>1048</ele>
        <time>2021-05-14T15:12:57Z</time>
      </trkpt>
      <trkpt lat="45.41424" lon="4.62128">
        <ele>1048</ele>
        <time>2021-05-14T15:13:02Z</time>
      </trkpt>
      <trkpt lat="45.41421" lon="4.62131">
        <ele>1048</ele>
        <time>2021-05-14T15:13:08Z</time>
      </trkpt>
      <trkpt lat="45.41418" lon="4.62136">
        <ele>1048</ele>
        <time>2021-05-14T15:13:11Z</time>
      </trkpt>
      <trkpt lat="45.41413" lon="4.62137">
        <ele>1048</ele>
        <time>2021-05-14T15:13:14Z</time>
      </trkpt>
      <trkpt lat="45.4141" lon="4.62139">
        <ele>1048</ele>
        <time>2021-05-14T15:13:17Z</time>
      </trkpt>
      <trkpt lat="45.41405" lon="4.62142">
        <ele>1048</ele>
        <time>2021-05-14T15:13:21Z</time>
      </trkpt>
      <trkpt lat="45.41402" lon="4.62144">
        <ele>1048</ele>
        <time>2021-05-14T15:13:23Z</time>
      </trkpt>
      <trkpt lat="45.41398" lon="4.62146">
        <ele>1049</ele>
        <time>2021-05-14T15:13:26Z</time>
      </trkpt>
      <trkpt lat="45.41394" lon="4.62149">
        <ele>1049</ele>
        <time>2021-05-14T15:13:30Z</time>
      </trkpt>
      <trkpt lat="45.4139" lon="4.62152">
        <ele>1049</ele>
        <time>2021-05-14T15:13:33Z</time>
      </trkpt>
      <trkpt lat="45.41387" lon="4.62153">
        <ele>1049</ele>
        <time>2021-05-14T15:13:35Z</time>
      </trkpt>
      <trkpt lat="45.41382" lon="4.62157">
        <ele>1049</ele>
        <time>2021-05-14T15:13:38Z</time>
      </trkpt>
      <trkpt lat="45.41377" lon="4.62159">
        <ele>1050</ele>
        <time>2021-05-14T15:13:41Z</time>
      </trkpt>
      <trkpt lat="45.41373" lon="4.62163">
        <ele>1050</ele>
        <time>2021-05-14T15:13:44Z</time>
      </trkpt>
      <trkpt lat="45.41369" lon="4.62167">
        <ele>1050</ele>
        <time>2021-05-14T15:13:47Z</time>
      </trkpt>
      <trkpt lat="45.41366" lon="4.62172">
        <ele>1050</ele>
        <time>2021-05-14T15:13:50Z</time>
      </trkpt>
      <trkpt lat="45.41361" lon="4.62176">
        <ele>1050</ele>
        <time>2021-05-14T15:13:53Z</time>
      </trkpt>
      <trkpt lat="45.41358" lon="4.62181">
        <ele>1050</ele>
        <time>2021-05-14T15:13:56Z</time>
      </trkpt>
      <trkpt lat="45.41355" lon="4.62185">
        <ele>1050</ele>
        <time>2021-05-14T15:13:59Z</time>
      </trkpt>
      <trkpt lat="45.41352" lon="4.62188">
        <ele>1050</ele>
        <time>2021-05-14T15:14:02Z</time>
      </trkpt>
      <trkpt lat="45.41351" lon="4.62194">
        <ele>1051</ele>
        <time>2021-05-14T15:14:05Z</time>
      </trkpt>
      <trkpt lat="45.41348" lon="4.62197">
        <ele>1052</ele>
        <time>2021-05-14T15:14:11Z</time>
      </trkpt>
      <trkpt lat="45.41345" lon="4.62201">
        <ele>1052</ele>
        <time>2021-05-14T15:14:13Z</time>
      </trkpt>
      <trkpt lat="45.41341" lon="4.62207">
        <ele>1052</ele>
        <time>2021-05-14T15:14:15Z</time>
      </trkpt>
      <trkpt lat="45.41337" lon="4.62212">
        <ele>1051</ele>
        <time>2021-05-14T15:14:17Z</time>
      </trkpt>
      <trkpt lat="45.41333" lon="4.62217">
        <ele>1051</ele>
        <time>2021-05-14T15:14:19Z</time>
      </trkpt>
      <trkpt lat="45.4133" lon="4.62222">
        <ele>1051</ele>
        <time>2021-05-14T15:14:21Z</time>
      </trkpt>
      <trkpt lat="45.41327" lon="4.62229">
        <ele>1052</ele>
        <time>2021-05-14T15:14:23Z</time>
      </trkpt>
      <trkpt lat="45.41324" lon="4.62235">
        <ele>1052</ele>
        <time>2021-05-14T15:14:25Z</time>
      </trkpt>
      <trkpt lat="45.41322" lon="4.62242">
        <ele>1052</ele>
        <time>2021-05-14T15:14:27Z</time>
      </trkpt>
      <trkpt lat="45.41319" lon="4.62249">
        <ele>1052</ele>
        <time>2021-05-14T15:14:29Z</time>
      </trkpt>
      <trkpt lat="45.41315" lon="4.62253">
        <ele>1052</ele>
        <time>2021-05-14T15:14:31Z</time>
      </trkpt>
      <trkpt lat="45.41309" lon="4.62255">
        <ele>1053</ele>
        <time>2021-05-14T15:14:33Z</time>
      </trkpt>
      <trkpt lat="45.41306" lon="4.6226">
        <ele>1053</ele>
        <time>2021-05-14T15:14:35Z</time>
      </trkpt>
      <trkpt lat="45.41302" lon="4.62264">
        <ele>1053</ele>
        <time>2021-05-14T15:14:37Z</time>
      </trkpt>
      <trkpt lat="45.41299" lon="4.62269">
        <ele>1053</ele>
        <time>2021-05-14T15:14:39Z</time>
      </trkpt>
      <trkpt lat="45.41297" lon="4.62273">
        <ele>1053</ele>
        <time>2021-05-14T15:14:41Z</time>
      </trkpt>
      <trkpt lat="45.41293" lon="4.62276">
        <ele>1053</ele>
        <time>2021-05-14T15:14:43Z</time>
      </trkpt>
      <trkpt lat="45.41288" lon="4.62278">
        <ele>1053</ele>
        <time>2021-05-14T15:14:45Z</time>
      </trkpt>
      <trkpt lat="45.41284" lon="4.62283">
        <ele>1053</ele>
        <time>2021-05-14T15:14:47Z</time>
      </trkpt>
      <trkpt lat="45.4128" lon="4.62287">
        <ele>1053</ele>
        <time>2021-05-14T15:14:49Z</time>
      </trkpt>
      <trkpt lat="45.41276" lon="4.6229">
        <ele>1053</ele>
        <time>2021-05-14T15:14:51Z</time>
      </trkpt>
      <trkpt lat="45.41271" lon="4.62294">
        <ele>1054</ele>
        <time>2021-05-14T15:14:53Z</time>
      </trkpt>
      <trkpt lat="45.41266" lon="4.62297">
        <ele>1053</ele>
        <time>2021-05-14T15:14:55Z</time>
      </trkpt>
      <trkpt lat="45.41262" lon="4.62301">
        <ele>1054</ele>
        <time>2021-05-14T15:14:57Z</time>
      </trkpt>
      <trkpt lat="45.41258" lon="4.62305">
        <ele>1054</ele>
        <time>2021-05-14T15:14:59Z</time>
      </trkpt>
      <trkpt lat="45.41254" lon="4.62309">
        <ele>1054</ele>
        <time>2021-05-14T15:15:01Z</time>
      </trkpt>
      <trkpt lat="45.41251" lon="4.62313">
        <ele>1054</ele>
        <time>2021-05-14T15:15:03Z</time>
      </trkpt>
      <trkpt lat="45.4125" lon="4.6232">
        <ele>1053</ele>
        <time>2021-05-14T15:15:05Z</time>
      </trkpt>
      <trkpt lat="45.4125" lon="4.62326">
        <ele>1053</ele>
        <time>2021-05-14T15:15:07Z</time>
      </trkpt>
      <trkpt lat="45.41253" lon="4.62331">
        <ele>1054</ele>
        <time>2021-05-14T15:15:09Z</time>
      </trkpt>
      <trkpt lat="45.41256" lon="4.62336">
        <ele>1054</ele>
        <time>2021-05-14T15:15:11Z</time>
      </trkpt>
      <trkpt lat="45.41259" lon="4.62341">
        <ele>1053</ele>
        <time>2021-05-14T15:15:13Z</time>
      </trkpt>
      <trkpt lat="45.41262" lon="4.62347">
        <ele>1051</ele>
        <time>2021-05-14T15:15:15Z</time>
      </trkpt>
      <trkpt lat="45.41266" lon="4.62355">
        <ele>1050</ele>
        <time>2021-05-14T15:15:18Z</time>
      </trkpt>
      <trkpt lat="45.4127" lon="4.6236">
        <ele>1050</ele>
        <time>2021-05-14T15:15:20Z</time>
      </trkpt>
      <trkpt lat="45.41273" lon="4.62365">
        <ele>1050</ele>
        <time>2021-05-14T15:15:22Z</time>
      </trkpt>
      <trkpt lat="45.41277" lon="4.6237">
        <ele>1050</ele>
        <time>2021-05-14T15:15:24Z</time>
      </trkpt>
      <trkpt lat="45.4128" lon="4.62375">
        <ele>1050</ele>
        <time>2021-05-14T15:15:26Z</time>
      </trkpt>
      <trkpt lat="45.41281" lon="4.6238">
        <ele>1049</ele>
        <time>2021-05-14T15:15:28Z</time>
      </trkpt>
      <trkpt lat="45.41281" lon="4.62381">
        <ele>1049</ele>
        <time>2021-05-14T15:15:29Z</time>
      </trkpt>
    </trkseg>
  </trk>
</gpx>